<?xml version='1.0' encoding='UTF-8'?><gpx version="1.1" creator="JPX - https://github.com/jenetics/jpx" xmlns="http://www.topografix.com/GPX/1/1"><trk><trkseg><trkpt lat="42.5435885386747" lon="12.038641914118184"><ele>530.0</ele><time>2026-04-25T07:32:05.181Z</time></trkpt><trkpt lat="42.54363444101177" lon="12.038574869765784"><ele>530.0</ele><time>2026-04-25T07:32:06.165Z</time></trkpt><trkpt lat="42.543636157092706" lon="12.038432981272427"><ele>530.0</ele><time>2026-04-25T07:32:08.165Z</time></trkpt><trkpt lat="42.543605742011245" lon="12.038357908450656"><ele>530.0</ele><time>2026-04-25T07:32:11.169Z</time></trkpt><trkpt lat="42.54353595541658" lon="12.038291316071252"><ele>530.0</ele><time>2026-04-25T07:32:14.169Z</time></trkpt><trkpt lat="42.54347975547405" lon="12.038245769726215"><ele>530.0</ele><time>2026-04-25T07:32:16.069Z</time></trkpt><trkpt lat="42.54341805259428" lon="12.038189533304731"><ele>530.6666666666666</ele><time>2026-04-25T07:32:18.96Z</time></trkpt><trkpt lat="42.54335936524431" lon="12.038139458466736"><ele>531.3333333333333</ele><time>2026-04-25T07:32:21.968Z</time></trkpt><trkpt lat="42.543309459065576" lon="12.038073927631295"><ele>532.0</ele><time>2026-04-25T07:32:24.974Z</time></trkpt><trkpt lat="42.543260524198054" lon="12.03798631837502"><ele>532.6666666666666</ele><time>2026-04-25T07:32:27.979Z</time></trkpt><trkpt lat="42.54325288301504" lon="12.037873743334583"><ele>533.3333333333334</ele><time>2026-04-25T07:32:30.983Z</time></trkpt><trkpt lat="42.54322312619238" lon="12.037758437842893"><ele>534.0</ele><time>2026-04-25T07:32:33.986Z</time></trkpt><trkpt lat="42.543172168989855" lon="12.037694157737562"><ele>534.0000000000001</ele><time>2026-04-25T07:32:35.988Z</time></trkpt><trkpt lat="42.54312652945916" lon="12.037620307711293"><ele>534.0</ele><time>2026-04-25T07:32:37.99Z</time></trkpt><trkpt lat="42.54307912932915" lon="12.037528235402817"><ele>534.0</ele><time>2026-04-25T07:32:43.993Z</time></trkpt><trkpt lat="42.54305680115549" lon="12.037442388509547"><ele>534.0</ele><time>2026-04-25T07:32:47.995Z</time></trkpt><trkpt lat="42.54301264349247" lon="12.037363006530233"><ele>534.0</ele><time>2026-04-25T07:32:51.997Z</time></trkpt><trkpt lat="42.542971757498584" lon="12.037286783927803"><ele>534.0000000000001</ele><time>2026-04-25T07:32:55.998Z</time></trkpt><trkpt lat="42.54292721598106" lon="12.037219088221129"><ele>534.0</ele><time>2026-04-25T07:32:59.999Z</time></trkpt><trkpt lat="42.54289422635536" lon="12.037138554477192"><ele>534.0</ele><time>2026-04-25T07:33:02.999Z</time></trkpt><trkpt lat="42.542837896135346" lon="12.037040880146193"><ele>534.0</ele><time>2026-04-25T07:33:05.999Z</time></trkpt><trkpt lat="42.54278552013406" lon="12.036948851076978"><ele>534.0</ele><time>2026-04-25T07:33:10Z</time></trkpt><trkpt lat="42.54273902450852" lon="12.036875044937938"><ele>534.0</ele><time>2026-04-25T07:33:13Z</time></trkpt><trkpt lat="42.54269501411466" lon="12.036798584706403"><ele>534.0</ele><time>2026-04-25T07:33:16Z</time></trkpt><trkpt lat="42.54263288859804" lon="12.036716789676657"><ele>534.0</ele><time>2026-04-25T07:33:19Z</time></trkpt><trkpt lat="42.542589630032346" lon="12.03665457332214"><ele>534.5</ele><time>2026-04-25T07:33:22.001Z</time></trkpt><trkpt lat="42.54252906936952" lon="12.036586306149731"><ele>535.0</ele><time>2026-04-25T07:33:24.001Z</time></trkpt><trkpt lat="42.54249126214561" lon="12.036509502280431"><ele>535.5</ele><time>2026-04-25T07:33:26.001Z</time></trkpt><trkpt lat="42.542507278198734" lon="12.036404309409615"><ele>536.0</ele><time>2026-04-25T07:33:29.001Z</time></trkpt><trkpt lat="42.542556710815674" lon="12.036298288472114"><ele>536.5</ele><time>2026-04-25T07:33:32.001Z</time></trkpt><trkpt lat="42.54260544986141" lon="12.036208255395769"><ele>537.0</ele><time>2026-04-25T07:33:35.001Z</time></trkpt><trkpt lat="42.542665149015086" lon="12.036180179870371"><ele>536.9999999999999</ele><time>2026-04-25T07:33:38.001Z</time></trkpt><trkpt lat="42.54271353400438" lon="12.036105241803037"><ele>537.0</ele><time>2026-04-25T07:33:42.001Z</time></trkpt><trkpt lat="42.54276595929333" lon="12.03604134564867"><ele>537.0</ele><time>2026-04-25T07:33:45.001Z</time></trkpt><trkpt lat="42.5428413847706" lon="12.035985128287061"><ele>537.0</ele><time>2026-04-25T07:33:48.001Z</time></trkpt><trkpt lat="42.54289857517081" lon="12.03593659190475"><ele>537.0</ele><time>2026-04-25T07:33:52.001Z</time></trkpt><trkpt lat="42.542948691840444" lon="12.03588374977606"><ele>536.9999999999999</ele><time>2026-04-25T07:33:55.001Z</time></trkpt><trkpt lat="42.54298969752536" lon="12.035812896804964"><ele>537.0</ele><time>2026-04-25T07:33:58.001Z</time></trkpt><trkpt lat="42.54300649188436" lon="12.035710951272767"><ele>537.9999999999999</ele><time>2026-04-25T07:34:02.001Z</time></trkpt><trkpt lat="42.543035360769984" lon="12.03563299059714"><ele>539.0</ele><time>2026-04-25T07:34:06.001Z</time></trkpt><trkpt lat="42.543084248482174" lon="12.035565815513012"><ele>540.0</ele><time>2026-04-25T07:34:09.001Z</time></trkpt><trkpt lat="42.543154099574465" lon="12.035529787664343"><ele>541.0</ele><time>2026-04-25T07:34:11.001Z</time></trkpt><trkpt lat="42.54322091954561" lon="12.035521066179871"><ele>542.0</ele><time>2026-04-25T07:34:13.001Z</time></trkpt><trkpt lat="42.543294276775704" lon="12.035519674138738"><ele>542.9999999999999</ele><time>2026-04-25T07:34:15.001Z</time></trkpt><trkpt lat="42.543365019231935" lon="12.035508740445968"><ele>544.0</ele><time>2026-04-25T07:34:17.003Z</time></trkpt><trkpt lat="42.54343564850651" lon="12.035510282403967"><ele>543.9999999999999</ele><time>2026-04-25T07:34:19.003Z</time></trkpt><trkpt lat="42.543500121413146" lon="12.03551295461389"><ele>544.0</ele><time>2026-04-25T07:34:21.003Z</time></trkpt><trkpt lat="42.543559795872646" lon="12.035483440908715"><ele>544.0</ele><time>2026-04-25T07:34:23.003Z</time></trkpt><trkpt lat="42.54362323529702" lon="12.035443649588633"><ele>544.0</ele><time>2026-04-25T07:34:25.002Z</time></trkpt><trkpt lat="42.54369439556557" lon="12.035428818442908"><ele>544.0</ele><time>2026-04-25T07:34:27.002Z</time></trkpt><trkpt lat="42.54375768579357" lon="12.035415379440067"><ele>543.9999999999999</ele><time>2026-04-25T07:34:29.002Z</time></trkpt><trkpt lat="42.54383422261651" lon="12.035393553538714"><ele>544.0</ele><time>2026-04-25T07:34:31.002Z</time></trkpt><trkpt lat="42.543904192680834" lon="12.035381281867597"><ele>543.6666666666667</ele><time>2026-04-25T07:34:33.001Z</time></trkpt><trkpt lat="42.54396623103911" lon="12.035356115327607"><ele>543.3333333333334</ele><time>2026-04-25T07:34:35.001Z</time></trkpt><trkpt lat="42.54405312770164" lon="12.035318935504169"><ele>543.0</ele><time>2026-04-25T07:34:37.001Z</time></trkpt><trkpt lat="42.544105157847476" lon="12.035269852151325"><ele>542.6666666666666</ele><time>2026-04-25T07:34:39.001Z</time></trkpt><trkpt lat="42.54417898632607" lon="12.035249668124868"><ele>542.3333333333333</ele><time>2026-04-25T07:34:41.001Z</time></trkpt><trkpt lat="42.54424716916848" lon="12.035228474780938"><ele>542.0</ele><time>2026-04-25T07:34:43.001Z</time></trkpt><trkpt lat="42.544341338359835" lon="12.035204574223949"><ele>542.0</ele><time>2026-04-25T07:34:46Z</time></trkpt><trkpt lat="42.54440623998238" lon="12.03519183007255"><ele>542.0</ele><time>2026-04-25T07:34:48Z</time></trkpt><trkpt lat="42.54448995790373" lon="12.03516042247535"><ele>542.0</ele><time>2026-04-25T07:34:51Z</time></trkpt><trkpt lat="42.54458258955375" lon="12.035138071997142"><ele>542.0</ele><time>2026-04-25T07:34:54Z</time></trkpt><trkpt lat="42.544665733971826" lon="12.035144914469004"><ele>542.0</ele><time>2026-04-25T07:34:57Z</time></trkpt><trkpt lat="42.54476425235649" lon="12.035162985527055"><ele>542.0</ele><time>2026-04-25T07:35:00Z</time></trkpt><trkpt lat="42.54484093825769" lon="12.035126367200464"><ele>542.7142857142857</ele><time>2026-04-25T07:35:03Z</time></trkpt><trkpt lat="42.54490594385969" lon="12.0350931418338"><ele>543.4285714285714</ele><time>2026-04-25T07:35:06Z</time></trkpt><trkpt lat="42.544978513975146" lon="12.03506676877533"><ele>544.1428571428571</ele><time>2026-04-25T07:35:10Z</time></trkpt><trkpt lat="42.54504981457613" lon="12.03503829197856"><ele>544.8571428571429</ele><time>2026-04-25T07:35:14Z</time></trkpt><trkpt lat="42.54511806950006" lon="12.03500275525163"><ele>545.5714285714286</ele><time>2026-04-25T07:35:18Z</time></trkpt><trkpt lat="42.545198149386245" lon="12.034978186788527"><ele>546.2857142857142</ele><time>2026-04-25T07:35:23Z</time></trkpt><trkpt lat="42.54526909141002" lon="12.034957811743647"><ele>547.0</ele><time>2026-04-25T07:35:27.999Z</time></trkpt><trkpt lat="42.545335641063836" lon="12.034938274147258"><ele>548.5714285714286</ele><time>2026-04-25T07:35:31.999Z</time></trkpt><trkpt lat="42.54540809045006" lon="12.034918726309584"><ele>550.1428571428571</ele><time>2026-04-25T07:35:35.999Z</time></trkpt><trkpt lat="42.545472289015095" lon="12.034887754525565"><ele>551.7142857142857</ele><time>2026-04-25T07:35:39.999Z</time></trkpt><trkpt lat="42.545533579374684" lon="12.03485422225549"><ele>553.2857142857142</ele><time>2026-04-25T07:35:43.999Z</time></trkpt><trkpt lat="42.54560755853813" lon="12.034818704555162"><ele>554.8571428571429</ele><time>2026-04-25T07:35:48.999Z</time></trkpt><trkpt lat="42.54567913637631" lon="12.034784040379915"><ele>556.4285714285713</ele><time>2026-04-25T07:35:53.999Z</time></trkpt><trkpt lat="42.54574800190112" lon="12.034736157620133"><ele>558.0</ele><time>2026-04-25T07:35:58.999Z</time></trkpt><trkpt lat="42.54580886966717" lon="12.03469664211693"><ele>558.0</ele><time>2026-04-25T07:36:02.999Z</time></trkpt><trkpt lat="42.54588242759174" lon="12.034680319723941"><ele>558.0</ele><time>2026-04-25T07:36:06.999Z</time></trkpt><trkpt lat="42.54595767318847" lon="12.034647016695619"><ele>558.0</ele><time>2026-04-25T07:36:10.999Z</time></trkpt><trkpt lat="42.54603499535101" lon="12.034603915134712"><ele>558.0</ele><time>2026-04-25T07:36:14.999Z</time></trkpt><trkpt lat="42.54610780781052" lon="12.034575615442327"><ele>558.0</ele><time>2026-04-25T07:36:17.999Z</time></trkpt><trkpt lat="42.546183350706876" lon="12.034539697473784"><ele>558.0</ele><time>2026-04-25T07:36:20.999Z</time></trkpt><trkpt lat="42.54625247446475" lon="12.034514020729675"><ele>557.3333333333334</ele><time>2026-04-25T07:36:24.001Z</time></trkpt><trkpt lat="42.546334216984484" lon="12.03449883167182"><ele>556.6666666666666</ele><time>2026-04-25T07:36:27.001Z</time></trkpt><trkpt lat="42.546417288268955" lon="12.034479852375163"><ele>556.0</ele><time>2026-04-25T07:36:30.001Z</time></trkpt><trkpt lat="42.54649599131815" lon="12.034451948173393"><ele>555.3333333333333</ele><time>2026-04-25T07:36:33.001Z</time></trkpt><trkpt lat="42.546578674409005" lon="12.03442339218064"><ele>554.6666666666666</ele><time>2026-04-25T07:36:36.001Z</time></trkpt><trkpt lat="42.546667208535915" lon="12.034388379241086"><ele>554.0</ele><time>2026-04-25T07:36:39.001Z</time></trkpt><trkpt lat="42.546744928892764" lon="12.03434322553792"><ele>554.0</ele><time>2026-04-25T07:36:42.001Z</time></trkpt><trkpt lat="42.546817253703786" lon="12.034283109985155"><ele>554.0</ele><time>2026-04-25T07:36:45Z</time></trkpt><trkpt lat="42.546880834085194" lon="12.034258909181604"><ele>554.0</ele><time>2026-04-25T07:36:47Z</time></trkpt><trkpt lat="42.54695899807947" lon="12.03419867751863"><ele>554.0</ele><time>2026-04-25T07:36:50Z</time></trkpt><trkpt lat="42.54703656883822" lon="12.034139454311441"><ele>554.0</ele><time>2026-04-25T07:36:53Z</time></trkpt><trkpt lat="42.5471115395961" lon="12.034095260206874"><ele>554.0</ele><time>2026-04-25T07:36:56Z</time></trkpt><trkpt lat="42.54719365622587" lon="12.034036832523553"><ele>554.5</ele><time>2026-04-25T07:36:59Z</time></trkpt><trkpt lat="42.5472596189856" lon="12.033971652688942"><ele>555.0</ele><time>2026-04-25T07:37:02Z</time></trkpt><trkpt lat="42.547320901915505" lon="12.033896354797992"><ele>555.5</ele><time>2026-04-25T07:37:05Z</time></trkpt><trkpt lat="42.54739559418999" lon="12.033835870571451"><ele>556.0</ele><time>2026-04-25T07:37:08Z</time></trkpt><trkpt lat="42.54745213928857" lon="12.033790620089029"><ele>556.5</ele><time>2026-04-25T07:37:10Z</time></trkpt><trkpt lat="42.547521604867576" lon="12.033740380801364"><ele>557.0</ele><time>2026-04-25T07:37:13Z</time></trkpt><trkpt lat="42.547597681701426" lon="12.03366824891373"><ele>557.0</ele><time>2026-04-25T07:37:16Z</time></trkpt><trkpt lat="42.54766262122179" lon="12.033598940989599"><ele>557.0</ele><time>2026-04-25T07:37:18.999Z</time></trkpt><trkpt lat="42.54771573612269" lon="12.033544951638081"><ele>557.0</ele><time>2026-04-25T07:37:20.999Z</time></trkpt><trkpt lat="42.5477887984289" lon="12.033466359631706"><ele>557.0</ele><time>2026-04-25T07:37:23.999Z</time></trkpt><trkpt lat="42.547852195278615" lon="12.033440002177436"><ele>557.0</ele><time>2026-04-25T07:37:25.999Z</time></trkpt><trkpt lat="42.547930893332435" lon="12.033355385779396"><ele>557.0</ele><time>2026-04-25T07:37:28.999Z</time></trkpt><trkpt lat="42.547987327053875" lon="12.033297866367286"><ele>556.8000000000001</ele><time>2026-04-25T07:37:30.999Z</time></trkpt><trkpt lat="42.548048932012506" lon="12.033220636336075"><ele>556.6</ele><time>2026-04-25T07:37:32.999Z</time></trkpt><trkpt lat="42.54811924451741" lon="12.03312368218617"><ele>556.4000000000001</ele><time>2026-04-25T07:37:34.999Z</time></trkpt><trkpt lat="42.548194271804256" lon="12.033007190459616"><ele>556.2</ele><time>2026-04-25T07:37:36.999Z</time></trkpt><trkpt lat="42.54828047299884" lon="12.032872865811703"><ele>556.0</ele><time>2026-04-25T07:37:38.999Z</time></trkpt><trkpt lat="42.54831540123649" lon="12.032793979336141"><ele>556.0</ele><time>2026-04-25T07:37:39.999Z</time></trkpt><trkpt lat="42.54837474055426" lon="12.032708390083561"><ele>556.0</ele><time>2026-04-25T07:37:40.999Z</time></trkpt><trkpt lat="42.548439388178444" lon="12.032632715366834"><ele>556.0</ele><time>2026-04-25T07:37:41.999Z</time></trkpt><trkpt lat="42.548492746871815" lon="12.03255038078229"><ele>556.0</ele><time>2026-04-25T07:37:42.999Z</time></trkpt><trkpt lat="42.54854308170254" lon="12.03244949604867"><ele>556.0</ele><time>2026-04-25T07:37:43.999Z</time></trkpt><trkpt lat="42.54858685551213" lon="12.032359232558257"><ele>556.0</ele><time>2026-04-25T07:37:44.999Z</time></trkpt><trkpt lat="42.54863474273042" lon="12.032258272206228"><ele>555.6666666666667</ele><time>2026-04-25T07:37:45.999Z</time></trkpt><trkpt lat="42.54868273369049" lon="12.032169847129456"><ele>555.3333333333334</ele><time>2026-04-25T07:37:46.999Z</time></trkpt><trkpt lat="42.54873554001519" lon="12.032069698878711"><ele>555.0</ele><time>2026-04-25T07:37:47.999Z</time></trkpt><trkpt lat="42.548782596471455" lon="12.031968746338878"><ele>554.6666666666666</ele><time>2026-04-25T07:37:48.999Z</time></trkpt><trkpt lat="42.54881783179338" lon="12.031849490134645"><ele>554.3333333333333</ele><time>2026-04-25T07:37:49.999Z</time></trkpt><trkpt lat="42.54884825163549" lon="12.03174291000101"><ele>554.0</ele><time>2026-04-25T07:37:50.999Z</time></trkpt><trkpt lat="42.54887528703482" lon="12.031634540202509"><ele>550.6</ele><time>2026-04-25T07:37:51.999Z</time></trkpt><trkpt lat="42.548919325547836" lon="12.031520240139129"><ele>547.2</ele><time>2026-04-25T07:37:52.999Z</time></trkpt><trkpt lat="42.548961608345344" lon="12.031397804249506"><ele>543.8000000000001</ele><time>2026-04-25T07:37:53.999Z</time></trkpt><trkpt lat="42.54899344910048" lon="12.031262776977673"><ele>540.4</ele><time>2026-04-25T07:37:54.999Z</time></trkpt><trkpt lat="42.54900715518548" lon="12.031133968561987"><ele>537.0</ele><time>2026-04-25T07:37:55.999Z</time></trkpt><trkpt lat="42.5490174848987" lon="12.031009475648043"><ele>537.0</ele><time>2026-04-25T07:37:56.999Z</time></trkpt><trkpt lat="42.54902332802279" lon="12.030883979059428"><ele>537.0</ele><time>2026-04-25T07:37:57.999Z</time></trkpt><trkpt lat="42.54901508264243" lon="12.030753488567353"><ele>537.0</ele><time>2026-04-25T07:37:58.999Z</time></trkpt><trkpt lat="42.54900031680391" lon="12.030631432422254"><ele>537.0</ele><time>2026-04-25T07:37:59.999Z</time></trkpt><trkpt lat="42.54897933318814" lon="12.030513539321042"><ele>537.0</ele><time>2026-04-25T07:38:00.999Z</time></trkpt><trkpt lat="42.54897002229428" lon="12.030410745720628"><ele>537.0</ele><time>2026-04-25T07:38:01.999Z</time></trkpt><trkpt lat="42.54896757776521" lon="12.030312679737444"><ele>536.3333333333334</ele><time>2026-04-25T07:38:02.999Z</time></trkpt><trkpt lat="42.54896518990235" lon="12.030221525936303"><ele>535.6666666666666</ele><time>2026-04-25T07:38:03.999Z</time></trkpt><trkpt lat="42.548961638579506" lon="12.030133908692044"><ele>535.0</ele><time>2026-04-25T07:38:04.999Z</time></trkpt><trkpt lat="42.548967385566534" lon="12.030013148766129"><ele>534.3333333333333</ele><time>2026-04-25T07:38:06.999Z</time></trkpt><trkpt lat="42.54897395741843" lon="12.02989228452109"><ele>533.6666666666666</ele><time>2026-04-25T07:38:08.999Z</time></trkpt><trkpt lat="42.54903048876466" lon="12.029775768260668"><ele>533.0</ele><time>2026-04-25T07:38:10.999Z</time></trkpt><trkpt lat="42.5491196092204" lon="12.02969602683598"><ele>532.6</ele><time>2026-04-25T07:38:12.998Z</time></trkpt><trkpt lat="42.5492191517161" lon="12.029604522352697"><ele>532.1999999999999</ele><time>2026-04-25T07:38:14.998Z</time></trkpt><trkpt lat="42.54932415946745" lon="12.029502653500414"><ele>531.8</ele><time>2026-04-25T07:38:16.998Z</time></trkpt><trkpt lat="42.54937848559393" lon="12.029449250362235"><ele>531.4</ele><time>2026-04-25T07:38:17.998Z</time></trkpt><trkpt lat="42.549431798312725" lon="12.02939433927693"><ele>531.0</ele><time>2026-04-25T07:38:18.998Z</time></trkpt><trkpt lat="42.549485869963334" lon="12.02934191642122"><ele>531.0</ele><time>2026-04-25T07:38:19.998Z</time></trkpt><trkpt lat="42.54954310674176" lon="12.02928857935675"><ele>531.0</ele><time>2026-04-25T07:38:20.998Z</time></trkpt><trkpt lat="42.54960270712091" lon="12.029235904769534"><ele>531.0</ele><time>2026-04-25T07:38:21.998Z</time></trkpt><trkpt lat="42.54966357095062" lon="12.02918378601407"><ele>531.0</ele><time>2026-04-25T07:38:22.998Z</time></trkpt><trkpt lat="42.549724081042214" lon="12.029135348265463"><ele>531.0</ele><time>2026-04-25T07:38:23.998Z</time></trkpt><trkpt lat="42.54978483794129" lon="12.029084911729749"><ele>531.0</ele><time>2026-04-25T07:38:24.998Z</time></trkpt><trkpt lat="42.54984848359525" lon="12.029036859561877"><ele>531.0</ele><time>2026-04-25T07:38:25.998Z</time></trkpt><trkpt lat="42.549912095325425" lon="12.028984609578202"><ele>531.0</ele><time>2026-04-25T07:38:26.998Z</time></trkpt><trkpt lat="42.54997683423346" lon="12.028936102820346"><ele>531.0</ele><time>2026-04-25T07:38:27.998Z</time></trkpt><trkpt lat="42.55004530371764" lon="12.028888555911083"><ele>531.0</ele><time>2026-04-25T07:38:29.001Z</time></trkpt><trkpt lat="42.550113465194265" lon="12.02883783957357"><ele>531.0</ele><time>2026-04-25T07:38:30.001Z</time></trkpt><trkpt lat="42.55018196979603" lon="12.028792253471785"><ele>531.0</ele><time>2026-04-25T07:38:31.001Z</time></trkpt><trkpt lat="42.55024863129118" lon="12.02874041446843"><ele>531.0</ele><time>2026-04-25T07:38:32.001Z</time></trkpt><trkpt lat="42.550317184453306" lon="12.028688988171352"><ele>531.0</ele><time>2026-04-25T07:38:33.001Z</time></trkpt><trkpt lat="42.55038186607744" lon="12.02863920428295"><ele>531.0</ele><time>2026-04-25T07:38:34.001Z</time></trkpt><trkpt lat="42.550444634652244" lon="12.028588925283335"><ele>531.0</ele><time>2026-04-25T07:38:35.001Z</time></trkpt><trkpt lat="42.55050848782274" lon="12.028533951797913"><ele>531.0</ele><time>2026-04-25T07:38:36.001Z</time></trkpt><trkpt lat="42.55056983423585" lon="12.028487480296954"><ele>531.0</ele><time>2026-04-25T07:38:37.001Z</time></trkpt><trkpt lat="42.55062371689643" lon="12.02842741013966"><ele>531.0</ele><time>2026-04-25T07:38:38.001Z</time></trkpt><trkpt lat="42.550673231336184" lon="12.028364241842546"><ele>531.0</ele><time>2026-04-25T07:38:39.001Z</time></trkpt><trkpt lat="42.550713899707844" lon="12.028295225533075"><ele>531.75</ele><time>2026-04-25T07:38:40Z</time></trkpt><trkpt lat="42.55075405368047" lon="12.028142524186798"><ele>532.5</ele><time>2026-04-25T07:38:42Z</time></trkpt><trkpt lat="42.55073974112005" lon="12.027980885533706"><ele>533.25</ele><time>2026-04-25T07:38:44Z</time></trkpt><trkpt lat="42.55068586189141" lon="12.02785091961598"><ele>534.0</ele><time>2026-04-25T07:38:46Z</time></trkpt><trkpt lat="42.55063028830374" lon="12.027720991613394"><ele>534.0</ele><time>2026-04-25T07:38:48Z</time></trkpt><trkpt lat="42.55056798275295" lon="12.027596549141238"><ele>534.0</ele><time>2026-04-25T07:38:50Z</time></trkpt><trkpt lat="42.550502094635526" lon="12.027462305819565"><ele>534.0</ele><time>2026-04-25T07:38:52Z</time></trkpt><trkpt lat="42.5504440536329" lon="12.027323225519226"><ele>534.0</ele><time>2026-04-25T07:38:54Z</time></trkpt><trkpt lat="42.55042134541629" lon="12.027243430308964"><ele>534.0</ele><time>2026-04-25T07:38:55Z</time></trkpt><trkpt lat="42.55038525154034" lon="12.027088918969296"><ele>534.0</ele><time>2026-04-25T07:38:57Z</time></trkpt><trkpt lat="42.55035760545782" lon="12.026926471667515"><ele>534.0</ele><time>2026-04-25T07:38:59Z</time></trkpt><trkpt lat="42.550356362803086" lon="12.02683827272413"><ele>534.0</ele><time>2026-04-25T07:39:00Z</time></trkpt><trkpt lat="42.55036326536698" lon="12.02667592171423"><ele>534.0</ele><time>2026-04-25T07:39:02Z</time></trkpt><trkpt lat="42.55036800279585" lon="12.026517588074855"><ele>534.0</ele><time>2026-04-25T07:39:04Z</time></trkpt><trkpt lat="42.55037490540726" lon="12.026362215086829"><ele>534.0</ele><time>2026-04-25T07:39:06Z</time></trkpt><trkpt lat="42.55038537699309" lon="12.02621137066015"><ele>534.0</ele><time>2026-04-25T07:39:08Z</time></trkpt><trkpt lat="42.5503924506011" lon="12.02606486097656"><ele>534.0</ele><time>2026-04-25T07:39:10Z</time></trkpt><trkpt lat="42.55039548558781" lon="12.025921758520957"><ele>534.0</ele><time>2026-04-25T07:39:12Z</time></trkpt><trkpt lat="42.55040369103106" lon="12.02578831261808"><ele>534.0</ele><time>2026-04-25T07:39:14Z</time></trkpt><trkpt lat="42.55040636106487" lon="12.02569930146542"><ele>534.0</ele><time>2026-04-25T07:39:14.999Z</time></trkpt><trkpt lat="42.55041905441964" lon="12.025550971402119"><ele>534.0</ele><time>2026-04-25T07:39:16.999Z</time></trkpt><trkpt lat="42.55042207185344" lon="12.025404094687064"><ele>534.0</ele><time>2026-04-25T07:39:18.999Z</time></trkpt><trkpt lat="42.55043443425731" lon="12.02526462720189"><ele>534.0</ele><time>2026-04-25T07:39:20.999Z</time></trkpt><trkpt lat="42.55046205631966" lon="12.025124137324342"><ele>534.0</ele><time>2026-04-25T07:39:22.999Z</time></trkpt><trkpt lat="42.550519023930605" lon="12.024990253031795"><ele>532.2</ele><time>2026-04-25T07:39:24.999Z</time></trkpt><trkpt lat="42.55054158752931" lon="12.024857632807418"><ele>530.4</ele><time>2026-04-25T07:39:26.999Z</time></trkpt><trkpt lat="42.55046342622182" lon="12.024728710622346"><ele>528.6</ele><time>2026-04-25T07:39:28.999Z</time></trkpt><trkpt lat="42.5504110400661" lon="12.024666993589172"><ele>526.8</ele><time>2026-04-25T07:39:29.999Z</time></trkpt><trkpt lat="42.550308976270294" lon="12.024564930534925"><ele>525.0</ele><time>2026-04-25T07:39:31.999Z</time></trkpt><trkpt lat="42.55024818415823" lon="12.024507475380931"><ele>524.1428571428571</ele><time>2026-04-25T07:39:32.999Z</time></trkpt><trkpt lat="42.550186265533746" lon="12.024464266223044"><ele>523.2857142857142</ele><time>2026-04-25T07:39:33.999Z</time></trkpt><trkpt lat="42.55012777888512" lon="12.02441484468683"><ele>522.4285714285714</ele><time>2026-04-25T07:39:34.999Z</time></trkpt><trkpt lat="42.55006943060802" lon="12.024350086292962"><ele>521.5714285714286</ele><time>2026-04-25T07:39:35.999Z</time></trkpt><trkpt lat="42.549996774875275" lon="12.024305014821355"><ele>520.7142857142857</ele><time>2026-04-25T07:39:36.999Z</time></trkpt><trkpt lat="42.549933156405686" lon="12.0242655557174"><ele>519.8571428571429</ele><time>2026-04-25T07:39:37.999Z</time></trkpt><trkpt lat="42.549870705264446" lon="12.024239715873135"><ele>519.0</ele><time>2026-04-25T07:39:38.999Z</time></trkpt><trkpt lat="42.5497485615555" lon="12.02421248968758"><ele>519.0</ele><time>2026-04-25T07:39:40.999Z</time></trkpt><trkpt lat="42.549682484947155" lon="12.024232093738442"><ele>519.0</ele><time>2026-04-25T07:39:41.999Z</time></trkpt><trkpt lat="42.54962120931919" lon="12.02426904178722"><ele>519.0</ele><time>2026-04-25T07:39:42.999Z</time></trkpt><trkpt lat="42.5495656279573" lon="12.024328123458135"><ele>519.0</ele><time>2026-04-25T07:39:43.999Z</time></trkpt><trkpt lat="42.549512643345295" lon="12.024385214896148"><ele>519.0</ele><time>2026-04-25T07:39:44.999Z</time></trkpt><trkpt lat="42.54945587580441" lon="12.024432967176645"><ele>519.0</ele><time>2026-04-25T07:39:45.999Z</time></trkpt><trkpt lat="42.549354082356395" lon="12.0244979988094"><ele>518.0</ele><time>2026-04-25T07:39:47.999Z</time></trkpt><trkpt lat="42.54924508163512" lon="12.024539798590766"><ele>517.0</ele><time>2026-04-25T07:39:49.999Z</time></trkpt><trkpt lat="42.549179900229475" lon="12.02455740404868"><ele>516.0</ele><time>2026-04-25T07:39:50.999Z</time></trkpt><trkpt lat="42.549063385387385" lon="12.024566720987337"><ele>515.0</ele><time>2026-04-25T07:39:52.999Z</time></trkpt><trkpt lat="42.54898549556166" lon="12.024551224408714"><ele>514.0</ele><time>2026-04-25T07:39:53.999Z</time></trkpt><trkpt lat="42.54892192603944" lon="12.024515081508131"><ele>513.0</ele><time>2026-04-25T07:39:54.999Z</time></trkpt><trkpt lat="42.54881158048263" lon="12.024445902197305"><ele>513.0</ele><time>2026-04-25T07:39:56.999Z</time></trkpt><trkpt lat="42.54871636899119" lon="12.02436910614293"><ele>513.0</ele><time>2026-04-25T07:39:58.999Z</time></trkpt><trkpt lat="42.548643875259685" lon="12.024281911055839"><ele>513.0</ele><time>2026-04-25T07:40:00.999Z</time></trkpt><trkpt lat="42.54858239840698" lon="12.024181861319947"><ele>513.0</ele><time>2026-04-25T07:40:02.999Z</time></trkpt><trkpt lat="42.548538871721945" lon="12.024045836054091"><ele>513.0</ele><time>2026-04-25T07:40:04.998Z</time></trkpt><trkpt lat="42.54849351535101" lon="12.02389757043057"><ele>509.0</ele><time>2026-04-25T07:40:06.998Z</time></trkpt><trkpt lat="42.54846632607619" lon="12.023811461311261"><ele>504.99999999999994</ele><time>2026-04-25T07:40:07.998Z</time></trkpt><trkpt lat="42.548446249663215" lon="12.023723040727806"><ele>500.99999999999994</ele><time>2026-04-25T07:40:08.998Z</time></trkpt><trkpt lat="42.54843998727651" lon="12.023627325180218"><ele>497.0</ele><time>2026-04-25T07:40:09.998Z</time></trkpt><trkpt lat="42.54842181753785" lon="12.023464210303212"><ele>493.0</ele><time>2026-04-25T07:40:11.998Z</time></trkpt><trkpt lat="42.54843107512658" lon="12.023301723358147"><ele>489.4</ele><time>2026-04-25T07:40:13.998Z</time></trkpt><trkpt lat="42.548448249689365" lon="12.023207902371745"><ele>485.79999999999995</ele><time>2026-04-25T07:40:14.998Z</time></trkpt><trkpt lat="42.54844936738054" lon="12.02308113584233"><ele>482.2</ele><time>2026-04-25T07:40:16.998Z</time></trkpt><trkpt lat="42.548454610790216" lon="12.022936370274934"><ele>478.6</ele><time>2026-04-25T07:40:18.998Z</time></trkpt><trkpt lat="42.54852035674448" lon="12.022810249527122"><ele>475.0</ele><time>2026-04-25T07:40:20.998Z</time></trkpt><trkpt lat="42.54859092459365" lon="12.02271252593157"><ele>475.00000000000006</ele><time>2026-04-25T07:40:22.998Z</time></trkpt><trkpt lat="42.54868780449952" lon="12.022623321777285"><ele>475.0</ele><time>2026-04-25T07:40:24.998Z</time></trkpt><trkpt lat="42.54872686909669" lon="12.022554145996061"><ele>475.0</ele><time>2026-04-25T07:40:25.998Z</time></trkpt><trkpt lat="42.548759843853034" lon="12.02247368279388"><ele>475.0</ele><time>2026-04-25T07:40:26.998Z</time></trkpt><trkpt lat="42.54878263337652" lon="12.022385461721292"><ele>475.00000000000006</ele><time>2026-04-25T07:40:27.998Z</time></trkpt><trkpt lat="42.54880174901621" lon="12.022300368307018"><ele>475.0</ele><time>2026-04-25T07:40:28.998Z</time></trkpt><trkpt lat="42.54881799143508" lon="12.022199994569974"><ele>475.7142857142857</ele><time>2026-04-25T07:40:29.998Z</time></trkpt><trkpt lat="42.54883332423411" lon="12.022113655518163"><ele>476.42857142857144</ele><time>2026-04-25T07:40:30.998Z</time></trkpt><trkpt lat="42.548852147892646" lon="12.022019891776509"><ele>477.14285714285717</ele><time>2026-04-25T07:40:31.998Z</time></trkpt><trkpt lat="42.54887414458175" lon="12.021925638993253"><ele>477.8571428571429</ele><time>2026-04-25T07:40:32.998Z</time></trkpt><trkpt lat="42.548892064321215" lon="12.021835548231772"><ele>478.57142857142856</ele><time>2026-04-25T07:40:33.998Z</time></trkpt><trkpt lat="42.54891867203071" lon="12.021747418141771"><ele>479.28571428571433</ele><time>2026-04-25T07:40:34.998Z</time></trkpt><trkpt lat="42.54895692932131" lon="12.02165929140155"><ele>480.0</ele><time>2026-04-25T07:40:35.998Z</time></trkpt><trkpt lat="42.5490052938701" lon="12.021577093426423"><ele>477.42857142857144</ele><time>2026-04-25T07:40:36.998Z</time></trkpt><trkpt lat="42.5490659864979" lon="12.021518129648726"><ele>474.85714285714283</ele><time>2026-04-25T07:40:37.998Z</time></trkpt><trkpt lat="42.54912040085332" lon="12.021457478299718"><ele>472.2857142857143</ele><time>2026-04-25T07:40:38.998Z</time></trkpt><trkpt lat="42.549172099872386" lon="12.021385168314593"><ele>469.7142857142857</ele><time>2026-04-25T07:40:39.998Z</time></trkpt><trkpt lat="42.549223329775366" lon="12.02132308372732"><ele>467.1428571428571</ele><time>2026-04-25T07:40:40.998Z</time></trkpt><trkpt lat="42.549273247195984" lon="12.021265600520268"><ele>464.57142857142856</ele><time>2026-04-25T07:40:41.998Z</time></trkpt><trkpt lat="42.5493282926849" lon="12.021192204888104"><ele>462.0</ele><time>2026-04-25T07:40:42.998Z</time></trkpt><trkpt lat="42.54937436835443" lon="12.021122615231365"><ele>462.0</ele><time>2026-04-25T07:40:43.998Z</time></trkpt><trkpt lat="42.54942470694091" lon="12.021053675926336"><ele>462.0</ele><time>2026-04-25T07:40:44.998Z</time></trkpt><trkpt lat="42.54947941779095" lon="12.020991840627008"><ele>462.0</ele><time>2026-04-25T07:40:45.998Z</time></trkpt><trkpt lat="42.5495286309747" lon="12.020927612448041"><ele>462.0</ele><time>2026-04-25T07:40:46.998Z</time></trkpt><trkpt lat="42.54957806936202" lon="12.020870642107662"><ele>462.0</ele><time>2026-04-25T07:40:47.998Z</time></trkpt><trkpt lat="42.54968217085676" lon="12.020797514550887"><ele>462.0</ele><time>2026-04-25T07:40:49.998Z</time></trkpt><trkpt lat="42.549759399946126" lon="12.020767329240906"><ele>461.6666666666667</ele><time>2026-04-25T07:40:51.998Z</time></trkpt><trkpt lat="42.54982611393273" lon="12.02074284353851"><ele>461.33333333333337</ele><time>2026-04-25T07:40:53.997Z</time></trkpt><trkpt lat="42.54990539544541" lon="12.020745658632041"><ele>461.0</ele><time>2026-04-25T07:40:55.997Z</time></trkpt><trkpt lat="42.54999440658631" lon="12.020760126606316"><ele>460.6666666666667</ele><time>2026-04-25T07:40:57.997Z</time></trkpt><trkpt lat="42.5500778283677" lon="12.020754938241952"><ele>460.33333333333337</ele><time>2026-04-25T07:40:59.997Z</time></trkpt><trkpt lat="42.550204240646735" lon="12.020781301664831"><ele>460.0</ele><time>2026-04-25T07:41:01.997Z</time></trkpt><trkpt lat="42.550274507339914" lon="12.020806219291034"><ele>462.83333333333337</ele><time>2026-04-25T07:41:02.997Z</time></trkpt><trkpt lat="42.550342592876255" lon="12.020833868110463"><ele>465.6666666666667</ele><time>2026-04-25T07:41:03.997Z</time></trkpt><trkpt lat="42.55044514882509" lon="12.020869665796356"><ele>468.5</ele><time>2026-04-25T07:41:05.997Z</time></trkpt><trkpt lat="42.550536440864796" lon="12.020838492666744"><ele>471.33333333333337</ele><time>2026-04-25T07:41:08.997Z</time></trkpt><trkpt lat="42.55060602462624" lon="12.02082207821349"><ele>474.1666666666667</ele><time>2026-04-25T07:41:10.997Z</time></trkpt><trkpt lat="42.550687829349876" lon="12.020765709675958"><ele>477.0</ele><time>2026-04-25T07:41:12.997Z</time></trkpt><trkpt lat="42.550696572186546" lon="12.02066786971746"><ele>477.0</ele><time>2026-04-25T07:41:14.997Z</time></trkpt><trkpt lat="42.5506630135928" lon="12.020552737455441"><ele>477.00000000000006</ele><time>2026-04-25T07:41:16.997Z</time></trkpt><trkpt lat="42.55063145726822" lon="12.020436842195577"><ele>477.00000000000006</ele><time>2026-04-25T07:41:18.997Z</time></trkpt><trkpt lat="42.55059628580076" lon="12.020302205765978"><ele>477.0</ele><time>2026-04-25T07:41:20.997Z</time></trkpt><trkpt lat="42.55055733262464" lon="12.020164179047919"><ele>477.0</ele><time>2026-04-25T07:41:22.997Z</time></trkpt><trkpt lat="42.550533506889295" lon="12.020059646626725"><ele>476.20000000000005</ele><time>2026-04-25T07:41:24.997Z</time></trkpt><trkpt lat="42.55053488659066" lon="12.019942472843557"><ele>475.40000000000003</ele><time>2026-04-25T07:41:26.997Z</time></trkpt><trkpt lat="42.55052838587079" lon="12.019825462265004"><ele>474.59999999999997</ele><time>2026-04-25T07:41:28.997Z</time></trkpt><trkpt lat="42.55051274013157" lon="12.019709646268328"><ele>473.79999999999995</ele><time>2026-04-25T07:41:30.997Z</time></trkpt><trkpt lat="42.55048864098084" lon="12.019569937026143"><ele>473.0</ele><time>2026-04-25T07:41:32.997Z</time></trkpt><trkpt lat="42.55045985335528" lon="12.019454339056903"><ele>473.0</ele><time>2026-04-25T07:41:34.997Z</time></trkpt><trkpt lat="42.55042109315937" lon="12.01933486045933"><ele>472.99999999999994</ele><time>2026-04-25T07:41:36.997Z</time></trkpt><trkpt lat="42.55036137617385" lon="12.019207962176509"><ele>472.99999999999994</ele><time>2026-04-25T07:41:38.997Z</time></trkpt><trkpt lat="42.550335035005" lon="12.019076067930886"><ele>473.0</ele><time>2026-04-25T07:41:40.997Z</time></trkpt><trkpt lat="42.55026736191546" lon="12.018980655351365"><ele>473.0</ele><time>2026-04-25T07:41:42.997Z</time></trkpt><trkpt lat="42.550253720410005" lon="12.01888219937884"><ele>465.59999999999997</ele><time>2026-04-25T07:41:44.996Z</time></trkpt><trkpt lat="42.55020263192829" lon="12.018782909319027"><ele>458.19999999999993</ele><time>2026-04-25T07:41:46.996Z</time></trkpt><trkpt lat="42.5501786462191" lon="12.018679456103696"><ele>450.8</ele><time>2026-04-25T07:41:48.996Z</time></trkpt><trkpt lat="42.550127132696524" lon="12.018560231477833"><ele>443.4</ele><time>2026-04-25T07:41:50.996Z</time></trkpt><trkpt lat="42.55008827506621" lon="12.018424248853519"><ele>436.0</ele><time>2026-04-25T07:41:52.996Z</time></trkpt><trkpt lat="42.5500595271621" lon="12.01831814927347"><ele>434.50000000000006</ele><time>2026-04-25T07:41:54.996Z</time></trkpt><trkpt lat="42.55001466762746" lon="12.018232941375832"><ele>433.0</ele><time>2026-04-25T07:41:56.996Z</time></trkpt><trkpt lat="42.54996608796866" lon="12.018144169104472"><ele>431.5</ele><time>2026-04-25T07:41:58.996Z</time></trkpt><trkpt lat="42.54993474601676" lon="12.018055600911978"><ele>430.0</ele><time>2026-04-25T07:42:00.996Z</time></trkpt><trkpt lat="42.549898508817314" lon="12.017975411716625"><ele>428.50000000000006</ele><time>2026-04-25T07:42:02.996Z</time></trkpt><trkpt lat="42.54985992369693" lon="12.017867733269389"><ele>427.0</ele><time>2026-04-25T07:42:04.996Z</time></trkpt><trkpt lat="42.54985644215028" lon="12.017726478912818"><ele>427.00000000000006</ele><time>2026-04-25T07:42:06.996Z</time></trkpt><trkpt lat="42.54988583335926" lon="12.01761875036042"><ele>427.0</ele><time>2026-04-25T07:42:08.996Z</time></trkpt><trkpt lat="42.54993120976228" lon="12.017525136722421"><ele>427.0</ele><time>2026-04-25T07:42:10.996Z</time></trkpt><trkpt lat="42.5499188768858" lon="12.017417382461865"><ele>427.0</ele><time>2026-04-25T07:42:12.996Z</time></trkpt><trkpt lat="42.54990318973617" lon="12.017298131643926"><ele>427.00000000000006</ele><time>2026-04-25T07:42:14.996Z</time></trkpt><trkpt lat="42.549893218311894" lon="12.017183905479554"><ele>427.0</ele><time>2026-04-25T07:42:16.996Z</time></trkpt><trkpt lat="42.54988441377227" lon="12.017088700620553"><ele>426.33333333333337</ele><time>2026-04-25T07:42:18.996Z</time></trkpt><trkpt lat="42.54987697414219" lon="12.016972260858031"><ele>425.6666666666667</ele><time>2026-04-25T07:42:21.996Z</time></trkpt><trkpt lat="42.54986836380367" lon="12.016883984789345"><ele>425.0</ele><time>2026-04-25T07:42:23.996Z</time></trkpt><trkpt lat="42.54984337100259" lon="12.016798466478996"><ele>424.33333333333337</ele><time>2026-04-25T07:42:25.996Z</time></trkpt><trkpt lat="42.54983060226524" lon="12.016693882732515"><ele>423.6666666666667</ele><time>2026-04-25T07:42:27.996Z</time></trkpt><trkpt lat="42.54982198072637" lon="12.016581671556"><ele>423.0</ele><time>2026-04-25T07:42:29.996Z</time></trkpt><trkpt lat="42.54981114986142" lon="12.016482492352553"><ele>422.4</ele><time>2026-04-25T07:42:31.996Z</time></trkpt><trkpt lat="42.54978943489959" lon="12.016362384090229"><ele>421.79999999999995</ele><time>2026-04-25T07:42:34.996Z</time></trkpt><trkpt lat="42.549763481295834" lon="12.016234028507945"><ele>421.2</ele><time>2026-04-25T07:42:36.995Z</time></trkpt><trkpt lat="42.54974355102765" lon="12.016082715106068"><ele>420.6</ele><time>2026-04-25T07:42:38.995Z</time></trkpt><trkpt lat="42.549730551962476" lon="12.015935030750716"><ele>420.0</ele><time>2026-04-25T07:42:40.995Z</time></trkpt><trkpt lat="42.54972049932737" lon="12.015793084598576"><ele>420.0</ele><time>2026-04-25T07:42:42.995Z</time></trkpt><trkpt lat="42.54968715717969" lon="12.015649713275167"><ele>420.0</ele><time>2026-04-25T07:42:44.995Z</time></trkpt><trkpt lat="42.54966840353433" lon="12.01553601946199"><ele>420.0</ele><time>2026-04-25T07:42:46.995Z</time></trkpt><trkpt lat="42.54965738187956" lon="12.015409192589994"><ele>420.0</ele><time>2026-04-25T07:42:48.995Z</time></trkpt><trkpt lat="42.54963606849236" lon="12.015286604988876"><ele>420.0</ele><time>2026-04-25T07:42:50.995Z</time></trkpt><trkpt lat="42.549616816253774" lon="12.01517430438755"><ele>420.0</ele><time>2026-04-25T07:42:52.995Z</time></trkpt><trkpt lat="42.549586757380986" lon="12.015063912015068"><ele>420.0</ele><time>2026-04-25T07:42:54.995Z</time></trkpt><trkpt lat="42.549570389610366" lon="12.01493465990426"><ele>420.0</ele><time>2026-04-25T07:42:56.995Z</time></trkpt><trkpt lat="42.54953650984945" lon="12.014787717900111"><ele>420.0</ele><time>2026-04-25T07:42:58.995Z</time></trkpt><trkpt lat="42.54950110746169" lon="12.014662538599492"><ele>420.0</ele><time>2026-04-25T07:43:00.995Z</time></trkpt><trkpt lat="42.54946702339549" lon="12.014551716171445"><ele>417.1666666666667</ele><time>2026-04-25T07:43:02.995Z</time></trkpt><trkpt lat="42.54945476081433" lon="12.014414312590871"><ele>414.33333333333337</ele><time>2026-04-25T07:43:04.995Z</time></trkpt><trkpt lat="42.54943673792519" lon="12.014317655221198"><ele>411.5</ele><time>2026-04-25T07:43:06.995Z</time></trkpt><trkpt lat="42.54941488794575" lon="12.014209050191685"><ele>408.6666666666667</ele><time>2026-04-25T07:43:09.995Z</time></trkpt><trkpt lat="42.54939759099725" lon="12.01411147231465"><ele>405.83333333333337</ele><time>2026-04-25T07:43:12.995Z</time></trkpt><trkpt lat="42.54938115151625" lon="12.013991409240006"><ele>403.0</ele><time>2026-04-25T07:43:14.995Z</time></trkpt><trkpt lat="42.549359729536" lon="12.013867499602702"><ele>402.50000000000006</ele><time>2026-04-25T07:43:16.995Z</time></trkpt><trkpt lat="42.54936410689342" lon="12.013751237457772"><ele>402.0</ele><time>2026-04-25T07:43:18.995Z</time></trkpt><trkpt lat="42.5493755965395" lon="12.01365913914902"><ele>401.5</ele><time>2026-04-25T07:43:20.995Z</time></trkpt><trkpt lat="42.54939594067593" lon="12.013542071696111"><ele>401.0</ele><time>2026-04-25T07:43:22.995Z</time></trkpt><trkpt lat="42.549404523395104" lon="12.013417573478696"><ele>400.50000000000006</ele><time>2026-04-25T07:43:25.995Z</time></trkpt><trkpt lat="42.54941563423074" lon="12.013304715150376"><ele>400.0</ele><time>2026-04-25T07:43:27.994Z</time></trkpt><trkpt lat="42.54940096108383" lon="12.013190815395902"><ele>399.0</ele><time>2026-04-25T07:43:29.994Z</time></trkpt><trkpt lat="42.549379354502975" lon="12.013071006058132"><ele>398.0</ele><time>2026-04-25T07:43:31.994Z</time></trkpt><trkpt lat="42.54935389519429" lon="12.012955642632283"><ele>397.0</ele><time>2026-04-25T07:43:33.994Z</time></trkpt><trkpt lat="42.54931134644311" lon="12.01284338098337"><ele>396.0</ele><time>2026-04-25T07:43:35.994Z</time></trkpt><trkpt lat="42.54927316505297" lon="12.012724249931235"><ele>395.0</ele><time>2026-04-25T07:43:37.994Z</time></trkpt><trkpt lat="42.54923690328325" lon="12.012625486266606"><ele>395.0</ele><time>2026-04-25T07:43:39.994Z</time></trkpt><trkpt lat="42.54919961057279" lon="12.012510840983383"><ele>395.0</ele><time>2026-04-25T07:43:42.994Z</time></trkpt><trkpt lat="42.549174046506046" lon="12.012385919938103"><ele>395.0</ele><time>2026-04-25T07:43:45.994Z</time></trkpt><trkpt lat="42.54916397550638" lon="12.012263519658553"><ele>395.0</ele><time>2026-04-25T07:43:47.994Z</time></trkpt><trkpt lat="42.54913764641965" lon="12.012145915045696"><ele>395.0</ele><time>2026-04-25T07:43:49.994Z</time></trkpt><trkpt lat="42.54912301106903" lon="12.011985862680294"><ele>393.8</ele><time>2026-04-25T07:43:51.994Z</time></trkpt><trkpt lat="42.54915099900584" lon="12.011838072811777"><ele>392.6</ele><time>2026-04-25T07:43:53.994Z</time></trkpt><trkpt lat="42.54920988840505" lon="12.011727664954176"><ele>391.4</ele><time>2026-04-25T07:43:55.994Z</time></trkpt><trkpt lat="42.549269849647246" lon="12.01162426548819"><ele>390.2</ele><time>2026-04-25T07:43:57.994Z</time></trkpt><trkpt lat="42.54929960775279" lon="12.01151084620785"><ele>389.0</ele><time>2026-04-25T07:43:59.994Z</time></trkpt><trkpt lat="42.5493087366799" lon="12.011378384838919"><ele>388.79999999999995</ele><time>2026-04-25T07:44:01.994Z</time></trkpt><trkpt lat="42.54929509435435" lon="12.011255833036063"><ele>388.59999999999997</ele><time>2026-04-25T07:44:03.994Z</time></trkpt><trkpt lat="42.54928044119189" lon="12.011104683330117"><ele>388.4</ele><time>2026-04-25T07:44:05.994Z</time></trkpt><trkpt lat="42.54926428102822" lon="12.010984617791012"><ele>388.2</ele><time>2026-04-25T07:44:07.994Z</time></trkpt><trkpt lat="42.5492276596878" lon="12.01085496980161"><ele>388.0</ele><time>2026-04-25T07:44:09.994Z</time></trkpt><trkpt lat="42.54918573592569" lon="12.010733653555757"><ele>387.79999999999995</ele><time>2026-04-25T07:44:11.994Z</time></trkpt><trkpt lat="42.54912264381236" lon="12.010622093342377"><ele>387.6</ele><time>2026-04-25T07:44:13.994Z</time></trkpt><trkpt lat="42.54905350529465" lon="12.01050177222602"><ele>387.4</ele><time>2026-04-25T07:44:15.994Z</time></trkpt><trkpt lat="42.5489881747756" lon="12.01039142815393"><ele>387.20000000000005</ele><time>2026-04-25T07:44:17.993Z</time></trkpt><trkpt lat="42.54893810404781" lon="12.010317811868138"><ele>387.0</ele><time>2026-04-25T07:44:19.993Z</time></trkpt><trkpt lat="42.5488895821854" lon="12.010247092869644"><ele>387.0</ele><time>2026-04-25T07:44:21.993Z</time></trkpt><trkpt lat="42.548829684576766" lon="12.010203770284184"><ele>387.0</ele><time>2026-04-25T07:44:24.993Z</time></trkpt><trkpt lat="42.54873635492729" lon="12.010147249662765"><ele>387.0</ele><time>2026-04-25T07:44:27.993Z</time></trkpt><trkpt lat="42.54864877008533" lon="12.010109056059816"><ele>387.0</ele><time>2026-04-25T07:44:29.993Z</time></trkpt><trkpt lat="42.54856644828325" lon="12.010063509478744"><ele>387.0</ele><time>2026-04-25T07:44:31.993Z</time></trkpt><trkpt lat="42.54847764768204" lon="12.010001760219184"><ele>384.6</ele><time>2026-04-25T07:44:33.993Z</time></trkpt><trkpt lat="42.5484004432994" lon="12.009930039937124"><ele>382.20000000000005</ele><time>2026-04-25T07:44:35.993Z</time></trkpt><trkpt lat="42.5483154567468" lon="12.00984829714338"><ele>379.8</ele><time>2026-04-25T07:44:37.993Z</time></trkpt><trkpt lat="42.548242639491185" lon="12.009784292342282"><ele>377.4</ele><time>2026-04-25T07:44:39.993Z</time></trkpt><trkpt lat="42.548170008653784" lon="12.0097114530729"><ele>375.0</ele><time>2026-04-25T07:44:41.993Z</time></trkpt><trkpt lat="42.548101604503266" lon="12.009658849665843"><ele>375.0</ele><time>2026-04-25T07:44:44.993Z</time></trkpt><trkpt lat="42.54802952498185" lon="12.009593146342667"><ele>375.0</ele><time>2026-04-25T07:44:48.993Z</time></trkpt><trkpt lat="42.547949301950894" lon="12.009535848910321"><ele>375.0</ele><time>2026-04-25T07:44:51.993Z</time></trkpt><trkpt lat="42.54787315048291" lon="12.009512522700842"><ele>375.0</ele><time>2026-04-25T07:44:53.993Z</time></trkpt><trkpt lat="42.547799461822116" lon="12.009463168245201"><ele>375.0</ele><time>2026-04-25T07:44:55.993Z</time></trkpt><trkpt lat="42.547723540045986" lon="12.009408631558175"><ele>375.0</ele><time>2026-04-25T07:44:57.993Z</time></trkpt><trkpt lat="42.54766648709245" lon="12.009347221173382"><ele>373.6</ele><time>2026-04-25T07:44:59.993Z</time></trkpt><trkpt lat="42.54760042978098" lon="12.009298617161381"><ele>372.2</ele><time>2026-04-25T07:45:01.993Z</time></trkpt><trkpt lat="42.5475170806945" lon="12.009246970939026"><ele>370.79999999999995</ele><time>2026-04-25T07:45:03.993Z</time></trkpt><trkpt lat="42.54743834225367" lon="12.009175183870397"><ele>369.4</ele><time>2026-04-25T07:45:05.993Z</time></trkpt><trkpt lat="42.54734000675162" lon="12.009112497996373"><ele>368.0</ele><time>2026-04-25T07:45:07.993Z</time></trkpt><trkpt lat="42.547256149501145" lon="12.009046322086947"><ele>367.83333333333337</ele><time>2026-04-25T07:45:09.992Z</time></trkpt><trkpt lat="42.54716744915722" lon="12.009003504779567"><ele>367.6666666666667</ele><time>2026-04-25T07:45:11.992Z</time></trkpt><trkpt lat="42.547092763796854" lon="12.008933450353489"><ele>367.5</ele><time>2026-04-25T07:45:13.992Z</time></trkpt><trkpt lat="42.54703265523694" lon="12.00887562715043"><ele>367.3333333333333</ele><time>2026-04-25T07:45:15.992Z</time></trkpt><trkpt lat="42.546949546455764" lon="12.008822816560668"><ele>367.16666666666663</ele><time>2026-04-25T07:45:17.992Z</time></trkpt><trkpt lat="42.54687115806742" lon="12.008777172831682"><ele>367.0</ele><time>2026-04-25T07:45:19.992Z</time></trkpt><trkpt lat="42.54680875677439" lon="12.0087279237259"><ele>365.8333333333333</ele><time>2026-04-25T07:45:21.992Z</time></trkpt><trkpt lat="42.54673626603985" lon="12.008661781288398"><ele>364.66666666666663</ele><time>2026-04-25T07:45:24.992Z</time></trkpt><trkpt lat="42.54664327983763" lon="12.008604584571723"><ele>363.5</ele><time>2026-04-25T07:45:27.992Z</time></trkpt><trkpt lat="42.546575991464096" lon="12.008545039271214"><ele>362.3333333333333</ele><time>2026-04-25T07:45:29.992Z</time></trkpt><trkpt lat="42.5465308783937" lon="12.00848133568226"><ele>361.1666666666667</ele><time>2026-04-25T07:45:31.992Z</time></trkpt><trkpt lat="42.54646417066607" lon="12.008447588199653"><ele>360.0</ele><time>2026-04-25T07:45:34.992Z</time></trkpt><trkpt lat="42.54640061717421" lon="12.00837895531546"><ele>360.0</ele><time>2026-04-25T07:45:37.992Z</time></trkpt><trkpt lat="42.54632712347079" lon="12.008335434484628"><ele>360.0</ele><time>2026-04-25T07:45:40.992Z</time></trkpt><trkpt lat="42.54627077758625" lon="12.00828916031269"><ele>360.0</ele><time>2026-04-25T07:45:42.992Z</time></trkpt><trkpt lat="42.54620248001638" lon="12.008232545219869"><ele>360.0</ele><time>2026-04-25T07:45:45.992Z</time></trkpt><trkpt lat="42.5461313427506" lon="12.008231973923687"><ele>360.0</ele><time>2026-04-25T07:45:51.992Z</time></trkpt><trkpt lat="42.546062246498735" lon="12.008217984454594"><ele>360.0</ele><time>2026-04-25T07:45:55.992Z</time></trkpt><trkpt lat="42.545983300220065" lon="12.00816463064052"><ele>358.0</ele><time>2026-04-25T07:45:58.992Z</time></trkpt><trkpt lat="42.545918196037036" lon="12.008130592067666"><ele>356.0</ele><time>2026-04-25T07:46:00.991Z</time></trkpt><trkpt lat="42.545831563583114" lon="12.008103390030422"><ele>354.0</ele><time>2026-04-25T07:46:02.991Z</time></trkpt><trkpt lat="42.54576289441465" lon="12.00809421491946"><ele>352.0</ele><time>2026-04-25T07:46:04.991Z</time></trkpt><trkpt lat="42.54569251281449" lon="12.00807923709303"><ele>350.0</ele><time>2026-04-25T07:46:06.991Z</time></trkpt><trkpt lat="42.54561110037328" lon="12.008040157714644"><ele>348.0</ele><time>2026-04-25T07:46:08.991Z</time></trkpt><trkpt lat="42.54552570161672" lon="12.008009362941838"><ele>348.0</ele><time>2026-04-25T07:46:10.991Z</time></trkpt><trkpt lat="42.5454407893797" lon="12.007965626756082"><ele>348.0</ele><time>2026-04-25T07:46:12.991Z</time></trkpt><trkpt lat="42.54535400493326" lon="12.00792397640822"><ele>348.0</ele><time>2026-04-25T07:46:15.991Z</time></trkpt><trkpt lat="42.54528882303358" lon="12.007910215571146"><ele>348.0</ele><time>2026-04-25T07:46:17.991Z</time></trkpt><trkpt lat="42.545196584772484" lon="12.007886356316481"><ele>348.0</ele><time>2026-04-25T07:46:20.991Z</time></trkpt><trkpt lat="42.54513922072002" lon="12.0078290763634"><ele>348.0</ele><time>2026-04-25T07:46:22.991Z</time></trkpt><trkpt lat="42.54508098709025" lon="12.007782568818493"><ele>347.0</ele><time>2026-04-25T07:46:24.991Z</time></trkpt><trkpt lat="42.54502029903346" lon="12.007709029652126"><ele>346.0</ele><time>2026-04-25T07:46:26.991Z</time></trkpt><trkpt lat="42.54494244745903" lon="12.007666128971298"><ele>345.0</ele><time>2026-04-25T07:46:28.991Z</time></trkpt><trkpt lat="42.54484714648772" lon="12.00761325405879"><ele>344.0</ele><time>2026-04-25T07:46:30.991Z</time></trkpt><trkpt lat="42.54474749947065" lon="12.00759503991029"><ele>343.0</ele><time>2026-04-25T07:46:32.991Z</time></trkpt><trkpt lat="42.54465616694853" lon="12.00754363423567"><ele>343.0</ele><time>2026-04-25T07:46:34.991Z</time></trkpt><trkpt lat="42.54456438595173" lon="12.007491480992792"><ele>343.0</ele><time>2026-04-25T07:46:36.991Z</time></trkpt><trkpt lat="42.54447736487786" lon="12.007433203529791"><ele>343.0</ele><time>2026-04-25T07:46:38.991Z</time></trkpt><trkpt lat="42.54438452783608" lon="12.007385929734447"><ele>343.0</ele><time>2026-04-25T07:46:40.991Z</time></trkpt><trkpt lat="42.54428899704831" lon="12.007353508061774"><ele>343.0</ele><time>2026-04-25T07:46:42.991Z</time></trkpt><trkpt lat="42.544190561140454" lon="12.007319592196747"><ele>342.3333333333333</ele><time>2026-04-25T07:46:44.991Z</time></trkpt><trkpt lat="42.54409740130235" lon="12.007297055110147"><ele>341.66666666666663</ele><time>2026-04-25T07:46:46.991Z</time></trkpt><trkpt lat="42.54400942152646" lon="12.007252954686253"><ele>341.0</ele><time>2026-04-25T07:46:48.991Z</time></trkpt><trkpt lat="42.543935321392205" lon="12.007219265975097"><ele>340.3333333333333</ele><time>2026-04-25T07:46:50.99Z</time></trkpt><trkpt lat="42.54387544446262" lon="12.007185947535287"><ele>339.6666666666667</ele><time>2026-04-25T07:46:52.99Z</time></trkpt><trkpt lat="42.54388501157501" lon="12.007067670014173"><ele>339.0</ele><time>2026-04-25T07:46:55.99Z</time></trkpt><trkpt lat="42.543924600062795" lon="12.006984489953915"><ele>339.0</ele><time>2026-04-25T07:46:57.99Z</time></trkpt><trkpt lat="42.54394722425744" lon="12.006901541704968"><ele>339.0</ele><time>2026-04-25T07:46:59.99Z</time></trkpt><trkpt lat="42.54396271353804" lon="12.006802623193087"><ele>339.0</ele><time>2026-04-25T07:47:01.99Z</time></trkpt><trkpt lat="42.54398925506867" lon="12.0067081706003"><ele>339.0</ele><time>2026-04-25T07:47:03.99Z</time></trkpt><trkpt lat="42.544005156117464" lon="12.006608170634381"><ele>339.0</ele><time>2026-04-25T07:47:05.99Z</time></trkpt><trkpt lat="42.54402959113332" lon="12.006515838525047"><ele>339.0</ele><time>2026-04-25T07:47:07.99Z</time></trkpt><trkpt lat="42.54405570820446" lon="12.006418391229142"><ele>339.0</ele><time>2026-04-25T07:47:09.99Z</time></trkpt><trkpt lat="42.54407101848673" lon="12.006322279557637"><ele>339.1666666666667</ele><time>2026-04-25T07:47:11.99Z</time></trkpt><trkpt lat="42.54409840140706" lon="12.006220434224797"><ele>339.3333333333333</ele><time>2026-04-25T07:47:13.99Z</time></trkpt><trkpt lat="42.5441185500413" lon="12.006135840488415"><ele>339.5</ele><time>2026-04-25T07:47:15.99Z</time></trkpt><trkpt lat="42.5441415380987" lon="12.00603910670562"><ele>339.66666666666663</ele><time>2026-04-25T07:47:17.99Z</time></trkpt><trkpt lat="42.54417795834841" lon="12.005915908910437"><ele>339.8333333333333</ele><time>2026-04-25T07:47:20.99Z</time></trkpt><trkpt lat="42.54419208394621" lon="12.005824891807707"><ele>340.0</ele><time>2026-04-25T07:47:22.99Z</time></trkpt><trkpt lat="42.54421175173725" lon="12.005741468005414"><ele>340.0</ele><time>2026-04-25T07:47:24.99Z</time></trkpt><trkpt lat="42.5442584797398" lon="12.005625029590009"><ele>340.0</ele><time>2026-04-25T07:47:27.99Z</time></trkpt><trkpt lat="42.54429833024662" lon="12.00550957291203"><ele>340.0</ele><time>2026-04-25T07:47:30.99Z</time></trkpt><trkpt lat="42.54432474244766" lon="12.005430497116484"><ele>340.0</ele><time>2026-04-25T07:47:32.99Z</time></trkpt><trkpt lat="42.54436907849792" lon="12.005314792769797"><ele>340.0</ele><time>2026-04-25T07:47:35.99Z</time></trkpt><trkpt lat="42.544407733673054" lon="12.005237246748626"><ele>340.0</ele><time>2026-04-25T07:47:37.99Z</time></trkpt><trkpt lat="42.544442248063554" lon="12.005161343805252"><ele>340.0</ele><time>2026-04-25T07:47:39.99Z</time></trkpt><trkpt lat="42.54447606103494" lon="12.005084355631007"><ele>340.0</ele><time>2026-04-25T07:47:41.989Z</time></trkpt><trkpt lat="42.5445357367373" lon="12.004979611552463"><ele>340.0</ele><time>2026-04-25T07:47:44.989Z</time></trkpt><trkpt lat="42.54457934802212" lon="12.00491140546211"><ele>340.0</ele><time>2026-04-25T07:47:46.989Z</time></trkpt><trkpt lat="42.544618753114655" lon="12.004840974476393"><ele>340.0</ele><time>2026-04-25T07:47:48.989Z</time></trkpt><trkpt lat="42.54466443609833" lon="12.004755426970647"><ele>340.0</ele><time>2026-04-25T07:47:50.989Z</time></trkpt><trkpt lat="42.544718655641965" lon="12.004654925297533"><ele>340.0</ele><time>2026-04-25T07:47:52.989Z</time></trkpt><trkpt lat="42.544767287719125" lon="12.00455767551331"><ele>340.0</ele><time>2026-04-25T07:47:54.989Z</time></trkpt><trkpt lat="42.544815428041375" lon="12.004454379151463"><ele>340.0</ele><time>2026-04-25T07:47:56.989Z</time></trkpt><trkpt lat="42.54485738053913" lon="12.004361644368487"><ele>340.0</ele><time>2026-04-25T07:47:58.989Z</time></trkpt><trkpt lat="42.544904953338225" lon="12.004274428460734"><ele>340.0</ele><time>2026-04-25T07:48:00.989Z</time></trkpt><trkpt lat="42.544934319511675" lon="12.004184352602078"><ele>340.0</ele><time>2026-04-25T07:48:02.989Z</time></trkpt><trkpt lat="42.544970419427976" lon="12.004098208319437"><ele>340.0</ele><time>2026-04-25T07:48:04.989Z</time></trkpt><trkpt lat="42.54500580516267" lon="12.004020882567428"><ele>340.0</ele><time>2026-04-25T07:48:06.989Z</time></trkpt><trkpt lat="42.54503137486743" lon="12.003930612716946"><ele>340.0</ele><time>2026-04-25T07:48:08.989Z</time></trkpt><trkpt lat="42.545071879271205" lon="12.003858762147047"><ele>340.0</ele><time>2026-04-25T07:48:10.989Z</time></trkpt><trkpt lat="42.54512224133853" lon="12.003792038104894"><ele>340.0</ele><time>2026-04-25T07:48:12.989Z</time></trkpt><trkpt lat="42.5451531255262" lon="12.003678158416232"><ele>340.0</ele><time>2026-04-25T07:48:15.989Z</time></trkpt><trkpt lat="42.54520648829559" lon="12.003597463748102"><ele>340.0</ele><time>2026-04-25T07:48:18.989Z</time></trkpt><trkpt lat="42.545261985129976" lon="12.003523747386573"><ele>340.0</ele><time>2026-04-25T07:48:21.989Z</time></trkpt><trkpt lat="42.5453118278003" lon="12.003439139807705"><ele>340.0</ele><time>2026-04-25T07:48:24.989Z</time></trkpt><trkpt lat="42.54536244859816" lon="12.003352415303086"><ele>340.0</ele><time>2026-04-25T07:48:26.989Z</time></trkpt><trkpt lat="42.545397915385855" lon="12.003259806570584"><ele>340.0</ele><time>2026-04-25T07:48:28.989Z</time></trkpt><trkpt lat="42.54545672237544" lon="12.003178505906964"><ele>340.0</ele><time>2026-04-25T07:48:30.989Z</time></trkpt><trkpt lat="42.545500745675064" lon="12.003070847809346"><ele>340.0</ele><time>2026-04-25T07:48:32.988Z</time></trkpt><trkpt lat="42.54555263161726" lon="12.002966579669279"><ele>340.5</ele><time>2026-04-25T07:48:34.988Z</time></trkpt><trkpt lat="42.54559566470023" lon="12.002850021217347"><ele>341.0</ele><time>2026-04-25T07:48:36.988Z</time></trkpt><trkpt lat="42.5456286968522" lon="12.002732989982304"><ele>341.5</ele><time>2026-04-25T07:48:38.988Z</time></trkpt><trkpt lat="42.54565553983078" lon="12.00262310888591"><ele>342.0</ele><time>2026-04-25T07:48:40.988Z</time></trkpt><trkpt lat="42.54568104445803" lon="12.002525418125398"><ele>342.5</ele><time>2026-04-25T07:48:42.988Z</time></trkpt><trkpt lat="42.54570249714039" lon="12.00241928324139"><ele>343.0</ele><time>2026-04-25T07:48:44.988Z</time></trkpt><trkpt lat="42.54571697526734" lon="12.002321032929354"><ele>343.42857142857144</ele><time>2026-04-25T07:48:46.988Z</time></trkpt><trkpt lat="42.545726801108934" lon="12.002229394578707"><ele>343.8571428571429</ele><time>2026-04-25T07:48:48.988Z</time></trkpt><trkpt lat="42.54573084143985" lon="12.002136244461973"><ele>344.2857142857143</ele><time>2026-04-25T07:48:50.988Z</time></trkpt><trkpt lat="42.54573261215693" lon="12.002021491986243"><ele>344.7142857142857</ele><time>2026-04-25T07:48:53.988Z</time></trkpt><trkpt lat="42.545728176284065" lon="12.001896462186542"><ele>345.14285714285717</ele><time>2026-04-25T07:48:56.988Z</time></trkpt><trkpt lat="42.54572975330106" lon="12.001805810622606"><ele>345.57142857142856</ele><time>2026-04-25T07:48:58.988Z</time></trkpt><trkpt lat="42.545728640798956" lon="12.001714465852588"><ele>346.0</ele><time>2026-04-25T07:49:00.988Z</time></trkpt><trkpt lat="42.5457325753129" lon="12.001626444228789"><ele>346.57142857142856</ele><time>2026-04-25T07:49:02.988Z</time></trkpt><trkpt lat="42.54573449160943" lon="12.001511011482457"><ele>347.14285714285717</ele><time>2026-04-25T07:49:05.988Z</time></trkpt><trkpt lat="42.54574201258656" lon="12.001403206198729"><ele>347.7142857142857</ele><time>2026-04-25T07:49:08.988Z</time></trkpt><trkpt lat="42.545732161888886" lon="12.001316219236623"><ele>348.2857142857143</ele><time>2026-04-25T07:49:11.988Z</time></trkpt><trkpt lat="42.54573872752871" lon="12.001216266055131"><ele>348.8571428571429</ele><time>2026-04-25T07:49:14.988Z</time></trkpt><trkpt lat="42.545729079075294" lon="12.001123986623547"><ele>349.42857142857144</ele><time>2026-04-25T07:49:18.988Z</time></trkpt><trkpt lat="42.545728494406674" lon="12.001032361735495"><ele>350.0</ele><time>2026-04-25T07:49:21.988Z</time></trkpt><trkpt lat="42.5457331811021" lon="12.000943395106047"><ele>350.14285714285717</ele><time>2026-04-25T07:49:24.987Z</time></trkpt><trkpt lat="42.545743590669105" lon="12.000827181638158"><ele>350.2857142857143</ele><time>2026-04-25T07:49:28.987Z</time></trkpt><trkpt lat="42.54575352424628" lon="12.000740354726938"><ele>350.42857142857144</ele><time>2026-04-25T07:49:31.987Z</time></trkpt><trkpt lat="42.54576120920219" lon="12.000649136082075"><ele>350.57142857142856</ele><time>2026-04-25T07:49:34.987Z</time></trkpt><trkpt lat="42.54577804164999" lon="12.000557271919302"><ele>350.7142857142857</ele><time>2026-04-25T07:49:37.987Z</time></trkpt><trkpt lat="42.5457974668268" lon="12.000470128722593"><ele>350.8571428571429</ele><time>2026-04-25T07:49:40.987Z</time></trkpt><trkpt lat="42.54581717270037" lon="12.000382223402138"><ele>351.0</ele><time>2026-04-25T07:49:43.987Z</time></trkpt><trkpt lat="42.54583861012564" lon="12.000282640409203"><ele>351.00000000000006</ele><time>2026-04-25T07:49:46.987Z</time></trkpt><trkpt lat="42.545864986296365" lon="12.00017798932067"><ele>351.0</ele><time>2026-04-25T07:49:49.987Z</time></trkpt><trkpt lat="42.545893897213126" lon="12.000097357248713"><ele>351.0</ele><time>2026-04-25T07:49:52.987Z</time></trkpt><trkpt lat="42.54592791561759" lon="12.00001383365083"><ele>351.0</ele><time>2026-04-25T07:49:55.987Z</time></trkpt><trkpt lat="42.5459609961415" lon="11.99993494456395"><ele>351.0</ele><time>2026-04-25T07:49:58.987Z</time></trkpt><trkpt lat="42.54600279662723" lon="11.999846977054787"><ele>351.00000000000006</ele><time>2026-04-25T07:50:01.987Z</time></trkpt><trkpt lat="42.54604091955139" lon="11.9997679758167"><ele>351.0</ele><time>2026-04-25T07:50:04.987Z</time></trkpt><trkpt lat="42.54608963507648" lon="11.999685455672948"><ele>351.00000000000006</ele><time>2026-04-25T07:50:07.987Z</time></trkpt><trkpt lat="42.546136742834335" lon="11.999605928591466"><ele>351.0</ele><time>2026-04-25T07:50:10.987Z</time></trkpt><trkpt lat="42.54614422988205" lon="11.999519653003416"><ele>351.0</ele><time>2026-04-25T07:50:13.986Z</time></trkpt><trkpt lat="42.54608669974524" lon="11.999445835237776"><ele>351.0</ele><time>2026-04-25T07:50:16.986Z</time></trkpt><trkpt lat="42.546021836823" lon="11.999392939865237"><ele>351.0</ele><time>2026-04-25T07:50:19.986Z</time></trkpt><trkpt lat="42.54595888590963" lon="11.99933173817318"><ele>351.00000000000006</ele><time>2026-04-25T07:50:22.986Z</time></trkpt><trkpt lat="42.54590750405514" lon="11.999277804847255"><ele>351.0</ele><time>2026-04-25T07:50:25.986Z</time></trkpt><trkpt lat="42.545851766356016" lon="11.9992370373894"><ele>351.0</ele><time>2026-04-25T07:50:27.986Z</time></trkpt><trkpt lat="42.54579927973545" lon="11.999188900876199"><ele>351.0</ele><time>2026-04-25T07:50:29.986Z</time></trkpt><trkpt lat="42.54572763646527" lon="11.999130494709043"><ele>351.0</ele><time>2026-04-25T07:50:31.986Z</time></trkpt><trkpt lat="42.545667852085344" lon="11.999099204866127"><ele>351.0</ele><time>2026-04-25T07:50:33.986Z</time></trkpt><trkpt lat="42.545594586454776" lon="11.999057812801343"><ele>351.0</ele><time>2026-04-25T07:50:35.986Z</time></trkpt><trkpt lat="42.545526224380126" lon="11.99901345704864"><ele>351.0</ele><time>2026-04-25T07:50:37.986Z</time></trkpt><trkpt lat="42.54542765111827" lon="11.99893314203492"><ele>349.4</ele><time>2026-04-25T07:50:39.986Z</time></trkpt><trkpt lat="42.54533982075419" lon="11.99886325257075"><ele>347.8</ele><time>2026-04-25T07:50:41.986Z</time></trkpt><trkpt lat="42.54526716745864" lon="11.99879746192477"><ele>346.2</ele><time>2026-04-25T07:50:43.986Z</time></trkpt><trkpt lat="42.54519565445429" lon="11.998721250447874"><ele>344.59999999999997</ele><time>2026-04-25T07:50:45.986Z</time></trkpt><trkpt lat="42.54511548320069" lon="11.998653744678103"><ele>343.0</ele><time>2026-04-25T07:50:47.986Z</time></trkpt><trkpt lat="42.54501685786493" lon="11.998594047118928"><ele>343.0</ele><time>2026-04-25T07:50:49.986Z</time></trkpt><trkpt lat="42.54490679873381" lon="11.998543305408601"><ele>343.0</ele><time>2026-04-25T07:50:51.986Z</time></trkpt><trkpt lat="42.544805202198084" lon="11.998502407941716"><ele>343.0</ele><time>2026-04-25T07:50:53.986Z</time></trkpt><trkpt lat="42.544727606354904" lon="11.99845999584939"><ele>343.0</ele><time>2026-04-25T07:50:55.986Z</time></trkpt><trkpt lat="42.54465294115126" lon="11.99843500878446"><ele>343.0</ele><time>2026-04-25T07:50:57.986Z</time></trkpt><trkpt lat="42.5445527073301" lon="11.99839131294722"><ele>341.5</ele><time>2026-04-25T07:50:59.986Z</time></trkpt><trkpt lat="42.54447150632458" lon="11.998347065536104"><ele>340.0</ele><time>2026-04-25T07:51:01.986Z</time></trkpt><trkpt lat="42.5443841108199" lon="11.998290813348234"><ele>338.5</ele><time>2026-04-25T07:51:03.986Z</time></trkpt><trkpt lat="42.5443017058403" lon="11.998221876243736"><ele>337.0</ele><time>2026-04-25T07:51:05.985Z</time></trkpt><trkpt lat="42.54424150196013" lon="11.99811049231443"><ele>335.5</ele><time>2026-04-25T07:51:07.985Z</time></trkpt><trkpt lat="42.54420053175374" lon="11.998041707851177"><ele>334.0</ele><time>2026-04-25T07:51:08.985Z</time></trkpt><trkpt lat="42.5441330827307" lon="11.997916285160088"><ele>334.0</ele><time>2026-04-25T07:51:10.985Z</time></trkpt><trkpt lat="42.544075035492426" lon="11.997803078109587"><ele>334.0</ele><time>2026-04-25T07:51:12.985Z</time></trkpt><trkpt lat="42.544037839047554" lon="11.997733760227632"><ele>334.0</ele><time>2026-04-25T07:51:13.985Z</time></trkpt><trkpt lat="42.54396761576802" lon="11.997606295677873"><ele>334.0</ele><time>2026-04-25T07:51:15.985Z</time></trkpt><trkpt lat="42.54390446386364" lon="11.997486414144682"><ele>334.0</ele><time>2026-04-25T07:51:17.985Z</time></trkpt><trkpt lat="42.543851189825084" lon="11.99739478607105"><ele>333.79999999999995</ele><time>2026-04-25T07:51:19.985Z</time></trkpt><trkpt lat="42.54379286972941" lon="11.997278432610646"><ele>333.59999999999997</ele><time>2026-04-25T07:51:21.985Z</time></trkpt><trkpt lat="42.54372876487467" lon="11.997169872359486"><ele>333.4</ele><time>2026-04-25T07:51:23.985Z</time></trkpt><trkpt lat="42.54366074369658" lon="11.997063349904622"><ele>333.2</ele><time>2026-04-25T07:51:25.985Z</time></trkpt><trkpt lat="42.543587995765115" lon="11.996927792831434"><ele>333.0</ele><time>2026-04-25T07:51:27.985Z</time></trkpt><trkpt lat="42.543551115860524" lon="11.996841130722936"><ele>330.6666666666667</ele><time>2026-04-25T07:51:28.985Z</time></trkpt><trkpt lat="42.54351444558576" lon="11.996752245925085"><ele>328.3333333333333</ele><time>2026-04-25T07:51:29.985Z</time></trkpt><trkpt lat="42.54348388079635" lon="11.996663932927445"><ele>326.0</ele><time>2026-04-25T07:51:30.985Z</time></trkpt><trkpt lat="42.54342079063117" lon="11.996528867031063"><ele>323.66666666666663</ele><time>2026-04-25T07:51:32.985Z</time></trkpt><trkpt lat="42.543399824840016" lon="11.996447230512603"><ele>321.3333333333333</ele><time>2026-04-25T07:51:34.985Z</time></trkpt><trkpt lat="42.54335537126522" lon="11.996330657117348"><ele>319.0</ele><time>2026-04-25T07:51:37.985Z</time></trkpt><trkpt lat="42.54333099392786" lon="11.99623695010173"><ele>319.0</ele><time>2026-04-25T07:51:39.985Z</time></trkpt><trkpt lat="42.54333193832324" lon="11.996122636119612"><ele>319.0</ele><time>2026-04-25T07:51:41.985Z</time></trkpt><trkpt lat="42.54332238539547" lon="11.995989675274469"><ele>319.0</ele><time>2026-04-25T07:51:43.985Z</time></trkpt><trkpt lat="42.54329109248927" lon="11.99585061844801"><ele>319.0</ele><time>2026-04-25T07:51:45.985Z</time></trkpt><trkpt lat="42.54326700091672" lon="11.995686106557663"><ele>319.0</ele><time>2026-04-25T07:51:47.985Z</time></trkpt><trkpt lat="42.543247244663604" lon="11.995600533315061"><ele>319.0</ele><time>2026-04-25T07:51:48.985Z</time></trkpt><trkpt lat="42.54322560705899" lon="11.995511688101546"><ele>319.0</ele><time>2026-04-25T07:51:49.985Z</time></trkpt><trkpt lat="42.543204639754734" lon="11.995423069353581"><ele>319.0</ele><time>2026-04-25T07:51:50.985Z</time></trkpt><trkpt lat="42.543194734145" lon="11.995331048470547"><ele>319.0</ele><time>2026-04-25T07:51:51.985Z</time></trkpt><trkpt lat="42.54318076802146" lon="11.995234633341848"><ele>319.0</ele><time>2026-04-25T07:51:52.985Z</time></trkpt><trkpt lat="42.54317377341856" lon="11.995135667512503"><ele>319.0</ele><time>2026-04-25T07:51:53.985Z</time></trkpt><trkpt lat="42.54316960492406" lon="11.995030309372074"><ele>319.0</ele><time>2026-04-25T07:51:54.985Z</time></trkpt><trkpt lat="42.54317195758861" lon="11.994924080018626"><ele>318.66666666666663</ele><time>2026-04-25T07:51:55.984Z</time></trkpt><trkpt lat="42.543178147649066" lon="11.994827836256126"><ele>318.3333333333333</ele><time>2026-04-25T07:51:56.984Z</time></trkpt><trkpt lat="42.543195874471046" lon="11.994722894641264"><ele>318.0</ele><time>2026-04-25T07:51:57.984Z</time></trkpt><trkpt lat="42.543222449200016" lon="11.994607314219154"><ele>317.6666666666667</ele><time>2026-04-25T07:51:58.984Z</time></trkpt><trkpt lat="42.543239658500994" lon="11.994510378740733"><ele>317.33333333333337</ele><time>2026-04-25T07:51:59.984Z</time></trkpt><trkpt lat="42.54326059772368" lon="11.994412955787878"><ele>317.0</ele><time>2026-04-25T07:52:00.984Z</time></trkpt><trkpt lat="42.54328373597296" lon="11.994317892104357"><ele>317.0</ele><time>2026-04-25T07:52:01.984Z</time></trkpt><trkpt lat="42.5433003705316" lon="11.9942172159458"><ele>317.0</ele><time>2026-04-25T07:52:02.984Z</time></trkpt><trkpt lat="42.54330912219786" lon="11.99412249943126"><ele>317.0</ele><time>2026-04-25T07:52:03.984Z</time></trkpt><trkpt lat="42.54332710543536" lon="11.994026265218928"><ele>317.0</ele><time>2026-04-25T07:52:04.984Z</time></trkpt><trkpt lat="42.543356444207824" lon="11.993933392912714"><ele>317.0</ele><time>2026-04-25T07:52:05.984Z</time></trkpt><trkpt lat="42.54337611954667" lon="11.993842744985907"><ele>317.0</ele><time>2026-04-25T07:52:06.984Z</time></trkpt><trkpt lat="42.54338963975138" lon="11.993746454694554"><ele>317.0</ele><time>2026-04-25T07:52:07.984Z</time></trkpt><trkpt lat="42.543402569348785" lon="11.993656682148066"><ele>316.2</ele><time>2026-04-25T07:52:08.984Z</time></trkpt><trkpt lat="42.54341719127691" lon="11.9935726072913"><ele>315.4</ele><time>2026-04-25T07:52:09.984Z</time></trkpt><trkpt lat="42.54344232864137" lon="11.99348877019441"><ele>314.6</ele><time>2026-04-25T07:52:10.984Z</time></trkpt><trkpt lat="42.54349328594387" lon="11.993332524499165"><ele>313.8</ele><time>2026-04-25T07:52:12.984Z</time></trkpt><trkpt lat="42.54352324949436" lon="11.993179166885538"><ele>313.0</ele><time>2026-04-25T07:52:14.984Z</time></trkpt><trkpt lat="42.543552988647285" lon="11.993028511238117"><ele>312.0</ele><time>2026-04-25T07:52:16.984Z</time></trkpt><trkpt lat="42.5435558119248" lon="11.992879926137341"><ele>311.0</ele><time>2026-04-25T07:52:18.984Z</time></trkpt><trkpt lat="42.54355113203873" lon="11.9927349446813"><ele>310.0</ele><time>2026-04-25T07:52:20.984Z</time></trkpt><trkpt lat="42.54351564267661" lon="11.992616426758461"><ele>309.0</ele><time>2026-04-25T07:52:22.984Z</time></trkpt><trkpt lat="42.5434782722121" lon="11.992500509022369"><ele>308.0</ele><time>2026-04-25T07:52:24.984Z</time></trkpt><trkpt lat="42.543433161097575" lon="11.992381502465923"><ele>307.6666666666667</ele><time>2026-04-25T07:52:26.984Z</time></trkpt><trkpt lat="42.543377376403924" lon="11.992274106311617"><ele>307.33333333333337</ele><time>2026-04-25T07:52:28.984Z</time></trkpt><trkpt lat="42.54331664935343" lon="11.992195410444285"><ele>307.0</ele><time>2026-04-25T07:52:30.984Z</time></trkpt><trkpt lat="42.543246841891076" lon="11.992135818882026"><ele>306.6666666666667</ele><time>2026-04-25T07:52:32.984Z</time></trkpt><trkpt lat="42.5431765522003" lon="11.99207449792669"><ele>306.3333333333333</ele><time>2026-04-25T07:52:34.984Z</time></trkpt><trkpt lat="42.54311152586715" lon="11.992029742208809"><ele>306.0</ele><time>2026-04-25T07:52:36.984Z</time></trkpt><trkpt lat="42.54302870925338" lon="11.991980993636396"><ele>306.0</ele><time>2026-04-25T07:52:38.984Z</time></trkpt><trkpt lat="42.54294025744444" lon="11.99193108863336"><ele>306.0</ele><time>2026-04-25T07:52:40.984Z</time></trkpt><trkpt lat="42.54284955477953" lon="11.99187736055588"><ele>306.0</ele><time>2026-04-25T07:52:42.984Z</time></trkpt><trkpt lat="42.542762670454806" lon="11.991840821094224"><ele>306.0</ele><time>2026-04-25T07:52:44.984Z</time></trkpt><trkpt lat="42.54267740212897" lon="11.991791862982268"><ele>306.0</ele><time>2026-04-25T07:52:46.983Z</time></trkpt><trkpt lat="42.5425922434925" lon="11.991744259467302"><ele>306.0</ele><time>2026-04-25T07:52:48.983Z</time></trkpt><trkpt lat="42.54250573190808" lon="11.991716326599896"><ele>306.0</ele><time>2026-04-25T07:52:50.983Z</time></trkpt><trkpt lat="42.54241868143332" lon="11.991665366508451"><ele>306.0</ele><time>2026-04-25T07:52:52.983Z</time></trkpt><trkpt lat="42.542340471285705" lon="11.991598774579703"><ele>306.0</ele><time>2026-04-25T07:52:54.983Z</time></trkpt><trkpt lat="42.54225353462389" lon="11.99155847655478"><ele>306.0</ele><time>2026-04-25T07:52:56.983Z</time></trkpt><trkpt lat="42.542174041115004" lon="11.991509805167592"><ele>306.0</ele><time>2026-04-25T07:52:58.983Z</time></trkpt><trkpt lat="42.54209420539615" lon="11.991467127704666"><ele>306.0</ele><time>2026-04-25T07:53:00.983Z</time></trkpt><trkpt lat="42.54202614291694" lon="11.99142291927377"><ele>306.0</ele><time>2026-04-25T07:53:02.983Z</time></trkpt><trkpt lat="42.54196464011094" lon="11.991373886502755"><ele>306.0</ele><time>2026-04-25T07:53:04.983Z</time></trkpt><trkpt lat="42.54189635139308" lon="11.991318827924957"><ele>306.0</ele><time>2026-04-25T07:53:06.983Z</time></trkpt><trkpt lat="42.541822637731435" lon="11.991275963867135"><ele>306.0</ele><time>2026-04-25T07:53:08.983Z</time></trkpt><trkpt lat="42.54174857270525" lon="11.99123019560053"><ele>306.1666666666667</ele><time>2026-04-25T07:53:10.983Z</time></trkpt><trkpt lat="42.54167961925441" lon="11.991163373157116"><ele>306.3333333333333</ele><time>2026-04-25T07:53:12.983Z</time></trkpt><trkpt lat="42.54161266521754" lon="11.991103253837245"><ele>306.5</ele><time>2026-04-25T07:53:14.983Z</time></trkpt><trkpt lat="42.54154467650408" lon="11.991051601669279"><ele>306.66666666666663</ele><time>2026-04-25T07:53:16.983Z</time></trkpt><trkpt lat="42.54147251508831" lon="11.990990868176622"><ele>306.8333333333333</ele><time>2026-04-25T07:53:18.983Z</time></trkpt><trkpt lat="42.54140333362481" lon="11.990929754678604"><ele>307.0</ele><time>2026-04-25T07:53:20.983Z</time></trkpt><trkpt lat="42.54133368695686" lon="11.990871232799684"><ele>307.16666666666663</ele><time>2026-04-25T07:53:22.983Z</time></trkpt><trkpt lat="42.541261639710115" lon="11.990811683611364"><ele>307.3333333333333</ele><time>2026-04-25T07:53:24.983Z</time></trkpt><trkpt lat="42.54119554026591" lon="11.990761730729828"><ele>307.5</ele><time>2026-04-25T07:53:26.983Z</time></trkpt><trkpt lat="42.541131286860235" lon="11.990699788440727"><ele>307.6666666666667</ele><time>2026-04-25T07:53:28.983Z</time></trkpt><trkpt lat="42.541062736056475" lon="11.990638763055868"><ele>307.83333333333337</ele><time>2026-04-25T07:53:30.983Z</time></trkpt><trkpt lat="42.54097997057322" lon="11.990590704227078"><ele>308.0</ele><time>2026-04-25T07:53:32.983Z</time></trkpt><trkpt lat="42.54091443282064" lon="11.990507514914931"><ele>308.0</ele><time>2026-04-25T07:53:34.983Z</time></trkpt><trkpt lat="42.540841029360024" lon="11.990446424363201"><ele>308.0</ele><time>2026-04-25T07:53:36.982Z</time></trkpt><trkpt lat="42.54077401149554" lon="11.990388905606338"><ele>308.0</ele><time>2026-04-25T07:53:38.982Z</time></trkpt><trkpt lat="42.54070952236577" lon="11.990320612215077"><ele>308.0</ele><time>2026-04-25T07:53:40.982Z</time></trkpt><trkpt lat="42.54064878818384" lon="11.990255517829157"><ele>308.0</ele><time>2026-04-25T07:53:42.982Z</time></trkpt><trkpt lat="42.540596290096744" lon="11.99016837592827"><ele>308.0</ele><time>2026-04-25T07:53:44.982Z</time></trkpt><trkpt lat="42.54054797977462" lon="11.99009231033736"><ele>308.0</ele><time>2026-04-25T07:53:46.982Z</time></trkpt><trkpt lat="42.54049916389238" lon="11.990011980020736"><ele>308.0</ele><time>2026-04-25T07:53:48.982Z</time></trkpt><trkpt lat="42.540453586092106" lon="11.989924253013749"><ele>308.0</ele><time>2026-04-25T07:53:50.982Z</time></trkpt><trkpt lat="42.540393633901104" lon="11.98985189004491"><ele>308.0</ele><time>2026-04-25T07:53:52.982Z</time></trkpt><trkpt lat="42.540334176347585" lon="11.989772778235261"><ele>308.0</ele><time>2026-04-25T07:53:54.982Z</time></trkpt><trkpt lat="42.540288171278476" lon="11.98969218211917"><ele>308.0</ele><time>2026-04-25T07:53:56.982Z</time></trkpt><trkpt lat="42.540238020277286" lon="11.989612900981104"><ele>307.83333333333337</ele><time>2026-04-25T07:53:58.982Z</time></trkpt><trkpt lat="42.54018130603059" lon="11.989527272958979"><ele>307.6666666666667</ele><time>2026-04-25T07:54:00.982Z</time></trkpt><trkpt lat="42.54012617714541" lon="11.989441473607409"><ele>307.5</ele><time>2026-04-25T07:54:02.982Z</time></trkpt><trkpt lat="42.54006921225264" lon="11.989369531358703"><ele>307.3333333333333</ele><time>2026-04-25T07:54:04.982Z</time></trkpt><trkpt lat="42.540015038359606" lon="11.989275861840992"><ele>307.16666666666663</ele><time>2026-04-25T07:54:06.982Z</time></trkpt><trkpt lat="42.53995121034188" lon="11.989196552535109"><ele>307.0</ele><time>2026-04-25T07:54:08.982Z</time></trkpt><trkpt lat="42.539894893858694" lon="11.989104480569162"><ele>307.0</ele><time>2026-04-25T07:54:10.982Z</time></trkpt><trkpt lat="42.53983721847562" lon="11.989023152627889"><ele>307.0</ele><time>2026-04-25T07:54:12.982Z</time></trkpt><trkpt lat="42.539775476164706" lon="11.988933910050875"><ele>307.0</ele><time>2026-04-25T07:54:14.982Z</time></trkpt><trkpt lat="42.53971243437794" lon="11.988837549436532"><ele>307.0</ele><time>2026-04-25T07:54:16.982Z</time></trkpt><trkpt lat="42.53965926053848" lon="11.988741316331353"><ele>307.0</ele><time>2026-04-25T07:54:18.982Z</time></trkpt><trkpt lat="42.539602866321914" lon="11.9886476183794"><ele>307.0</ele><time>2026-04-25T07:54:20.982Z</time></trkpt><trkpt lat="42.53954589722534" lon="11.98856825295768"><ele>307.0</ele><time>2026-04-25T07:54:22.982Z</time></trkpt><trkpt lat="42.53948487856186" lon="11.988467756467996"><ele>307.0</ele><time>2026-04-25T07:54:24.982Z</time></trkpt><trkpt lat="42.53943299137594" lon="11.98837645801116"><ele>307.0</ele><time>2026-04-25T07:54:26.982Z</time></trkpt><trkpt lat="42.53937043623455" lon="11.988284988015458"><ele>307.0</ele><time>2026-04-25T07:54:28.981Z</time></trkpt><trkpt lat="42.53931734210061" lon="11.988208540476041"><ele>307.0</ele><time>2026-04-25T07:54:30.981Z</time></trkpt><trkpt lat="42.539269508745164" lon="11.988111785413539"><ele>307.0</ele><time>2026-04-25T07:54:32.981Z</time></trkpt><trkpt lat="42.53920885260207" lon="11.988025309076239"><ele>307.0</ele><time>2026-04-25T07:54:34.981Z</time></trkpt><trkpt lat="42.53915306279536" lon="11.987932569156207"><ele>307.0</ele><time>2026-04-25T07:54:36.981Z</time></trkpt><trkpt lat="42.53909777569193" lon="11.987846070931353"><ele>307.0</ele><time>2026-04-25T07:54:38.981Z</time></trkpt><trkpt lat="42.53903658058124" lon="11.987759568694795"><ele>307.0</ele><time>2026-04-25T07:54:40.981Z</time></trkpt><trkpt lat="42.53897459982998" lon="11.98767489758082"><ele>307.0</ele><time>2026-04-25T07:54:42.981Z</time></trkpt><trkpt lat="42.538919127559055" lon="11.987574841573176"><ele>307.0</ele><time>2026-04-25T07:54:44.981Z</time></trkpt><trkpt lat="42.538855215576724" lon="11.987475247862502"><ele>306.8</ele><time>2026-04-25T07:54:46.981Z</time></trkpt><trkpt lat="42.53879237173065" lon="11.987379784507114"><ele>306.6</ele><time>2026-04-25T07:54:48.981Z</time></trkpt><trkpt lat="42.53873582866096" lon="11.98729163885164"><ele>306.40000000000003</ele><time>2026-04-25T07:54:50.981Z</time></trkpt><trkpt lat="42.538671632062304" lon="11.987197757079212"><ele>306.2</ele><time>2026-04-25T07:54:52.981Z</time></trkpt><trkpt lat="42.53861576772995" lon="11.987100852461982"><ele>306.0</ele><time>2026-04-25T07:54:54.981Z</time></trkpt><trkpt lat="42.53855578080799" lon="11.987008742530506"><ele>306.0</ele><time>2026-04-25T07:54:56.981Z</time></trkpt><trkpt lat="42.538495274958365" lon="11.986909282617027"><ele>306.0</ele><time>2026-04-25T07:54:58.981Z</time></trkpt><trkpt lat="42.53843803933572" lon="11.986817408002286"><ele>306.0</ele><time>2026-04-25T07:55:00.981Z</time></trkpt><trkpt lat="42.53837595405257" lon="11.986719557133707"><ele>306.0</ele><time>2026-04-25T07:55:02.981Z</time></trkpt><trkpt lat="42.53831816834563" lon="11.986633795139298"><ele>306.0</ele><time>2026-04-25T07:55:04.981Z</time></trkpt><trkpt lat="42.53825682431783" lon="11.98653731865453"><ele>305.8</ele><time>2026-04-25T07:55:06.981Z</time></trkpt><trkpt lat="42.53819168430743" lon="11.986447564176952"><ele>305.6</ele><time>2026-04-25T07:55:08.981Z</time></trkpt><trkpt lat="42.538126107960615" lon="11.98635962915474"><ele>305.4</ele><time>2026-04-25T07:55:10.981Z</time></trkpt><trkpt lat="42.53805497255306" lon="11.986276110431819"><ele>305.2</ele><time>2026-04-25T07:55:12.981Z</time></trkpt><trkpt lat="42.53799092162165" lon="11.98618267401255"><ele>305.0</ele><time>2026-04-25T07:55:14.981Z</time></trkpt><trkpt lat="42.5379370904759" lon="11.986094677270136"><ele>305.33333333333337</ele><time>2026-04-25T07:55:16.981Z</time></trkpt><trkpt lat="42.53787922096328" lon="11.986007593497323"><ele>305.6666666666667</ele><time>2026-04-25T07:55:18.98Z</time></trkpt><trkpt lat="42.537833559687115" lon="11.985906504826541"><ele>306.0</ele><time>2026-04-25T07:55:20.98Z</time></trkpt><trkpt lat="42.5377894558514" lon="11.985805724050346"><ele>306.3333333333333</ele><time>2026-04-25T07:55:22.98Z</time></trkpt><trkpt lat="42.537739274777735" lon="11.985705831607465"><ele>306.66666666666663</ele><time>2026-04-25T07:55:24.98Z</time></trkpt><trkpt lat="42.53770183117574" lon="11.985605176991129"><ele>307.0</ele><time>2026-04-25T07:55:26.98Z</time></trkpt><trkpt lat="42.53766648352847" lon="11.985504661844653"><ele>307.0</ele><time>2026-04-25T07:55:28.98Z</time></trkpt><trkpt lat="42.5376287844697" lon="11.985404523088452"><ele>307.0</ele><time>2026-04-25T07:55:30.98Z</time></trkpt><trkpt lat="42.53759778288003" lon="11.985305283700358"><ele>307.0</ele><time>2026-04-25T07:55:32.98Z</time></trkpt><trkpt lat="42.53757114218846" lon="11.985197696173277"><ele>307.0</ele><time>2026-04-25T07:55:34.98Z</time></trkpt><trkpt lat="42.537548143367324" lon="11.98508356470949"><ele>307.0</ele><time>2026-04-25T07:55:36.98Z</time></trkpt><trkpt lat="42.53752556955632" lon="11.984982722142945"><ele>307.0</ele><time>2026-04-25T07:55:38.98Z</time></trkpt><trkpt lat="42.53749756910521" lon="11.984883122085268"><ele>307.0</ele><time>2026-04-25T07:55:40.98Z</time></trkpt><trkpt lat="42.53746607755913" lon="11.98478183476449"><ele>307.0</ele><time>2026-04-25T07:55:42.98Z</time></trkpt><trkpt lat="42.537444931018214" lon="11.984678533737986"><ele>307.0</ele><time>2026-04-25T07:55:44.98Z</time></trkpt><trkpt lat="42.53741461167992" lon="11.984581678900518"><ele>307.0</ele><time>2026-04-25T07:55:46.98Z</time></trkpt><trkpt lat="42.53736833458057" lon="11.984492091235433"><ele>307.0</ele><time>2026-04-25T07:55:48.98Z</time></trkpt><trkpt lat="42.53731257615502" lon="11.984416962206282"><ele>307.0</ele><time>2026-04-25T07:55:50.98Z</time></trkpt><trkpt lat="42.537240907533054" lon="11.984352590876076"><ele>307.0</ele><time>2026-04-25T07:55:52.98Z</time></trkpt><trkpt lat="42.537167437393045" lon="11.984306433989005"><ele>307.0</ele><time>2026-04-25T07:55:54.98Z</time></trkpt><trkpt lat="42.53709665132485" lon="11.984267762511369"><ele>307.0</ele><time>2026-04-25T07:55:56.98Z</time></trkpt><trkpt lat="42.5370116468864" lon="11.98419931493342"><ele>307.0</ele><time>2026-04-25T07:55:58.98Z</time></trkpt><trkpt lat="42.536932981305625" lon="11.98414513179221"><ele>307.0</ele><time>2026-04-25T07:56:00.98Z</time></trkpt><trkpt lat="42.53686373354029" lon="11.984068099530392"><ele>307.0</ele><time>2026-04-25T07:56:02.98Z</time></trkpt><trkpt lat="42.536807772985306" lon="11.983977208524397"><ele>307.16666666666663</ele><time>2026-04-25T07:56:04.98Z</time></trkpt><trkpt lat="42.53678019844548" lon="11.983877267698583"><ele>307.3333333333333</ele><time>2026-04-25T07:56:06.98Z</time></trkpt><trkpt lat="42.536747806670725" lon="11.983767974011286"><ele>307.5</ele><time>2026-04-25T07:56:08.98Z</time></trkpt><trkpt lat="42.53671625879621" lon="11.983656840370038"><ele>307.6666666666667</ele><time>2026-04-25T07:56:10.98Z</time></trkpt><trkpt lat="42.536691056290756" lon="11.983542595457296"><ele>307.83333333333337</ele><time>2026-04-25T07:56:12.98Z</time></trkpt><trkpt lat="42.53666313257956" lon="11.983420003662905"><ele>308.0</ele><time>2026-04-25T07:56:14.979Z</time></trkpt><trkpt lat="42.5366420025383" lon="11.983303934658485"><ele>308.0</ele><time>2026-04-25T07:56:16.979Z</time></trkpt><trkpt lat="42.536611747794076" lon="11.983186563276643"><ele>308.0</ele><time>2026-04-25T07:56:18.979Z</time></trkpt><trkpt lat="42.536583250444195" lon="11.983063003709857"><ele>308.0</ele><time>2026-04-25T07:56:20.979Z</time></trkpt><trkpt lat="42.536562082392585" lon="11.982942037109973"><ele>308.0</ele><time>2026-04-25T07:56:22.979Z</time></trkpt><trkpt lat="42.5365347607328" lon="11.982824083171671"><ele>308.0</ele><time>2026-04-25T07:56:24.979Z</time></trkpt><trkpt lat="42.53650979579269" lon="11.982706284278903"><ele>308.0</ele><time>2026-04-25T07:56:26.979Z</time></trkpt><trkpt lat="42.536484899927935" lon="11.982590125443382"><ele>308.0</ele><time>2026-04-25T07:56:28.979Z</time></trkpt><trkpt lat="42.5364589073927" lon="11.982474961768123"><ele>308.0</ele><time>2026-04-25T07:56:30.979Z</time></trkpt><trkpt lat="42.536431762824805" lon="11.982350041959085"><ele>308.0</ele><time>2026-04-25T07:56:32.979Z</time></trkpt><trkpt lat="42.53639971213123" lon="11.982234901254975"><ele>308.0</ele><time>2026-04-25T07:56:34.979Z</time></trkpt><trkpt lat="42.536369760569734" lon="11.982131503698412"><ele>308.0</ele><time>2026-04-25T07:56:36.979Z</time></trkpt><trkpt lat="42.53634231944641" lon="11.982012286271305"><ele>307.5</ele><time>2026-04-25T07:56:38.979Z</time></trkpt><trkpt lat="42.53631733743241" lon="11.981894927503292"><ele>307.0</ele><time>2026-04-25T07:56:40.979Z</time></trkpt><trkpt lat="42.536294395518745" lon="11.98179531735506"><ele>306.5</ele><time>2026-04-25T07:56:42.979Z</time></trkpt><trkpt lat="42.53627178181298" lon="11.98168000482127"><ele>306.0</ele><time>2026-04-25T07:56:44.979Z</time></trkpt><trkpt lat="42.53624637905834" lon="11.981567368743326"><ele>305.5</ele><time>2026-04-25T07:56:46.979Z</time></trkpt><trkpt lat="42.5362177999349" lon="11.981458711225418"><ele>305.0</ele><time>2026-04-25T07:56:48.979Z</time></trkpt><trkpt lat="42.53619368220828" lon="11.981347672526049"><ele>305.6666666666667</ele><time>2026-04-25T07:56:50.979Z</time></trkpt><trkpt lat="42.53617020786869" lon="11.981237621196112"><ele>306.33333333333337</ele><time>2026-04-25T07:56:52.979Z</time></trkpt><trkpt lat="42.53614267655175" lon="11.981121931543631"><ele>307.0</ele><time>2026-04-25T07:56:54.979Z</time></trkpt><trkpt lat="42.536115667488744" lon="11.981016449214268"><ele>307.6666666666667</ele><time>2026-04-25T07:56:56.979Z</time></trkpt><trkpt lat="42.53609517090296" lon="11.980908389697479"><ele>308.3333333333333</ele><time>2026-04-25T07:56:58.979Z</time></trkpt><trkpt lat="42.536072729803784" lon="11.980799504517645"><ele>309.0</ele><time>2026-04-25T07:57:00.979Z</time></trkpt><trkpt lat="42.53603947424236" lon="11.980704696527264"><ele>309.0</ele><time>2026-04-25T07:57:02.979Z</time></trkpt><trkpt lat="42.5360198487794" lon="11.980584203035164"><ele>309.0</ele><time>2026-04-25T07:57:04.979Z</time></trkpt><trkpt lat="42.5359935517239" lon="11.980478924290864"><ele>309.0</ele><time>2026-04-25T07:57:06.978Z</time></trkpt><trkpt lat="42.5359711838191" lon="11.980371888326198"><ele>309.0</ele><time>2026-04-25T07:57:08.978Z</time></trkpt><trkpt lat="42.53595450827841" lon="11.98025939671559"><ele>309.0</ele><time>2026-04-25T07:57:10.978Z</time></trkpt><trkpt lat="42.53594863218356" lon="11.980142279707476"><ele>309.0</ele><time>2026-04-25T07:57:12.978Z</time></trkpt><trkpt lat="42.53593031909694" lon="11.980022805964468"><ele>308.8333333333333</ele><time>2026-04-25T07:57:14.978Z</time></trkpt><trkpt lat="42.53590811966951" lon="11.979905780118768"><ele>308.6666666666667</ele><time>2026-04-25T07:57:16.978Z</time></trkpt><trkpt lat="42.53588597362516" lon="11.979782425547072"><ele>308.5</ele><time>2026-04-25T07:57:18.978Z</time></trkpt><trkpt lat="42.53586453739868" lon="11.979670452643875"><ele>308.33333333333337</ele><time>2026-04-25T07:57:20.978Z</time></trkpt><trkpt lat="42.53584383532637" lon="11.979567411495257"><ele>308.1666666666667</ele><time>2026-04-25T07:57:22.978Z</time></trkpt><trkpt lat="42.53582051807026" lon="11.97945283156673"><ele>308.0</ele><time>2026-04-25T07:57:24.978Z</time></trkpt><trkpt lat="42.53579784234013" lon="11.979328393352857"><ele>308.0</ele><time>2026-04-25T07:57:26.978Z</time></trkpt><trkpt lat="42.53577773679506" lon="11.979206349579261"><ele>308.0</ele><time>2026-04-25T07:57:28.978Z</time></trkpt><trkpt lat="42.535749566989345" lon="11.979088860527117"><ele>308.0</ele><time>2026-04-25T07:57:30.978Z</time></trkpt><trkpt lat="42.53572604849086" lon="11.978969949871209"><ele>308.0</ele><time>2026-04-25T07:57:32.978Z</time></trkpt><trkpt lat="42.53571077739743" lon="11.9788554325172"><ele>308.0</ele><time>2026-04-25T07:57:34.978Z</time></trkpt><trkpt lat="42.53568759518977" lon="11.978736954236481"><ele>307.6666666666667</ele><time>2026-04-25T07:57:36.978Z</time></trkpt><trkpt lat="42.53566744782356" lon="11.978618413140916"><ele>307.33333333333337</ele><time>2026-04-25T07:57:38.978Z</time></trkpt><trkpt lat="42.53564208170389" lon="11.978510908785108"><ele>307.0</ele><time>2026-04-25T07:57:40.978Z</time></trkpt><trkpt lat="42.53563246817688" lon="11.978394771945817"><ele>306.6666666666667</ele><time>2026-04-25T07:57:42.978Z</time></trkpt><trkpt lat="42.53561201957029" lon="11.978274601465127"><ele>306.3333333333333</ele><time>2026-04-25T07:57:44.978Z</time></trkpt><trkpt lat="42.535590253913526" lon="11.978153302384083"><ele>306.0</ele><time>2026-04-25T07:57:46.978Z</time></trkpt><trkpt lat="42.53557603167928" lon="11.978028993915409"><ele>306.0</ele><time>2026-04-25T07:57:48.978Z</time></trkpt><trkpt lat="42.535543154162234" lon="11.97790683256131"><ele>306.0</ele><time>2026-04-25T07:57:50.978Z</time></trkpt><trkpt lat="42.53553147003878" lon="11.977788049555128"><ele>306.0</ele><time>2026-04-25T07:57:52.978Z</time></trkpt><trkpt lat="42.53551565716327" lon="11.977673946291223"><ele>306.0</ele><time>2026-04-25T07:57:54.978Z</time></trkpt><trkpt lat="42.53549681792367" lon="11.977544797259299"><ele>306.0</ele><time>2026-04-25T07:57:56.977Z</time></trkpt><trkpt lat="42.53547726650427" lon="11.97742412212059"><ele>306.0</ele><time>2026-04-25T07:57:58.977Z</time></trkpt><trkpt lat="42.53546189044487" lon="11.977309832691407"><ele>306.0</ele><time>2026-04-25T07:58:00.977Z</time></trkpt><trkpt lat="42.53544021866842" lon="11.977186340976138"><ele>306.0</ele><time>2026-04-25T07:58:02.977Z</time></trkpt><trkpt lat="42.535432396759084" lon="11.977057779216373"><ele>306.0</ele><time>2026-04-25T07:58:04.977Z</time></trkpt><trkpt lat="42.53541828018617" lon="11.976935470895654"><ele>306.0</ele><time>2026-04-25T07:58:06.977Z</time></trkpt><trkpt lat="42.53539206920344" lon="11.976812460397522"><ele>312.20000000000005</ele><time>2026-04-25T07:58:08.977Z</time></trkpt><trkpt lat="42.53538039427683" lon="11.976676955640654"><ele>318.40000000000003</ele><time>2026-04-25T07:58:10.977Z</time></trkpt><trkpt lat="42.535365905117324" lon="11.976551476644765"><ele>324.6</ele><time>2026-04-25T07:58:12.977Z</time></trkpt><trkpt lat="42.53535013725936" lon="11.976424485861347"><ele>330.8</ele><time>2026-04-25T07:58:14.977Z</time></trkpt><trkpt lat="42.53533290730943" lon="11.976292943390646"><ele>337.0</ele><time>2026-04-25T07:58:16.977Z</time></trkpt><trkpt lat="42.53531088586643" lon="11.976158791192239"><ele>337.0</ele><time>2026-04-25T07:58:18.977Z</time></trkpt><trkpt lat="42.53529107474657" lon="11.976035557084728"><ele>337.0</ele><time>2026-04-25T07:58:20.977Z</time></trkpt><trkpt lat="42.5352875307344" lon="11.975914104772592"><ele>337.0</ele><time>2026-04-25T07:58:22.977Z</time></trkpt><trkpt lat="42.53526588653921" lon="11.975782990352963"><ele>337.0</ele><time>2026-04-25T07:58:24.977Z</time></trkpt><trkpt lat="42.53525031893996" lon="11.975663910805752"><ele>337.0</ele><time>2026-04-25T07:58:26.977Z</time></trkpt><trkpt lat="42.535233026434014" lon="11.975540926963681"><ele>336.6</ele><time>2026-04-25T07:58:28.977Z</time></trkpt><trkpt lat="42.535217673725036" lon="11.975419855852811"><ele>336.20000000000005</ele><time>2026-04-25T07:58:30.977Z</time></trkpt><trkpt lat="42.53519965932532" lon="11.975304917610783"><ele>335.8</ele><time>2026-04-25T07:58:32.977Z</time></trkpt><trkpt lat="42.53519192987778" lon="11.975177069213327"><ele>335.4</ele><time>2026-04-25T07:58:34.977Z</time></trkpt><trkpt lat="42.53517569347089" lon="11.97505579088761"><ele>335.0</ele><time>2026-04-25T07:58:36.977Z</time></trkpt><trkpt lat="42.535167200607624" lon="11.974922180369049"><ele>333.6</ele><time>2026-04-25T07:58:38.977Z</time></trkpt><trkpt lat="42.53514585575992" lon="11.974812267814048"><ele>332.2</ele><time>2026-04-25T07:58:40.977Z</time></trkpt><trkpt lat="42.535139756505444" lon="11.974678845419865"><ele>330.79999999999995</ele><time>2026-04-25T07:58:43.001Z</time></trkpt><trkpt lat="42.5351245567638" lon="11.974552853298299"><ele>329.4</ele><time>2026-04-25T07:58:45.001Z</time></trkpt><trkpt lat="42.535110337357374" lon="11.974431039573405"><ele>328.0</ele><time>2026-04-25T07:58:47.001Z</time></trkpt><trkpt lat="42.53510346304891" lon="11.974307537461682"><ele>327.0</ele><time>2026-04-25T07:58:49.001Z</time></trkpt><trkpt lat="42.53508842948767" lon="11.97417839383553"><ele>326.0</ele><time>2026-04-25T07:58:51.001Z</time></trkpt><trkpt lat="42.53506954599228" lon="11.97405757452551"><ele>325.0</ele><time>2026-04-25T07:58:53.001Z</time></trkpt><trkpt lat="42.53504775465881" lon="11.97393483952233"><ele>324.0</ele><time>2026-04-25T07:58:55.001Z</time></trkpt><trkpt lat="42.53503183145683" lon="11.9738160227676"><ele>323.0</ele><time>2026-04-25T07:58:57.001Z</time></trkpt><trkpt lat="42.53501970861839" lon="11.973701117469803"><ele>323.0</ele><time>2026-04-25T07:58:59.001Z</time></trkpt><trkpt lat="42.535007811542165" lon="11.973575622951538"><ele>323.0</ele><time>2026-04-25T07:59:01.001Z</time></trkpt><trkpt lat="42.5349971118287" lon="11.973444927295132"><ele>323.0</ele><time>2026-04-25T07:59:03.001Z</time></trkpt><trkpt lat="42.53497912008089" lon="11.973332612027221"><ele>323.0</ele><time>2026-04-25T07:59:05.001Z</time></trkpt><trkpt lat="42.53496182518879" lon="11.973215231013315"><ele>323.0</ele><time>2026-04-25T07:59:07.001Z</time></trkpt><trkpt lat="42.53494040079402" lon="11.973107732563424"><ele>323.0</ele><time>2026-04-25T07:59:09.001Z</time></trkpt><trkpt lat="42.53492343259052" lon="11.972994226727497"><ele>322.6666666666667</ele><time>2026-04-25T07:59:11.001Z</time></trkpt><trkpt lat="42.534903489023215" lon="11.972889242928682"><ele>322.33333333333337</ele><time>2026-04-25T07:59:13.001Z</time></trkpt><trkpt lat="42.53489649976645" lon="11.972776275632484"><ele>322.0</ele><time>2026-04-25T07:59:15.001Z</time></trkpt><trkpt lat="42.53488852452936" lon="11.972663392883083"><ele>321.6666666666667</ele><time>2026-04-25T07:59:17.001Z</time></trkpt><trkpt lat="42.53488227923807" lon="11.972551696144105"><ele>321.3333333333333</ele><time>2026-04-25T07:59:19.001Z</time></trkpt><trkpt lat="42.53486466947069" lon="11.972439726572166"><ele>321.0</ele><time>2026-04-25T07:59:21Z</time></trkpt><trkpt lat="42.534856219616" lon="11.97232426602268"><ele>320.3333333333333</ele><time>2026-04-25T07:59:23Z</time></trkpt><trkpt lat="42.534838088987435" lon="11.97221636726733"><ele>319.6666666666667</ele><time>2026-04-25T07:59:25Z</time></trkpt><trkpt lat="42.53481620752843" lon="11.972108898916417"><ele>319.0</ele><time>2026-04-25T07:59:27Z</time></trkpt><trkpt lat="42.53480745086147" lon="11.972006592717532"><ele>318.33333333333337</ele><time>2026-04-25T07:59:29.003Z</time></trkpt><trkpt lat="42.53480214279596" lon="11.971881200356995"><ele>317.6666666666667</ele><time>2026-04-25T07:59:31.003Z</time></trkpt><trkpt lat="42.53478509050459" lon="11.971771153798734"><ele>317.0</ele><time>2026-04-25T07:59:33.003Z</time></trkpt><trkpt lat="42.53476543926801" lon="11.971655380534566"><ele>315.6</ele><time>2026-04-25T07:59:35.003Z</time></trkpt><trkpt lat="42.534764310856836" lon="11.971532702785622"><ele>314.2</ele><time>2026-04-25T07:59:37.004Z</time></trkpt><trkpt lat="42.534750933855" lon="11.971419729929618"><ele>312.8</ele><time>2026-04-25T07:59:39.003Z</time></trkpt><trkpt lat="42.534712225563325" lon="11.971292455453346"><ele>311.4</ele><time>2026-04-25T07:59:41.003Z</time></trkpt><trkpt lat="42.53465772669711" lon="11.971206561287863"><ele>310.0</ele><time>2026-04-25T07:59:43.003Z</time></trkpt><trkpt lat="42.53460008051453" lon="11.971108406001637"><ele>312.8</ele><time>2026-04-25T07:59:45.003Z</time></trkpt><trkpt lat="42.53452531065015" lon="11.971018446063278"><ele>315.6</ele><time>2026-04-25T07:59:47.003Z</time></trkpt><trkpt lat="42.53445438255854" lon="11.970903746873603"><ele>318.4</ele><time>2026-04-25T07:59:49.003Z</time></trkpt><trkpt lat="42.53437081009577" lon="11.970815984425675"><ele>321.2</ele><time>2026-04-25T07:59:51.003Z</time></trkpt><trkpt lat="42.534300894815956" lon="11.970714928895037"><ele>324.0</ele><time>2026-04-25T07:59:53.003Z</time></trkpt><trkpt lat="42.53428745647225" lon="11.970594818387681"><ele>324.0</ele><time>2026-04-25T07:59:55.003Z</time></trkpt><trkpt lat="42.53434640187214" lon="11.970506486237339"><ele>324.0</ele><time>2026-04-25T07:59:58.003Z</time></trkpt><trkpt lat="42.53441471620933" lon="11.970439432259061"><ele>324.0</ele><time>2026-04-25T08:00:00.003Z</time></trkpt><trkpt lat="42.534497913549764" lon="11.970384395819757"><ele>324.0</ele><time>2026-04-25T08:00:02.003Z</time></trkpt><trkpt lat="42.53457761175823" lon="11.970309751802631"><ele>324.0</ele><time>2026-04-25T08:00:04.003Z</time></trkpt><trkpt lat="42.53461465066872" lon="11.970208054380716"><ele>324.0</ele><time>2026-04-25T08:00:06.003Z</time></trkpt><trkpt lat="42.534609997499096" lon="11.970082276185874"><ele>321.3333333333333</ele><time>2026-04-25T08:00:08.003Z</time></trkpt><trkpt lat="42.53459998559099" lon="11.969978641862227"><ele>318.6666666666667</ele><time>2026-04-25T08:00:10.003Z</time></trkpt><trkpt lat="42.534589554632646" lon="11.96987452604649"><ele>316.0</ele><time>2026-04-25T08:00:12.003Z</time></trkpt><trkpt lat="42.53458416309046" lon="11.969777705767122"><ele>313.33333333333337</ele><time>2026-04-25T08:00:14.003Z</time></trkpt><trkpt lat="42.53458271570566" lon="11.969670020966758"><ele>310.6666666666667</ele><time>2026-04-25T08:00:16.003Z</time></trkpt><trkpt lat="42.53458328135744" lon="11.969569891380948"><ele>308.0</ele><time>2026-04-25T08:00:18.003Z</time></trkpt><trkpt lat="42.53457791384396" lon="11.969470879197917"><ele>308.0</ele><time>2026-04-25T08:00:20.003Z</time></trkpt><trkpt lat="42.53456630944989" lon="11.969376610532054"><ele>308.0</ele><time>2026-04-25T08:00:22.003Z</time></trkpt><trkpt lat="42.53455491115097" lon="11.969259707332274"><ele>308.0</ele><time>2026-04-25T08:00:24.003Z</time></trkpt><trkpt lat="42.53454502216988" lon="11.969154706902126"><ele>308.0</ele><time>2026-04-25T08:00:26.003Z</time></trkpt><trkpt lat="42.534546431647215" lon="11.969051845422527"><ele>308.0</ele><time>2026-04-25T08:00:28.003Z</time></trkpt><trkpt lat="42.53453010734605" lon="11.968931309264969"><ele>308.0</ele><time>2026-04-25T08:00:30.003Z</time></trkpt><trkpt lat="42.53453203272349" lon="11.968818972505405"><ele>308.0</ele><time>2026-04-25T08:00:32.002Z</time></trkpt><trkpt lat="42.5345271568533" lon="11.96870994589854"><ele>308.0</ele><time>2026-04-25T08:00:34.002Z</time></trkpt><trkpt lat="42.534515805722975" lon="11.968620251925527"><ele>308.0</ele><time>2026-04-25T08:00:36.002Z</time></trkpt><trkpt lat="42.53450925983791" lon="11.96850917030767"><ele>308.0</ele><time>2026-04-25T08:00:38.002Z</time></trkpt><trkpt lat="42.534504426101044" lon="11.968409889107015"><ele>308.0</ele><time>2026-04-25T08:00:40.002Z</time></trkpt><trkpt lat="42.53449992544409" lon="11.968300555894434"><ele>308.0</ele><time>2026-04-25T08:00:42.002Z</time></trkpt><trkpt lat="42.534493940031886" lon="11.968198062916375"><ele>307.6666666666667</ele><time>2026-04-25T08:00:44.002Z</time></trkpt><trkpt lat="42.53448126352421" lon="11.968088362650096"><ele>307.33333333333337</ele><time>2026-04-25T08:00:46.002Z</time></trkpt><trkpt lat="42.53448202457177" lon="11.967973973711736"><ele>307.0</ele><time>2026-04-25T08:00:48.002Z</time></trkpt><trkpt lat="42.534471314088556" lon="11.96786822165461"><ele>306.6666666666667</ele><time>2026-04-25T08:00:50.002Z</time></trkpt><trkpt lat="42.53446519708124" lon="11.967766851455305"><ele>306.3333333333333</ele><time>2026-04-25T08:00:52.002Z</time></trkpt><trkpt lat="42.53445449009039" lon="11.967668320091322"><ele>306.0</ele><time>2026-04-25T08:00:54.002Z</time></trkpt><trkpt lat="42.53444628872426" lon="11.967560696392836"><ele>305.6666666666667</ele><time>2026-04-25T08:00:56.002Z</time></trkpt><trkpt lat="42.534440101547446" lon="11.96744707760693"><ele>305.3333333333333</ele><time>2026-04-25T08:00:58.002Z</time></trkpt><trkpt lat="42.53442992884333" lon="11.967336967621836"><ele>305.0</ele><time>2026-04-25T08:01:00.002Z</time></trkpt><trkpt lat="42.53442261304004" lon="11.967230889109313"><ele>304.66666666666663</ele><time>2026-04-25T08:01:02.002Z</time></trkpt><trkpt lat="42.53441700036159" lon="11.967131395079312"><ele>304.3333333333333</ele><time>2026-04-25T08:01:04.002Z</time></trkpt><trkpt lat="42.53440304966134" lon="11.967033936091491"><ele>304.0</ele><time>2026-04-25T08:01:06.002Z</time></trkpt><trkpt lat="42.534390242750575" lon="11.966919452622255"><ele>304.0</ele><time>2026-04-25T08:01:08.002Z</time></trkpt><trkpt lat="42.534389716246416" lon="11.9668183422268"><ele>304.0</ele><time>2026-04-25T08:01:10.002Z</time></trkpt><trkpt lat="42.53438397122343" lon="11.966716949275401"><ele>304.0</ele><time>2026-04-25T08:01:12.002Z</time></trkpt><trkpt lat="42.53437357989247" lon="11.966621926680364"><ele>304.0</ele><time>2026-04-25T08:01:14.002Z</time></trkpt><trkpt lat="42.534373985593305" lon="11.966524769127263"><ele>304.0</ele><time>2026-04-25T08:01:16.002Z</time></trkpt><trkpt lat="42.53437680852148" lon="11.966419401964671"><ele>304.0</ele><time>2026-04-25T08:01:18.002Z</time></trkpt><trkpt lat="42.53436606145265" lon="11.966324514013388"><ele>304.0</ele><time>2026-04-25T08:01:20.002Z</time></trkpt><trkpt lat="42.53435822325665" lon="11.966228538226602"><ele>304.0</ele><time>2026-04-25T08:01:22.001Z</time></trkpt><trkpt lat="42.534358974693745" lon="11.966125233693045"><ele>304.0</ele><time>2026-04-25T08:01:24.001Z</time></trkpt><trkpt lat="42.534364147562016" lon="11.966016295832214"><ele>304.0</ele><time>2026-04-25T08:01:26.001Z</time></trkpt><trkpt lat="42.53436629790865" lon="11.965910752916026"><ele>304.0</ele><time>2026-04-25T08:01:28.001Z</time></trkpt><trkpt lat="42.5343575638232" lon="11.965806515277317"><ele>304.0</ele><time>2026-04-25T08:01:30.001Z</time></trkpt><trkpt lat="42.5343515720613" lon="11.965692247885341"><ele>304.0</ele><time>2026-04-25T08:01:32.001Z</time></trkpt><trkpt lat="42.534358615590534" lon="11.965572433798501"><ele>304.16666666666663</ele><time>2026-04-25T08:01:34.001Z</time></trkpt><trkpt lat="42.53435798978514" lon="11.965451524673732"><ele>304.3333333333333</ele><time>2026-04-25T08:01:36.004Z</time></trkpt><trkpt lat="42.534357826467755" lon="11.965324705646555"><ele>304.5</ele><time>2026-04-25T08:01:38.003Z</time></trkpt><trkpt lat="42.5343527217647" lon="11.965214836621671"><ele>304.6666666666667</ele><time>2026-04-25T08:01:40.003Z</time></trkpt><trkpt lat="42.53434779953489" lon="11.965100407527146"><ele>304.83333333333337</ele><time>2026-04-25T08:01:42.004Z</time></trkpt><trkpt lat="42.53434606046202" lon="11.96497189287036"><ele>305.0</ele><time>2026-04-25T08:01:44.003Z</time></trkpt><trkpt lat="42.53435216752236" lon="11.96485794896356"><ele>305.1666666666667</ele><time>2026-04-25T08:01:46.003Z</time></trkpt><trkpt lat="42.53436254078743" lon="11.964738880540429"><ele>305.33333333333337</ele><time>2026-04-25T08:01:48.004Z</time></trkpt><trkpt lat="42.53435464813801" lon="11.964622947959432"><ele>305.5</ele><time>2026-04-25T08:01:50.004Z</time></trkpt><trkpt lat="42.53433549065204" lon="11.964502808290803"><ele>305.6666666666667</ele><time>2026-04-25T08:01:52.004Z</time></trkpt><trkpt lat="42.534334413524874" lon="11.964384884057864"><ele>305.8333333333333</ele><time>2026-04-25T08:01:54.004Z</time></trkpt><trkpt lat="42.53434615953473" lon="11.964265732692832"><ele>306.0</ele><time>2026-04-25T08:01:56.004Z</time></trkpt><trkpt lat="42.53434820865395" lon="11.96413525340172"><ele>306.0</ele><time>2026-04-25T08:01:58.004Z</time></trkpt><trkpt lat="42.53434852085001" lon="11.964015526292174"><ele>306.0</ele><time>2026-04-25T08:02:00.004Z</time></trkpt><trkpt lat="42.534336419518624" lon="11.963905339563635"><ele>306.0</ele><time>2026-04-25T08:02:02.004Z</time></trkpt><trkpt lat="42.534337996483366" lon="11.96378591356983"><ele>306.0</ele><time>2026-04-25T08:02:04.004Z</time></trkpt><trkpt lat="42.53433693036691" lon="11.96366768641799"><ele>306.0</ele><time>2026-04-25T08:02:06.004Z</time></trkpt><trkpt lat="42.53433520526914" lon="11.963550306022915"><ele>306.0</ele><time>2026-04-25T08:02:08.004Z</time></trkpt><trkpt lat="42.53433926016546" lon="11.963432719943032"><ele>306.0</ele><time>2026-04-25T08:02:10.004Z</time></trkpt><trkpt lat="42.534344200277026" lon="11.96331867021509"><ele>306.0</ele><time>2026-04-25T08:02:12.004Z</time></trkpt><trkpt lat="42.53434444932145" lon="11.963205830752937"><ele>306.0</ele><time>2026-04-25T08:02:14.003Z</time></trkpt><trkpt lat="42.53435193545578" lon="11.963093309783515"><ele>306.0</ele><time>2026-04-25T08:02:16.003Z</time></trkpt><trkpt lat="42.53434723505791" lon="11.962982604297252"><ele>306.0</ele><time>2026-04-25T08:02:18.003Z</time></trkpt><trkpt lat="42.53436116700965" lon="11.962865021151915"><ele>306.0</ele><time>2026-04-25T08:02:20.003Z</time></trkpt><trkpt lat="42.534365990849395" lon="11.962750506456263"><ele>306.0</ele><time>2026-04-25T08:02:22.003Z</time></trkpt><trkpt lat="42.53436354762616" lon="11.96263513660726"><ele>306.0</ele><time>2026-04-25T08:02:24.003Z</time></trkpt><trkpt lat="42.534362887031776" lon="11.962523661764807"><ele>306.0</ele><time>2026-04-25T08:02:26.003Z</time></trkpt><trkpt lat="42.53435353616056" lon="11.962415866534947"><ele>306.0</ele><time>2026-04-25T08:02:28.003Z</time></trkpt><trkpt lat="42.534352895623464" lon="11.962293990428108"><ele>306.0</ele><time>2026-04-25T08:02:30.003Z</time></trkpt><trkpt lat="42.534354893954166" lon="11.962183869182665"><ele>306.0</ele><time>2026-04-25T08:02:32.003Z</time></trkpt><trkpt lat="42.53436709949584" lon="11.962072112304533"><ele>306.0</ele><time>2026-04-25T08:02:34.003Z</time></trkpt><trkpt lat="42.534373245847206" lon="11.96195680649931"><ele>306.0</ele><time>2026-04-25T08:02:36.003Z</time></trkpt><trkpt lat="42.53437565742587" lon="11.961842408280042"><ele>306.0</ele><time>2026-04-25T08:02:38.003Z</time></trkpt><trkpt lat="42.534379530149444" lon="11.961722785190233"><ele>306.0</ele><time>2026-04-25T08:02:40.003Z</time></trkpt><trkpt lat="42.534373262194244" lon="11.961597034032433"><ele>306.0</ele><time>2026-04-25T08:02:42.003Z</time></trkpt><trkpt lat="42.534369355162816" lon="11.961486922390757"><ele>306.0</ele><time>2026-04-25T08:02:44.003Z</time></trkpt><trkpt lat="42.534380481422794" lon="11.961375674339909"><ele>306.0</ele><time>2026-04-25T08:02:46.003Z</time></trkpt><trkpt lat="42.534386196677204" lon="11.9612573405011"><ele>306.0</ele><time>2026-04-25T08:02:48.003Z</time></trkpt><trkpt lat="42.53439362700541" lon="11.961138798195574"><ele>306.0</ele><time>2026-04-25T08:02:50.003Z</time></trkpt><trkpt lat="42.53439873642934" lon="11.961023546706121"><ele>306.0</ele><time>2026-04-25T08:02:52.003Z</time></trkpt><trkpt lat="42.53440227667502" lon="11.960915527389899"><ele>306.0</ele><time>2026-04-25T08:02:54.003Z</time></trkpt><trkpt lat="42.534394964014034" lon="11.960807782677179"><ele>306.0</ele><time>2026-04-25T08:02:56.003Z</time></trkpt><trkpt lat="42.534404018104695" lon="11.960700127774139"><ele>306.0</ele><time>2026-04-25T08:02:58.003Z</time></trkpt><trkpt lat="42.534400352158556" lon="11.960595154766489"><ele>306.0</ele><time>2026-04-25T08:03:00.003Z</time></trkpt><trkpt lat="42.53441028539926" lon="11.960475982322068"><ele>306.0</ele><time>2026-04-25T08:03:02.003Z</time></trkpt><trkpt lat="42.534419813700204" lon="11.960364003210826"><ele>306.0</ele><time>2026-04-25T08:03:04.002Z</time></trkpt><trkpt lat="42.53442739117466" lon="11.960254332017017"><ele>306.0</ele><time>2026-04-25T08:03:06.002Z</time></trkpt><trkpt lat="42.53442962785517" lon="11.960140907850308"><ele>306.0</ele><time>2026-04-25T08:03:08.002Z</time></trkpt><trkpt lat="42.534449585560814" lon="11.960044818244647"><ele>306.0</ele><time>2026-04-25T08:03:10.002Z</time></trkpt><trkpt lat="42.53444592444004" lon="11.959932264161827"><ele>306.0</ele><time>2026-04-25T08:03:12.002Z</time></trkpt><trkpt lat="42.534444359500625" lon="11.959809686556676"><ele>306.0</ele><time>2026-04-25T08:03:14.002Z</time></trkpt><trkpt lat="42.534445778609395" lon="11.95969303136363"><ele>306.0</ele><time>2026-04-25T08:03:16.002Z</time></trkpt><trkpt lat="42.53444870812086" lon="11.9595689088536"><ele>306.0</ele><time>2026-04-25T08:03:18.002Z</time></trkpt><trkpt lat="42.534461383761666" lon="11.9594596768464"><ele>306.0</ele><time>2026-04-25T08:03:20.002Z</time></trkpt><trkpt lat="42.53445267784855" lon="11.959350107182212"><ele>306.0</ele><time>2026-04-25T08:03:22.002Z</time></trkpt><trkpt lat="42.534444646880615" lon="11.95925841241189"><ele>306.0</ele><time>2026-04-25T08:03:24.002Z</time></trkpt><trkpt lat="42.53446619235278" lon="11.959152353842804"><ele>306.0</ele><time>2026-04-25T08:03:26.002Z</time></trkpt><trkpt lat="42.534468635317424" lon="11.959041720916163"><ele>306.0</ele><time>2026-04-25T08:03:28.002Z</time></trkpt><trkpt lat="42.53446125981337" lon="11.95892502403888"><ele>306.0</ele><time>2026-04-25T08:03:30.002Z</time></trkpt><trkpt lat="42.53446583267093" lon="11.958826415950652"><ele>306.0</ele><time>2026-04-25T08:03:32.002Z</time></trkpt><trkpt lat="42.53447519194518" lon="11.958737429663772"><ele>306.1428571428571</ele><time>2026-04-25T08:03:34.002Z</time></trkpt><trkpt lat="42.53447434956843" lon="11.958650073055104"><ele>306.2857142857143</ele><time>2026-04-25T08:03:36.002Z</time></trkpt><trkpt lat="42.534475598656144" lon="11.958549319437312"><ele>306.42857142857144</ele><time>2026-04-25T08:03:38.002Z</time></trkpt><trkpt lat="42.534491410349624" lon="11.958450294014312"><ele>306.57142857142856</ele><time>2026-04-25T08:03:40.002Z</time></trkpt><trkpt lat="42.53449802198898" lon="11.958346934985753"><ele>306.7142857142857</ele><time>2026-04-25T08:03:42.003Z</time></trkpt><trkpt lat="42.5345001092218" lon="11.958242496178208"><ele>306.85714285714283</ele><time>2026-04-25T08:03:44.003Z</time></trkpt><trkpt lat="42.5345033438338" lon="11.95813790300334"><ele>307.0</ele><time>2026-04-25T08:03:46.004Z</time></trkpt><trkpt lat="42.53450605872118" lon="11.958030131233606"><ele>307.5</ele><time>2026-04-25T08:03:48.004Z</time></trkpt><trkpt lat="42.534511703989835" lon="11.957926515237629"><ele>308.0</ele><time>2026-04-25T08:03:50.004Z</time></trkpt><trkpt lat="42.53450959035297" lon="11.957807714166872"><ele>308.5</ele><time>2026-04-25T08:03:52.004Z</time></trkpt><trkpt lat="42.5345151328653" lon="11.957690497903455"><ele>309.0</ele><time>2026-04-25T08:03:54.003Z</time></trkpt><trkpt lat="42.53451491800334" lon="11.95758595366312"><ele>309.5</ele><time>2026-04-25T08:03:56.003Z</time></trkpt><trkpt lat="42.534522319783115" lon="11.957483580389935"><ele>310.0</ele><time>2026-04-25T08:03:58.003Z</time></trkpt><trkpt lat="42.53452924261822" lon="11.95737001898378"><ele>310.66666666666663</ele><time>2026-04-25T08:04:00.003Z</time></trkpt><trkpt lat="42.534533423481335" lon="11.957266710458716"><ele>311.3333333333333</ele><time>2026-04-25T08:04:02.003Z</time></trkpt><trkpt lat="42.53454268993908" lon="11.957153509658639"><ele>312.0</ele><time>2026-04-25T08:04:04.003Z</time></trkpt><trkpt lat="42.53454794319607" lon="11.957045663055057"><ele>312.6666666666667</ele><time>2026-04-25T08:04:06.003Z</time></trkpt><trkpt lat="42.5345518949839" lon="11.956938870102393"><ele>313.33333333333337</ele><time>2026-04-25T08:04:08.003Z</time></trkpt><trkpt lat="42.53456217256008" lon="11.956834996078346"><ele>314.0</ele><time>2026-04-25T08:04:10.003Z</time></trkpt><trkpt lat="42.53456777282705" lon="11.95672768146292"><ele>312.33333333333337</ele><time>2026-04-25T08:04:12.003Z</time></trkpt><trkpt lat="42.534571679763786" lon="11.956617692164023"><ele>310.6666666666667</ele><time>2026-04-25T08:04:14.003Z</time></trkpt><trkpt lat="42.53458244679526" lon="11.956501778153013"><ele>309.0</ele><time>2026-04-25T08:04:16.003Z</time></trkpt><trkpt lat="42.534585784750604" lon="11.956396073597283"><ele>307.3333333333333</ele><time>2026-04-25T08:04:18.003Z</time></trkpt><trkpt lat="42.53458666053702" lon="11.956286195269259"><ele>305.66666666666663</ele><time>2026-04-25T08:04:20.003Z</time></trkpt><trkpt lat="42.53459622504834" lon="11.95618794671781"><ele>304.0</ele><time>2026-04-25T08:04:22.003Z</time></trkpt><trkpt lat="42.534602057368915" lon="11.956074835466511"><ele>304.0</ele><time>2026-04-25T08:04:24.003Z</time></trkpt><trkpt lat="42.53460706404019" lon="11.955960430567316"><ele>304.0</ele><time>2026-04-25T08:04:26.003Z</time></trkpt><trkpt lat="42.534603121388706" lon="11.9558557207831"><ele>304.0</ele><time>2026-04-25T08:04:28.003Z</time></trkpt><trkpt lat="42.534606154734405" lon="11.955746066416815"><ele>304.0</ele><time>2026-04-25T08:04:30.003Z</time></trkpt><trkpt lat="42.534627129996046" lon="11.955647277620228"><ele>304.0</ele><time>2026-04-25T08:04:32.003Z</time></trkpt><trkpt lat="42.5346274885912" lon="11.955546975494208"><ele>304.0</ele><time>2026-04-25T08:04:34.003Z</time></trkpt><trkpt lat="42.53463520000718" lon="11.955424402649436"><ele>304.0</ele><time>2026-04-25T08:04:36.003Z</time></trkpt><trkpt lat="42.53463727773338" lon="11.955311817789982"><ele>304.0</ele><time>2026-04-25T08:04:38.002Z</time></trkpt><trkpt lat="42.53464412588472" lon="11.955194704276417"><ele>304.0</ele><time>2026-04-25T08:04:40.002Z</time></trkpt><trkpt lat="42.53465687891263" lon="11.955082451088149"><ele>304.0</ele><time>2026-04-25T08:04:42.002Z</time></trkpt><trkpt lat="42.53465705025712" lon="11.954967164572176"><ele>304.0</ele><time>2026-04-25T08:04:44.002Z</time></trkpt><trkpt lat="42.53466246291152" lon="11.954862226959483"><ele>304.0</ele><time>2026-04-25T08:04:46.002Z</time></trkpt><trkpt lat="42.534671874298304" lon="11.954754242830685"><ele>304.16666666666663</ele><time>2026-04-25T08:04:48.002Z</time></trkpt><trkpt lat="42.53467989972388" lon="11.954649298691157"><ele>304.3333333333333</ele><time>2026-04-25T08:04:50.002Z</time></trkpt><trkpt lat="42.53468207262801" lon="11.954533242900405"><ele>304.5</ele><time>2026-04-25T08:04:52.002Z</time></trkpt><trkpt lat="42.53469061478033" lon="11.954424191774253"><ele>304.6666666666667</ele><time>2026-04-25T08:04:54.002Z</time></trkpt><trkpt lat="42.5346998941395" lon="11.95430974368055"><ele>304.83333333333337</ele><time>2026-04-25T08:04:56.002Z</time></trkpt><trkpt lat="42.53470116495545" lon="11.954211112122477"><ele>305.0</ele><time>2026-04-25T08:04:58.002Z</time></trkpt><trkpt lat="42.53469463612313" lon="11.954100901968767"><ele>305.0</ele><time>2026-04-25T08:05:00.002Z</time></trkpt><trkpt lat="42.534705038543386" lon="11.953990294903699"><ele>305.0</ele><time>2026-04-25T08:05:02.002Z</time></trkpt><trkpt lat="42.53473195266417" lon="11.953884595431612"><ele>305.0</ele><time>2026-04-25T08:05:04.002Z</time></trkpt><trkpt lat="42.53472843285882" lon="11.953759715788015"><ele>305.0</ele><time>2026-04-25T08:05:06.002Z</time></trkpt><trkpt lat="42.5347267332915" lon="11.9536309270464"><ele>305.0</ele><time>2026-04-25T08:05:08.002Z</time></trkpt><trkpt lat="42.53472880772124" lon="11.95351752278945"><ele>305.0</ele><time>2026-04-25T08:05:10.002Z</time></trkpt><trkpt lat="42.534737498516435" lon="11.953403381426215"><ele>305.0</ele><time>2026-04-25T08:05:12.002Z</time></trkpt><trkpt lat="42.53474082875394" lon="11.953282725329588"><ele>305.0</ele><time>2026-04-25T08:05:14.002Z</time></trkpt><trkpt lat="42.53474568795577" lon="11.953167588079719"><ele>305.0</ele><time>2026-04-25T08:05:16.002Z</time></trkpt><trkpt lat="42.53476364406478" lon="11.953043288014323"><ele>305.0</ele><time>2026-04-25T08:05:18.002Z</time></trkpt><trkpt lat="42.53479178647287" lon="11.952928942566244"><ele>305.0</ele><time>2026-04-25T08:05:20.002Z</time></trkpt><trkpt lat="42.53478693874547" lon="11.952817444075809"><ele>305.0</ele><time>2026-04-25T08:05:22.002Z</time></trkpt><trkpt lat="42.53478437463541" lon="11.952691752016648"><ele>305.0</ele><time>2026-04-25T08:05:24.002Z</time></trkpt><trkpt lat="42.534790297585175" lon="11.952575513064405"><ele>305.0</ele><time>2026-04-25T08:05:26.002Z</time></trkpt><trkpt lat="42.53479009266541" lon="11.952461755965652"><ele>305.0</ele><time>2026-04-25T08:05:28.001Z</time></trkpt><trkpt lat="42.53477973727368" lon="11.952351910611393"><ele>305.0</ele><time>2026-04-25T08:05:30.001Z</time></trkpt><trkpt lat="42.53477866488853" lon="11.952236801192507"><ele>305.0</ele><time>2026-04-25T08:05:32.001Z</time></trkpt><trkpt lat="42.534779088930165" lon="11.952126826241626"><ele>305.0</ele><time>2026-04-25T08:05:34.001Z</time></trkpt><trkpt lat="42.534793599351055" lon="11.952015098856231"><ele>305.0</ele><time>2026-04-25T08:05:36.001Z</time></trkpt><trkpt lat="42.534808967230475" lon="11.951904870036381"><ele>305.0</ele><time>2026-04-25T08:05:38.001Z</time></trkpt><trkpt lat="42.534810787759135" lon="11.951790147412114"><ele>305.0</ele><time>2026-04-25T08:05:40.001Z</time></trkpt><trkpt lat="42.53481257330659" lon="11.951679153819112"><ele>305.0</ele><time>2026-04-25T08:05:42.001Z</time></trkpt><trkpt lat="42.53481454808826" lon="11.951584679945745"><ele>305.0</ele><time>2026-04-25T08:05:44.001Z</time></trkpt><trkpt lat="42.534798895067645" lon="11.95150098925879"><ele>305.0</ele><time>2026-04-25T08:05:46.001Z</time></trkpt><trkpt lat="42.53481096540878" lon="11.951409543439272"><ele>305.1666666666667</ele><time>2026-04-25T08:05:48.004Z</time></trkpt><trkpt lat="42.534802081085225" lon="11.951308732704295"><ele>305.33333333333337</ele><time>2026-04-25T08:05:50.004Z</time></trkpt><trkpt lat="42.53479428754349" lon="11.95120224898611"><ele>305.5</ele><time>2026-04-25T08:05:52.004Z</time></trkpt><trkpt lat="42.534804853746856" lon="11.951107255872653"><ele>305.6666666666667</ele><time>2026-04-25T08:05:54.004Z</time></trkpt><trkpt lat="42.53479528831823" lon="11.951005517128738"><ele>305.8333333333333</ele><time>2026-04-25T08:05:56.004Z</time></trkpt><trkpt lat="42.534790445020725" lon="11.95090162307714"><ele>306.0</ele><time>2026-04-25T08:05:58.004Z</time></trkpt><trkpt lat="42.53478862008579" lon="11.950784893781478"><ele>306.0</ele><time>2026-04-25T08:06:00.004Z</time></trkpt><trkpt lat="42.53477646717231" lon="11.950682716814288"><ele>306.0</ele><time>2026-04-25T08:06:02.004Z</time></trkpt><trkpt lat="42.53478582607814" lon="11.95057064843173"><ele>306.0</ele><time>2026-04-25T08:06:04.004Z</time></trkpt><trkpt lat="42.534789421251425" lon="11.950443774139744"><ele>306.0</ele><time>2026-04-25T08:06:06.004Z</time></trkpt><trkpt lat="42.53478750254453" lon="11.950314854154115"><ele>306.0</ele><time>2026-04-25T08:06:08.004Z</time></trkpt><trkpt lat="42.53478017031193" lon="11.950194278243725"><ele>306.0</ele><time>2026-04-25T08:06:10.004Z</time></trkpt><trkpt lat="42.534768506555054" lon="11.950072696501891"><ele>306.3333333333333</ele><time>2026-04-25T08:06:12.004Z</time></trkpt><trkpt lat="42.53477302898234" lon="11.94995425563647"><ele>306.6666666666667</ele><time>2026-04-25T08:06:14.004Z</time></trkpt><trkpt lat="42.5347688622531" lon="11.949830284162584"><ele>307.0</ele><time>2026-04-25T08:06:16.004Z</time></trkpt><trkpt lat="42.53476894789739" lon="11.949711857485864"><ele>307.33333333333337</ele><time>2026-04-25T08:06:18.004Z</time></trkpt><trkpt lat="42.53479012569177" lon="11.949592365596848"><ele>307.6666666666667</ele><time>2026-04-25T08:06:20.004Z</time></trkpt><trkpt lat="42.53477774862693" lon="11.949481217881152"><ele>308.0</ele><time>2026-04-25T08:06:22.004Z</time></trkpt><trkpt lat="42.5347706946354" lon="11.949359883435305"><ele>308.0</ele><time>2026-04-25T08:06:24.004Z</time></trkpt><trkpt lat="42.534765968050806" lon="11.949235335158173"><ele>308.0</ele><time>2026-04-25T08:06:26.004Z</time></trkpt><trkpt lat="42.53476167601199" lon="11.949103265461158"><ele>308.0</ele><time>2026-04-25T08:06:28.004Z</time></trkpt><trkpt lat="42.53475677834611" lon="11.94900028543989"><ele>308.0</ele><time>2026-04-25T08:06:30.004Z</time></trkpt><trkpt lat="42.53474526908635" lon="11.948873975565524"><ele>308.0</ele><time>2026-04-25T08:06:32.004Z</time></trkpt><trkpt lat="42.534741757649954" lon="11.948752141455973"><ele>308.0</ele><time>2026-04-25T08:06:34.004Z</time></trkpt><trkpt lat="42.53474904907429" lon="11.948624808044832"><ele>307.6</ele><time>2026-04-25T08:06:36.004Z</time></trkpt><trkpt lat="42.53474550070198" lon="11.948499651606049"><ele>307.20000000000005</ele><time>2026-04-25T08:06:38.003Z</time></trkpt><trkpt lat="42.53474556038755" lon="11.948377037405692"><ele>306.8</ele><time>2026-04-25T08:06:40.003Z</time></trkpt><trkpt lat="42.5347437518076" lon="11.948253533811304"><ele>306.40000000000003</ele><time>2026-04-25T08:06:42.003Z</time></trkpt><trkpt lat="42.534737805285104" lon="11.948134014935079"><ele>306.0</ele><time>2026-04-25T08:06:44.003Z</time></trkpt><trkpt lat="42.534733996809564" lon="11.948005292400977"><ele>306.0</ele><time>2026-04-25T08:06:46.003Z</time></trkpt><trkpt lat="42.53472682918637" lon="11.947901493269676"><ele>306.0</ele><time>2026-04-25T08:06:48.003Z</time></trkpt><trkpt lat="42.53472391486349" lon="11.94777658277821"><ele>306.0</ele><time>2026-04-25T08:06:50.003Z</time></trkpt><trkpt lat="42.53470259300882" lon="11.947667305682982"><ele>306.0</ele><time>2026-04-25T08:06:52.003Z</time></trkpt><trkpt lat="42.53470652865462" lon="11.947547197249838"><ele>306.0</ele><time>2026-04-25T08:06:54.003Z</time></trkpt><trkpt lat="42.53471202515986" lon="11.947433762963449"><ele>306.0</ele><time>2026-04-25T08:06:56.003Z</time></trkpt><trkpt lat="42.534705123934316" lon="11.947325462031944"><ele>306.0</ele><time>2026-04-25T08:06:58.003Z</time></trkpt><trkpt lat="42.534703310135164" lon="11.947206902396834"><ele>306.0</ele><time>2026-04-25T08:07:00.003Z</time></trkpt><trkpt lat="42.534699447521604" lon="11.947084554662586"><ele>306.0</ele><time>2026-04-25T08:07:02.003Z</time></trkpt><trkpt lat="42.53470482015665" lon="11.946963278264096"><ele>306.0</ele><time>2026-04-25T08:07:04.003Z</time></trkpt><trkpt lat="42.53470645159951" lon="11.946847238660073"><ele>306.0</ele><time>2026-04-25T08:07:06.003Z</time></trkpt><trkpt lat="42.53470313097918" lon="11.946728473602501"><ele>306.0</ele><time>2026-04-25T08:07:08.003Z</time></trkpt><trkpt lat="42.53468971934957" lon="11.946595505244366"><ele>305.8333333333333</ele><time>2026-04-25T08:07:10.003Z</time></trkpt><trkpt lat="42.534680957282944" lon="11.946474808887183"><ele>305.6666666666667</ele><time>2026-04-25T08:07:12.003Z</time></trkpt><trkpt lat="42.53467559614045" lon="11.94637362431884"><ele>305.5</ele><time>2026-04-25T08:07:14.003Z</time></trkpt><trkpt lat="42.534691403089624" lon="11.946257871662654"><ele>305.33333333333337</ele><time>2026-04-25T08:07:16.003Z</time></trkpt><trkpt lat="42.534688436544336" lon="11.946145123354903"><ele>305.1666666666667</ele><time>2026-04-25T08:07:18.003Z</time></trkpt><trkpt lat="42.534672792484365" lon="11.94603192294361"><ele>305.0</ele><time>2026-04-25T08:07:20.003Z</time></trkpt><trkpt lat="42.5346729344179" lon="11.945909706181379"><ele>305.2</ele><time>2026-04-25T08:07:22.003Z</time></trkpt><trkpt lat="42.534670395588414" lon="11.945779095744955"><ele>305.4</ele><time>2026-04-25T08:07:24.003Z</time></trkpt><trkpt lat="42.534671321123696" lon="11.94564966342803"><ele>305.6</ele><time>2026-04-25T08:07:26.003Z</time></trkpt><trkpt lat="42.53466399526346" lon="11.94553102457679"><ele>305.8</ele><time>2026-04-25T08:07:28.002Z</time></trkpt><trkpt lat="42.534649385471745" lon="11.945407928984295"><ele>306.0</ele><time>2026-04-25T08:07:30.002Z</time></trkpt><trkpt lat="42.534649741588474" lon="11.945273806584334"><ele>306.0</ele><time>2026-04-25T08:07:32.002Z</time></trkpt><trkpt lat="42.534667164405946" lon="11.945158907230576"><ele>306.0</ele><time>2026-04-25T08:07:34.002Z</time></trkpt><trkpt lat="42.534668312354654" lon="11.94502920144875"><ele>306.0</ele><time>2026-04-25T08:07:36.002Z</time></trkpt><trkpt lat="42.53466414022011" lon="11.944887525687061"><ele>306.0</ele><time>2026-04-25T08:07:38.002Z</time></trkpt><trkpt lat="42.5346572220428" lon="11.944746917349287"><ele>306.0</ele><time>2026-04-25T08:07:40.002Z</time></trkpt><trkpt lat="42.534660329062525" lon="11.94460329743695"><ele>306.0</ele><time>2026-04-25T08:07:42.002Z</time></trkpt><trkpt lat="42.53465946324399" lon="11.94446978737504"><ele>306.0</ele><time>2026-04-25T08:07:44.002Z</time></trkpt><trkpt lat="42.53465744802191" lon="11.944334687307512"><ele>306.0</ele><time>2026-04-25T08:07:46.002Z</time></trkpt><trkpt lat="42.534655817298024" lon="11.944201186519901"><ele>306.0</ele><time>2026-04-25T08:07:48.002Z</time></trkpt><trkpt lat="42.534658240960056" lon="11.944068886764232"><ele>306.0</ele><time>2026-04-25T08:07:50.002Z</time></trkpt><trkpt lat="42.53465786085109" lon="11.94394222558197"><ele>306.0</ele><time>2026-04-25T08:07:52.002Z</time></trkpt><trkpt lat="42.534650792253075" lon="11.94381398433297"><ele>306.0</ele><time>2026-04-25T08:07:54.004Z</time></trkpt><trkpt lat="42.53465812874546" lon="11.943705705765298"><ele>306.0</ele><time>2026-04-25T08:07:56.005Z</time></trkpt><trkpt lat="42.534655393636086" lon="11.943592764917936"><ele>306.0</ele><time>2026-04-25T08:07:58.004Z</time></trkpt><trkpt lat="42.53465720410956" lon="11.943461848442432"><ele>306.0</ele><time>2026-04-25T08:08:00.004Z</time></trkpt><trkpt lat="42.53465207380589" lon="11.943340757777637"><ele>306.0</ele><time>2026-04-25T08:08:02.004Z</time></trkpt><trkpt lat="42.53465161799384" lon="11.94320663401633"><ele>306.0</ele><time>2026-04-25T08:08:04.005Z</time></trkpt><trkpt lat="42.53466050730961" lon="11.94308043922883"><ele>306.0</ele><time>2026-04-25T08:08:06.004Z</time></trkpt><trkpt lat="42.53467184461569" lon="11.94294758750921"><ele>306.0</ele><time>2026-04-25T08:08:08.004Z</time></trkpt><trkpt lat="42.53466594197163" lon="11.942823186651742"><ele>306.0</ele><time>2026-04-25T08:08:10.004Z</time></trkpt><trkpt lat="42.53466541479419" lon="11.94270256391557"><ele>306.0</ele><time>2026-04-25T08:08:12.004Z</time></trkpt><trkpt lat="42.534665217468145" lon="11.942568425287448"><ele>306.0</ele><time>2026-04-25T08:08:14.004Z</time></trkpt><trkpt lat="42.534664685483314" lon="11.94243263333095"><ele>306.0</ele><time>2026-04-25T08:08:16.004Z</time></trkpt><trkpt lat="42.53466750897699" lon="11.942302124552894"><ele>306.0</ele><time>2026-04-25T08:08:18.004Z</time></trkpt><trkpt lat="42.53466775504827" lon="11.942172711828535"><ele>306.0</ele><time>2026-04-25T08:08:20.004Z</time></trkpt><trkpt lat="42.53466609242963" lon="11.94203342280878"><ele>306.0</ele><time>2026-04-25T08:08:22.004Z</time></trkpt><trkpt lat="42.53466852963558" lon="11.941886460466383"><ele>306.0</ele><time>2026-04-25T08:08:24.004Z</time></trkpt><trkpt lat="42.53467815546471" lon="11.941725276816541"><ele>306.0</ele><time>2026-04-25T08:08:26.004Z</time></trkpt><trkpt lat="42.53468968324454" lon="11.941613391144172"><ele>306.0</ele><time>2026-04-25T08:08:28.004Z</time></trkpt><trkpt lat="42.53469350436136" lon="11.941487066417439"><ele>306.0</ele><time>2026-04-25T08:08:30.004Z</time></trkpt><trkpt lat="42.53469752283079" lon="11.941356106563294"><ele>306.0</ele><time>2026-04-25T08:08:32.004Z</time></trkpt><trkpt lat="42.53470201004718" lon="11.941226535997279"><ele>306.1666666666667</ele><time>2026-04-25T08:08:34.004Z</time></trkpt><trkpt lat="42.534705392693134" lon="11.941102173313556"><ele>306.3333333333333</ele><time>2026-04-25T08:08:36.004Z</time></trkpt><trkpt lat="42.53470465448403" lon="11.940983380782583"><ele>306.5</ele><time>2026-04-25T08:08:38.004Z</time></trkpt><trkpt lat="42.53470470790673" lon="11.94085938074305"><ele>306.66666666666663</ele><time>2026-04-25T08:08:40.004Z</time></trkpt><trkpt lat="42.534702882007714" lon="11.940745135277577"><ele>306.8333333333333</ele><time>2026-04-25T08:08:42.004Z</time></trkpt><trkpt lat="42.534704157441624" lon="11.940632125945966"><ele>307.0</ele><time>2026-04-25T08:08:44.004Z</time></trkpt><trkpt lat="42.534700449017414" lon="11.940543595906698"><ele>307.16666666666663</ele><time>2026-04-25T08:08:46.003Z</time></trkpt><trkpt lat="42.5346999201042" lon="11.94043812445003"><ele>307.3333333333333</ele><time>2026-04-25T08:08:48.003Z</time></trkpt><trkpt lat="42.53469908066422" lon="11.94032825813747"><ele>307.5</ele><time>2026-04-25T08:08:50.003Z</time></trkpt><trkpt lat="42.53470686952494" lon="11.940211259825302"><ele>307.6666666666667</ele><time>2026-04-25T08:08:52.003Z</time></trkpt><trkpt lat="42.53471462612607" lon="11.940091808246084"><ele>307.83333333333337</ele><time>2026-04-25T08:08:54.003Z</time></trkpt><trkpt lat="42.534715645050724" lon="11.939962023217115"><ele>308.0</ele><time>2026-04-25T08:08:56.003Z</time></trkpt><trkpt lat="42.534718752926665" lon="11.939836967662066"><ele>308.0</ele><time>2026-04-25T08:08:58.003Z</time></trkpt><trkpt lat="42.534727579288656" lon="11.939714877880297"><ele>308.0</ele><time>2026-04-25T08:09:00.003Z</time></trkpt><trkpt lat="42.53474147156468" lon="11.939592374251387"><ele>308.0</ele><time>2026-04-25T08:09:02.003Z</time></trkpt><trkpt lat="42.534746087336245" lon="11.939472798280196"><ele>308.0</ele><time>2026-04-25T08:09:04.003Z</time></trkpt><trkpt lat="42.534752400179684" lon="11.939348194711362"><ele>308.0</ele><time>2026-04-25T08:09:06.003Z</time></trkpt><trkpt lat="42.53475899874887" lon="11.939216320727068"><ele>308.0</ele><time>2026-04-25T08:09:08.003Z</time></trkpt><trkpt lat="42.53476627673774" lon="11.939091300851475"><ele>308.0</ele><time>2026-04-25T08:09:10.003Z</time></trkpt><trkpt lat="42.53477347909089" lon="11.938958603222405"><ele>308.0</ele><time>2026-04-25T08:09:12.003Z</time></trkpt><trkpt lat="42.53478847461481" lon="11.938821829735911"><ele>308.0</ele><time>2026-04-25T08:09:14.003Z</time></trkpt><trkpt lat="42.53478896212364" lon="11.938701800205319"><ele>308.0</ele><time>2026-04-25T08:09:16.003Z</time></trkpt><trkpt lat="42.53479645217452" lon="11.938558697222941"><ele>308.0</ele><time>2026-04-25T08:09:18.003Z</time></trkpt><trkpt lat="42.5347969500103" lon="11.938431219172267"><ele>308.0</ele><time>2026-04-25T08:09:20.003Z</time></trkpt><trkpt lat="42.53479199499433" lon="11.938310196066691"><ele>308.0</ele><time>2026-04-25T08:09:22.003Z</time></trkpt><trkpt lat="42.53478531798799" lon="11.938202990494295"><ele>308.0</ele><time>2026-04-25T08:09:24.003Z</time></trkpt><trkpt lat="42.53477368784682" lon="11.938104285131333"><ele>308.0</ele><time>2026-04-25T08:09:26.003Z</time></trkpt><trkpt lat="42.5347737898779" lon="11.938011331855613"><ele>308.0</ele><time>2026-04-25T08:09:28.003Z</time></trkpt><trkpt lat="42.53476890818001" lon="11.937918706282892"><ele>308.6666666666667</ele><time>2026-04-25T08:09:30.003Z</time></trkpt><trkpt lat="42.53476874674305" lon="11.937802331045516"><ele>309.33333333333337</ele><time>2026-04-25T08:09:33.003Z</time></trkpt><trkpt lat="42.53476934147075" lon="11.93768689915757"><ele>310.0</ele><time>2026-04-25T08:09:36.002Z</time></trkpt><trkpt lat="42.53475694571208" lon="11.937566427109465"><ele>310.6666666666667</ele><time>2026-04-25T08:09:39.002Z</time></trkpt><trkpt lat="42.534752495379315" lon="11.937461021759503"><ele>311.3333333333333</ele><time>2026-04-25T08:09:42.002Z</time></trkpt><trkpt lat="42.53473982543627" lon="11.93733927390691"><ele>312.0</ele><time>2026-04-25T08:09:45.002Z</time></trkpt><trkpt lat="42.534735873765875" lon="11.937233170203202"><ele>312.5</ele><time>2026-04-25T08:09:48.002Z</time></trkpt><trkpt lat="42.53467186910689" lon="11.937134324471891"><ele>313.0</ele><time>2026-04-25T08:09:52.002Z</time></trkpt><trkpt lat="42.53465661454922" lon="11.937030214031978"><ele>313.5</ele><time>2026-04-25T08:09:56.002Z</time></trkpt><trkpt lat="42.53463976270044" lon="11.936905491159067"><ele>314.0</ele><time>2026-04-25T08:10:00.005Z</time></trkpt><trkpt lat="42.53462429825897" lon="11.936798280578007"><ele>314.5</ele><time>2026-04-25T08:10:04.005Z</time></trkpt><trkpt lat="42.534617407115945" lon="11.936704008248018"><ele>315.0</ele><time>2026-04-25T08:10:07.005Z</time></trkpt><trkpt lat="42.534641282880635" lon="11.936602459196822"><ele>315.0</ele><time>2026-04-25T08:10:09.004Z</time></trkpt><trkpt lat="42.53464803286565" lon="11.9364930047442"><ele>315.0</ele><time>2026-04-25T08:10:11.004Z</time></trkpt><trkpt lat="42.53470884308103" lon="11.936400636754852"><ele>315.0</ele><time>2026-04-25T08:10:13.005Z</time></trkpt><trkpt lat="42.534705731457905" lon="11.936288100015311"><ele>315.0</ele><time>2026-04-25T08:10:15.005Z</time></trkpt><trkpt lat="42.53467379155799" lon="11.93618738417087"><ele>315.0</ele><time>2026-04-25T08:10:17.004Z</time></trkpt><trkpt lat="42.534642437272694" lon="11.936043202123589"><ele>315.0</ele><time>2026-04-25T08:10:19.004Z</time></trkpt><trkpt lat="42.53463912857479" lon="11.93584747312384"><ele>314.4</ele><time>2026-04-25T08:10:20.004Z</time></trkpt><trkpt lat="42.53463108797435" lon="11.93570120763672"><ele>313.8</ele><time>2026-04-25T08:10:21.004Z</time></trkpt><trkpt lat="42.53462176638968" lon="11.935568613183815"><ele>313.2</ele><time>2026-04-25T08:10:22.004Z</time></trkpt><trkpt lat="42.53459917615247" lon="11.93543315081207"><ele>312.6</ele><time>2026-04-25T08:10:23.004Z</time></trkpt><trkpt lat="42.53457799664831" lon="11.935293444505438"><ele>312.0</ele><time>2026-04-25T08:10:24.004Z</time></trkpt><trkpt lat="42.534549756165696" lon="11.935168928825057"><ele>312.75</ele><time>2026-04-25T08:10:25.004Z</time></trkpt><trkpt lat="42.534518733901834" lon="11.935036333954892"><ele>313.5</ele><time>2026-04-25T08:10:26.004Z</time></trkpt><trkpt lat="42.534476833832066" lon="11.934869860784415"><ele>314.25</ele><time>2026-04-25T08:10:27.004Z</time></trkpt><trkpt lat="42.53442712738277" lon="11.934712914413586"><ele>315.0</ele><time>2026-04-25T08:10:28.004Z</time></trkpt><trkpt lat="42.53437817864022" lon="11.93455857734902"><ele>315.0</ele><time>2026-04-25T08:10:29.004Z</time></trkpt><trkpt lat="42.534343256583476" lon="11.93442190310391"><ele>315.0</ele><time>2026-04-25T08:10:30.004Z</time></trkpt><trkpt lat="42.53430591080707" lon="11.934287529653076"><ele>315.0</ele><time>2026-04-25T08:10:31.004Z</time></trkpt><trkpt lat="42.53426637630392" lon="11.934157952585563"><ele>315.0</ele><time>2026-04-25T08:10:32.004Z</time></trkpt><trkpt lat="42.53422882734623" lon="11.934050663476231"><ele>315.0</ele><time>2026-04-25T08:10:33.004Z</time></trkpt><trkpt lat="42.534172505643475" lon="11.933917530006035"><ele>314.1666666666667</ele><time>2026-04-25T08:10:34.004Z</time></trkpt><trkpt lat="42.53412734075826" lon="11.93381557276612"><ele>313.3333333333333</ele><time>2026-04-25T08:10:35.004Z</time></trkpt><trkpt lat="42.53406757104084" lon="11.933725381896354"><ele>312.5</ele><time>2026-04-25T08:10:36.004Z</time></trkpt><trkpt lat="42.53399438062445" lon="11.933657046023683"><ele>311.66666666666663</ele><time>2026-04-25T08:10:37.004Z</time></trkpt><trkpt lat="42.53391544630057" lon="11.933593256327256"><ele>310.8333333333333</ele><time>2026-04-25T08:10:38.004Z</time></trkpt><trkpt lat="42.533849992938215" lon="11.933528207383887"><ele>310.0</ele><time>2026-04-25T08:10:39.004Z</time></trkpt><trkpt lat="42.53377685954728" lon="11.933464083603294"><ele>309.8333333333333</ele><time>2026-04-25T08:10:40.004Z</time></trkpt><trkpt lat="42.53369927239604" lon="11.933404752895434"><ele>309.66666666666663</ele><time>2026-04-25T08:10:41.004Z</time></trkpt><trkpt lat="42.53362454306419" lon="11.93335399962216"><ele>309.5</ele><time>2026-04-25T08:10:42.004Z</time></trkpt><trkpt lat="42.53355814919067" lon="11.933283917119676"><ele>309.3333333333333</ele><time>2026-04-25T08:10:43.004Z</time></trkpt><trkpt lat="42.53349917247256" lon="11.933213601402166"><ele>309.1666666666667</ele><time>2026-04-25T08:10:44.004Z</time></trkpt><trkpt lat="42.53345196878321" lon="11.93311867748453"><ele>309.0</ele><time>2026-04-25T08:10:45.004Z</time></trkpt><trkpt lat="42.533416916814986" lon="11.933021044344146"><ele>309.00000000000006</ele><time>2026-04-25T08:10:46.004Z</time></trkpt><trkpt lat="42.53339226889302" lon="11.932919330304156"><ele>309.0</ele><time>2026-04-25T08:10:47.004Z</time></trkpt><trkpt lat="42.53337832672893" lon="11.932806704763268"><ele>309.0</ele><time>2026-04-25T08:10:48.004Z</time></trkpt><trkpt lat="42.53336604500565" lon="11.932706058820317"><ele>309.0</ele><time>2026-04-25T08:10:49.004Z</time></trkpt><trkpt lat="42.533355810179145" lon="11.932612037286136"><ele>309.0</ele><time>2026-04-25T08:10:50.004Z</time></trkpt><trkpt lat="42.53334731819529" lon="11.932519333585834"><ele>309.00000000000006</ele><time>2026-04-25T08:10:51.004Z</time></trkpt><trkpt lat="42.533339651790776" lon="11.932432602751167"><ele>309.0</ele><time>2026-04-25T08:10:52.004Z</time></trkpt><trkpt lat="42.5333255502453" lon="11.932344335290265"><ele>309.0</ele><time>2026-04-25T08:10:53.004Z</time></trkpt><trkpt lat="42.533317834685654" lon="11.932185121389605"><ele>309.0</ele><time>2026-04-25T08:10:55.004Z</time></trkpt><trkpt lat="42.533310307084534" lon="11.932040864245787"><ele>309.0</ele><time>2026-04-25T08:10:57.004Z</time></trkpt><trkpt lat="42.53329999138686" lon="11.931893252506887"><ele>309.0</ele><time>2026-04-25T08:10:59.004Z</time></trkpt><trkpt lat="42.533288534688296" lon="11.931739679877944"><ele>309.0</ele><time>2026-04-25T08:11:01.004Z</time></trkpt><trkpt lat="42.53323390440205" lon="11.931617489123783"><ele>309.0</ele><time>2026-04-25T08:11:03.004Z</time></trkpt><trkpt lat="42.53315307703957" lon="11.93149380720844"><ele>309.0</ele><time>2026-04-25T08:11:05.004Z</time></trkpt><trkpt lat="42.53307565904502" lon="11.931392747312385"><ele>309.0</ele><time>2026-04-25T08:11:07.003Z</time></trkpt><trkpt lat="42.53303226484569" lon="11.9313244079347"><ele>309.0</ele><time>2026-04-25T08:11:08.003Z</time></trkpt><trkpt lat="42.532996350834374" lon="11.931251449785298"><ele>309.0</ele><time>2026-04-25T08:11:09.003Z</time></trkpt><trkpt lat="42.532918836969955" lon="11.931177848454057"><ele>309.2</ele><time>2026-04-25T08:11:11.003Z</time></trkpt><trkpt lat="42.532844939178666" lon="11.931091444292267"><ele>309.4</ele><time>2026-04-25T08:11:13.003Z</time></trkpt><trkpt lat="42.532776551904384" lon="11.93099743352301"><ele>309.6</ele><time>2026-04-25T08:11:15.003Z</time></trkpt><trkpt lat="42.53272103615637" lon="11.930923587156117"><ele>309.8</ele><time>2026-04-25T08:11:17.003Z</time></trkpt><trkpt lat="42.53274670584423" lon="11.9307964757335"><ele>310.0</ele><time>2026-04-25T08:11:19.003Z</time></trkpt><trkpt lat="42.532807164584014" lon="11.930675020314101"><ele>310.0</ele><time>2026-04-25T08:11:21.003Z</time></trkpt><trkpt lat="42.53286039153175" lon="11.930554804633527"><ele>310.0</ele><time>2026-04-25T08:11:23.003Z</time></trkpt><trkpt lat="42.53290993197275" lon="11.93043518791518"><ele>310.0</ele><time>2026-04-25T08:11:25.003Z</time></trkpt><trkpt lat="42.53296865130196" lon="11.930346209053134"><ele>310.0</ele><time>2026-04-25T08:11:27.003Z</time></trkpt><trkpt lat="42.53303486077689" lon="11.930380463194712"><ele>310.0</ele><time>2026-04-25T08:11:29.003Z</time></trkpt><trkpt lat="42.53308311456836" lon="11.930447873116504"><ele>310.0</ele><time>2026-04-25T08:11:30.003Z</time></trkpt><trkpt lat="42.5331627977215" lon="11.93054211320194"><ele>309.8</ele><time>2026-04-25T08:11:32.003Z</time></trkpt><trkpt lat="42.53324220546404" lon="11.930647871313028"><ele>309.6</ele><time>2026-04-25T08:11:34.003Z</time></trkpt><trkpt lat="42.53332323119175" lon="11.930731825023383"><ele>309.4</ele><time>2026-04-25T08:11:36.003Z</time></trkpt><trkpt lat="42.53340596013657" lon="11.930827926352663"><ele>309.2</ele><time>2026-04-25T08:11:38.003Z</time></trkpt><trkpt lat="42.53349228774991" lon="11.930903291809235"><ele>309.0</ele><time>2026-04-25T08:11:40.003Z</time></trkpt><trkpt lat="42.53358233304532" lon="11.930981662409224"><ele>309.0</ele><time>2026-04-25T08:11:42.003Z</time></trkpt><trkpt lat="42.53367091938891" lon="11.93106703568521"><ele>309.0</ele><time>2026-04-25T08:11:44.003Z</time></trkpt><trkpt lat="42.533766818543036" lon="11.931125547795256"><ele>309.0</ele><time>2026-04-25T08:11:46.003Z</time></trkpt><trkpt lat="42.53387157562241" lon="11.93111495251792"><ele>309.0</ele><time>2026-04-25T08:11:48.003Z</time></trkpt><trkpt lat="42.53396448942183" lon="11.931038558436102"><ele>309.0</ele><time>2026-04-25T08:11:50.003Z</time></trkpt><trkpt lat="42.53403232547248" lon="11.930931545552085"><ele>308.59999999999997</ele><time>2026-04-25T08:11:52.003Z</time></trkpt><trkpt lat="42.5340860865068" lon="11.930820583861536"><ele>308.2</ele><time>2026-04-25T08:11:54.003Z</time></trkpt><trkpt lat="42.534136653077496" lon="11.930711991177105"><ele>307.79999999999995</ele><time>2026-04-25T08:11:56.003Z</time></trkpt><trkpt lat="42.53419438254609" lon="11.93063797776426"><ele>307.4</ele><time>2026-04-25T08:11:58.002Z</time></trkpt><trkpt lat="42.534230735870395" lon="11.93052238228893"><ele>307.0</ele><time>2026-04-25T08:12:00.002Z</time></trkpt><trkpt lat="42.53423826306209" lon="11.930395436308178"><ele>307.0</ele><time>2026-04-25T08:12:02.002Z</time></trkpt><trkpt lat="42.534238596429475" lon="11.930259241852507"><ele>307.0</ele><time>2026-04-25T08:12:04.002Z</time></trkpt><trkpt lat="42.53424935976012" lon="11.930141537260559"><ele>307.0</ele><time>2026-04-25T08:12:06.005Z</time></trkpt><trkpt lat="42.53427104434465" lon="11.930010205989232"><ele>307.0</ele><time>2026-04-25T08:12:08.005Z</time></trkpt><trkpt lat="42.534311216700985" lon="11.929881411840167"><ele>307.0</ele><time>2026-04-25T08:12:10.005Z</time></trkpt><trkpt lat="42.53432481652975" lon="11.929750243282028"><ele>307.4</ele><time>2026-04-25T08:12:12.005Z</time></trkpt><trkpt lat="42.5343494723836" lon="11.929615336767297"><ele>307.79999999999995</ele><time>2026-04-25T08:12:14.005Z</time></trkpt><trkpt lat="42.53436253256654" lon="11.929477981212806"><ele>308.2</ele><time>2026-04-25T08:12:16.005Z</time></trkpt><trkpt lat="42.534387548217914" lon="11.929339830972365"><ele>308.59999999999997</ele><time>2026-04-25T08:12:18.005Z</time></trkpt><trkpt lat="42.53440821900381" lon="11.929259026099041"><ele>309.0</ele><time>2026-04-25T08:12:19.005Z</time></trkpt><trkpt lat="42.5344142203339" lon="11.929142492999553"><ele>309.2</ele><time>2026-04-25T08:12:21.005Z</time></trkpt><trkpt lat="42.53443994851212" lon="11.929038442677424"><ele>309.4</ele><time>2026-04-25T08:12:23.005Z</time></trkpt><trkpt lat="42.53445913593705" lon="11.928924424265528"><ele>309.6</ele><time>2026-04-25T08:12:25.005Z</time></trkpt><trkpt lat="42.53446318074992" lon="11.928799508919711"><ele>309.8</ele><time>2026-04-25T08:12:27.005Z</time></trkpt><trkpt lat="42.53448279661422" lon="11.928665943954934"><ele>310.0</ele><time>2026-04-25T08:12:29.005Z</time></trkpt><trkpt lat="42.5345107924232" lon="11.928526422201825"><ele>310.4</ele><time>2026-04-25T08:12:31.005Z</time></trkpt><trkpt lat="42.53452939817589" lon="11.928380241831482"><ele>310.8</ele><time>2026-04-25T08:12:33.005Z</time></trkpt><trkpt lat="42.53456786602107" lon="11.92824856364088"><ele>311.2</ele><time>2026-04-25T08:12:35.005Z</time></trkpt><trkpt lat="42.534577246797646" lon="11.928099519621538"><ele>311.6</ele><time>2026-04-25T08:12:37.005Z</time></trkpt><trkpt lat="42.53459627710916" lon="11.927953373141804"><ele>312.0</ele><time>2026-04-25T08:12:39.005Z</time></trkpt><trkpt lat="42.53462265852962" lon="11.92785049513875"><ele>311.0</ele><time>2026-04-25T08:12:41.005Z</time></trkpt><trkpt lat="42.53465098222045" lon="11.927730537043228"><ele>310.0</ele><time>2026-04-25T08:12:43.005Z</time></trkpt><trkpt lat="42.534690314292135" lon="11.92761542708876"><ele>309.0</ele><time>2026-04-25T08:12:45.005Z</time></trkpt><trkpt lat="42.53471104584137" lon="11.92747248472498"><ele>308.0</ele><time>2026-04-25T08:12:47.005Z</time></trkpt><trkpt lat="42.534740915971675" lon="11.927336051884069"><ele>307.0</ele><time>2026-04-25T08:12:49.005Z</time></trkpt><trkpt lat="42.53474885600514" lon="11.927201322869815"><ele>307.0</ele><time>2026-04-25T08:12:51.005Z</time></trkpt><trkpt lat="42.534792986117296" lon="11.927087193546978"><ele>307.0</ele><time>2026-04-25T08:12:53.005Z</time></trkpt><trkpt lat="42.53484808046642" lon="11.926979089087554"><ele>307.0</ele><time>2026-04-25T08:12:55.005Z</time></trkpt><trkpt lat="42.53490599198507" lon="11.926863513042028"><ele>307.0</ele><time>2026-04-25T08:12:57.005Z</time></trkpt><trkpt lat="42.534965828034345" lon="11.92676120834084"><ele>307.0</ele><time>2026-04-25T08:12:59.004Z</time></trkpt><trkpt lat="42.53503052735587" lon="11.926672707724261"><ele>307.3333333333333</ele><time>2026-04-25T08:13:01.004Z</time></trkpt><trkpt lat="42.53508081932232" lon="11.92656188244595"><ele>307.66666666666663</ele><time>2026-04-25T08:13:03.004Z</time></trkpt><trkpt lat="42.53513247260629" lon="11.92644804570344"><ele>308.0</ele><time>2026-04-25T08:13:05.004Z</time></trkpt><trkpt lat="42.53517814777901" lon="11.92633694258538"><ele>308.3333333333333</ele><time>2026-04-25T08:13:07.004Z</time></trkpt><trkpt lat="42.53524068692876" lon="11.926301129692366"><ele>308.6666666666667</ele><time>2026-04-25T08:13:09.004Z</time></trkpt><trkpt lat="42.535315990724165" lon="11.926315209243867"><ele>309.0</ele><time>2026-04-25T08:13:12.004Z</time></trkpt><trkpt lat="42.53537402310223" lon="11.92635709781598"><ele>309.0</ele><time>2026-04-25T08:13:14.004Z</time></trkpt><trkpt lat="42.535435054471556" lon="11.926274391597579"><ele>309.0</ele><time>2026-04-25T08:13:18.004Z</time></trkpt><trkpt lat="42.53547736080045" lon="11.926164801495093"><ele>309.0</ele><time>2026-04-25T08:13:21.004Z</time></trkpt><trkpt lat="42.53553028931182" lon="11.926063931334744"><ele>309.0</ele><time>2026-04-25T08:13:23.004Z</time></trkpt><trkpt lat="42.535581256873286" lon="11.925972641851239"><ele>309.0</ele><time>2026-04-25T08:13:25.004Z</time></trkpt><trkpt lat="42.53562935373151" lon="11.92586640619938"><ele>309.0</ele><time>2026-04-25T08:13:27.004Z</time></trkpt><trkpt lat="42.535685442927225" lon="11.925751981385673"><ele>309.0</ele><time>2026-04-25T08:13:29.004Z</time></trkpt><trkpt lat="42.53573942979069" lon="11.92565786007169"><ele>309.0</ele><time>2026-04-25T08:13:31.004Z</time></trkpt><trkpt lat="42.53579614782431" lon="11.925577244646835"><ele>309.0</ele><time>2026-04-25T08:13:33.004Z</time></trkpt><trkpt lat="42.53585057004051" lon="11.925469418977789"><ele>309.0</ele><time>2026-04-25T08:13:37.004Z</time></trkpt><trkpt lat="42.53593868688792" lon="11.92542497305678"><ele>309.0</ele><time>2026-04-25T08:13:40.004Z</time></trkpt><trkpt lat="42.53598688617381" lon="11.92532762592736"><ele>309.0</ele><time>2026-04-25T08:13:43.004Z</time></trkpt><trkpt lat="42.536031598134784" lon="11.925256600023486"><ele>309.0</ele><time>2026-04-25T08:13:46.004Z</time></trkpt><trkpt lat="42.536106622311365" lon="11.92524039549811"><ele>309.0</ele><time>2026-04-25T08:13:48.004Z</time></trkpt><trkpt lat="42.536179888087624" lon="11.925232912887934"><ele>309.0</ele><time>2026-04-25T08:13:50.003Z</time></trkpt><trkpt lat="42.53625070847518" lon="11.925184975225488"><ele>309.0</ele><time>2026-04-25T08:13:52.003Z</time></trkpt><trkpt lat="42.53629355662888" lon="11.925069891756856"><ele>309.0</ele><time>2026-04-25T08:13:54.003Z</time></trkpt><trkpt lat="42.53632314234444" lon="11.924951742529101"><ele>309.0</ele><time>2026-04-25T08:13:56.003Z</time></trkpt><trkpt lat="42.53633957480664" lon="11.924797073461617"><ele>308.8</ele><time>2026-04-25T08:13:58.003Z</time></trkpt><trkpt lat="42.536386623367974" lon="11.924658134920952"><ele>308.59999999999997</ele><time>2026-04-25T08:14:00.003Z</time></trkpt><trkpt lat="42.536415689353696" lon="11.924522479664335"><ele>308.4</ele><time>2026-04-25T08:14:02.003Z</time></trkpt><trkpt lat="42.53643979799632" lon="11.924403731602276"><ele>308.2</ele><time>2026-04-25T08:14:04.003Z</time></trkpt><trkpt lat="42.53646493584466" lon="11.924257017520414"><ele>308.0</ele><time>2026-04-25T08:14:06.003Z</time></trkpt><trkpt lat="42.53648257076718" lon="11.924101103175108"><ele>308.0</ele><time>2026-04-25T08:14:08.003Z</time></trkpt><trkpt lat="42.53648760979024" lon="11.923964880365652"><ele>308.0</ele><time>2026-04-25T08:14:10.003Z</time></trkpt><trkpt lat="42.53650436212286" lon="11.923879001246865"><ele>308.0</ele><time>2026-04-25T08:14:11.005Z</time></trkpt><trkpt lat="42.53653255421929" lon="11.923738870023953"><ele>308.0</ele><time>2026-04-25T08:14:13.005Z</time></trkpt><trkpt lat="42.53654185986261" lon="11.923640037338432"><ele>308.0</ele><time>2026-04-25T08:14:15.005Z</time></trkpt><trkpt lat="42.536576055313226" lon="11.923504014212657"><ele>308.0</ele><time>2026-04-25T08:14:17.005Z</time></trkpt><trkpt lat="42.53659845640371" lon="11.923363098531826"><ele>308.0</ele><time>2026-04-25T08:14:19.005Z</time></trkpt><trkpt lat="42.53661729044328" lon="11.923227109605964"><ele>308.0</ele><time>2026-04-25T08:14:21.006Z</time></trkpt><trkpt lat="42.53665155955578" lon="11.923082065867247"><ele>308.0</ele><time>2026-04-25T08:14:23.005Z</time></trkpt><trkpt lat="42.536678102387256" lon="11.922962427594276"><ele>308.0</ele><time>2026-04-25T08:14:25.005Z</time></trkpt><trkpt lat="42.53668918419186" lon="11.922843902856592"><ele>308.0</ele><time>2026-04-25T08:14:27.005Z</time></trkpt><trkpt lat="42.53670161814216" lon="11.922719457333166"><ele>308.0</ele><time>2026-04-25T08:14:29.005Z</time></trkpt><trkpt lat="42.5367138571452" lon="11.922578568012685"><ele>308.0</ele><time>2026-04-25T08:14:31.005Z</time></trkpt><trkpt lat="42.53669922688216" lon="11.922466933479674"><ele>308.0</ele><time>2026-04-25T08:14:33.005Z</time></trkpt><trkpt lat="42.536718359701915" lon="11.922344714029947"><ele>308.0</ele><time>2026-04-25T08:14:35.005Z</time></trkpt><trkpt lat="42.53673753800564" lon="11.922240838585727"><ele>308.0</ele><time>2026-04-25T08:14:37.005Z</time></trkpt><trkpt lat="42.53677264222826" lon="11.922119199550664"><ele>308.0</ele><time>2026-04-25T08:14:39.005Z</time></trkpt><trkpt lat="42.53680971360458" lon="11.921983611568592"><ele>308.0</ele><time>2026-04-25T08:14:41.005Z</time></trkpt><trkpt lat="42.5368384364842" lon="11.921848656585194"><ele>308.0</ele><time>2026-04-25T08:14:43.005Z</time></trkpt><trkpt lat="42.53687542096545" lon="11.921739813555199"><ele>308.0</ele><time>2026-04-25T08:14:45.005Z</time></trkpt><trkpt lat="42.53691977524328" lon="11.921646447424894"><ele>308.1666666666667</ele><time>2026-04-25T08:14:47.004Z</time></trkpt><trkpt lat="42.53695220280954" lon="11.92154971583804"><ele>308.33333333333337</ele><time>2026-04-25T08:14:49.004Z</time></trkpt><trkpt lat="42.536977387145846" lon="11.921448507781221"><ele>308.5</ele><time>2026-04-25T08:14:51.004Z</time></trkpt><trkpt lat="42.536998640499775" lon="11.9213442999659"><ele>308.6666666666667</ele><time>2026-04-25T08:14:53.004Z</time></trkpt><trkpt lat="42.53704436482159" lon="11.921235889818792"><ele>308.8333333333333</ele><time>2026-04-25T08:14:55.004Z</time></trkpt><trkpt lat="42.53708715932019" lon="11.921124686489216"><ele>309.0</ele><time>2026-04-25T08:14:57.004Z</time></trkpt><trkpt lat="42.537153479911595" lon="11.921019878239758"><ele>308.59999999999997</ele><time>2026-04-25T08:14:59.004Z</time></trkpt><trkpt lat="42.53719559430776" lon="11.920910567098776"><ele>308.2</ele><time>2026-04-25T08:15:01.004Z</time></trkpt><trkpt lat="42.53724418667041" lon="11.920809590775837"><ele>307.79999999999995</ele><time>2026-04-25T08:15:03.004Z</time></trkpt><trkpt lat="42.5372886080975" lon="11.920688823947064"><ele>307.4</ele><time>2026-04-25T08:15:05.004Z</time></trkpt><trkpt lat="42.53734376914568" lon="11.920585297271188"><ele>307.0</ele><time>2026-04-25T08:15:07.004Z</time></trkpt><trkpt lat="42.537387477121705" lon="11.920490286760911"><ele>307.0</ele><time>2026-04-25T08:15:09.004Z</time></trkpt><trkpt lat="42.53742994618544" lon="11.920409006768002"><ele>307.0</ele><time>2026-04-25T08:15:11.004Z</time></trkpt><trkpt lat="42.53747033651899" lon="11.920317413763211"><ele>307.0</ele><time>2026-04-25T08:15:13.004Z</time></trkpt><trkpt lat="42.537499791274186" lon="11.920236975882581"><ele>307.0</ele><time>2026-04-25T08:15:15.004Z</time></trkpt><trkpt lat="42.537452455409266" lon="11.9201370527974"><ele>307.0</ele><time>2026-04-25T08:15:17.004Z</time></trkpt><trkpt lat="42.5374216348592" lon="11.920040415035677"><ele>307.0</ele><time>2026-04-25T08:15:19.004Z</time></trkpt><trkpt lat="42.53748894809208" lon="11.91994957014256"><ele>307.66666666666663</ele><time>2026-04-25T08:15:21.004Z</time></trkpt><trkpt lat="42.53753339413074" lon="11.919878129938292"><ele>308.3333333333333</ele><time>2026-04-25T08:15:23.004Z</time></trkpt><trkpt lat="42.537582687540485" lon="11.919798980649198"><ele>309.0</ele><time>2026-04-25T08:15:25.004Z</time></trkpt><trkpt lat="42.53762699205742" lon="11.919728323718058"><ele>309.6666666666667</ele><time>2026-04-25T08:15:27.004Z</time></trkpt><trkpt lat="42.53766001578455" lon="11.919622511461009"><ele>310.33333333333337</ele><time>2026-04-25T08:15:30.004Z</time></trkpt><trkpt lat="42.53771165594777" lon="11.919540190497854"><ele>311.0</ele><time>2026-04-25T08:15:33.004Z</time></trkpt><trkpt lat="42.53776153176914" lon="11.919444142410608"><ele>311.0</ele><time>2026-04-25T08:15:37.003Z</time></trkpt><trkpt lat="42.53780893618594" lon="11.919372917641205"><ele>311.0</ele><time>2026-04-25T08:15:40.003Z</time></trkpt><trkpt lat="42.537854001847315" lon="11.919302692344242"><ele>311.0</ele><time>2026-04-25T08:15:43.003Z</time></trkpt><trkpt lat="42.53788740918624" lon="11.919226474127559"><ele>311.0</ele><time>2026-04-25T08:15:46.003Z</time></trkpt><trkpt lat="42.537931766042405" lon="11.919152330646327"><ele>311.0</ele><time>2026-04-25T08:15:49.003Z</time></trkpt><trkpt lat="42.53796868667804" lon="11.919079662990521"><ele>311.0</ele><time>2026-04-25T08:15:52.003Z</time></trkpt><trkpt lat="42.538004644790604" lon="11.918995307427462"><ele>311.0</ele><time>2026-04-25T08:15:55.003Z</time></trkpt><trkpt lat="42.53805982417529" lon="11.918929219704493"><ele>312.83333333333337</ele><time>2026-04-25T08:15:58.003Z</time></trkpt><trkpt lat="42.53812042802493" lon="11.91884285719506"><ele>314.6666666666667</ele><time>2026-04-25T08:16:02.003Z</time></trkpt><trkpt lat="42.53817245437523" lon="11.918774444172332"><ele>316.5</ele><time>2026-04-25T08:16:05.003Z</time></trkpt><trkpt lat="42.53821631701376" lon="11.918701405456376"><ele>318.3333333333333</ele><time>2026-04-25T08:16:08.003Z</time></trkpt><trkpt lat="42.5382662598952" lon="11.918618760639985"><ele>320.16666666666663</ele><time>2026-04-25T08:16:11.003Z</time></trkpt><trkpt lat="42.53831221093793" lon="11.918543276043431"><ele>322.0</ele><time>2026-04-25T08:16:14.003Z</time></trkpt><trkpt lat="42.538349837955664" lon="11.9184637986053"><ele>323.0</ele><time>2026-04-25T08:16:17.006Z</time></trkpt><trkpt lat="42.53840190194753" lon="11.918380942302294"><ele>324.0</ele><time>2026-04-25T08:16:20.005Z</time></trkpt><trkpt lat="42.53844280797616" lon="11.91829546203576"><ele>325.0</ele><time>2026-04-25T08:16:23.006Z</time></trkpt><trkpt lat="42.538468990243544" lon="11.918206630482311"><ele>326.0</ele><time>2026-04-25T08:16:26.005Z</time></trkpt><trkpt lat="42.538495934019174" lon="11.918126964626916"><ele>327.0</ele><time>2026-04-25T08:16:29.005Z</time></trkpt><trkpt lat="42.538528034414846" lon="11.918032624322047"><ele>328.0</ele><time>2026-04-25T08:16:32.005Z</time></trkpt><trkpt lat="42.538554011389444" lon="11.917952610259942"><ele>329.0</ele><time>2026-04-25T08:16:35.005Z</time></trkpt><trkpt lat="42.53857361927555" lon="11.917858725486553"><ele>329.0</ele><time>2026-04-25T08:16:38.005Z</time></trkpt><trkpt lat="42.53859253838029" lon="11.917760029264723"><ele>329.0</ele><time>2026-04-25T08:16:41.005Z</time></trkpt><trkpt lat="42.53861914974223" lon="11.917671719379328"><ele>329.0</ele><time>2026-04-25T08:16:44.005Z</time></trkpt><trkpt lat="42.538636468376865" lon="11.917583666975153"><ele>329.0</ele><time>2026-04-25T08:16:47.005Z</time></trkpt><trkpt lat="42.5386604472736" lon="11.91748740594791"><ele>329.0</ele><time>2026-04-25T08:16:50.005Z</time></trkpt><trkpt lat="42.538680022273475" lon="11.917393837534487"><ele>329.0</ele><time>2026-04-25T08:16:53.005Z</time></trkpt><trkpt lat="42.53869519806151" lon="11.917307266095039"><ele>329.0</ele><time>2026-04-25T08:16:56.005Z</time></trkpt><trkpt lat="42.538719341514515" lon="11.917212658369932"><ele>329.1666666666667</ele><time>2026-04-25T08:16:59.004Z</time></trkpt><trkpt lat="42.538735071791784" lon="11.917119094339366"><ele>329.33333333333337</ele><time>2026-04-25T08:17:02.004Z</time></trkpt><trkpt lat="42.53875959084257" lon="11.91702369414483"><ele>329.5</ele><time>2026-04-25T08:17:05.004Z</time></trkpt><trkpt lat="42.53878190351797" lon="11.9169361687736"><ele>329.6666666666667</ele><time>2026-04-25T08:17:08.004Z</time></trkpt><trkpt lat="42.53881313353579" lon="11.916822060727283"><ele>329.8333333333333</ele><time>2026-04-25T08:17:11.004Z</time></trkpt><trkpt lat="42.538830267583535" lon="11.91671996738177"><ele>330.0</ele><time>2026-04-25T08:17:14.004Z</time></trkpt><trkpt lat="42.53885262796358" lon="11.916626356056765"><ele>330.0</ele><time>2026-04-25T08:17:17.004Z</time></trkpt><trkpt lat="42.538873984278005" lon="11.916522712856171"><ele>330.0</ele><time>2026-04-25T08:17:20.004Z</time></trkpt><trkpt lat="42.538897868801804" lon="11.916426933295106"><ele>330.0</ele><time>2026-04-25T08:17:23.004Z</time></trkpt><trkpt lat="42.538938437886614" lon="11.916335464833143"><ele>330.0</ele><time>2026-04-25T08:17:26.004Z</time></trkpt><trkpt lat="42.538964332876915" lon="11.916227087318665"><ele>330.0</ele><time>2026-04-25T08:17:29.004Z</time></trkpt><trkpt lat="42.53898298016579" lon="11.916125214639235"><ele>330.0</ele><time>2026-04-25T08:17:32.004Z</time></trkpt><trkpt lat="42.53899275773438" lon="11.916029616062144"><ele>330.0</ele><time>2026-04-25T08:17:35.004Z</time></trkpt><trkpt lat="42.53902043919321" lon="11.915928308080948"><ele>330.0</ele><time>2026-04-25T08:17:38.004Z</time></trkpt><trkpt lat="42.53902763093844" lon="11.9158162256815"><ele>330.0</ele><time>2026-04-25T08:17:41.004Z</time></trkpt><trkpt lat="42.539006080193694" lon="11.91569710735773"><ele>330.0</ele><time>2026-04-25T08:17:44.004Z</time></trkpt><trkpt lat="42.539020509723464" lon="11.915582446517229"><ele>330.0</ele><time>2026-04-25T08:17:47.004Z</time></trkpt><trkpt lat="42.53904756419614" lon="11.915500064698856"><ele>330.0</ele><time>2026-04-25T08:17:49.004Z</time></trkpt><trkpt lat="42.53906009341385" lon="11.91540744615762"><ele>331.0</ele><time>2026-04-25T08:17:51.003Z</time></trkpt><trkpt lat="42.53908174478954" lon="11.915306365052556"><ele>332.0</ele><time>2026-04-25T08:17:53.003Z</time></trkpt><trkpt lat="42.539100451466204" lon="11.915206487497251"><ele>333.0</ele><time>2026-04-25T08:17:55.003Z</time></trkpt><trkpt lat="42.5391183572839" lon="11.915091513145212"><ele>334.0</ele><time>2026-04-25T08:17:57.003Z</time></trkpt><trkpt lat="42.539132215502576" lon="11.914967043300939"><ele>335.0</ele><time>2026-04-25T08:17:59.003Z</time></trkpt><trkpt lat="42.53914807374918" lon="11.914848733217832"><ele>336.0</ele><time>2026-04-25T08:18:01.003Z</time></trkpt><trkpt lat="42.539147765855546" lon="11.914729780169404"><ele>336.0</ele><time>2026-04-25T08:18:03.003Z</time></trkpt><trkpt lat="42.53914447911495" lon="11.914620917029454"><ele>336.0</ele><time>2026-04-25T08:18:05.003Z</time></trkpt><trkpt lat="42.5391341579235" lon="11.91449024810383"><ele>336.0</ele><time>2026-04-25T08:18:07.003Z</time></trkpt><trkpt lat="42.53912730767308" lon="11.91435995150742"><ele>336.0</ele><time>2026-04-25T08:18:09.003Z</time></trkpt><trkpt lat="42.53912479354155" lon="11.914222243865613"><ele>336.0</ele><time>2026-04-25T08:18:11.003Z</time></trkpt><trkpt lat="42.5391153539467" lon="11.914091085470346"><ele>336.0</ele><time>2026-04-25T08:18:13.003Z</time></trkpt><trkpt lat="42.53910305199945" lon="11.913949805210063"><ele>336.0</ele><time>2026-04-25T08:18:15.003Z</time></trkpt><trkpt lat="42.53909766370352" lon="11.913811155579845"><ele>336.0</ele><time>2026-04-25T08:18:17.003Z</time></trkpt><trkpt lat="42.53908024842701" lon="11.913674198420862"><ele>336.0</ele><time>2026-04-25T08:18:19.003Z</time></trkpt><trkpt lat="42.53907549428066" lon="11.913542462265948"><ele>336.0</ele><time>2026-04-25T08:18:21.003Z</time></trkpt><trkpt lat="42.53906484988052" lon="11.913410132205147"><ele>335.6</ele><time>2026-04-25T08:18:23.006Z</time></trkpt><trkpt lat="42.53904377974982" lon="11.913286988837456"><ele>335.20000000000005</ele><time>2026-04-25T08:18:25.006Z</time></trkpt><trkpt lat="42.53903663712626" lon="11.913150341197754"><ele>334.79999999999995</ele><time>2026-04-25T08:18:27.006Z</time></trkpt><trkpt lat="42.53902772330776" lon="11.913021625241564"><ele>334.4</ele><time>2026-04-25T08:18:29.006Z</time></trkpt><trkpt lat="42.53902835548647" lon="11.912898703931706"><ele>334.0</ele><time>2026-04-25T08:18:31.006Z</time></trkpt><trkpt lat="42.5390237231437" lon="11.912787963771779"><ele>334.0</ele><time>2026-04-25T08:18:33.005Z</time></trkpt><trkpt lat="42.539025772391284" lon="11.912685989153573"><ele>334.0</ele><time>2026-04-25T08:18:35.006Z</time></trkpt><trkpt lat="42.53904961386364" lon="11.912584557320793"><ele>334.0</ele><time>2026-04-25T08:18:37.006Z</time></trkpt><trkpt lat="42.53907497123684" lon="11.912489058583256"><ele>334.0</ele><time>2026-04-25T08:18:39.006Z</time></trkpt><trkpt lat="42.53910711790997" lon="11.912401837166234"><ele>334.0</ele><time>2026-04-25T08:18:41.006Z</time></trkpt><trkpt lat="42.53914348909892" lon="11.91230131436123"><ele>334.0</ele><time>2026-04-25T08:18:43.006Z</time></trkpt><trkpt lat="42.5391891281751" lon="11.912209363028342"><ele>334.5</ele><time>2026-04-25T08:18:45.006Z</time></trkpt><trkpt lat="42.5392371399742" lon="11.912119817351586"><ele>335.0</ele><time>2026-04-25T08:18:47.006Z</time></trkpt><trkpt lat="42.5392879696277" lon="11.912026838739113"><ele>335.5</ele><time>2026-04-25T08:18:49.006Z</time></trkpt><trkpt lat="42.539342621284646" lon="11.911929584989679"><ele>336.0</ele><time>2026-04-25T08:18:51.006Z</time></trkpt><trkpt lat="42.5393913936924" lon="11.911825628954025"><ele>336.5</ele><time>2026-04-25T08:18:53.006Z</time></trkpt><trkpt lat="42.539441599901984" lon="11.911721401316445"><ele>337.0</ele><time>2026-04-25T08:18:55.006Z</time></trkpt><trkpt lat="42.53949760318083" lon="11.911619150180384"><ele>336.20000000000005</ele><time>2026-04-25T08:18:57.006Z</time></trkpt><trkpt lat="42.53955082587502" lon="11.911503160018578"><ele>335.4</ele><time>2026-04-25T08:18:59.006Z</time></trkpt><trkpt lat="42.539615954739055" lon="11.911385965544637"><ele>334.6</ele><time>2026-04-25T08:19:01.006Z</time></trkpt><trkpt lat="42.539681817127374" lon="11.911274188599394"><ele>333.79999999999995</ele><time>2026-04-25T08:19:03.006Z</time></trkpt><trkpt lat="42.53975317251632" lon="11.911155501380147"><ele>333.0</ele><time>2026-04-25T08:19:05.006Z</time></trkpt><trkpt lat="42.53982301887185" lon="11.911034785795266"><ele>333.0</ele><time>2026-04-25T08:19:07.006Z</time></trkpt><trkpt lat="42.539900412890624" lon="11.910914255752235"><ele>333.0</ele><time>2026-04-25T08:19:09.005Z</time></trkpt><trkpt lat="42.53998309421127" lon="11.910809193755497"><ele>333.0</ele><time>2026-04-25T08:19:11.005Z</time></trkpt><trkpt lat="42.54002646010016" lon="11.910746323030574"><ele>333.0</ele><time>2026-04-25T08:19:12.005Z</time></trkpt><trkpt lat="42.54011963843071" lon="11.910649302505114"><ele>333.0</ele><time>2026-04-25T08:19:14.005Z</time></trkpt><trkpt lat="42.5402135599128" lon="11.910544938478576"><ele>333.79999999999995</ele><time>2026-04-25T08:19:16.005Z</time></trkpt><trkpt lat="42.54026647759342" lon="11.910498070348499"><ele>334.6</ele><time>2026-04-25T08:19:17.005Z</time></trkpt><trkpt lat="42.540368895745715" lon="11.91041251869644"><ele>335.4</ele><time>2026-04-25T08:19:19.005Z</time></trkpt><trkpt lat="42.54042595474943" lon="11.91036966322579"><ele>336.20000000000005</ele><time>2026-04-25T08:19:20.005Z</time></trkpt><trkpt lat="42.54053533552474" lon="11.910291797661115"><ele>337.0</ele><time>2026-04-25T08:19:22.005Z</time></trkpt><trkpt lat="42.540640824793854" lon="11.91021758160404"><ele>337.0</ele><time>2026-04-25T08:19:24.005Z</time></trkpt><trkpt lat="42.54075751524178" lon="11.910147245574567"><ele>337.0</ele><time>2026-04-25T08:19:26.005Z</time></trkpt><trkpt lat="42.54085103385699" lon="11.910098357099864"><ele>337.0</ele><time>2026-04-25T08:19:28.005Z</time></trkpt><trkpt lat="42.5409104206155" lon="11.91006214509009"><ele>337.0</ele><time>2026-04-25T08:19:29.005Z</time></trkpt><trkpt lat="42.54097523676539" lon="11.910030036869157"><ele>337.0</ele><time>2026-04-25T08:19:30.005Z</time></trkpt><trkpt lat="42.541036588515375" lon="11.909993096001953"><ele>337.0</ele><time>2026-04-25T08:19:31.005Z</time></trkpt><trkpt lat="42.54109771170677" lon="11.909958075323246"><ele>336.8571428571429</ele><time>2026-04-25T08:19:32.005Z</time></trkpt><trkpt lat="42.54115898931099" lon="11.909925457284933"><ele>336.7142857142857</ele><time>2026-04-25T08:19:33.005Z</time></trkpt><trkpt lat="42.54121754473814" lon="11.909890723566493"><ele>336.57142857142856</ele><time>2026-04-25T08:19:34.005Z</time></trkpt><trkpt lat="42.541276493561234" lon="11.909858496525402"><ele>336.42857142857144</ele><time>2026-04-25T08:19:35.005Z</time></trkpt><trkpt lat="42.54133788586929" lon="11.909823551720368"><ele>336.2857142857143</ele><time>2026-04-25T08:19:36.005Z</time></trkpt><trkpt lat="42.54140016634347" lon="11.909792252947586"><ele>336.14285714285717</ele><time>2026-04-25T08:19:37.005Z</time></trkpt><trkpt lat="42.54146005164676" lon="11.909759480206919"><ele>336.0</ele><time>2026-04-25T08:19:38.005Z</time></trkpt><trkpt lat="42.54157510613373" lon="11.909696929268355"><ele>335.4</ele><time>2026-04-25T08:19:40.005Z</time></trkpt><trkpt lat="42.54169593722581" lon="11.909628051043857"><ele>334.8</ele><time>2026-04-25T08:19:42.005Z</time></trkpt><trkpt lat="42.54175676376114" lon="11.90959870747045"><ele>334.2</ele><time>2026-04-25T08:19:43.005Z</time></trkpt><trkpt lat="42.5418174223547" lon="11.909559031326358"><ele>333.59999999999997</ele><time>2026-04-25T08:19:44.005Z</time></trkpt><trkpt lat="42.54188044501527" lon="11.909532415776942"><ele>333.0</ele><time>2026-04-25T08:19:45.005Z</time></trkpt><trkpt lat="42.54199169407389" lon="11.909459787286165"><ele>332.6666666666667</ele><time>2026-04-25T08:19:47.005Z</time></trkpt><trkpt lat="42.542114166528954" lon="11.909389005208704"><ele>332.3333333333333</ele><time>2026-04-25T08:19:49.005Z</time></trkpt><trkpt lat="42.54217821022643" lon="11.909347999466481"><ele>332.0</ele><time>2026-04-25T08:19:50.005Z</time></trkpt><trkpt lat="42.542243591394175" lon="11.909308163252296"><ele>331.66666666666663</ele><time>2026-04-25T08:19:51.005Z</time></trkpt><trkpt lat="42.54230630518045" lon="11.909267146541607"><ele>331.3333333333333</ele><time>2026-04-25T08:19:52.005Z</time></trkpt><trkpt lat="42.54237152361394" lon="11.909227672240162"><ele>331.0</ele><time>2026-04-25T08:19:53.005Z</time></trkpt><trkpt lat="42.54243655738858" lon="11.909194337261535"><ele>331.0</ele><time>2026-04-25T08:19:54.005Z</time></trkpt><trkpt lat="42.5425002995946" lon="11.909149057917228"><ele>331.0</ele><time>2026-04-25T08:19:55.005Z</time></trkpt><trkpt lat="42.54256475518437" lon="11.909115612889087"><ele>331.0</ele><time>2026-04-25T08:19:56.005Z</time></trkpt><trkpt lat="42.54262837666813" lon="11.909077520553913"><ele>331.0</ele><time>2026-04-25T08:19:57.005Z</time></trkpt><trkpt lat="42.54269606397395" lon="11.909043584531386"><ele>331.0</ele><time>2026-04-25T08:19:58.005Z</time></trkpt><trkpt lat="42.54276241536215" lon="11.909004474056882"><ele>331.0</ele><time>2026-04-25T08:19:59.004Z</time></trkpt><trkpt lat="42.54282751388589" lon="11.908965362384535"><ele>331.0</ele><time>2026-04-25T08:20:00.004Z</time></trkpt><trkpt lat="42.54289365325199" lon="11.908919223373594"><ele>330.5</ele><time>2026-04-25T08:20:01.004Z</time></trkpt><trkpt lat="42.542959763287485" lon="11.908875155916059"><ele>330.0</ele><time>2026-04-25T08:20:02.004Z</time></trkpt><trkpt lat="42.543032684431545" lon="11.908841902580608"><ele>329.5</ele><time>2026-04-25T08:20:03.004Z</time></trkpt><trkpt lat="42.54309915568941" lon="11.908812153461875"><ele>329.0</ele><time>2026-04-25T08:20:04.004Z</time></trkpt><trkpt lat="42.54316975775613" lon="11.908784751768337"><ele>328.5</ele><time>2026-04-25T08:20:05.004Z</time></trkpt><trkpt lat="42.54324283752985" lon="11.90874630304323"><ele>328.0</ele><time>2026-04-25T08:20:06.004Z</time></trkpt><trkpt lat="42.54332117249907" lon="11.908717003167483"><ele>328.0</ele><time>2026-04-25T08:20:07.004Z</time></trkpt><trkpt lat="42.543404359717016" lon="11.90868760963335"><ele>328.0</ele><time>2026-04-25T08:20:08.004Z</time></trkpt><trkpt lat="42.54348413841652" lon="11.90864911146132"><ele>328.0</ele><time>2026-04-25T08:20:09.004Z</time></trkpt><trkpt lat="42.54356714552328" lon="11.908630290260175"><ele>328.0</ele><time>2026-04-25T08:20:10.004Z</time></trkpt><trkpt lat="42.5436491531871" lon="11.908605360328528"><ele>328.0</ele><time>2026-04-25T08:20:11.004Z</time></trkpt><trkpt lat="42.54373703412495" lon="11.90858857811785"><ele>328.0</ele><time>2026-04-25T08:20:12.004Z</time></trkpt><trkpt lat="42.54382739213487" lon="11.908553595356636"><ele>327.8333333333333</ele><time>2026-04-25T08:20:13.004Z</time></trkpt><trkpt lat="42.54391016180586" lon="11.90853601047675"><ele>327.66666666666663</ele><time>2026-04-25T08:20:14.004Z</time></trkpt><trkpt lat="42.54400120650148" lon="11.908515070542553"><ele>327.5</ele><time>2026-04-25T08:20:15.004Z</time></trkpt><trkpt lat="42.54408526721135" lon="11.908492279279509"><ele>327.3333333333333</ele><time>2026-04-25T08:20:16.004Z</time></trkpt><trkpt lat="42.54417071004536" lon="11.908463280291723"><ele>327.1666666666667</ele><time>2026-04-25T08:20:17.004Z</time></trkpt><trkpt lat="42.54425385283114" lon="11.908435944138064"><ele>327.0</ele><time>2026-04-25T08:20:18.004Z</time></trkpt><trkpt lat="42.54433907307947" lon="11.908403770051509"><ele>326.8333333333333</ele><time>2026-04-25T08:20:19.004Z</time></trkpt><trkpt lat="42.544424638462374" lon="11.908367189548741"><ele>326.6666666666667</ele><time>2026-04-25T08:20:20.004Z</time></trkpt><trkpt lat="42.54451256569346" lon="11.908350829792461"><ele>326.5</ele><time>2026-04-25T08:20:21.004Z</time></trkpt><trkpt lat="42.544592707285375" lon="11.90832356263954"><ele>326.33333333333337</ele><time>2026-04-25T08:20:22.004Z</time></trkpt><trkpt lat="42.54466906158557" lon="11.908316044423403"><ele>326.1666666666667</ele><time>2026-04-25T08:20:23.004Z</time></trkpt><trkpt lat="42.54475078908595" lon="11.908298432449955"><ele>326.0</ele><time>2026-04-25T08:20:24.004Z</time></trkpt><trkpt lat="42.54483101853524" lon="11.908273841804863"><ele>326.0</ele><time>2026-04-25T08:20:25.004Z</time></trkpt><trkpt lat="42.544913569913746" lon="11.908252235673185"><ele>326.0</ele><time>2026-04-25T08:20:26.004Z</time></trkpt><trkpt lat="42.54499217885701" lon="11.908236397098298"><ele>326.0</ele><time>2026-04-25T08:20:27.004Z</time></trkpt><trkpt lat="42.54506960705868" lon="11.908215654085206"><ele>326.0</ele><time>2026-04-25T08:20:28.006Z</time></trkpt><trkpt lat="42.545144188646745" lon="11.908204020651626"><ele>326.0</ele><time>2026-04-25T08:20:29.006Z</time></trkpt><trkpt lat="42.54522478508484" lon="11.908186674977275"><ele>326.0</ele><time>2026-04-25T08:20:30.006Z</time></trkpt><trkpt lat="42.54530618587669" lon="11.908178938813506"><ele>326.0</ele><time>2026-04-25T08:20:31.006Z</time></trkpt><trkpt lat="42.54537882405932" lon="11.908185326339694"><ele>326.0</ele><time>2026-04-25T08:20:32.006Z</time></trkpt><trkpt lat="42.545452711073025" lon="11.908192302915907"><ele>326.0</ele><time>2026-04-25T08:20:33.006Z</time></trkpt><trkpt lat="42.54552631117395" lon="11.908199225918898"><ele>326.0</ele><time>2026-04-25T08:20:34.006Z</time></trkpt><trkpt lat="42.545592251916496" lon="11.908216585698383"><ele>326.0</ele><time>2026-04-25T08:20:35.006Z</time></trkpt><trkpt lat="42.545662195593636" lon="11.908252218424867"><ele>326.0</ele><time>2026-04-25T08:20:36.006Z</time></trkpt><trkpt lat="42.54572326779582" lon="11.908287414466924"><ele>326.0</ele><time>2026-04-25T08:20:37.006Z</time></trkpt><trkpt lat="42.54578413800112" lon="11.908328983607845"><ele>325.8</ele><time>2026-04-25T08:20:38.006Z</time></trkpt><trkpt lat="42.54584687649975" lon="11.908368578378807"><ele>325.6</ele><time>2026-04-25T08:20:39.006Z</time></trkpt><trkpt lat="42.545958080179645" lon="11.908437900261932"><ele>325.4</ele><time>2026-04-25T08:20:41.006Z</time></trkpt><trkpt lat="42.54607340988216" lon="11.90849541813"><ele>325.2</ele><time>2026-04-25T08:20:43.006Z</time></trkpt><trkpt lat="42.54619324880708" lon="11.90855512956145"><ele>325.0</ele><time>2026-04-25T08:20:45.006Z</time></trkpt><trkpt lat="42.54630706723811" lon="11.90862926146822"><ele>325.0</ele><time>2026-04-25T08:20:47.006Z</time></trkpt><trkpt lat="42.54642316270735" lon="11.90869110976949"><ele>325.0</ele><time>2026-04-25T08:20:49.006Z</time></trkpt><trkpt lat="42.54653238807243" lon="11.908755154608377"><ele>325.0</ele><time>2026-04-25T08:20:51.006Z</time></trkpt><trkpt lat="42.546643463596844" lon="11.908812194057361"><ele>325.0</ele><time>2026-04-25T08:20:53.006Z</time></trkpt><trkpt lat="42.54674437326689" lon="11.908872006027137"><ele>325.0</ele><time>2026-04-25T08:20:55.006Z</time></trkpt><trkpt lat="42.546857798991724" lon="11.908937603468884"><ele>325.0</ele><time>2026-04-25T08:20:57.006Z</time></trkpt><trkpt lat="42.546961655957176" lon="11.908999017578726"><ele>325.0</ele><time>2026-04-25T08:20:59.006Z</time></trkpt><trkpt lat="42.54707547449625" lon="11.909051759659466"><ele>325.0</ele><time>2026-04-25T08:21:01.006Z</time></trkpt><trkpt lat="42.54717898237792" lon="11.909113211587654"><ele>325.4</ele><time>2026-04-25T08:21:03.006Z</time></trkpt><trkpt lat="42.54728729885025" lon="11.909178136397276"><ele>325.8</ele><time>2026-04-25T08:21:05.006Z</time></trkpt><trkpt lat="42.54738778484764" lon="11.90922897244688"><ele>326.20000000000005</ele><time>2026-04-25T08:21:07.006Z</time></trkpt><trkpt lat="42.547477087349826" lon="11.909274692335304"><ele>326.6</ele><time>2026-04-25T08:21:09.006Z</time></trkpt><trkpt lat="42.54756519821962" lon="11.909330476988927"><ele>327.0</ele><time>2026-04-25T08:21:11.006Z</time></trkpt><trkpt lat="42.547653013873806" lon="11.909401153239104"><ele>327.0</ele><time>2026-04-25T08:21:13.006Z</time></trkpt><trkpt lat="42.54773293729633" lon="11.909463894062057"><ele>327.0</ele><time>2026-04-25T08:21:15.005Z</time></trkpt><trkpt lat="42.547813056513135" lon="11.909551830453474"><ele>327.0</ele><time>2026-04-25T08:21:17.005Z</time></trkpt><trkpt lat="42.54789631762909" lon="11.90963165196532"><ele>327.0</ele><time>2026-04-25T08:21:19.005Z</time></trkpt><trkpt lat="42.54797491240187" lon="11.909730098074274"><ele>327.0</ele><time>2026-04-25T08:21:21.005Z</time></trkpt><trkpt lat="42.54805160400739" lon="11.90982582569393"><ele>326.6</ele><time>2026-04-25T08:21:23.005Z</time></trkpt><trkpt lat="42.54813501827139" lon="11.90993938182147"><ele>326.20000000000005</ele><time>2026-04-25T08:21:25.005Z</time></trkpt><trkpt lat="42.54821244701413" lon="11.910058965826613"><ele>325.8</ele><time>2026-04-25T08:21:27.005Z</time></trkpt><trkpt lat="42.54830560106311" lon="11.910174286482777"><ele>325.4</ele><time>2026-04-25T08:21:29.005Z</time></trkpt><trkpt lat="42.54835132693584" lon="11.910249684714241"><ele>325.0</ele><time>2026-04-25T08:21:30.005Z</time></trkpt><trkpt lat="42.54839536138332" lon="11.910322266735434"><ele>325.0</ele><time>2026-04-25T08:21:31.005Z</time></trkpt><trkpt lat="42.54844862704141" lon="11.910392441196542"><ele>325.0</ele><time>2026-04-25T08:21:32.005Z</time></trkpt><trkpt lat="42.548496982775774" lon="11.910469299483381"><ele>325.0</ele><time>2026-04-25T08:21:33.005Z</time></trkpt><trkpt lat="42.54855062485508" lon="11.910542439054286"><ele>325.0</ele><time>2026-04-25T08:21:34.005Z</time></trkpt><trkpt lat="42.54860077377088" lon="11.910626099594625"><ele>325.0</ele><time>2026-04-25T08:21:35.005Z</time></trkpt><trkpt lat="42.548656589935604" lon="11.910707699124112"><ele>325.0</ele><time>2026-04-25T08:21:36.005Z</time></trkpt><trkpt lat="42.54871395248451" lon="11.910790351132142"><ele>323.66666666666663</ele><time>2026-04-25T08:21:37.005Z</time></trkpt><trkpt lat="42.5487718003508" lon="11.910863613285404"><ele>322.3333333333333</ele><time>2026-04-25T08:21:38.005Z</time></trkpt><trkpt lat="42.5488334409186" lon="11.910938506156239"><ele>321.0</ele><time>2026-04-25T08:21:39.005Z</time></trkpt><trkpt lat="42.54889385033531" lon="11.911023195403986"><ele>319.6666666666667</ele><time>2026-04-25T08:21:40.005Z</time></trkpt><trkpt lat="42.54894958213602" lon="11.911099709951623"><ele>318.33333333333337</ele><time>2026-04-25T08:21:41.005Z</time></trkpt><trkpt lat="42.549007392323226" lon="11.911175765442476"><ele>317.0</ele><time>2026-04-25T08:21:42.005Z</time></trkpt><trkpt lat="42.54906542268229" lon="11.91125891107596"><ele>317.0</ele><time>2026-04-25T08:21:43.005Z</time></trkpt><trkpt lat="42.54912141152458" lon="11.91133391238052"><ele>317.0</ele><time>2026-04-25T08:21:44.005Z</time></trkpt><trkpt lat="42.54917805907194" lon="11.911409945604973"><ele>317.0</ele><time>2026-04-25T08:21:45.005Z</time></trkpt><trkpt lat="42.54923254307966" lon="11.911487318881841"><ele>317.0</ele><time>2026-04-25T08:21:46.005Z</time></trkpt><trkpt lat="42.54927629915997" lon="11.911569532365865"><ele>317.0</ele><time>2026-04-25T08:21:47.005Z</time></trkpt><trkpt lat="42.549321516746446" lon="11.911646712292354"><ele>317.0</ele><time>2026-04-25T08:21:48.005Z</time></trkpt><trkpt lat="42.54937246799774" lon="11.911721176726953"><ele>316.5</ele><time>2026-04-25T08:21:49.005Z</time></trkpt><trkpt lat="42.54942809824602" lon="11.911784817170263"><ele>316.0</ele><time>2026-04-25T08:21:50.005Z</time></trkpt><trkpt lat="42.54947509784748" lon="11.911859181980475"><ele>315.5</ele><time>2026-04-25T08:21:51.005Z</time></trkpt><trkpt lat="42.54951165922964" lon="11.911929588956554"><ele>315.0</ele><time>2026-04-25T08:21:52.005Z</time></trkpt><trkpt lat="42.549582845833655" lon="11.91200056145123"><ele>314.5</ele><time>2026-04-25T08:21:54.005Z</time></trkpt><trkpt lat="42.54962543436893" lon="11.911802705876305"><ele>314.0</ele><time>2026-04-25T08:21:57.005Z</time></trkpt><trkpt lat="42.54960166078089" lon="11.911635379125027"><ele>314.0</ele><time>2026-04-25T08:21:59.005Z</time></trkpt><trkpt lat="42.54959319312371" lon="11.911546890465193"><ele>314.0</ele><time>2026-04-25T08:22:00.005Z</time></trkpt><trkpt lat="42.54955806854148" lon="11.911379552405624"><ele>314.0</ele><time>2026-04-25T08:22:02.005Z</time></trkpt><trkpt lat="42.5495574401623" lon="11.91128334293438"><ele>314.0</ele><time>2026-04-25T08:22:03.005Z</time></trkpt><trkpt lat="42.5495456734834" lon="11.911192605217904"><ele>314.0</ele><time>2026-04-25T08:22:04.005Z</time></trkpt><trkpt lat="42.549535562906605" lon="11.911102334782141"><ele>314.0</ele><time>2026-04-25T08:22:05.005Z</time></trkpt><trkpt lat="42.5495226512998" lon="11.910953141796858"><ele>314.0</ele><time>2026-04-25T08:22:07.004Z</time></trkpt><trkpt lat="42.549519717261575" lon="11.910807717966938"><ele>314.0</ele><time>2026-04-25T08:22:09.004Z</time></trkpt><trkpt lat="42.54951266537755" lon="11.910672464765748"><ele>314.0</ele><time>2026-04-25T08:22:11.004Z</time></trkpt><trkpt lat="42.54950348018825" lon="11.91052917574268"><ele>314.0</ele><time>2026-04-25T08:22:13.004Z</time></trkpt><trkpt lat="42.54949028899016" lon="11.910400385433018"><ele>314.0</ele><time>2026-04-25T08:22:15.004Z</time></trkpt><trkpt lat="42.549470159067496" lon="11.910269732992331"><ele>314.0</ele><time>2026-04-25T08:22:17.004Z</time></trkpt><trkpt lat="42.5494590433358" lon="11.910152125710926"><ele>314.0</ele><time>2026-04-25T08:22:19.004Z</time></trkpt><trkpt lat="42.54945205753707" lon="11.910031824372496"><ele>314.0</ele><time>2026-04-25T08:22:21.004Z</time></trkpt><trkpt lat="42.54943889843579" lon="11.909906565663762"><ele>314.0</ele><time>2026-04-25T08:22:23.004Z</time></trkpt><trkpt lat="42.5494238789838" lon="11.909792483337178"><ele>314.0</ele><time>2026-04-25T08:22:25.004Z</time></trkpt><trkpt lat="42.54941983273609" lon="11.90967164500241"><ele>314.0</ele><time>2026-04-25T08:22:27.004Z</time></trkpt><trkpt lat="42.549405082730885" lon="11.909546411530943"><ele>313.6666666666667</ele><time>2026-04-25T08:22:29.004Z</time></trkpt><trkpt lat="42.54940229132904" lon="11.909428310237953"><ele>313.33333333333337</ele><time>2026-04-25T08:22:31.004Z</time></trkpt><trkpt lat="42.54939482074606" lon="11.909308699926328"><ele>313.0</ele><time>2026-04-25T08:22:33.004Z</time></trkpt><trkpt lat="42.54938554614059" lon="11.909182707361635"><ele>312.6666666666667</ele><time>2026-04-25T08:22:35.006Z</time></trkpt><trkpt lat="42.54938147119766" lon="11.909060901289031"><ele>312.3333333333333</ele><time>2026-04-25T08:22:37.007Z</time></trkpt><trkpt lat="42.54936749089763" lon="11.90894443538962"><ele>312.0</ele><time>2026-04-25T08:22:39.006Z</time></trkpt><trkpt lat="42.54935780234273" lon="11.908845373051443"><ele>311.8571428571429</ele><time>2026-04-25T08:22:41.006Z</time></trkpt><trkpt lat="42.54941688258654" lon="11.908792535413777"><ele>311.71428571428567</ele><time>2026-04-25T08:22:47.006Z</time></trkpt><trkpt lat="42.549434608306996" lon="11.908708396123613"><ele>311.57142857142856</ele><time>2026-04-25T08:22:51.006Z</time></trkpt><trkpt lat="42.54944850112207" lon="11.908621226225398"><ele>311.42857142857144</ele><time>2026-04-25T08:22:54.006Z</time></trkpt><trkpt lat="42.54944123622809" lon="11.908530514545122"><ele>311.28571428571433</ele><time>2026-04-25T08:22:56.006Z</time></trkpt><trkpt lat="42.54944491006043" lon="11.908440861032638"><ele>311.1428571428571</ele><time>2026-04-25T08:22:58.006Z</time></trkpt><trkpt lat="42.549440872758936" lon="11.908343909867703"><ele>311.0</ele><time>2026-04-25T08:23:00.006Z</time></trkpt><trkpt lat="42.54945146628667" lon="11.908251652873236"><ele>311.0</ele><time>2026-04-25T08:23:02.006Z</time></trkpt><trkpt lat="42.549472668629534" lon="11.908124428534729"><ele>311.0</ele><time>2026-04-25T08:23:05.006Z</time></trkpt><trkpt lat="42.54948499621192" lon="11.90803899051621"><ele>311.0</ele><time>2026-04-25T08:23:07.006Z</time></trkpt><trkpt lat="42.54949464977239" lon="11.907925978816046"><ele>311.0</ele><time>2026-04-25T08:23:10.006Z</time></trkpt><trkpt lat="42.54949510098501" lon="11.907835412281157"><ele>311.0</ele><time>2026-04-25T08:23:12.006Z</time></trkpt><trkpt lat="42.549497431431746" lon="11.907741962638088"><ele>311.0</ele><time>2026-04-25T08:23:14.006Z</time></trkpt><trkpt lat="42.54949769965643" lon="11.907620941384922"><ele>311.0</ele><time>2026-04-25T08:23:17.006Z</time></trkpt><trkpt lat="42.54953055689572" lon="11.907514658015087"><ele>311.0</ele><time>2026-04-25T08:23:20.006Z</time></trkpt><trkpt lat="42.549545774977986" lon="11.907431627313343"><ele>311.0</ele><time>2026-04-25T08:23:22.006Z</time></trkpt><trkpt lat="42.549566408638704" lon="11.907305073562144"><ele>311.0</ele><time>2026-04-25T08:23:25.006Z</time></trkpt><trkpt lat="42.54957881593649" lon="11.907189035343203"><ele>311.0</ele><time>2026-04-25T08:23:28.005Z</time></trkpt><trkpt lat="42.54959582981995" lon="11.907097594999874"><ele>311.0</ele><time>2026-04-25T08:23:30.005Z</time></trkpt><trkpt lat="42.54960920649416" lon="11.907005359815502"><ele>310.33333333333337</ele><time>2026-04-25T08:23:32.005Z</time></trkpt><trkpt lat="42.54962395811169" lon="11.906906626950038"><ele>309.6666666666667</ele><time>2026-04-25T08:23:34.005Z</time></trkpt><trkpt lat="42.54964185799625" lon="11.906797087211384"><ele>309.0</ele><time>2026-04-25T08:23:37.005Z</time></trkpt><trkpt lat="42.54965953569568" lon="11.906655165325871"><ele>308.3333333333333</ele><time>2026-04-25T08:23:40.005Z</time></trkpt><trkpt lat="42.54969132947633" lon="11.906543687586018"><ele>307.66666666666663</ele><time>2026-04-25T08:23:42.005Z</time></trkpt><trkpt lat="42.54972983234833" lon="11.906443168225222"><ele>307.0</ele><time>2026-04-25T08:23:44.005Z</time></trkpt><trkpt lat="42.549741605432295" lon="11.906331878102309"><ele>307.0</ele><time>2026-04-25T08:23:46.005Z</time></trkpt><trkpt lat="42.5497761248643" lon="11.906232569576929"><ele>307.0</ele><time>2026-04-25T08:23:48.005Z</time></trkpt><trkpt lat="42.54980117690264" lon="11.906123522044995"><ele>307.0</ele><time>2026-04-25T08:23:50.005Z</time></trkpt><trkpt lat="42.54981993346184" lon="11.90603259936269"><ele>307.0</ele><time>2026-04-25T08:23:52.005Z</time></trkpt><trkpt lat="42.549846849277884" lon="11.905932398958853"><ele>307.0</ele><time>2026-04-25T08:23:54.005Z</time></trkpt><trkpt lat="42.54986637211791" lon="11.90582623963358"><ele>307.0</ele><time>2026-04-25T08:23:56.005Z</time></trkpt><trkpt lat="42.549893568117476" lon="11.905731138567594"><ele>307.16666666666663</ele><time>2026-04-25T08:23:58.005Z</time></trkpt><trkpt lat="42.54990766024668" lon="11.90562663259784"><ele>307.3333333333333</ele><time>2026-04-25T08:24:00.005Z</time></trkpt><trkpt lat="42.54993569085134" lon="11.9055170355773"><ele>307.5</ele><time>2026-04-25T08:24:02.005Z</time></trkpt><trkpt lat="42.549967096883215" lon="11.905408352302342"><ele>307.6666666666667</ele><time>2026-04-25T08:24:04.005Z</time></trkpt><trkpt lat="42.549996909575896" lon="11.905309795231448"><ele>307.83333333333337</ele><time>2026-04-25T08:24:06.005Z</time></trkpt><trkpt lat="42.55002653824274" lon="11.905221494398063"><ele>308.0</ele><time>2026-04-25T08:24:08.005Z</time></trkpt><trkpt lat="42.55007081676806" lon="11.905111959972007"><ele>308.33333333333337</ele><time>2026-04-25T08:24:10.005Z</time></trkpt><trkpt lat="42.55010878787277" lon="11.905015384227154"><ele>308.6666666666667</ele><time>2026-04-25T08:24:12.005Z</time></trkpt><trkpt lat="42.55012949648762" lon="11.90490983738387"><ele>309.0</ele><time>2026-04-25T08:24:14.005Z</time></trkpt><trkpt lat="42.55015047590807" lon="11.904816566304417"><ele>309.3333333333333</ele><time>2026-04-25T08:24:16.005Z</time></trkpt><trkpt lat="42.55017924646081" lon="11.90471543395627"><ele>309.66666666666663</ele><time>2026-04-25T08:24:18.004Z</time></trkpt><trkpt lat="42.55021447032525" lon="11.904610439138592"><ele>310.0</ele><time>2026-04-25T08:24:20.004Z</time></trkpt><trkpt lat="42.55024164607494" lon="11.904498739414528"><ele>310.0</ele><time>2026-04-25T08:24:22.004Z</time></trkpt><trkpt lat="42.550290330542275" lon="11.904384765672717"><ele>310.0</ele><time>2026-04-25T08:24:24.004Z</time></trkpt><trkpt lat="42.55031401860354" lon="11.904281150594832"><ele>310.0</ele><time>2026-04-25T08:24:26.004Z</time></trkpt><trkpt lat="42.5503561683798" lon="11.904183517557868"><ele>310.0</ele><time>2026-04-25T08:24:28.004Z</time></trkpt><trkpt lat="42.55037069123079" lon="11.904091129886243"><ele>310.0</ele><time>2026-04-25T08:24:30.004Z</time></trkpt><trkpt lat="42.55039468511247" lon="11.90399819048465"><ele>310.0</ele><time>2026-04-25T08:24:32.004Z</time></trkpt><trkpt lat="42.55042392140672" lon="11.903910087096444"><ele>309.3333333333333</ele><time>2026-04-25T08:24:34.004Z</time></trkpt><trkpt lat="42.55045841854979" lon="11.903830968089983"><ele>308.66666666666663</ele><time>2026-04-25T08:24:36.004Z</time></trkpt><trkpt lat="42.5504950334321" lon="11.903735675003183"><ele>308.0</ele><time>2026-04-25T08:24:38.004Z</time></trkpt><trkpt lat="42.55052960886481" lon="11.90363097359026"><ele>307.3333333333333</ele><time>2026-04-25T08:24:40.007Z</time></trkpt><trkpt lat="42.550558981242375" lon="11.903528212358449"><ele>306.6666666666667</ele><time>2026-04-25T08:24:42.006Z</time></trkpt><trkpt lat="42.55060045915948" lon="11.903428107141277"><ele>306.0</ele><time>2026-04-25T08:24:44.006Z</time></trkpt><trkpt lat="42.55063552122493" lon="11.903319044625736"><ele>306.0</ele><time>2026-04-25T08:24:46.006Z</time></trkpt><trkpt lat="42.55065017668728" lon="11.903206813941022"><ele>306.0</ele><time>2026-04-25T08:24:48.007Z</time></trkpt><trkpt lat="42.55067613118233" lon="11.90309459191493"><ele>306.0</ele><time>2026-04-25T08:24:50.007Z</time></trkpt><trkpt lat="42.55068197763221" lon="11.902974389335496"><ele>306.0</ele><time>2026-04-25T08:24:52.007Z</time></trkpt><trkpt lat="42.55069889897631" lon="11.902869363935967"><ele>306.0</ele><time>2026-04-25T08:24:54.007Z</time></trkpt><trkpt lat="42.55070826604651" lon="11.90274339724935"><ele>306.0</ele><time>2026-04-25T08:24:56.007Z</time></trkpt><trkpt lat="42.55074693634763" lon="11.902647760888641"><ele>306.3333333333333</ele><time>2026-04-25T08:24:58.007Z</time></trkpt><trkpt lat="42.55079214878997" lon="11.90256174693718"><ele>306.6666666666667</ele><time>2026-04-25T08:25:00.007Z</time></trkpt><trkpt lat="42.5508383681601" lon="11.902459927358812"><ele>307.0</ele><time>2026-04-25T08:25:02.006Z</time></trkpt><trkpt lat="42.5508871874252" lon="11.902370542365635"><ele>307.33333333333337</ele><time>2026-04-25T08:25:04.006Z</time></trkpt><trkpt lat="42.55090431516558" lon="11.902248061717525"><ele>307.6666666666667</ele><time>2026-04-25T08:25:06.006Z</time></trkpt><trkpt lat="42.55093321739962" lon="11.902140999121682"><ele>308.0</ele><time>2026-04-25T08:25:08.006Z</time></trkpt><trkpt lat="42.550971358301474" lon="11.902041197142132"><ele>308.0</ele><time>2026-04-25T08:25:10.006Z</time></trkpt><trkpt lat="42.55104045895776" lon="11.901972759246197"><ele>308.0</ele><time>2026-04-25T08:25:12.006Z</time></trkpt><trkpt lat="42.551105286402496" lon="11.901882511375339"><ele>308.0</ele><time>2026-04-25T08:25:14.006Z</time></trkpt><trkpt lat="42.551134666031196" lon="11.901758072199945"><ele>308.0</ele><time>2026-04-25T08:25:16.006Z</time></trkpt><trkpt lat="42.55114107995859" lon="11.901644091943158"><ele>308.0</ele><time>2026-04-25T08:25:18.006Z</time></trkpt><trkpt lat="42.551167146270714" lon="11.901521776081566"><ele>308.33333333333337</ele><time>2026-04-25T08:25:20.006Z</time></trkpt><trkpt lat="42.551184212576395" lon="11.901416587539499"><ele>308.6666666666667</ele><time>2026-04-25T08:25:22.006Z</time></trkpt><trkpt lat="42.55121549012694" lon="11.901332121393608"><ele>309.0</ele><time>2026-04-25T08:25:24.006Z</time></trkpt><trkpt lat="42.55125935477769" lon="11.901261984246755"><ele>309.3333333333333</ele><time>2026-04-25T08:25:26.006Z</time></trkpt><trkpt lat="42.55130676634475" lon="11.901168454993542"><ele>309.66666666666663</ele><time>2026-04-25T08:25:28.006Z</time></trkpt><trkpt lat="42.551356011786524" lon="11.90107817003218"><ele>310.0</ele><time>2026-04-25T08:25:30.006Z</time></trkpt><trkpt lat="42.55140922950528" lon="11.900983326323091"><ele>309.3333333333333</ele><time>2026-04-25T08:25:32.006Z</time></trkpt><trkpt lat="42.55144781822943" lon="11.900878087032213"><ele>308.66666666666663</ele><time>2026-04-25T08:25:34.006Z</time></trkpt><trkpt lat="42.55146684270306" lon="11.900766611410644"><ele>308.0</ele><time>2026-04-25T08:25:36.006Z</time></trkpt><trkpt lat="42.551512310716376" lon="11.900655454819677"><ele>307.3333333333333</ele><time>2026-04-25T08:25:38.006Z</time></trkpt><trkpt lat="42.551541838845644" lon="11.90054784700138"><ele>306.6666666666667</ele><time>2026-04-25T08:25:40.006Z</time></trkpt><trkpt lat="42.55157106679425" lon="11.900433511842582"><ele>306.0</ele><time>2026-04-25T08:25:42.006Z</time></trkpt><trkpt lat="42.55160596453056" lon="11.900345850431421"><ele>306.0</ele><time>2026-04-25T08:25:44.006Z</time></trkpt><trkpt lat="42.55164946323812" lon="11.90025746257996"><ele>306.0</ele><time>2026-04-25T08:25:46.006Z</time></trkpt><trkpt lat="42.55169429212271" lon="11.900153258515994"><ele>306.0</ele><time>2026-04-25T08:25:48.006Z</time></trkpt><trkpt lat="42.55172923328439" lon="11.900057872489745"><ele>306.0</ele><time>2026-04-25T08:25:50.006Z</time></trkpt><trkpt lat="42.55176488543323" lon="11.899973126410192"><ele>306.0</ele><time>2026-04-25T08:25:52.005Z</time></trkpt><trkpt lat="42.55181144909131" lon="11.899857849940956"><ele>306.0</ele><time>2026-04-25T08:25:54.005Z</time></trkpt><trkpt lat="42.551853127927814" lon="11.899771050391204"><ele>306.1666666666667</ele><time>2026-04-25T08:25:56.005Z</time></trkpt><trkpt lat="42.5518546397898" lon="11.8996624527547"><ele>306.3333333333333</ele><time>2026-04-25T08:25:58.005Z</time></trkpt><trkpt lat="42.55185005199104" lon="11.899557279517913"><ele>306.5</ele><time>2026-04-25T08:26:00.005Z</time></trkpt><trkpt lat="42.55185395659731" lon="11.899441041361538"><ele>306.66666666666663</ele><time>2026-04-25T08:26:02.005Z</time></trkpt><trkpt lat="42.55188005245445" lon="11.89934192244218"><ele>306.8333333333333</ele><time>2026-04-25T08:26:04.005Z</time></trkpt><trkpt lat="42.55191158277994" lon="11.899259590375944"><ele>307.0</ele><time>2026-04-25T08:26:06.005Z</time></trkpt><trkpt lat="42.55196083402349" lon="11.89919378940296"><ele>306.66666666666663</ele><time>2026-04-25T08:26:08.005Z</time></trkpt><trkpt lat="42.55201418446095" lon="11.89910283898764"><ele>306.3333333333333</ele><time>2026-04-25T08:26:10.005Z</time></trkpt><trkpt lat="42.55206149461126" lon="11.899015118069121"><ele>306.0</ele><time>2026-04-25T08:26:12.005Z</time></trkpt><trkpt lat="42.552102656238134" lon="11.898904464145287"><ele>305.6666666666667</ele><time>2026-04-25T08:26:14.005Z</time></trkpt><trkpt lat="42.55214931654758" lon="11.898809140510092"><ele>305.33333333333337</ele><time>2026-04-25T08:26:16.005Z</time></trkpt><trkpt lat="42.552205191195526" lon="11.898723073210043"><ele>305.0</ele><time>2026-04-25T08:26:18.005Z</time></trkpt><trkpt lat="42.55222100002354" lon="11.89860947108467"><ele>305.0</ele><time>2026-04-25T08:26:20.005Z</time></trkpt><trkpt lat="42.552228003195516" lon="11.898505207613526"><ele>305.0</ele><time>2026-04-25T08:26:22.005Z</time></trkpt><trkpt lat="42.55224472657581" lon="11.898378600931451"><ele>305.0</ele><time>2026-04-25T08:26:24.005Z</time></trkpt><trkpt lat="42.552280742597866" lon="11.898272307524918"><ele>305.0</ele><time>2026-04-25T08:26:26.005Z</time></trkpt><trkpt lat="42.55230050212955" lon="11.898154508065012"><ele>305.0</ele><time>2026-04-25T08:26:28.005Z</time></trkpt><trkpt lat="42.552318924873084" lon="11.898050590257693"><ele>305.0</ele><time>2026-04-25T08:26:30.005Z</time></trkpt><trkpt lat="42.55236769699868" lon="11.89795712016704"><ele>305.33333333333337</ele><time>2026-04-25T08:26:32.005Z</time></trkpt><trkpt lat="42.55242487884857" lon="11.897853263664748"><ele>305.6666666666667</ele><time>2026-04-25T08:26:34.005Z</time></trkpt><trkpt lat="42.55246546967963" lon="11.897753343625334"><ele>306.0</ele><time>2026-04-25T08:26:36.005Z</time></trkpt><trkpt lat="42.55251319563571" lon="11.897649230619805"><ele>306.3333333333333</ele><time>2026-04-25T08:26:38.005Z</time></trkpt><trkpt lat="42.552565083999845" lon="11.89757361937879"><ele>306.66666666666663</ele><time>2026-04-25T08:26:40.005Z</time></trkpt><trkpt lat="42.55262358702982" lon="11.897491138765279"><ele>307.0</ele><time>2026-04-25T08:26:42.004Z</time></trkpt><trkpt lat="42.55265437138275" lon="11.897389997112711"><ele>307.0</ele><time>2026-04-25T08:26:44.004Z</time></trkpt><trkpt lat="42.55268307892898" lon="11.897292672256043"><ele>307.0</ele><time>2026-04-25T08:26:46.007Z</time></trkpt><trkpt lat="42.55270047945337" lon="11.897182885622511"><ele>307.0</ele><time>2026-04-25T08:26:48.007Z</time></trkpt><trkpt lat="42.55270148525391" lon="11.897070415494138"><ele>307.0</ele><time>2026-04-25T08:26:50.007Z</time></trkpt><trkpt lat="42.552728721593915" lon="11.896983068681653"><ele>307.0</ele><time>2026-04-25T08:26:52.007Z</time></trkpt><trkpt lat="42.55277049387478" lon="11.896915605730278"><ele>307.0</ele><time>2026-04-25T08:26:54.007Z</time></trkpt><trkpt lat="42.552811293870384" lon="11.896819404683916"><ele>307.16666666666663</ele><time>2026-04-25T08:26:57.007Z</time></trkpt><trkpt lat="42.55283041812443" lon="11.89670163362962"><ele>307.3333333333333</ele><time>2026-04-25T08:26:59.007Z</time></trkpt><trkpt lat="42.552864771990684" lon="11.896605922637844"><ele>307.5</ele><time>2026-04-25T08:27:01.007Z</time></trkpt><trkpt lat="42.552897274503835" lon="11.89650936478023"><ele>307.6666666666667</ele><time>2026-04-25T08:27:03.006Z</time></trkpt><trkpt lat="42.552937309838825" lon="11.896403436513468"><ele>307.83333333333337</ele><time>2026-04-25T08:27:05.006Z</time></trkpt><trkpt lat="42.552984230198746" lon="11.89630252544025"><ele>308.0</ele><time>2026-04-25T08:27:07.006Z</time></trkpt><trkpt lat="42.55303985946475" lon="11.896219357452203"><ele>307.5</ele><time>2026-04-25T08:27:09.006Z</time></trkpt><trkpt lat="42.553083400436044" lon="11.89611945572186"><ele>307.0</ele><time>2026-04-25T08:27:11.006Z</time></trkpt><trkpt lat="42.55312586068799" lon="11.896015652814054"><ele>306.5</ele><time>2026-04-25T08:27:13.006Z</time></trkpt><trkpt lat="42.553166608083984" lon="11.895918658937463"><ele>306.0</ele><time>2026-04-25T08:27:15.006Z</time></trkpt><trkpt lat="42.55320815318443" lon="11.895813394160758"><ele>305.5</ele><time>2026-04-25T08:27:17.006Z</time></trkpt><trkpt lat="42.55323860005386" lon="11.895710044169636"><ele>305.0</ele><time>2026-04-25T08:27:19.006Z</time></trkpt><trkpt lat="42.55327376943211" lon="11.895608369858722"><ele>305.0</ele><time>2026-04-25T08:27:21.006Z</time></trkpt><trkpt lat="42.553289446431165" lon="11.895515366996268"><ele>305.0</ele><time>2026-04-25T08:27:23.006Z</time></trkpt><trkpt lat="42.553311329790425" lon="11.895434732298487"><ele>305.0</ele><time>2026-04-25T08:27:25.006Z</time></trkpt><trkpt lat="42.55336646726443" lon="11.895325334308541"><ele>305.0</ele><time>2026-04-25T08:27:28.006Z</time></trkpt><trkpt lat="42.553411009603785" lon="11.895249845478478"><ele>305.0</ele><time>2026-04-25T08:27:30.006Z</time></trkpt><trkpt lat="42.55343738277002" lon="11.895151240794272"><ele>305.0</ele><time>2026-04-25T08:27:32.006Z</time></trkpt><trkpt lat="42.553475778759385" lon="11.895061436401923"><ele>305.6666666666667</ele><time>2026-04-25T08:27:34.006Z</time></trkpt><trkpt lat="42.553501212418404" lon="11.894964893331545"><ele>306.33333333333337</ele><time>2026-04-25T08:27:36.006Z</time></trkpt><trkpt lat="42.553510153445295" lon="11.894861447161324"><ele>307.0</ele><time>2026-04-25T08:27:38.006Z</time></trkpt><trkpt lat="42.5535093387236" lon="11.894757645300169"><ele>307.6666666666667</ele><time>2026-04-25T08:27:40.006Z</time></trkpt><trkpt lat="42.55352565016633" lon="11.894664324336523"><ele>308.3333333333333</ele><time>2026-04-25T08:27:42.006Z</time></trkpt><trkpt lat="42.553564264559455" lon="11.894567541800125"><ele>309.0</ele><time>2026-04-25T08:27:44.006Z</time></trkpt><trkpt lat="42.55360277133211" lon="11.89447800437853"><ele>309.00000000000006</ele><time>2026-04-25T08:27:46.006Z</time></trkpt><trkpt lat="42.55363814596144" lon="11.894384343059626"><ele>309.0</ele><time>2026-04-25T08:27:48.006Z</time></trkpt><trkpt lat="42.55366694465056" lon="11.894293868998504"><ele>309.0</ele><time>2026-04-25T08:27:50.006Z</time></trkpt><trkpt lat="42.55368973511229" lon="11.89419745853277"><ele>309.0</ele><time>2026-04-25T08:27:52.005Z</time></trkpt><trkpt lat="42.55371715357447" lon="11.894109828363494"><ele>309.0</ele><time>2026-04-25T08:27:54.005Z</time></trkpt><trkpt lat="42.5537461102293" lon="11.894025161208882"><ele>309.00000000000006</ele><time>2026-04-25T08:27:56.005Z</time></trkpt><trkpt lat="42.5537790876867" lon="11.8939197285091"><ele>309.0</ele><time>2026-04-25T08:27:58.005Z</time></trkpt><trkpt lat="42.55381890749504" lon="11.893820393141441"><ele>308.5</ele><time>2026-04-25T08:28:00.005Z</time></trkpt><trkpt lat="42.5538628894991" lon="11.893731182241353"><ele>308.0</ele><time>2026-04-25T08:28:02.005Z</time></trkpt><trkpt lat="42.55391569047434" lon="11.893648459935669"><ele>307.5</ele><time>2026-04-25T08:28:04.005Z</time></trkpt><trkpt lat="42.55394473859252" lon="11.893561010674983"><ele>307.0</ele><time>2026-04-25T08:28:06.005Z</time></trkpt><trkpt lat="42.553979971594" lon="11.893475357070372"><ele>306.5</ele><time>2026-04-25T08:28:08.005Z</time></trkpt><trkpt lat="42.554028148538954" lon="11.893401585726963"><ele>306.0</ele><time>2026-04-25T08:28:10.005Z</time></trkpt><trkpt lat="42.55405233506673" lon="11.893299109535834"><ele>306.0</ele><time>2026-04-25T08:28:12.005Z</time></trkpt><trkpt lat="42.55409702972647" lon="11.89320948497019"><ele>306.0</ele><time>2026-04-25T08:28:14.005Z</time></trkpt><trkpt lat="42.55413063031003" lon="11.893104692691754"><ele>306.0</ele><time>2026-04-25T08:28:16.005Z</time></trkpt><trkpt lat="42.55415543101805" lon="11.892992157620352"><ele>306.0</ele><time>2026-04-25T08:28:18.005Z</time></trkpt><trkpt lat="42.554176236990195" lon="11.892885649545653"><ele>306.0</ele><time>2026-04-25T08:28:20.005Z</time></trkpt><trkpt lat="42.554198973978394" lon="11.892785753649349"><ele>306.0</ele><time>2026-04-25T08:28:22.005Z</time></trkpt><trkpt lat="42.55423770855078" lon="11.892686229788415"><ele>306.3333333333333</ele><time>2026-04-25T08:28:24.005Z</time></trkpt><trkpt lat="42.55427603376672" lon="11.89258786231814"><ele>306.6666666666667</ele><time>2026-04-25T08:28:26.005Z</time></trkpt><trkpt lat="42.554313424940766" lon="11.892491070458172"><ele>307.0</ele><time>2026-04-25T08:28:28.005Z</time></trkpt><trkpt lat="42.55436827865232" lon="11.892404458071457"><ele>307.33333333333337</ele><time>2026-04-25T08:28:30.005Z</time></trkpt><trkpt lat="42.554406359098074" lon="11.89230027437244"><ele>307.6666666666667</ele><time>2026-04-25T08:28:32.005Z</time></trkpt><trkpt lat="42.554446468680325" lon="11.892207271515955"><ele>308.0</ele><time>2026-04-25T08:28:34.005Z</time></trkpt><trkpt lat="42.55447477362827" lon="11.892098689916802"><ele>308.0</ele><time>2026-04-25T08:28:36.005Z</time></trkpt><trkpt lat="42.5545015638226" lon="11.891985790577102"><ele>308.0</ele><time>2026-04-25T08:28:38.005Z</time></trkpt><trkpt lat="42.55451515204181" lon="11.891878403189542"><ele>308.0</ele><time>2026-04-25T08:28:40.005Z</time></trkpt><trkpt lat="42.55453564121618" lon="11.891766296949319"><ele>308.0</ele><time>2026-04-25T08:28:42.005Z</time></trkpt><trkpt lat="42.55457797551406" lon="11.891668798651526"><ele>308.0</ele><time>2026-04-25T08:28:44.004Z</time></trkpt><trkpt lat="42.5546178329886" lon="11.891575527403557"><ele>308.0</ele><time>2026-04-25T08:28:46.004Z</time></trkpt><trkpt lat="42.554658889406376" lon="11.891481816366449"><ele>307.57142857142856</ele><time>2026-04-25T08:28:48.004Z</time></trkpt><trkpt lat="42.55470116800917" lon="11.89138739486153"><ele>307.1428571428571</ele><time>2026-04-25T08:28:50.004Z</time></trkpt><trkpt lat="42.554732599784785" lon="11.89131009631436"><ele>306.7142857142857</ele><time>2026-04-25T08:28:52.007Z</time></trkpt><trkpt lat="42.55475496773675" lon="11.89122345565536"><ele>306.2857142857143</ele><time>2026-04-25T08:28:54.007Z</time></trkpt><trkpt lat="42.55479649316658" lon="11.89115345678681"><ele>305.85714285714283</ele><time>2026-04-25T08:28:56.007Z</time></trkpt><trkpt lat="42.554855415645875" lon="11.89108615355756"><ele>305.42857142857144</ele><time>2026-04-25T08:28:59.007Z</time></trkpt><trkpt lat="42.55484864885516" lon="11.890983003758926"><ele>305.0</ele><time>2026-04-25T08:29:02.007Z</time></trkpt><trkpt lat="42.55476485142601" lon="11.890956600423419"><ele>305.5</ele><time>2026-04-25T08:29:05.007Z</time></trkpt><trkpt lat="42.55479924729082" lon="11.890833161267837"><ele>306.0</ele><time>2026-04-25T08:29:08.007Z</time></trkpt><trkpt lat="42.55482981622801" lon="11.890736980854829"><ele>306.5</ele><time>2026-04-25T08:29:10.007Z</time></trkpt><trkpt lat="42.55486373207169" lon="11.890632081456998"><ele>307.0</ele><time>2026-04-25T08:29:13.007Z</time></trkpt><trkpt lat="42.554887729634814" lon="11.890545369108596"><ele>307.5</ele><time>2026-04-25T08:29:15.007Z</time></trkpt><trkpt lat="42.55491815024437" lon="11.890446376578161"><ele>308.0</ele><time>2026-04-25T08:29:17.007Z</time></trkpt><trkpt lat="42.55495067571278" lon="11.890348967502003"><ele>308.0</ele><time>2026-04-25T08:29:19.007Z</time></trkpt><trkpt lat="42.55498484163005" lon="11.89024378149378"><ele>308.0</ele><time>2026-04-25T08:29:21.007Z</time></trkpt><trkpt lat="42.555016813748736" lon="11.890135205395813"><ele>308.0</ele><time>2026-04-25T08:29:23.007Z</time></trkpt><trkpt lat="42.5550501866781" lon="11.890044515797333"><ele>308.0</ele><time>2026-04-25T08:29:25.007Z</time></trkpt><trkpt lat="42.555087921963704" lon="11.889964772415373"><ele>308.0</ele><time>2026-04-25T08:29:27.007Z</time></trkpt><trkpt lat="42.55511481844648" lon="11.889878890645779"><ele>308.0</ele><time>2026-04-25T08:29:29.007Z</time></trkpt><trkpt lat="42.55511462665322" lon="11.889756335373734"><ele>308.6</ele><time>2026-04-25T08:29:32.007Z</time></trkpt><trkpt lat="42.555154212059556" lon="11.889670294565788"><ele>309.20000000000005</ele><time>2026-04-25T08:29:34.006Z</time></trkpt><trkpt lat="42.5552122229572" lon="11.889553000558157"><ele>309.8</ele><time>2026-04-25T08:29:36.006Z</time></trkpt><trkpt lat="42.555254583844146" lon="11.889444170177361"><ele>310.40000000000003</ele><time>2026-04-25T08:29:38.006Z</time></trkpt><trkpt lat="42.555296508538795" lon="11.889340050035305"><ele>311.0</ele><time>2026-04-25T08:29:40.006Z</time></trkpt><trkpt lat="42.55534334335019" lon="11.889222282514988"><ele>310.33333333333337</ele><time>2026-04-25T08:29:42.006Z</time></trkpt><trkpt lat="42.55538288906418" lon="11.889117719200113"><ele>309.6666666666667</ele><time>2026-04-25T08:29:44.006Z</time></trkpt><trkpt lat="42.55542219831043" lon="11.889011110436558"><ele>309.0</ele><time>2026-04-25T08:29:46.006Z</time></trkpt><trkpt lat="42.55546359946897" lon="11.888910805413849"><ele>308.3333333333333</ele><time>2026-04-25T08:29:48.006Z</time></trkpt><trkpt lat="42.55550660039128" lon="11.88882267637729"><ele>307.66666666666663</ele><time>2026-04-25T08:29:50.006Z</time></trkpt><trkpt lat="42.55554419362847" lon="11.888738238933204"><ele>307.0</ele><time>2026-04-25T08:29:52.006Z</time></trkpt><trkpt lat="42.55558575618843" lon="11.88866745230563"><ele>307.0</ele><time>2026-04-25T08:29:54.006Z</time></trkpt><trkpt lat="42.55562024823299" lon="11.888574255308765"><ele>307.0</ele><time>2026-04-25T08:29:56.006Z</time></trkpt><trkpt lat="42.5556524409467" lon="11.888472657554983"><ele>307.0</ele><time>2026-04-25T08:29:58.006Z</time></trkpt><trkpt lat="42.55569710335076" lon="11.888373924047297"><ele>307.0</ele><time>2026-04-25T08:30:00.006Z</time></trkpt><trkpt lat="42.555740753811286" lon="11.888272626037102"><ele>307.0</ele><time>2026-04-25T08:30:02.006Z</time></trkpt><trkpt lat="42.55579111348503" lon="11.888168886927009"><ele>307.0</ele><time>2026-04-25T08:30:04.006Z</time></trkpt><trkpt lat="42.5558525979851" lon="11.888057087937097"><ele>307.4</ele><time>2026-04-25T08:30:06.006Z</time></trkpt><trkpt lat="42.55590885452111" lon="11.887949594841256"><ele>307.79999999999995</ele><time>2026-04-25T08:30:08.006Z</time></trkpt><trkpt lat="42.555944623095215" lon="11.887851393407205"><ele>308.2</ele><time>2026-04-25T08:30:10.006Z</time></trkpt><trkpt lat="42.55600265347694" lon="11.887743490921153"><ele>308.59999999999997</ele><time>2026-04-25T08:30:12.006Z</time></trkpt><trkpt lat="42.556065518983885" lon="11.887651812159861"><ele>309.0</ele><time>2026-04-25T08:30:14.006Z</time></trkpt><trkpt lat="42.55611918210584" lon="11.887540429447888"><ele>309.5</ele><time>2026-04-25T08:30:16.006Z</time></trkpt><trkpt lat="42.556178797160335" lon="11.887431813288533"><ele>310.0</ele><time>2026-04-25T08:30:18.006Z</time></trkpt><trkpt lat="42.556245863337146" lon="11.887353987495507"><ele>310.5</ele><time>2026-04-25T08:30:20.006Z</time></trkpt><trkpt lat="42.55631153212654" lon="11.887269887312293"><ele>311.0</ele><time>2026-04-25T08:30:22.006Z</time></trkpt><trkpt lat="42.556369029370686" lon="11.887187276488577"><ele>311.5</ele><time>2026-04-25T08:30:24.006Z</time></trkpt><trkpt lat="42.55641119793971" lon="11.887111905591045"><ele>312.0</ele><time>2026-04-25T08:30:26.005Z</time></trkpt><trkpt lat="42.55644315260936" lon="11.887025988042025"><ele>312.0</ele><time>2026-04-25T08:30:28.005Z</time></trkpt><trkpt lat="42.55648538044537" lon="11.886929345300587"><ele>312.0</ele><time>2026-04-25T08:30:30.005Z</time></trkpt><trkpt lat="42.55651786763363" lon="11.886827571236063"><ele>312.0</ele><time>2026-04-25T08:30:32.005Z</time></trkpt><trkpt lat="42.55656560622779" lon="11.886733326208711"><ele>312.0</ele><time>2026-04-25T08:30:34.005Z</time></trkpt><trkpt lat="42.556619188956624" lon="11.88665253399118"><ele>312.0</ele><time>2026-04-25T08:30:36.005Z</time></trkpt><trkpt lat="42.55666734797775" lon="11.886561210047066"><ele>312.0</ele><time>2026-04-25T08:30:38.005Z</time></trkpt><trkpt lat="42.55671861985304" lon="11.886469674855961"><ele>312.0</ele><time>2026-04-25T08:30:40.005Z</time></trkpt><trkpt lat="42.55676027336555" lon="11.886381968794709"><ele>312.0</ele><time>2026-04-25T08:30:42.005Z</time></trkpt><trkpt lat="42.55680780837397" lon="11.886276838444818"><ele>312.0</ele><time>2026-04-25T08:30:44.005Z</time></trkpt><trkpt lat="42.556856835496816" lon="11.886179502611041"><ele>312.0</ele><time>2026-04-25T08:30:46.005Z</time></trkpt><trkpt lat="42.55691013568662" lon="11.886076099701404"><ele>312.0</ele><time>2026-04-25T08:30:48.005Z</time></trkpt><trkpt lat="42.55696093458313" lon="11.885974236650366"><ele>312.0</ele><time>2026-04-25T08:30:50.005Z</time></trkpt><trkpt lat="42.55701050315117" lon="11.885873168820906"><ele>311.2</ele><time>2026-04-25T08:30:52.005Z</time></trkpt><trkpt lat="42.55705923205803" lon="11.885769815889452"><ele>310.4</ele><time>2026-04-25T08:30:54.005Z</time></trkpt><trkpt lat="42.557110397802354" lon="11.885661323140905"><ele>309.6</ele><time>2026-04-25T08:30:56.005Z</time></trkpt><trkpt lat="42.55716217503348" lon="11.885553550774677"><ele>308.8</ele><time>2026-04-25T08:30:58.007Z</time></trkpt><trkpt lat="42.55721639735242" lon="11.885449178867512"><ele>308.0</ele><time>2026-04-25T08:31:00.007Z</time></trkpt><trkpt lat="42.55728021643845" lon="11.88535214976383"><ele>308.0</ele><time>2026-04-25T08:31:02.008Z</time></trkpt><trkpt lat="42.55734637672478" lon="11.885264754565819"><ele>308.0</ele><time>2026-04-25T08:31:04.007Z</time></trkpt><trkpt lat="42.557407071824294" lon="11.88516189703285"><ele>308.0</ele><time>2026-04-25T08:31:06.007Z</time></trkpt><trkpt lat="42.55747483451793" lon="11.885073201227389"><ele>308.0</ele><time>2026-04-25T08:31:08.008Z</time></trkpt><trkpt lat="42.55754379677307" lon="11.88498927434969"><ele>308.0</ele><time>2026-04-25T08:31:10.007Z</time></trkpt><trkpt lat="42.55761891845357" lon="11.884895166798662"><ele>308.0</ele><time>2026-04-25T08:31:12.008Z</time></trkpt><trkpt lat="42.55769661643165" lon="11.88480806571342"><ele>308.0</ele><time>2026-04-25T08:31:14.008Z</time></trkpt><trkpt lat="42.557771601378434" lon="11.884727556235157"><ele>308.0</ele><time>2026-04-25T08:31:16.008Z</time></trkpt><trkpt lat="42.557846970321144" lon="11.88464199908673"><ele>308.0</ele><time>2026-04-25T08:31:18.008Z</time></trkpt><trkpt lat="42.55792605006187" lon="11.884557708295501"><ele>308.0</ele><time>2026-04-25T08:31:20.008Z</time></trkpt><trkpt lat="42.55800943909913" lon="11.884481281535264"><ele>308.0</ele><time>2026-04-25T08:31:22.008Z</time></trkpt><trkpt lat="42.55808766278601" lon="11.884393766623266"><ele>308.0</ele><time>2026-04-25T08:31:24.008Z</time></trkpt><trkpt lat="42.55816682522892" lon="11.884314183573666"><ele>308.0</ele><time>2026-04-25T08:31:26.008Z</time></trkpt><trkpt lat="42.558251856576334" lon="11.884230442089542"><ele>308.0</ele><time>2026-04-25T08:31:28.007Z</time></trkpt><trkpt lat="42.5583349894406" lon="11.884158021448943"><ele>308.0</ele><time>2026-04-25T08:31:30.007Z</time></trkpt><trkpt lat="42.558414722306146" lon="11.88408134593388"><ele>308.0</ele><time>2026-04-25T08:31:32.007Z</time></trkpt><trkpt lat="42.55850654767503" lon="11.883995749722754"><ele>308.0</ele><time>2026-04-25T08:31:34.007Z</time></trkpt><trkpt lat="42.558585501797374" lon="11.883909784284976"><ele>308.0</ele><time>2026-04-25T08:31:36.007Z</time></trkpt><trkpt lat="42.55866588087384" lon="11.883823098947687"><ele>308.0</ele><time>2026-04-25T08:31:38.007Z</time></trkpt><trkpt lat="42.55875034437258" lon="11.883747265371989"><ele>308.0</ele><time>2026-04-25T08:31:40.007Z</time></trkpt><trkpt lat="42.55883002175829" lon="11.883668337218655"><ele>308.0</ele><time>2026-04-25T08:31:42.007Z</time></trkpt><trkpt lat="42.55890749981387" lon="11.8836013910769"><ele>308.0</ele><time>2026-04-25T08:31:44.007Z</time></trkpt><trkpt lat="42.55898514701232" lon="11.883513454471318"><ele>308.0</ele><time>2026-04-25T08:31:46.007Z</time></trkpt><trkpt lat="42.559066946509255" lon="11.883430988456054"><ele>308.0</ele><time>2026-04-25T08:31:48.007Z</time></trkpt><trkpt lat="42.559149456545676" lon="11.88335569121204"><ele>308.0</ele><time>2026-04-25T08:31:50.007Z</time></trkpt><trkpt lat="42.559232242037986" lon="11.883283325263047"><ele>308.4</ele><time>2026-04-25T08:31:52.007Z</time></trkpt><trkpt lat="42.55930719205449" lon="11.883206175900723"><ele>308.8</ele><time>2026-04-25T08:31:54.007Z</time></trkpt><trkpt lat="42.559384669542496" lon="11.88313239238987"><ele>309.2</ele><time>2026-04-25T08:31:56.007Z</time></trkpt><trkpt lat="42.55945863333997" lon="11.883064640408824"><ele>309.6</ele><time>2026-04-25T08:31:58.007Z</time></trkpt><trkpt lat="42.559536704993874" lon="11.882998995991123"><ele>310.0</ele><time>2026-04-25T08:32:00.007Z</time></trkpt><trkpt lat="42.559607317429496" lon="11.882928406528965"><ele>310.0</ele><time>2026-04-25T08:32:02.007Z</time></trkpt><trkpt lat="42.559675219268414" lon="11.882865575087948"><ele>310.0</ele><time>2026-04-25T08:32:04.007Z</time></trkpt><trkpt lat="42.55973944697426" lon="11.882796920980796"><ele>310.0</ele><time>2026-04-25T08:32:06.007Z</time></trkpt><trkpt lat="42.55979644983004" lon="11.882752084337719"><ele>310.0</ele><time>2026-04-25T08:32:08.007Z</time></trkpt><trkpt lat="42.55984570240433" lon="11.882826347540746"><ele>310.0</ele><time>2026-04-25T08:32:12.007Z</time></trkpt><trkpt lat="42.55986976054218" lon="11.882949022055257"><ele>310.0</ele><time>2026-04-25T08:32:15.007Z</time></trkpt><trkpt lat="42.55990683867581" lon="11.883051915272429"><ele>310.0</ele><time>2026-04-25T08:32:17.007Z</time></trkpt><trkpt lat="42.559938389477466" lon="11.883156911387696"><ele>310.0</ele><time>2026-04-25T08:32:19.006Z</time></trkpt><trkpt lat="42.55997288302467" lon="11.88326630920419"><ele>310.0</ele><time>2026-04-25T08:32:21.006Z</time></trkpt><trkpt lat="42.560011400945456" lon="11.883362067686363"><ele>310.0</ele><time>2026-04-25T08:32:23.006Z</time></trkpt><trkpt lat="42.560045038762055" lon="11.88347032145187"><ele>310.0</ele><time>2026-04-25T08:32:25.006Z</time></trkpt><trkpt lat="42.560078183912985" lon="11.883589961359474"><ele>310.0</ele><time>2026-04-25T08:32:27.006Z</time></trkpt><trkpt lat="42.560112319092475" lon="11.88369963984061"><ele>309.8333333333333</ele><time>2026-04-25T08:32:29.006Z</time></trkpt><trkpt lat="42.560137087783474" lon="11.883798759033494"><ele>309.66666666666663</ele><time>2026-04-25T08:32:31.006Z</time></trkpt><trkpt lat="42.56017343816535" lon="11.883915188229635"><ele>309.5</ele><time>2026-04-25T08:32:33.006Z</time></trkpt><trkpt lat="42.560207587254084" lon="11.884031197552316"><ele>309.3333333333333</ele><time>2026-04-25T08:32:35.006Z</time></trkpt><trkpt lat="42.56024522297405" lon="11.884128777627852"><ele>309.1666666666667</ele><time>2026-04-25T08:32:37.006Z</time></trkpt><trkpt lat="42.56028225593472" lon="11.88423121301036"><ele>309.0</ele><time>2026-04-25T08:32:39.006Z</time></trkpt><trkpt lat="42.560308530276544" lon="11.884327632488366"><ele>308.6666666666667</ele><time>2026-04-25T08:32:41.006Z</time></trkpt><trkpt lat="42.56032757362042" lon="11.884423913059651"><ele>308.3333333333333</ele><time>2026-04-25T08:32:43.006Z</time></trkpt><trkpt lat="42.56036048274072" lon="11.884517595470612"><ele>308.0</ele><time>2026-04-25T08:32:45.006Z</time></trkpt><trkpt lat="42.56038475251654" lon="11.884600943892236"><ele>307.66666666666663</ele><time>2026-04-25T08:32:47.006Z</time></trkpt><trkpt lat="42.560419909848726" lon="11.884705521308645"><ele>307.3333333333333</ele><time>2026-04-25T08:32:49.006Z</time></trkpt><trkpt lat="42.560445840423604" lon="11.884803439216475"><ele>307.0</ele><time>2026-04-25T08:32:51.006Z</time></trkpt><trkpt lat="42.56048500298064" lon="11.884890263751073"><ele>307.0</ele><time>2026-04-25T08:32:53.006Z</time></trkpt><trkpt lat="42.56051883099198" lon="11.884982171333544"><ele>307.0</ele><time>2026-04-25T08:32:55.006Z</time></trkpt><trkpt lat="42.560544591140406" lon="11.885075067979052"><ele>307.0</ele><time>2026-04-25T08:32:57.006Z</time></trkpt><trkpt lat="42.56057898372351" lon="11.885169925923524"><ele>307.0</ele><time>2026-04-25T08:32:59.006Z</time></trkpt><trkpt lat="42.56059675612128" lon="11.885271678144699"><ele>307.0</ele><time>2026-04-25T08:33:01.006Z</time></trkpt><trkpt lat="42.56062351422935" lon="11.885384801889408"><ele>307.0</ele><time>2026-04-25T08:33:03.006Z</time></trkpt><trkpt lat="42.560663914946865" lon="11.88549451472804"><ele>307.0</ele><time>2026-04-25T08:33:05.007Z</time></trkpt><trkpt lat="42.560702200248095" lon="11.885607097371858"><ele>307.0</ele><time>2026-04-25T08:33:07.007Z</time></trkpt><trkpt lat="42.56073456287838" lon="11.885716336526825"><ele>307.0</ele><time>2026-04-25T08:33:09.008Z</time></trkpt><trkpt lat="42.56077388403016" lon="11.885835112973954"><ele>307.0</ele><time>2026-04-25T08:33:11.007Z</time></trkpt><trkpt lat="42.560812844596626" lon="11.885939806029855"><ele>307.0</ele><time>2026-04-25T08:33:13.008Z</time></trkpt><trkpt lat="42.56085903105134" lon="11.886062248456279"><ele>306.8333333333333</ele><time>2026-04-25T08:33:15.007Z</time></trkpt><trkpt lat="42.56089508878042" lon="11.886178316484338"><ele>306.66666666666663</ele><time>2026-04-25T08:33:17.008Z</time></trkpt><trkpt lat="42.56093129515133" lon="11.88628391060858"><ele>306.5</ele><time>2026-04-25T08:33:19.008Z</time></trkpt><trkpt lat="42.560975226490875" lon="11.886396924755617"><ele>306.3333333333333</ele><time>2026-04-25T08:33:21.008Z</time></trkpt><trkpt lat="42.56101311163985" lon="11.886502203436438"><ele>306.1666666666667</ele><time>2026-04-25T08:33:23.008Z</time></trkpt><trkpt lat="42.56105257115647" lon="11.886605290306605"><ele>306.0</ele><time>2026-04-25T08:33:25.008Z</time></trkpt><trkpt lat="42.561085642309536" lon="11.886717947819673"><ele>306.0</ele><time>2026-04-25T08:33:27.008Z</time></trkpt><trkpt lat="42.561129752797925" lon="11.88681095417165"><ele>306.0</ele><time>2026-04-25T08:33:29.008Z</time></trkpt><trkpt lat="42.56115868672232" lon="11.886933364901276"><ele>306.0</ele><time>2026-04-25T08:33:31.008Z</time></trkpt><trkpt lat="42.5611939236784" lon="11.887049388255443"><ele>306.0</ele><time>2026-04-25T08:33:33.008Z</time></trkpt><trkpt lat="42.56122350528999" lon="11.887166680054767"><ele>306.0</ele><time>2026-04-25T08:33:35.008Z</time></trkpt><trkpt lat="42.56122888236932" lon="11.887267058033574"><ele>306.0</ele><time>2026-04-25T08:33:37.007Z</time></trkpt><trkpt lat="42.561194257228" lon="11.887352255309043"><ele>306.1666666666667</ele><time>2026-04-25T08:33:40.007Z</time></trkpt><trkpt lat="42.56112684134716" lon="11.887395436941935"><ele>306.3333333333333</ele><time>2026-04-25T08:33:43.007Z</time></trkpt><trkpt lat="42.56103284763045" lon="11.887439302623077"><ele>306.5</ele><time>2026-04-25T08:33:46.007Z</time></trkpt><trkpt lat="42.56096133395919" lon="11.887447417846543"><ele>306.66666666666663</ele><time>2026-04-25T08:33:48.006Z</time></trkpt><trkpt lat="42.56087167198777" lon="11.88742871546583"><ele>306.8333333333333</ele><time>2026-04-25T08:33:51.002Z</time></trkpt><trkpt lat="42.56078409448376" lon="11.887417942437061"><ele>307.0</ele><time>2026-04-25T08:33:53Z</time></trkpt><trkpt lat="42.56069184668513" lon="11.88738720540959"><ele>307.0</ele><time>2026-04-25T08:33:54.999Z</time></trkpt><trkpt lat="42.56060593113454" lon="11.88734619384562"><ele>307.0</ele><time>2026-04-25T08:33:56.997Z</time></trkpt><trkpt lat="42.56052773517679" lon="11.887294063465799"><ele>307.0</ele><time>2026-04-25T08:33:58.996Z</time></trkpt><trkpt lat="42.56045364306094" lon="11.887269236254689"><ele>307.0</ele><time>2026-04-25T08:34:00.995Z</time></trkpt><trkpt lat="42.56035060060713" lon="11.887232024962367"><ele>307.0</ele><time>2026-04-25T08:34:02.994Z</time></trkpt><trkpt lat="42.56024881564589" lon="11.887186001570454"><ele>307.0</ele><time>2026-04-25T08:34:04.993Z</time></trkpt><trkpt lat="42.5601434620239" lon="11.887149765779148"><ele>307.0</ele><time>2026-04-25T08:34:06.992Z</time></trkpt><trkpt lat="42.56004719277388" lon="11.887115425887627"><ele>307.0</ele><time>2026-04-25T08:34:08.991Z</time></trkpt><trkpt lat="42.559951137361324" lon="11.887079355459537"><ele>307.0</ele><time>2026-04-25T08:34:10.99Z</time></trkpt><trkpt lat="42.55985255713815" lon="11.887031726004167"><ele>307.0</ele><time>2026-04-25T08:34:12.99Z</time></trkpt><trkpt lat="42.559760150008664" lon="11.88700062331013"><ele>307.0</ele><time>2026-04-25T08:34:14.989Z</time></trkpt><trkpt lat="42.55966597015475" lon="11.886968672069651"><ele>307.0</ele><time>2026-04-25T08:34:16.989Z</time></trkpt><trkpt lat="42.559563064267664" lon="11.886928136630234"><ele>307.0</ele><time>2026-04-25T08:34:18.989Z</time></trkpt><trkpt lat="42.55946741843727" lon="11.8868940755272"><ele>307.0</ele><time>2026-04-25T08:34:20.988Z</time></trkpt><trkpt lat="42.559368395926725" lon="11.88685321689338"><ele>307.0</ele><time>2026-04-25T08:34:22.988Z</time></trkpt><trkpt lat="42.55927571321028" lon="11.88681523686381"><ele>307.0</ele><time>2026-04-25T08:34:24.988Z</time></trkpt><trkpt lat="42.559182267713226" lon="11.886779425087312"><ele>307.0</ele><time>2026-04-25T08:34:26.987Z</time></trkpt><trkpt lat="42.55908857958281" lon="11.886744325837302"><ele>307.0</ele><time>2026-04-25T08:34:28.987Z</time></trkpt><trkpt lat="42.55899616744533" lon="11.8867019664649"><ele>307.0</ele><time>2026-04-25T08:34:30.987Z</time></trkpt><trkpt lat="42.5589087277952" lon="11.886677948828751"><ele>307.0</ele><time>2026-04-25T08:34:32.987Z</time></trkpt><trkpt lat="42.55881707394752" lon="11.886663120120154"><ele>307.0</ele><time>2026-04-25T08:34:34.986Z</time></trkpt><trkpt lat="42.55871567630465" lon="11.886648025331635"><ele>307.0</ele><time>2026-04-25T08:34:36.986Z</time></trkpt><trkpt lat="42.5586181486709" lon="11.88663934750016"><ele>307.0</ele><time>2026-04-25T08:34:38.986Z</time></trkpt><trkpt lat="42.55851398339052" lon="11.886637232954966"><ele>307.0</ele><time>2026-04-25T08:34:40.986Z</time></trkpt><trkpt lat="42.55840951692845" lon="11.886636631545885"><ele>307.0</ele><time>2026-04-25T08:34:42.986Z</time></trkpt><trkpt lat="42.55829829535763" lon="11.886619210251508"><ele>307.0</ele><time>2026-04-25T08:34:44.986Z</time></trkpt><trkpt lat="42.55819194642068" lon="11.886637639245624"><ele>307.0</ele><time>2026-04-25T08:34:46.986Z</time></trkpt><trkpt lat="42.55808752680097" lon="11.886657493417921"><ele>307.0</ele><time>2026-04-25T08:34:48.985Z</time></trkpt><trkpt lat="42.55799865216718" lon="11.886655151299943"><ele>307.0</ele><time>2026-04-25T08:34:50.985Z</time></trkpt><trkpt lat="42.557928276239664" lon="11.88663727325818"><ele>307.0</ele><time>2026-04-25T08:34:52.985Z</time></trkpt><trkpt lat="42.55783295230761" lon="11.886676673219137"><ele>307.2</ele><time>2026-04-25T08:34:54.985Z</time></trkpt><trkpt lat="42.55772972604422" lon="11.886728552166856"><ele>307.4</ele><time>2026-04-25T08:34:56.985Z</time></trkpt><trkpt lat="42.55762280365526" lon="11.886747628449795"><ele>307.6</ele><time>2026-04-25T08:34:58.985Z</time></trkpt><trkpt lat="42.55753283604019" lon="11.886804645353994"><ele>307.8</ele><time>2026-04-25T08:35:00.985Z</time></trkpt><trkpt lat="42.55743655268306" lon="11.886849686980245"><ele>308.0</ele><time>2026-04-25T08:35:02.985Z</time></trkpt><trkpt lat="42.557324091034175" lon="11.886890754589771"><ele>308.2</ele><time>2026-04-25T08:35:04.985Z</time></trkpt><trkpt lat="42.55723453677773" lon="11.886928895691508"><ele>308.4</ele><time>2026-04-25T08:35:06.985Z</time></trkpt><trkpt lat="42.55714196024428" lon="11.88698078749459"><ele>308.59999999999997</ele><time>2026-04-25T08:35:08.985Z</time></trkpt><trkpt lat="42.55703384388831" lon="11.88699925700131"><ele>308.8</ele><time>2026-04-25T08:35:10.987Z</time></trkpt><trkpt lat="42.55693599347837" lon="11.886928250703368"><ele>309.0</ele><time>2026-04-25T08:35:12.987Z</time></trkpt><trkpt lat="42.55687653246157" lon="11.886808939721462"><ele>309.5</ele><time>2026-04-25T08:35:14.987Z</time></trkpt><trkpt lat="42.55682406111622" lon="11.886703493995524"><ele>310.0</ele><time>2026-04-25T08:35:16.987Z</time></trkpt><trkpt lat="42.55677958312992" lon="11.886618898997217"><ele>310.5</ele><time>2026-04-25T08:35:18.987Z</time></trkpt><trkpt lat="42.556720167888216" lon="11.886518733595238"><ele>311.0</ele><time>2026-04-25T08:35:21.986Z</time></trkpt><trkpt lat="42.55666898759378" lon="11.886575250344263"><ele>311.5</ele><time>2026-04-25T08:35:25.987Z</time></trkpt><trkpt lat="42.556626174033504" lon="11.88665562433522"><ele>312.0</ele><time>2026-04-25T08:35:27.987Z</time></trkpt><trkpt lat="42.556569957779466" lon="11.886733324543062"><ele>312.1666666666667</ele><time>2026-04-25T08:35:29.987Z</time></trkpt><trkpt lat="42.556526085585105" lon="11.886838845229887"><ele>312.3333333333333</ele><time>2026-04-25T08:35:31.987Z</time></trkpt><trkpt lat="42.55648303863398" lon="11.886930627375573"><ele>312.5</ele><time>2026-04-25T08:35:33.987Z</time></trkpt><trkpt lat="42.556441288337076" lon="11.88702251229096"><ele>312.66666666666663</ele><time>2026-04-25T08:35:35.987Z</time></trkpt><trkpt lat="42.556389069305915" lon="11.887119876962005"><ele>312.8333333333333</ele><time>2026-04-25T08:35:37.987Z</time></trkpt><trkpt lat="42.55634145000027" lon="11.88721201987483"><ele>313.0</ele><time>2026-04-25T08:35:39.987Z</time></trkpt><trkpt lat="42.55629527520875" lon="11.88729161882523"><ele>313.0</ele><time>2026-04-25T08:35:41.987Z</time></trkpt><trkpt lat="42.5562189182332" lon="11.887337315942744"><ele>313.0</ele><time>2026-04-25T08:35:44.986Z</time></trkpt><trkpt lat="42.55614106862047" lon="11.887404347980935"><ele>313.0</ele><time>2026-04-25T08:35:46.986Z</time></trkpt><trkpt lat="42.55609054439728" lon="11.887522690335505"><ele>313.0</ele><time>2026-04-25T08:35:48.986Z</time></trkpt><trkpt lat="42.556022584550476" lon="11.887643230490445"><ele>313.0</ele><time>2026-04-25T08:35:50.986Z</time></trkpt><trkpt lat="42.555958891298076" lon="11.887765137281495"><ele>312.2</ele><time>2026-04-25T08:35:52.986Z</time></trkpt><trkpt lat="42.55589603176657" lon="11.887879849317986"><ele>311.4</ele><time>2026-04-25T08:35:54.986Z</time></trkpt><trkpt lat="42.55582781920083" lon="11.888002037583867"><ele>310.59999999999997</ele><time>2026-04-25T08:35:56.986Z</time></trkpt><trkpt lat="42.55576584261223" lon="11.888120670879534"><ele>309.8</ele><time>2026-04-25T08:35:58.986Z</time></trkpt><trkpt lat="42.55570694850544" lon="11.888236129565087"><ele>309.0</ele><time>2026-04-25T08:36:00.986Z</time></trkpt><trkpt lat="42.555653754411594" lon="11.888349088404098"><ele>308.59999999999997</ele><time>2026-04-25T08:36:02.986Z</time></trkpt><trkpt lat="42.5555945897669" lon="11.88846005086345"><ele>308.2</ele><time>2026-04-25T08:36:04.986Z</time></trkpt><trkpt lat="42.555534817608006" lon="11.888582366148018"><ele>307.79999999999995</ele><time>2026-04-25T08:36:06.986Z</time></trkpt><trkpt lat="42.55547781549793" lon="11.888720340585515"><ele>307.4</ele><time>2026-04-25T08:36:08.986Z</time></trkpt><trkpt lat="42.555423040769014" lon="11.888849924139578"><ele>307.0</ele><time>2026-04-25T08:36:10.986Z</time></trkpt><trkpt lat="42.55537311647058" lon="11.888995302892656"><ele>307.8</ele><time>2026-04-25T08:36:12.986Z</time></trkpt><trkpt lat="42.5553304888104" lon="11.889133464702677"><ele>308.6</ele><time>2026-04-25T08:36:14.986Z</time></trkpt><trkpt lat="42.55527605253592" lon="11.889278462900732"><ele>309.40000000000003</ele><time>2026-04-25T08:36:16.986Z</time></trkpt><trkpt lat="42.55522557135204" lon="11.889415381849913"><ele>310.2</ele><time>2026-04-25T08:36:18.986Z</time></trkpt><trkpt lat="42.55519522332946" lon="11.88949713849335"><ele>311.0</ele><time>2026-04-25T08:36:19.985Z</time></trkpt><trkpt lat="42.55515207769116" lon="11.88963595566481"><ele>311.0</ele><time>2026-04-25T08:36:21.985Z</time></trkpt><trkpt lat="42.55510011185485" lon="11.889771021839922"><ele>311.0</ele><time>2026-04-25T08:36:23.985Z</time></trkpt><trkpt lat="42.55505254094221" lon="11.889916888061194"><ele>311.0</ele><time>2026-04-25T08:36:25.985Z</time></trkpt><trkpt lat="42.555007809431864" lon="11.89006439886471"><ele>311.0</ele><time>2026-04-25T08:36:27.985Z</time></trkpt><trkpt lat="42.554972206558105" lon="11.890223381576742"><ele>310.5</ele><time>2026-04-25T08:36:29.985Z</time></trkpt><trkpt lat="42.55491833506717" lon="11.890371257300561"><ele>310.0</ele><time>2026-04-25T08:36:31.985Z</time></trkpt><trkpt lat="42.554882625424966" lon="11.890452738159675"><ele>309.5</ele><time>2026-04-25T08:36:32.985Z</time></trkpt><trkpt lat="42.554835946948295" lon="11.890542246536933"><ele>309.0</ele><time>2026-04-25T08:36:33.985Z</time></trkpt><trkpt lat="42.5548078903671" lon="11.890629752666204"><ele>308.5</ele><time>2026-04-25T08:36:34.985Z</time></trkpt><trkpt lat="42.554778930657996" lon="11.89071278366427"><ele>308.0</ele><time>2026-04-25T08:36:35.985Z</time></trkpt><trkpt lat="42.55474706372849" lon="11.890795703823553"><ele>308.0</ele><time>2026-04-25T08:36:36.985Z</time></trkpt><trkpt lat="42.554719394571144" lon="11.890880976435772"><ele>308.0</ele><time>2026-04-25T08:36:37.985Z</time></trkpt><trkpt lat="42.554687236437715" lon="11.890971612089496"><ele>308.0</ele><time>2026-04-25T08:36:38.985Z</time></trkpt><trkpt lat="42.55465682428412" lon="11.89105435618996"><ele>308.0</ele><time>2026-04-25T08:36:39.985Z</time></trkpt><trkpt lat="42.55462949663138" lon="11.891139095669411"><ele>308.0</ele><time>2026-04-25T08:36:40.985Z</time></trkpt><trkpt lat="42.5545990433352" lon="11.891226570099109"><ele>308.0</ele><time>2026-04-25T08:36:41.985Z</time></trkpt><trkpt lat="42.55456819690437" lon="11.891309502427411"><ele>308.0</ele><time>2026-04-25T08:36:42.985Z</time></trkpt><trkpt lat="42.554535134468466" lon="11.891390874434522"><ele>308.0</ele><time>2026-04-25T08:36:43.985Z</time></trkpt><trkpt lat="42.55450516215411" lon="11.891474964956865"><ele>308.0</ele><time>2026-04-25T08:36:44.985Z</time></trkpt><trkpt lat="42.55447768739236" lon="11.891557783170557"><ele>308.0</ele><time>2026-04-25T08:36:45.985Z</time></trkpt><trkpt lat="42.55444840863741" lon="11.891646179520274"><ele>308.0</ele><time>2026-04-25T08:36:46.985Z</time></trkpt><trkpt lat="42.5544237982535" lon="11.891725556196121"><ele>308.0</ele><time>2026-04-25T08:36:47.985Z</time></trkpt><trkpt lat="42.554393117905185" lon="11.891807245678368"><ele>308.0</ele><time>2026-04-25T08:36:48.985Z</time></trkpt><trkpt lat="42.554362535146176" lon="11.891889353012052"><ele>308.0</ele><time>2026-04-25T08:36:49.985Z</time></trkpt><trkpt lat="42.554335804029364" lon="11.891970464685818"><ele>308.0</ele><time>2026-04-25T08:36:50.985Z</time></trkpt><trkpt lat="42.55431162081973" lon="11.892050750929052"><ele>308.0</ele><time>2026-04-25T08:36:51.985Z</time></trkpt><trkpt lat="42.554260506635735" lon="11.892194199866227"><ele>308.0</ele><time>2026-04-25T08:36:53.985Z</time></trkpt><trkpt lat="42.55423413721805" lon="11.892276575549715"><ele>308.0</ele><time>2026-04-25T08:36:54.985Z</time></trkpt><trkpt lat="42.55419129583259" lon="11.892412681739744"><ele>308.0</ele><time>2026-04-25T08:36:56.984Z</time></trkpt><trkpt lat="42.55422368578375" lon="11.892490259713933"><ele>308.0</ele><time>2026-04-25T08:36:58.984Z</time></trkpt><trkpt lat="42.55428350794998" lon="11.892543560808983"><ele>307.6666666666667</ele><time>2026-04-25T08:37:00.984Z</time></trkpt><trkpt lat="42.55426218826194" lon="11.892659438116876"><ele>307.33333333333337</ele><time>2026-04-25T08:37:02.984Z</time></trkpt><trkpt lat="42.55421996507095" lon="11.892759451692378"><ele>307.0</ele><time>2026-04-25T08:37:04.984Z</time></trkpt><trkpt lat="42.55417583852613" lon="11.892870357152638"><ele>306.6666666666667</ele><time>2026-04-25T08:37:06.984Z</time></trkpt><trkpt lat="42.55415864085628" lon="11.892987688974317"><ele>306.3333333333333</ele><time>2026-04-25T08:37:08.984Z</time></trkpt><trkpt lat="42.55415489384876" lon="11.893100932369528"><ele>306.0</ele><time>2026-04-25T08:37:10.984Z</time></trkpt><trkpt lat="42.554122586157995" lon="11.893210380801131"><ele>306.0</ele><time>2026-04-25T08:37:12.984Z</time></trkpt><trkpt lat="42.554059780147355" lon="11.89330040381801"><ele>306.0</ele><time>2026-04-25T08:37:14.984Z</time></trkpt><trkpt lat="42.55402262959757" lon="11.893403491448309"><ele>306.0</ele><time>2026-04-25T08:37:16.986Z</time></trkpt><trkpt lat="42.55400521173968" lon="11.893511982576511"><ele>306.0</ele><time>2026-04-25T08:37:18.986Z</time></trkpt><trkpt lat="42.553938532343885" lon="11.893624949415507"><ele>306.0</ele><time>2026-04-25T08:37:20.985Z</time></trkpt><trkpt lat="42.55387711346337" lon="11.89372070827649"><ele>305.8333333333333</ele><time>2026-04-25T08:37:22.986Z</time></trkpt><trkpt lat="42.553826341376755" lon="11.893820206164223"><ele>305.6666666666667</ele><time>2026-04-25T08:37:24.985Z</time></trkpt><trkpt lat="42.55378272798955" lon="11.893916301724692"><ele>305.5</ele><time>2026-04-25T08:37:26.986Z</time></trkpt><trkpt lat="42.553747471694244" lon="11.894022534156646"><ele>305.33333333333337</ele><time>2026-04-25T08:37:28.985Z</time></trkpt><trkpt lat="42.5537168909478" lon="11.894114691324287"><ele>305.1666666666667</ele><time>2026-04-25T08:37:30.985Z</time></trkpt><trkpt lat="42.553711846082685" lon="11.894218657158039"><ele>305.0</ele><time>2026-04-25T08:37:32.985Z</time></trkpt><trkpt lat="42.553675254864906" lon="11.894318117230013"><ele>305.6666666666667</ele><time>2026-04-25T08:37:34.985Z</time></trkpt><trkpt lat="42.55364228910987" lon="11.894399740269604"><ele>306.33333333333337</ele><time>2026-04-25T08:37:36.985Z</time></trkpt><trkpt lat="42.55359706326266" lon="11.89448233026195"><ele>307.0</ele><time>2026-04-25T08:37:38.985Z</time></trkpt><trkpt lat="42.55356973956924" lon="11.894618686732585"><ele>307.6666666666667</ele><time>2026-04-25T08:37:40.985Z</time></trkpt><trkpt lat="42.553526441293656" lon="11.894724257576863"><ele>308.3333333333333</ele><time>2026-04-25T08:37:42.985Z</time></trkpt><trkpt lat="42.55351346713587" lon="11.894869368063592"><ele>309.0</ele><time>2026-04-25T08:37:44.985Z</time></trkpt><trkpt lat="42.55348453321387" lon="11.894995957543193"><ele>308.3333333333333</ele><time>2026-04-25T08:37:46.985Z</time></trkpt><trkpt lat="42.55345550077371" lon="11.895110566378495"><ele>307.6666666666667</ele><time>2026-04-25T08:37:48.985Z</time></trkpt><trkpt lat="42.553437550541226" lon="11.895219688328192"><ele>307.0</ele><time>2026-04-25T08:37:50.985Z</time></trkpt><trkpt lat="42.55338207149682" lon="11.895307586058546"><ele>306.33333333333337</ele><time>2026-04-25T08:37:52.985Z</time></trkpt><trkpt lat="42.55334818271423" lon="11.895407989742257"><ele>305.6666666666667</ele><time>2026-04-25T08:37:54.985Z</time></trkpt><trkpt lat="42.55331914491928" lon="11.895526178511675"><ele>305.0</ele><time>2026-04-25T08:37:56.985Z</time></trkpt><trkpt lat="42.55325526625568" lon="11.895629121363946"><ele>305.0</ele><time>2026-04-25T08:37:58.985Z</time></trkpt><trkpt lat="42.55321702981557" lon="11.895745506057366"><ele>305.0</ele><time>2026-04-25T08:38:00.985Z</time></trkpt><trkpt lat="42.55318966786374" lon="11.895852836937838"><ele>305.0</ele><time>2026-04-25T08:38:02.985Z</time></trkpt><trkpt lat="42.55314875210827" lon="11.89595061437936"><ele>305.0</ele><time>2026-04-25T08:38:04.984Z</time></trkpt><trkpt lat="42.55310361788561" lon="11.896068424925392"><ele>305.0</ele><time>2026-04-25T08:38:06.984Z</time></trkpt><trkpt lat="42.5530556959072" lon="11.896189802480714"><ele>304.8</ele><time>2026-04-25T08:38:08.984Z</time></trkpt><trkpt lat="42.553004718998736" lon="11.89632119474548"><ele>304.6</ele><time>2026-04-25T08:38:10.984Z</time></trkpt><trkpt lat="42.55293946355259" lon="11.896415805940126"><ele>304.4</ele><time>2026-04-25T08:38:12.984Z</time></trkpt><trkpt lat="42.552876683185396" lon="11.896526088004503"><ele>304.2</ele><time>2026-04-25T08:38:14.984Z</time></trkpt><trkpt lat="42.55284073513118" lon="11.89664934662744"><ele>304.0</ele><time>2026-04-25T08:38:16.984Z</time></trkpt><trkpt lat="42.55282523930798" lon="11.896783859360172"><ele>304.59999999999997</ele><time>2026-04-25T08:38:18.984Z</time></trkpt><trkpt lat="42.55279814528017" lon="11.896914585409945"><ele>305.2</ele><time>2026-04-25T08:38:20.984Z</time></trkpt><trkpt lat="42.55275519261222" lon="11.897039866386047"><ele>305.79999999999995</ele><time>2026-04-25T08:38:22.984Z</time></trkpt><trkpt lat="42.55273952291399" lon="11.897173276709504"><ele>306.4</ele><time>2026-04-25T08:38:24.984Z</time></trkpt><trkpt lat="42.552691374862185" lon="11.89730564627484"><ele>307.0</ele><time>2026-04-25T08:38:26.984Z</time></trkpt><trkpt lat="42.552624552744135" lon="11.897413567121115"><ele>307.0</ele><time>2026-04-25T08:38:28.984Z</time></trkpt><trkpt lat="42.552572985817804" lon="11.897534587445406"><ele>307.0</ele><time>2026-04-25T08:38:30.984Z</time></trkpt><trkpt lat="42.552518048894875" lon="11.89765782940208"><ele>307.0</ele><time>2026-04-25T08:38:32.984Z</time></trkpt><trkpt lat="42.55247939450185" lon="11.89777691176785"><ele>307.0</ele><time>2026-04-25T08:38:34.984Z</time></trkpt><trkpt lat="42.55241087010204" lon="11.897881203462868"><ele>307.0</ele><time>2026-04-25T08:38:36.984Z</time></trkpt><trkpt lat="42.55236269270797" lon="11.898002496744521"><ele>307.0</ele><time>2026-04-25T08:38:38.984Z</time></trkpt><trkpt lat="42.552329697619996" lon="11.898129273176075"><ele>307.0</ele><time>2026-04-25T08:38:40.983Z</time></trkpt><trkpt lat="42.55230850019767" lon="11.89826786395191"><ele>307.0</ele><time>2026-04-25T08:38:42.983Z</time></trkpt><trkpt lat="42.55228275731413" lon="11.898400077573175"><ele>307.0</ele><time>2026-04-25T08:38:44.983Z</time></trkpt><trkpt lat="42.55226117506792" lon="11.898541690989006"><ele>307.0</ele><time>2026-04-25T08:38:46.983Z</time></trkpt><trkpt lat="42.552254160449706" lon="11.898646027142485"><ele>306.6</ele><time>2026-04-25T08:38:48.983Z</time></trkpt><trkpt lat="42.55219556965391" lon="11.89876985661449"><ele>306.2</ele><time>2026-04-25T08:38:50.983Z</time></trkpt><trkpt lat="42.55213416117657" lon="11.898867593234833"><ele>305.8</ele><time>2026-04-25T08:38:52.983Z</time></trkpt><trkpt lat="42.55210304328516" lon="11.898990599794384"><ele>305.4</ele><time>2026-04-25T08:38:54.983Z</time></trkpt><trkpt lat="42.55203823982833" lon="11.899056701220447"><ele>305.0</ele><time>2026-04-25T08:38:56.983Z</time></trkpt><trkpt lat="42.551982181163034" lon="11.899144051154359"><ele>305.4</ele><time>2026-04-25T08:38:58.983Z</time></trkpt><trkpt lat="42.551935902541636" lon="11.899227943611375"><ele>305.8</ele><time>2026-04-25T08:39:00.983Z</time></trkpt><trkpt lat="42.55188794376619" lon="11.89932602269191"><ele>306.2</ele><time>2026-04-25T08:39:02.983Z</time></trkpt><trkpt lat="42.55186041099805" lon="11.899463483556865"><ele>306.6</ele><time>2026-04-25T08:39:04.983Z</time></trkpt><trkpt lat="42.55188838703105" lon="11.899596084294092"><ele>307.0</ele><time>2026-04-25T08:39:06.983Z</time></trkpt><trkpt lat="42.5519086855486" lon="11.899699813142604"><ele>307.0</ele><time>2026-04-25T08:39:08.983Z</time></trkpt><trkpt lat="42.551856386263786" lon="11.89980170560585"><ele>307.0</ele><time>2026-04-25T08:39:11.983Z</time></trkpt><trkpt lat="42.551815181157394" lon="11.899888001404383"><ele>307.0</ele><time>2026-04-25T08:39:13.983Z</time></trkpt><trkpt lat="42.55177741816393" lon="11.899979007654848"><ele>307.0</ele><time>2026-04-25T08:39:15.982Z</time></trkpt><trkpt lat="42.551744723121274" lon="11.900074323524771"><ele>307.0</ele><time>2026-04-25T08:39:17.982Z</time></trkpt><trkpt lat="42.551709171637235" lon="11.900148484601207"><ele>307.0</ele><time>2026-04-25T08:39:19.982Z</time></trkpt><trkpt lat="42.55166669550898" lon="11.90021904843746"><ele>306.8333333333333</ele><time>2026-04-25T08:39:21.985Z</time></trkpt><trkpt lat="42.551635432460486" lon="11.900319514112367"><ele>306.66666666666663</ele><time>2026-04-25T08:39:23.985Z</time></trkpt><trkpt lat="42.55158965484677" lon="11.900418918748692"><ele>306.5</ele><time>2026-04-25T08:39:25.985Z</time></trkpt><trkpt lat="42.55156565893082" lon="11.900524374827373"><ele>306.3333333333333</ele><time>2026-04-25T08:39:27.985Z</time></trkpt><trkpt lat="42.55152887120818" lon="11.900639618567505"><ele>306.1666666666667</ele><time>2026-04-25T08:39:29.985Z</time></trkpt><trkpt lat="42.55147199818285" lon="11.900730754383526"><ele>306.0</ele><time>2026-04-25T08:39:31.985Z</time></trkpt><trkpt lat="42.55144602877715" lon="11.90084337655377"><ele>305.8333333333333</ele><time>2026-04-25T08:39:33.985Z</time></trkpt><trkpt lat="42.55141364919188" lon="11.900940274214966"><ele>305.6666666666667</ele><time>2026-04-25T08:39:35.985Z</time></trkpt><trkpt lat="42.5513765379631" lon="11.901014553714354"><ele>305.5</ele><time>2026-04-25T08:39:37.985Z</time></trkpt><trkpt lat="42.5513255255196" lon="11.90109075594512"><ele>305.33333333333337</ele><time>2026-04-25T08:39:39.985Z</time></trkpt><trkpt lat="42.551279477738554" lon="11.901181637113282"><ele>305.1666666666667</ele><time>2026-04-25T08:39:41.985Z</time></trkpt><trkpt lat="42.55123803846287" lon="11.901281978732097"><ele>305.0</ele><time>2026-04-25T08:39:43.985Z</time></trkpt><trkpt lat="42.55120277649519" lon="11.901383456595525"><ele>305.5</ele><time>2026-04-25T08:39:45.985Z</time></trkpt><trkpt lat="42.55118311239192" lon="11.901502456157742"><ele>306.0</ele><time>2026-04-25T08:39:47.985Z</time></trkpt><trkpt lat="42.55116870306694" lon="11.901612767051994"><ele>306.5</ele><time>2026-04-25T08:39:49.984Z</time></trkpt><trkpt lat="42.551155494017834" lon="11.901727116761059"><ele>307.0</ele><time>2026-04-25T08:39:51.984Z</time></trkpt><trkpt lat="42.55110271993463" lon="11.901836192108982"><ele>307.5</ele><time>2026-04-25T08:39:53.984Z</time></trkpt><trkpt lat="42.55104108798856" lon="11.901925679417486"><ele>308.0</ele><time>2026-04-25T08:39:55.984Z</time></trkpt><trkpt lat="42.55099468191265" lon="11.90202073605019"><ele>308.0</ele><time>2026-04-25T08:39:57.984Z</time></trkpt><trkpt lat="42.55096346919956" lon="11.90212196387594"><ele>308.0</ele><time>2026-04-25T08:39:59.984Z</time></trkpt><trkpt lat="42.55092502655659" lon="11.902223715101636"><ele>308.0</ele><time>2026-04-25T08:40:01.984Z</time></trkpt><trkpt lat="42.5509136821765" lon="11.90236143647625"><ele>308.0</ele><time>2026-04-25T08:40:03.984Z</time></trkpt><trkpt lat="42.55085241442896" lon="11.902446909403666"><ele>308.0</ele><time>2026-04-25T08:40:05.984Z</time></trkpt><trkpt lat="42.55079468349795" lon="11.902547461586309"><ele>308.0</ele><time>2026-04-25T08:40:07.984Z</time></trkpt><trkpt lat="42.55075346076673" lon="11.902652316709718"><ele>307.6666666666667</ele><time>2026-04-25T08:40:09.984Z</time></trkpt><trkpt lat="42.550717865349746" lon="11.902758286154203"><ele>307.33333333333337</ele><time>2026-04-25T08:40:11.984Z</time></trkpt><trkpt lat="42.55069861206334" lon="11.902875373929469"><ele>307.0</ele><time>2026-04-25T08:40:13.984Z</time></trkpt><trkpt lat="42.55070566532346" lon="11.902981271638929"><ele>306.6666666666667</ele><time>2026-04-25T08:40:15.984Z</time></trkpt><trkpt lat="42.55071276838206" lon="11.903113391107635"><ele>306.3333333333333</ele><time>2026-04-25T08:40:18.984Z</time></trkpt><trkpt lat="42.55067170400586" lon="11.903211563708057"><ele>306.0</ele><time>2026-04-25T08:40:20.984Z</time></trkpt><trkpt lat="42.550619254599994" lon="11.903299415055347"><ele>306.0</ele><time>2026-04-25T08:40:22.984Z</time></trkpt><trkpt lat="42.55058298204958" lon="11.903376549240527"><ele>306.0</ele><time>2026-04-25T08:40:24.984Z</time></trkpt><trkpt lat="42.55051934552688" lon="11.90344364345399"><ele>306.0</ele><time>2026-04-25T08:40:26.983Z</time></trkpt><trkpt lat="42.55047678244526" lon="11.903518073989524"><ele>306.0</ele><time>2026-04-25T08:40:28.983Z</time></trkpt><trkpt lat="42.55040241885878" lon="11.903508039710724"><ele>306.0</ele><time>2026-04-25T08:40:31.983Z</time></trkpt><trkpt lat="42.55034160469991" lon="11.903473020586759"><ele>306.0</ele><time>2026-04-25T08:40:36.983Z</time></trkpt><trkpt lat="42.55032544757051" lon="11.903591106032497"><ele>306.0</ele><time>2026-04-25T08:40:40.983Z</time></trkpt><trkpt lat="42.55028006143775" lon="11.903653424760423"><ele>306.5</ele><time>2026-04-25T08:40:44.983Z</time></trkpt><trkpt lat="42.55021937589786" lon="11.903721112879792"><ele>307.0</ele><time>2026-04-25T08:40:47.983Z</time></trkpt><trkpt lat="42.55017347787963" lon="11.903786565958045"><ele>307.5</ele><time>2026-04-25T08:40:49.983Z</time></trkpt><trkpt lat="42.550140723352584" lon="11.903886819988745"><ele>308.0</ele><time>2026-04-25T08:40:51.983Z</time></trkpt><trkpt lat="42.55010477486551" lon="11.903990268883163"><ele>308.5</ele><time>2026-04-25T08:40:53.983Z</time></trkpt><trkpt lat="42.55006688260203" lon="11.904087776300532"><ele>309.0</ele><time>2026-04-25T08:40:55.983Z</time></trkpt><trkpt lat="42.550036414408446" lon="11.90419137855987"><ele>309.1666666666667</ele><time>2026-04-25T08:40:57.983Z</time></trkpt><trkpt lat="42.55000431930163" lon="11.90429221106415"><ele>309.3333333333333</ele><time>2026-04-25T08:40:59.983Z</time></trkpt><trkpt lat="42.549956228324604" lon="11.904405368603495"><ele>309.5</ele><time>2026-04-25T08:41:01.982Z</time></trkpt><trkpt lat="42.54991870404206" lon="11.90450851273979"><ele>309.66666666666663</ele><time>2026-04-25T08:41:03.982Z</time></trkpt><trkpt lat="42.54988353476143" lon="11.904618191940072"><ele>309.8333333333333</ele><time>2026-04-25T08:41:05.982Z</time></trkpt><trkpt lat="42.54984620941943" lon="11.904733044597906"><ele>310.0</ele><time>2026-04-25T08:41:07.982Z</time></trkpt><trkpt lat="42.54980635353602" lon="11.90483541103642"><ele>310.0</ele><time>2026-04-25T08:41:09.982Z</time></trkpt><trkpt lat="42.549768138290126" lon="11.904946826973402"><ele>310.0</ele><time>2026-04-25T08:41:11.982Z</time></trkpt><trkpt lat="42.54972414960186" lon="11.905058154726962"><ele>310.0</ele><time>2026-04-25T08:41:13.982Z</time></trkpt><trkpt lat="42.54968322214207" lon="11.905170543255206"><ele>310.0</ele><time>2026-04-25T08:41:15.982Z</time></trkpt><trkpt lat="42.549645491789946" lon="11.90527830507334"><ele>310.0</ele><time>2026-04-25T08:41:17.982Z</time></trkpt><trkpt lat="42.54960974519472" lon="11.905396913962075"><ele>310.0</ele><time>2026-04-25T08:41:19.982Z</time></trkpt><trkpt lat="42.549574044362565" lon="11.90551337490767"><ele>310.0</ele><time>2026-04-25T08:41:21.982Z</time></trkpt><trkpt lat="42.549542206401156" lon="11.90562564779228"><ele>310.0</ele><time>2026-04-25T08:41:23.982Z</time></trkpt><trkpt lat="42.54950229723539" lon="11.905727647856203"><ele>310.0</ele><time>2026-04-25T08:41:25.982Z</time></trkpt><trkpt lat="42.54945738534548" lon="11.905830227773057"><ele>310.0</ele><time>2026-04-25T08:41:27.984Z</time></trkpt><trkpt lat="42.54942057479433" lon="11.905934502730227"><ele>310.0</ele><time>2026-04-25T08:41:29.986Z</time></trkpt><trkpt lat="42.549384456765026" lon="11.906048089076034"><ele>310.0</ele><time>2026-04-25T08:41:31.988Z</time></trkpt><trkpt lat="42.54934535652817" lon="11.906153799523993"><ele>310.0</ele><time>2026-04-25T08:41:33.989Z</time></trkpt><trkpt lat="42.549316051800716" lon="11.906261400132097"><ele>310.0</ele><time>2026-04-25T08:41:35.991Z</time></trkpt><trkpt lat="42.54928788080633" lon="11.90636712294431"><ele>310.0</ele><time>2026-04-25T08:41:37.992Z</time></trkpt><trkpt lat="42.549258145459234" lon="11.906495857839241"><ele>310.0</ele><time>2026-04-25T08:41:39.993Z</time></trkpt><trkpt lat="42.54923324668129" lon="11.906615541997402"><ele>310.0</ele><time>2026-04-25T08:41:41.994Z</time></trkpt><trkpt lat="42.54922254962572" lon="11.906729118551265"><ele>310.16666666666663</ele><time>2026-04-25T08:41:43.995Z</time></trkpt><trkpt lat="42.54921768388908" lon="11.906838477676207"><ele>310.3333333333333</ele><time>2026-04-25T08:41:45.996Z</time></trkpt><trkpt lat="42.549203526548816" lon="11.906946396219679"><ele>310.5</ele><time>2026-04-25T08:41:47.996Z</time></trkpt><trkpt lat="42.54920002707315" lon="11.907064782767753"><ele>310.6666666666667</ele><time>2026-04-25T08:41:49.997Z</time></trkpt><trkpt lat="42.549218117600006" lon="11.907202432733863"><ele>310.83333333333337</ele><time>2026-04-25T08:41:51.997Z</time></trkpt><trkpt lat="42.54922644392853" lon="11.907325672511309"><ele>311.0</ele><time>2026-04-25T08:41:53.997Z</time></trkpt><trkpt lat="42.549236885696025" lon="11.907451903047928"><ele>311.0</ele><time>2026-04-25T08:41:55.998Z</time></trkpt><trkpt lat="42.549247260873635" lon="11.907582549637514"><ele>311.0</ele><time>2026-04-25T08:41:57.998Z</time></trkpt><trkpt lat="42.54926196094611" lon="11.90771005123815"><ele>311.0</ele><time>2026-04-25T08:41:59.998Z</time></trkpt><trkpt lat="42.549268084425805" lon="11.907847034557957"><ele>311.0</ele><time>2026-04-25T08:42:01.998Z</time></trkpt><trkpt lat="42.54927857893122" lon="11.907979187616862"><ele>311.0</ele><time>2026-04-25T08:42:03.999Z</time></trkpt><trkpt lat="42.54929654283457" lon="11.908110370414482"><ele>311.0</ele><time>2026-04-25T08:42:05.999Z</time></trkpt><trkpt lat="42.54930769464269" lon="11.908246591735546"><ele>311.0</ele><time>2026-04-25T08:42:07.999Z</time></trkpt><trkpt lat="42.549314049818" lon="11.908381731742045"><ele>311.0</ele><time>2026-04-25T08:42:09.999Z</time></trkpt><trkpt lat="42.54932647573952" lon="11.908515622207704"><ele>311.0</ele><time>2026-04-25T08:42:11.999Z</time></trkpt><trkpt lat="42.5493428788755" lon="11.908645253446897"><ele>311.0</ele><time>2026-04-25T08:42:13.999Z</time></trkpt><trkpt lat="42.54934881195902" lon="11.908780043224818"><ele>311.0</ele><time>2026-04-25T08:42:15.999Z</time></trkpt><trkpt lat="42.549351995039274" lon="11.908915372202872"><ele>311.0</ele><time>2026-04-25T08:42:17.999Z</time></trkpt><trkpt lat="42.54936829548076" lon="11.909051494017476"><ele>311.0</ele><time>2026-04-25T08:42:19.999Z</time></trkpt><trkpt lat="42.54938128460151" lon="11.909189030490722"><ele>311.0</ele><time>2026-04-25T08:42:21.999Z</time></trkpt><trkpt lat="42.54939709644058" lon="11.909324559218698"><ele>311.0</ele><time>2026-04-25T08:42:23.999Z</time></trkpt><trkpt lat="42.54940974521959" lon="11.909448617718837"><ele>311.2</ele><time>2026-04-25T08:42:25.999Z</time></trkpt><trkpt lat="42.549425935074865" lon="11.909578654174066"><ele>311.40000000000003</ele><time>2026-04-25T08:42:27.999Z</time></trkpt><trkpt lat="42.54943391623894" lon="11.90971163169212"><ele>311.6</ele><time>2026-04-25T08:42:29.999Z</time></trkpt><trkpt lat="42.54943742585439" lon="11.909855080781831"><ele>311.8</ele><time>2026-04-25T08:42:31.999Z</time></trkpt><trkpt lat="42.549445517554204" lon="11.910001154778513"><ele>312.0</ele><time>2026-04-25T08:42:33.999Z</time></trkpt><trkpt lat="42.54945398694661" lon="11.91008910609425"><ele>312.4</ele><time>2026-04-25T08:42:34.999Z</time></trkpt><trkpt lat="42.54945707785088" lon="11.910234732900497"><ele>312.79999999999995</ele><time>2026-04-25T08:42:36.999Z</time></trkpt><trkpt lat="42.54947566863624" lon="11.910377462462746"><ele>313.2</ele><time>2026-04-25T08:42:38.999Z</time></trkpt><trkpt lat="42.549480738296886" lon="11.910517478038287"><ele>313.59999999999997</ele><time>2026-04-25T08:42:40.999Z</time></trkpt><trkpt lat="42.549504965361166" lon="11.910653356408716"><ele>314.0</ele><time>2026-04-25T08:42:42.999Z</time></trkpt><trkpt lat="42.549519372214846" lon="11.910791849380875"><ele>314.0</ele><time>2026-04-25T08:42:44.999Z</time></trkpt><trkpt lat="42.54952537693155" lon="11.91091885906047"><ele>314.0</ele><time>2026-04-25T08:42:46.999Z</time></trkpt><trkpt lat="42.54954112803995" lon="11.911031142405157"><ele>314.0</ele><time>2026-04-25T08:42:48.999Z</time></trkpt><trkpt lat="42.54954957847842" lon="11.911138513176594"><ele>314.0</ele><time>2026-04-25T08:42:50.999Z</time></trkpt><trkpt lat="42.54955828813816" lon="11.911225148013244"><ele>314.0</ele><time>2026-04-25T08:42:55.999Z</time></trkpt><trkpt lat="42.549571269876225" lon="11.91132073452698"><ele>314.0</ele><time>2026-04-25T08:43:02.999Z</time></trkpt><trkpt lat="42.549578997757735" lon="11.911421114728354"><ele>314.0</ele><time>2026-04-25T08:43:06.999Z</time></trkpt><trkpt lat="42.549581144649764" lon="11.911523050065158"><ele>314.0</ele><time>2026-04-25T08:43:09.999Z</time></trkpt><trkpt lat="42.54958399638125" lon="11.911613212159377"><ele>314.0</ele><time>2026-04-25T08:43:12.999Z</time></trkpt><trkpt lat="42.54959439069444" lon="11.911719299054248"><ele>314.0</ele><time>2026-04-25T08:43:16.999Z</time></trkpt><trkpt lat="42.549597796798544" lon="11.911813230541645"><ele>314.0</ele><time>2026-04-25T08:43:19.999Z</time></trkpt><trkpt lat="42.54959691106231" lon="11.911921121651757"><ele>314.0</ele><time>2026-04-25T08:43:23.998Z</time></trkpt><trkpt lat="42.5495040894418" lon="11.91189864443694"><ele>314.5</ele><time>2026-04-25T08:43:28.998Z</time></trkpt><trkpt lat="42.54944764406896" lon="11.911813546751134"><ele>315.0</ele><time>2026-04-25T08:43:31.998Z</time></trkpt><trkpt lat="42.5493887529308" lon="11.911735179270476"><ele>315.5</ele><time>2026-04-25T08:43:35.001Z</time></trkpt><trkpt lat="42.54933316981223" lon="11.911661735004309"><ele>316.0</ele><time>2026-04-25T08:43:38Z</time></trkpt><trkpt lat="42.54926422569135" lon="11.911582473696944"><ele>316.5</ele><time>2026-04-25T08:43:41Z</time></trkpt><trkpt lat="42.549193960744056" lon="11.91150810061986"><ele>317.0</ele><time>2026-04-25T08:43:44Z</time></trkpt><trkpt lat="42.549123006587195" lon="11.91142476622939"><ele>317.0</ele><time>2026-04-25T08:43:47Z</time></trkpt><trkpt lat="42.549075208511624" lon="11.911360092118947"><ele>317.0</ele><time>2026-04-25T08:43:49Z</time></trkpt><trkpt lat="42.549031387683385" lon="11.911294952758958"><ele>317.0</ele><time>2026-04-25T08:43:51Z</time></trkpt><trkpt lat="42.54899307716195" lon="11.911213562998675"><ele>317.0</ele><time>2026-04-25T08:43:53Z</time></trkpt><trkpt lat="42.548950617317416" lon="11.911150273662772"><ele>317.0</ele><time>2026-04-25T08:43:55Z</time></trkpt><trkpt lat="42.5488893327548" lon="11.911058101422471"><ele>317.0</ele><time>2026-04-25T08:43:58Z</time></trkpt><trkpt lat="42.548834515593555" lon="11.910964594226202"><ele>317.0</ele><time>2026-04-25T08:44:01Z</time></trkpt><trkpt lat="42.548782971785165" lon="11.910871899236154"><ele>316.5</ele><time>2026-04-25T08:44:04Z</time></trkpt><trkpt lat="42.54871523748513" lon="11.910795812251907"><ele>316.0</ele><time>2026-04-25T08:44:07Z</time></trkpt><trkpt lat="42.548670716105484" lon="11.910718285920828"><ele>315.5</ele><time>2026-04-25T08:44:10Z</time></trkpt><trkpt lat="42.54862296124874" lon="11.910634359235402"><ele>315.0</ele><time>2026-04-25T08:44:13Z</time></trkpt><trkpt lat="42.5485736598325" lon="11.910557507593532"><ele>314.5</ele><time>2026-04-25T08:44:16Z</time></trkpt><trkpt lat="42.54852380680064" lon="11.9104782425568"><ele>314.0</ele><time>2026-04-25T08:44:19Z</time></trkpt><trkpt lat="42.54848766413457" lon="11.91039348727501"><ele>314.83333333333337</ele><time>2026-04-25T08:44:22Z</time></trkpt><trkpt lat="42.54843842492403" lon="11.910319776896461"><ele>315.6666666666667</ele><time>2026-04-25T08:44:24.999Z</time></trkpt><trkpt lat="42.54838643033959" lon="11.910256386611518"><ele>316.5</ele><time>2026-04-25T08:44:27.999Z</time></trkpt><trkpt lat="42.54832736828088" lon="11.910197067776394"><ele>317.3333333333333</ele><time>2026-04-25T08:44:30.999Z</time></trkpt><trkpt lat="42.548279829285" lon="11.910120881307732"><ele>318.16666666666663</ele><time>2026-04-25T08:44:33.999Z</time></trkpt><trkpt lat="42.548219127513654" lon="11.910043164420719"><ele>319.0</ele><time>2026-04-25T08:44:36.999Z</time></trkpt><trkpt lat="42.548162990840304" lon="11.909972726323936"><ele>319.0</ele><time>2026-04-25T08:44:39.999Z</time></trkpt><trkpt lat="42.54811449943" lon="11.909895269584093"><ele>319.0</ele><time>2026-04-25T08:44:42.999Z</time></trkpt><trkpt lat="42.54806207328854" lon="11.909822225120735"><ele>319.0</ele><time>2026-04-25T08:44:45.999Z</time></trkpt><trkpt lat="42.548009906237944" lon="11.909741616343045"><ele>319.0</ele><time>2026-04-25T08:44:48.999Z</time></trkpt><trkpt lat="42.54795123892416" lon="11.90967656619539"><ele>319.0</ele><time>2026-04-25T08:44:51.999Z</time></trkpt><trkpt lat="42.54788567821042" lon="11.909599685202439"><ele>319.0</ele><time>2026-04-25T08:44:54.999Z</time></trkpt><trkpt lat="42.5478346245086" lon="11.909546522327451"><ele>320.14285714285717</ele><time>2026-04-25T08:44:56.999Z</time></trkpt><trkpt lat="42.54774982476561" lon="11.909491094648686"><ele>321.2857142857143</ele><time>2026-04-25T08:44:59.999Z</time></trkpt><trkpt lat="42.547692922597115" lon="11.909453490586698"><ele>322.42857142857144</ele><time>2026-04-25T08:45:01.999Z</time></trkpt><trkpt lat="42.54763624809552" lon="11.90941193399606"><ele>323.57142857142856</ele><time>2026-04-25T08:45:03.999Z</time></trkpt><trkpt lat="42.54757075218284" lon="11.909387715992281"><ele>324.7142857142857</ele><time>2026-04-25T08:45:05.998Z</time></trkpt><trkpt lat="42.547494881257684" lon="11.909361555037336"><ele>325.85714285714283</ele><time>2026-04-25T08:45:07.998Z</time></trkpt><trkpt lat="42.547432486447825" lon="11.90933828566454"><ele>327.0</ele><time>2026-04-25T08:45:09.998Z</time></trkpt><trkpt lat="42.54735128148778" lon="11.90929343220324"><ele>326.6666666666667</ele><time>2026-04-25T08:45:12.998Z</time></trkpt><trkpt lat="42.547266594467786" lon="11.909240294582863"><ele>326.3333333333333</ele><time>2026-04-25T08:45:15.998Z</time></trkpt><trkpt lat="42.5471905861435" lon="11.909196507948273"><ele>326.0</ele><time>2026-04-25T08:45:17.998Z</time></trkpt><trkpt lat="42.54710962925443" lon="11.909142717883773"><ele>325.66666666666663</ele><time>2026-04-25T08:45:19.998Z</time></trkpt><trkpt lat="42.54703474634308" lon="11.90909875091871"><ele>325.3333333333333</ele><time>2026-04-25T08:45:21.998Z</time></trkpt><trkpt lat="42.54697110166135" lon="11.909047538536143"><ele>325.0</ele><time>2026-04-25T08:45:23.998Z</time></trkpt><trkpt lat="42.546899570214556" lon="11.90901306211858"><ele>325.0</ele><time>2026-04-25T08:45:25.998Z</time></trkpt><trkpt lat="42.54683451371562" lon="11.90897563190643"><ele>325.0</ele><time>2026-04-25T08:45:27.998Z</time></trkpt><trkpt lat="42.546778611066415" lon="11.908922294363663"><ele>325.0</ele><time>2026-04-25T08:45:29.998Z</time></trkpt><trkpt lat="42.546722448196924" lon="11.908881828478034"><ele>325.0</ele><time>2026-04-25T08:45:31.998Z</time></trkpt><trkpt lat="42.546669122565284" lon="11.908820897455502"><ele>325.0</ele><time>2026-04-25T08:45:33.998Z</time></trkpt><trkpt lat="42.546594404180276" lon="11.90878641203753"><ele>325.0</ele><time>2026-04-25T08:45:36.998Z</time></trkpt><trkpt lat="42.54651670662875" lon="11.908739304423156"><ele>325.0</ele><time>2026-04-25T08:45:40Z</time></trkpt><trkpt lat="42.546430362438876" lon="11.908685509939616"><ele>325.0</ele><time>2026-04-25T08:45:43Z</time></trkpt><trkpt lat="42.54636767030408" lon="11.908654662155135"><ele>325.0</ele><time>2026-04-25T08:45:45Z</time></trkpt><trkpt lat="42.54630044621389" lon="11.908610047232235"><ele>325.0</ele><time>2026-04-25T08:45:47Z</time></trkpt><trkpt lat="42.54622708705911" lon="11.908571722766165"><ele>325.0</ele><time>2026-04-25T08:45:49Z</time></trkpt><trkpt lat="42.5461605254066" lon="11.908530456596479"><ele>325.0</ele><time>2026-04-25T08:45:51Z</time></trkpt><trkpt lat="42.54609708578301" lon="11.908492004445984"><ele>325.0</ele><time>2026-04-25T08:45:53Z</time></trkpt><trkpt lat="42.54603943108329" lon="11.908450531941975"><ele>325.0</ele><time>2026-04-25T08:45:55Z</time></trkpt><trkpt lat="42.545977634498406" lon="11.908415028207012"><ele>324.8333333333333</ele><time>2026-04-25T08:45:57Z</time></trkpt><trkpt lat="42.54591292690382" lon="11.908397263642089"><ele>324.66666666666663</ele><time>2026-04-25T08:45:59Z</time></trkpt><trkpt lat="42.54582830640614" lon="11.908357265959678"><ele>324.5</ele><time>2026-04-25T08:46:01Z</time></trkpt><trkpt lat="42.54574674200836" lon="11.90828878616071"><ele>324.3333333333333</ele><time>2026-04-25T08:46:04Z</time></trkpt><trkpt lat="42.545682506553085" lon="11.908246259976368"><ele>324.1666666666667</ele><time>2026-04-25T08:46:06Z</time></trkpt><trkpt lat="42.5456227353553" lon="11.908202405121243"><ele>324.0</ele><time>2026-04-25T08:46:08Z</time></trkpt><trkpt lat="42.54556069612915" lon="11.90817057256864"><ele>324.0</ele><time>2026-04-25T08:46:10Z</time></trkpt><trkpt lat="42.54549473981754" lon="11.90814063450331"><ele>324.0</ele><time>2026-04-25T08:46:12Z</time></trkpt><trkpt lat="42.54542415213247" lon="11.90814798215387"><ele>324.0</ele><time>2026-04-25T08:46:14Z</time></trkpt><trkpt lat="42.545332403031246" lon="11.90815005959789"><ele>324.0</ele><time>2026-04-25T08:46:17Z</time></trkpt><trkpt lat="42.545266619340424" lon="11.908155273887871"><ele>324.0</ele><time>2026-04-25T08:46:19Z</time></trkpt><trkpt lat="42.54519891456734" lon="11.90816433645029"><ele>324.0</ele><time>2026-04-25T08:46:21Z</time></trkpt><trkpt lat="42.545132543339484" lon="11.908174804043623"><ele>324.0</ele><time>2026-04-25T08:46:23Z</time></trkpt><trkpt lat="42.545062174085935" lon="11.908192611175393"><ele>324.2857142857143</ele><time>2026-04-25T08:46:25Z</time></trkpt><trkpt lat="42.54499486378512" lon="11.908212929982469"><ele>324.57142857142856</ele><time>2026-04-25T08:46:26.999Z</time></trkpt><trkpt lat="42.54492842221833" lon="11.90822620163286"><ele>324.8571428571429</ele><time>2026-04-25T08:46:28.999Z</time></trkpt><trkpt lat="42.54485458789032" lon="11.9082498156021"><ele>325.1428571428571</ele><time>2026-04-25T08:46:30.999Z</time></trkpt><trkpt lat="42.54478368353486" lon="11.908276918572454"><ele>325.4285714285714</ele><time>2026-04-25T08:46:32.999Z</time></trkpt><trkpt lat="42.544708068067756" lon="11.908309199772232"><ele>325.7142857142857</ele><time>2026-04-25T08:46:34.999Z</time></trkpt><trkpt lat="42.54463536863212" lon="11.9083376408877"><ele>326.0</ele><time>2026-04-25T08:46:36.999Z</time></trkpt><trkpt lat="42.544568225433075" lon="11.908371120168981"><ele>326.1666666666667</ele><time>2026-04-25T08:46:38.999Z</time></trkpt><trkpt lat="42.54448932763395" lon="11.908418178706723"><ele>326.33333333333337</ele><time>2026-04-25T08:46:41.999Z</time></trkpt><trkpt lat="42.54438795613618" lon="11.908431893574388"><ele>326.5</ele><time>2026-04-25T08:46:45.999Z</time></trkpt><trkpt lat="42.54431308017019" lon="11.908451950261512"><ele>326.6666666666667</ele><time>2026-04-25T08:46:47.999Z</time></trkpt><trkpt lat="42.544222225286084" lon="11.908498024757018"><ele>326.8333333333333</ele><time>2026-04-25T08:46:50.999Z</time></trkpt><trkpt lat="42.54415668657841" lon="11.908525310577522"><ele>327.0</ele><time>2026-04-25T08:46:52.999Z</time></trkpt><trkpt lat="42.544090969784676" lon="11.908530490783594"><ele>327.0</ele><time>2026-04-25T08:46:54.999Z</time></trkpt><trkpt lat="42.54402155966637" lon="11.908557852454553"><ele>327.0</ele><time>2026-04-25T08:46:56.999Z</time></trkpt><trkpt lat="42.543946487334374" lon="11.90856955435381"><ele>327.0</ele><time>2026-04-25T08:46:58.999Z</time></trkpt><trkpt lat="42.54387643995915" lon="11.908576636996045"><ele>327.0</ele><time>2026-04-25T08:47:00.999Z</time></trkpt><trkpt lat="42.54379838900655" lon="11.908570690657871"><ele>327.0</ele><time>2026-04-25T08:47:02.999Z</time></trkpt><trkpt lat="42.54372541148192" lon="11.908564050790908"><ele>327.0</ele><time>2026-04-25T08:47:04.999Z</time></trkpt><trkpt lat="42.543655083794086" lon="11.908544780557815"><ele>327.0</ele><time>2026-04-25T08:47:06.999Z</time></trkpt><trkpt lat="42.543560791327415" lon="11.90849964136562"><ele>327.1666666666667</ele><time>2026-04-25T08:47:09.999Z</time></trkpt><trkpt lat="42.543488117839544" lon="11.908481304096455"><ele>327.3333333333333</ele><time>2026-04-25T08:47:11.999Z</time></trkpt><trkpt lat="42.54343085533521" lon="11.90852351695235"><ele>327.5</ele><time>2026-04-25T08:47:13.999Z</time></trkpt><trkpt lat="42.54335405490221" lon="11.908589289434014"><ele>327.66666666666663</ele><time>2026-04-25T08:47:16.998Z</time></trkpt><trkpt lat="42.54327568429012" lon="11.908637701816904"><ele>327.8333333333333</ele><time>2026-04-25T08:47:19.998Z</time></trkpt><trkpt lat="42.54319278754474" lon="11.908691977367168"><ele>328.0</ele><time>2026-04-25T08:47:22.998Z</time></trkpt><trkpt lat="42.54311088975348" lon="11.90874294676931"><ele>328.0</ele><time>2026-04-25T08:47:25.998Z</time></trkpt><trkpt lat="42.54302800428733" lon="11.908792289902765"><ele>328.0</ele><time>2026-04-25T08:47:28.998Z</time></trkpt><trkpt lat="42.542951130633234" lon="11.908836120680471"><ele>328.0</ele><time>2026-04-25T08:47:31.998Z</time></trkpt><trkpt lat="42.542877195045406" lon="11.908880127286771"><ele>328.0</ele><time>2026-04-25T08:47:34.998Z</time></trkpt><trkpt lat="42.54280040886227" lon="11.908928329594358"><ele>328.0</ele><time>2026-04-25T08:47:37.998Z</time></trkpt><trkpt lat="42.54272222708815" lon="11.908974491001477"><ele>328.0</ele><time>2026-04-25T08:47:40.998Z</time></trkpt><trkpt lat="42.54266443780616" lon="11.909013745793647"><ele>328.5</ele><time>2026-04-25T08:47:42.998Z</time></trkpt><trkpt lat="42.54257912805048" lon="11.909054532490693"><ele>329.0</ele><time>2026-04-25T08:47:46Z</time></trkpt><trkpt lat="42.542494830829774" lon="11.909097527144018"><ele>329.5</ele><time>2026-04-25T08:47:49Z</time></trkpt><trkpt lat="42.54241815882192" lon="11.909141549611693"><ele>330.0</ele><time>2026-04-25T08:47:52Z</time></trkpt><trkpt lat="42.542343471846365" lon="11.909182379635102"><ele>330.5</ele><time>2026-04-25T08:47:55Z</time></trkpt><trkpt lat="42.54226486738785" lon="11.90922083507303"><ele>331.0</ele><time>2026-04-25T08:47:58Z</time></trkpt><trkpt lat="42.54218948273312" lon="11.90926385198142"><ele>331.0</ele><time>2026-04-25T08:48:01Z</time></trkpt><trkpt lat="42.54211874872828" lon="11.909310425243445"><ele>331.0</ele><time>2026-04-25T08:48:04Z</time></trkpt><trkpt lat="42.54204448896423" lon="11.909344722924523"><ele>331.0</ele><time>2026-04-25T08:48:07Z</time></trkpt><trkpt lat="42.54196383892413" lon="11.909382575712694"><ele>331.0</ele><time>2026-04-25T08:48:10Z</time></trkpt><trkpt lat="42.54189515523669" lon="11.909429757153458"><ele>331.0</ele><time>2026-04-25T08:48:13Z</time></trkpt><trkpt lat="42.54182117393714" lon="11.909476620651944"><ele>331.0</ele><time>2026-04-25T08:48:16Z</time></trkpt><trkpt lat="42.54174114486056" lon="11.909511579403965"><ele>331.3333333333333</ele><time>2026-04-25T08:48:19Z</time></trkpt><trkpt lat="42.54165678837418" lon="11.90955401201927"><ele>331.66666666666663</ele><time>2026-04-25T08:48:22Z</time></trkpt><trkpt lat="42.541576988211894" lon="11.909598632179796"><ele>332.0</ele><time>2026-04-25T08:48:25Z</time></trkpt><trkpt lat="42.54149115482561" lon="11.90965110291208"><ele>332.3333333333333</ele><time>2026-04-25T08:48:28Z</time></trkpt><trkpt lat="42.54140899435499" lon="11.90968904942806"><ele>332.6666666666667</ele><time>2026-04-25T08:48:31Z</time></trkpt><trkpt lat="42.54135055839039" lon="11.909724868097975"><ele>333.0</ele><time>2026-04-25T08:48:32.999Z</time></trkpt><trkpt lat="42.54127449519666" lon="11.909771399510149"><ele>333.42857142857144</ele><time>2026-04-25T08:48:35.999Z</time></trkpt><trkpt lat="42.54120859267699" lon="11.909802773609625"><ele>333.85714285714283</ele><time>2026-04-25T08:48:37.999Z</time></trkpt><trkpt lat="42.5411489405856" lon="11.909842260823405"><ele>334.2857142857143</ele><time>2026-04-25T08:48:39.999Z</time></trkpt><trkpt lat="42.541086363516584" lon="11.909878340049174"><ele>334.7142857142857</ele><time>2026-04-25T08:48:41.999Z</time></trkpt><trkpt lat="42.54100038285867" lon="11.909927738824008"><ele>335.1428571428571</ele><time>2026-04-25T08:48:44.999Z</time></trkpt><trkpt lat="42.540937618411334" lon="11.909965113834327"><ele>335.57142857142856</ele><time>2026-04-25T08:48:46.999Z</time></trkpt><trkpt lat="42.54087145058449" lon="11.909997433884687"><ele>336.0</ele><time>2026-04-25T08:48:48.999Z</time></trkpt><trkpt lat="42.54080985436629" lon="11.910040173358476"><ele>336.14285714285717</ele><time>2026-04-25T08:48:50.999Z</time></trkpt><trkpt lat="42.54072773693097" lon="11.9100911206447"><ele>336.2857142857143</ele><time>2026-04-25T08:48:53.999Z</time></trkpt><trkpt lat="42.54066604165673" lon="11.910129027127022"><ele>336.42857142857144</ele><time>2026-04-25T08:48:55.999Z</time></trkpt><trkpt lat="42.54060626764449" lon="11.91016559829412"><ele>336.57142857142856</ele><time>2026-04-25T08:48:57.999Z</time></trkpt><trkpt lat="42.54051942873066" lon="11.910211158709219"><ele>336.7142857142857</ele><time>2026-04-25T08:49:00.999Z</time></trkpt><trkpt lat="42.54046102032722" lon="11.91025074571024"><ele>336.8571428571429</ele><time>2026-04-25T08:49:02.999Z</time></trkpt><trkpt lat="42.54040226362177" lon="11.910293129438035"><ele>337.0</ele><time>2026-04-25T08:49:04.999Z</time></trkpt><trkpt lat="42.54032004831285" lon="11.910353041590414"><ele>337.00000000000006</ele><time>2026-04-25T08:49:07.999Z</time></trkpt><trkpt lat="42.540236109495005" lon="11.910420657674925"><ele>337.0</ele><time>2026-04-25T08:49:10.999Z</time></trkpt><trkpt lat="42.540179842554295" lon="11.910468804262885"><ele>337.0</ele><time>2026-04-25T08:49:12.999Z</time></trkpt><trkpt lat="42.540121263204625" lon="11.910517308228522"><ele>337.0</ele><time>2026-04-25T08:49:14.999Z</time></trkpt><trkpt lat="42.54007146471789" lon="11.910577883533065"><ele>337.0</ele><time>2026-04-25T08:49:16.999Z</time></trkpt><trkpt lat="42.540018176473474" lon="11.910625377377665"><ele>337.00000000000006</ele><time>2026-04-25T08:49:18.999Z</time></trkpt><trkpt lat="42.53997313516299" lon="11.910686142397752"><ele>337.0</ele><time>2026-04-25T08:49:20.999Z</time></trkpt><trkpt lat="42.539921171983984" lon="11.910768622167184"><ele>337.0</ele><time>2026-04-25T08:49:23.998Z</time></trkpt><trkpt lat="42.53986798511072" lon="11.910863863106536"><ele>337.0</ele><time>2026-04-25T08:49:26.998Z</time></trkpt><trkpt lat="42.53981175489555" lon="11.910931353177514"><ele>337.0</ele><time>2026-04-25T08:49:28.998Z</time></trkpt><trkpt lat="42.53975837321567" lon="11.911000523700412"><ele>337.0</ele><time>2026-04-25T08:49:30.998Z</time></trkpt><trkpt lat="42.53970345741407" lon="11.911080793747779"><ele>337.0</ele><time>2026-04-25T08:49:32.998Z</time></trkpt><trkpt lat="42.539648332260015" lon="11.911148835455379"><ele>337.0</ele><time>2026-04-25T08:49:34.998Z</time></trkpt><trkpt lat="42.53960734799675" lon="11.911228305951639"><ele>337.00000000000006</ele><time>2026-04-25T08:49:36.998Z</time></trkpt><trkpt lat="42.539574180672595" lon="11.911305033250688"><ele>337.0</ele><time>2026-04-25T08:49:38.998Z</time></trkpt><trkpt lat="42.53953495392804" lon="11.911373354770397"><ele>337.0</ele><time>2026-04-25T08:49:40.998Z</time></trkpt><trkpt lat="42.5394846701037" lon="11.911470034427436"><ele>337.0</ele><time>2026-04-25T08:49:43.998Z</time></trkpt><trkpt lat="42.53944667392648" lon="11.911541125962327"><ele>337.0</ele><time>2026-04-25T08:49:45.998Z</time></trkpt><trkpt lat="42.53940391570299" lon="11.911625073048043"><ele>337.00000000000006</ele><time>2026-04-25T08:49:47.998Z</time></trkpt><trkpt lat="42.53936121576092" lon="11.911706880875899"><ele>337.0</ele><time>2026-04-25T08:49:49.998Z</time></trkpt><trkpt lat="42.53931579587743" lon="11.91179477745427"><ele>337.0</ele><time>2026-04-25T08:49:51.998Z</time></trkpt><trkpt lat="42.53927015064467" lon="11.911880955418118"><ele>337.0</ele><time>2026-04-25T08:49:53.998Z</time></trkpt><trkpt lat="42.53922274770554" lon="11.911973415887646"><ele>337.0</ele><time>2026-04-25T08:49:55.998Z</time></trkpt><trkpt lat="42.53918889468602" lon="11.91208120572228"><ele>337.0</ele><time>2026-04-25T08:49:57.998Z</time></trkpt><trkpt lat="42.539138304671845" lon="11.91222165314058"><ele>337.0</ele><time>2026-04-25T08:49:59.998Z</time></trkpt><trkpt lat="42.539071463005364" lon="11.912363081906264"><ele>337.0</ele><time>2026-04-25T08:50:01.998Z</time></trkpt><trkpt lat="42.539032353098925" lon="11.91243491764064"><ele>337.0</ele><time>2026-04-25T08:50:02.998Z</time></trkpt><trkpt lat="42.538992084973856" lon="11.912510966488991"><ele>337.0</ele><time>2026-04-25T08:50:03.998Z</time></trkpt><trkpt lat="42.538930537210064" lon="11.912657724313435"><ele>337.0</ele><time>2026-04-25T08:50:05.998Z</time></trkpt><trkpt lat="42.5389296632555" lon="11.912834492534985"><ele>337.0</ele><time>2026-04-25T08:50:07.998Z</time></trkpt><trkpt lat="42.53895156891736" lon="11.912923263120957"><ele>336.8571428571429</ele><time>2026-04-25T08:50:08.998Z</time></trkpt><trkpt lat="42.538975522971796" lon="11.913020582802718"><ele>336.7142857142857</ele><time>2026-04-25T08:50:09.998Z</time></trkpt><trkpt lat="42.538990582942" lon="11.913123345445628"><ele>336.57142857142856</ele><time>2026-04-25T08:50:10.997Z</time></trkpt><trkpt lat="42.53899610576551" lon="11.91322030133199"><ele>336.42857142857144</ele><time>2026-04-25T08:50:11.997Z</time></trkpt><trkpt lat="42.53900783656152" lon="11.913318605631751"><ele>336.2857142857143</ele><time>2026-04-25T08:50:12.997Z</time></trkpt><trkpt lat="42.53902058233537" lon="11.913415767197206"><ele>336.14285714285717</ele><time>2026-04-25T08:50:13.997Z</time></trkpt><trkpt lat="42.53903349240555" lon="11.91351175977145"><ele>336.0</ele><time>2026-04-25T08:50:14.997Z</time></trkpt><trkpt lat="42.53903413201378" lon="11.913597195666984"><ele>336.0</ele><time>2026-04-25T08:50:15.997Z</time></trkpt><trkpt lat="42.5390483746658" lon="11.913755905386171"><ele>336.0</ele><time>2026-04-25T08:50:17.997Z</time></trkpt><trkpt lat="42.53906724157646" lon="11.913900184944112"><ele>336.0</ele><time>2026-04-25T08:50:19.997Z</time></trkpt><trkpt lat="42.53906884837456" lon="11.914043627450894"><ele>336.0</ele><time>2026-04-25T08:50:21.997Z</time></trkpt><trkpt lat="42.53908205719283" lon="11.914178814006462"><ele>336.0</ele><time>2026-04-25T08:50:23.997Z</time></trkpt><trkpt lat="42.539089966009506" lon="11.914287382007727"><ele>337.4</ele><time>2026-04-25T08:50:25.997Z</time></trkpt><trkpt lat="42.53910184638693" lon="11.914410424874236"><ele>338.8</ele><time>2026-04-25T08:50:27.997Z</time></trkpt><trkpt lat="42.539100106387956" lon="11.914541668569004"><ele>340.2</ele><time>2026-04-25T08:50:29.997Z</time></trkpt><trkpt lat="42.53910656756447" lon="11.914693863148202"><ele>341.59999999999997</ele><time>2026-04-25T08:50:31.997Z</time></trkpt><trkpt lat="42.53908775133364" lon="11.914843179216389"><ele>343.0</ele><time>2026-04-25T08:50:33.997Z</time></trkpt><trkpt lat="42.5390738060019" lon="11.914979287679973"><ele>341.59999999999997</ele><time>2026-04-25T08:50:35.997Z</time></trkpt><trkpt lat="42.53905955563607" lon="11.915106569149192"><ele>340.2</ele><time>2026-04-25T08:50:37.997Z</time></trkpt><trkpt lat="42.5390391788115" lon="11.915220982823584"><ele>338.8</ele><time>2026-04-25T08:50:39.997Z</time></trkpt><trkpt lat="42.5390301736227" lon="11.915328194872878"><ele>337.4</ele><time>2026-04-25T08:50:41.997Z</time></trkpt><trkpt lat="42.53902775058417" lon="11.915449858001633"><ele>336.0</ele><time>2026-04-25T08:50:43.997Z</time></trkpt><trkpt lat="42.53898741311948" lon="11.915574343717273"><ele>336.0</ele><time>2026-04-25T08:50:45.997Z</time></trkpt><trkpt lat="42.53895145360037" lon="11.915711578107642"><ele>336.0</ele><time>2026-04-25T08:50:47.997Z</time></trkpt><trkpt lat="42.53891616920035" lon="11.915866150205725"><ele>336.0</ele><time>2026-04-25T08:50:49.997Z</time></trkpt><trkpt lat="42.53888430954011" lon="11.916031489317692"><ele>336.0</ele><time>2026-04-25T08:50:51.997Z</time></trkpt><trkpt lat="42.53886560967663" lon="11.916116246561202"><ele>336.0</ele><time>2026-04-25T08:50:52.997Z</time></trkpt><trkpt lat="42.53883902064414" lon="11.916194596405722"><ele>336.0</ele><time>2026-04-25T08:50:53.997Z</time></trkpt><trkpt lat="42.538808952137984" lon="11.916354821140958"><ele>336.0</ele><time>2026-04-25T08:50:55.997Z</time></trkpt><trkpt lat="42.53877237811676" lon="11.916517987042047"><ele>336.0</ele><time>2026-04-25T08:50:57.997Z</time></trkpt><trkpt lat="42.53872910135039" lon="11.916682840657877"><ele>336.0</ele><time>2026-04-25T08:50:59.996Z</time></trkpt><trkpt lat="42.53870606845367" lon="11.916763107923803"><ele>336.0</ele><time>2026-04-25T08:51:00.996Z</time></trkpt><trkpt lat="42.53868417208801" lon="11.916851252680505"><ele>336.0</ele><time>2026-04-25T08:51:01.996Z</time></trkpt><trkpt lat="42.538667465271686" lon="11.916937674917397"><ele>336.0</ele><time>2026-04-25T08:51:02.996Z</time></trkpt><trkpt lat="42.53865058340286" lon="11.917025142752863"><ele>336.0</ele><time>2026-04-25T08:51:03.996Z</time></trkpt><trkpt lat="42.538606433948104" lon="11.917196493620619"><ele>336.0</ele><time>2026-04-25T08:51:05.996Z</time></trkpt><trkpt lat="42.538587163971926" lon="11.9172860288199"><ele>336.0</ele><time>2026-04-25T08:51:06.996Z</time></trkpt><trkpt lat="42.53855706736801" lon="11.917374303852995"><ele>336.0</ele><time>2026-04-25T08:51:07.996Z</time></trkpt><trkpt lat="42.538529598694026" lon="11.917469304886488"><ele>336.0</ele><time>2026-04-25T08:51:08.996Z</time></trkpt><trkpt lat="42.53850870817686" lon="11.917559564815353"><ele>336.0</ele><time>2026-04-25T08:51:09.996Z</time></trkpt><trkpt lat="42.53848292967111" lon="11.917655362348885"><ele>336.0</ele><time>2026-04-25T08:51:10.996Z</time></trkpt><trkpt lat="42.538454830501976" lon="11.917747313846785"><ele>336.0</ele><time>2026-04-25T08:51:11.996Z</time></trkpt><trkpt lat="42.53842536293908" lon="11.917834419071912"><ele>336.0</ele><time>2026-04-25T08:51:12.996Z</time></trkpt><trkpt lat="42.53839895483929" lon="11.917919713869669"><ele>336.0</ele><time>2026-04-25T08:51:13.996Z</time></trkpt><trkpt lat="42.53836626900994" lon="11.91800338787618"><ele>336.0</ele><time>2026-04-25T08:51:14.996Z</time></trkpt><trkpt lat="42.53833687953421" lon="11.918099347613447"><ele>335.0</ele><time>2026-04-25T08:51:15.996Z</time></trkpt><trkpt lat="42.53829902362708" lon="11.918183278273114"><ele>334.0</ele><time>2026-04-25T08:51:16.996Z</time></trkpt><trkpt lat="42.53825875565858" lon="11.918263718108683"><ele>333.0</ele><time>2026-04-25T08:51:17.996Z</time></trkpt><trkpt lat="42.53821827022204" lon="11.918338888296757"><ele>332.0</ele><time>2026-04-25T08:51:18.996Z</time></trkpt><trkpt lat="42.53817341875354" lon="11.918415843741494"><ele>331.0</ele><time>2026-04-25T08:51:19.996Z</time></trkpt><trkpt lat="42.538117208046" lon="11.918487422829044"><ele>330.0</ele><time>2026-04-25T08:51:20.996Z</time></trkpt><trkpt lat="42.538061105789225" lon="11.918558840631178"><ele>329.0</ele><time>2026-04-25T08:51:21.996Z</time></trkpt><trkpt lat="42.53800188097198" lon="11.918625141198213"><ele>328.0</ele><time>2026-04-25T08:51:22.996Z</time></trkpt><trkpt lat="42.537943448783466" lon="11.918693570646761"><ele>327.0</ele><time>2026-04-25T08:51:23.996Z</time></trkpt><trkpt lat="42.53788307153946" lon="11.918749034348538"><ele>326.0</ele><time>2026-04-25T08:51:24.996Z</time></trkpt><trkpt lat="42.53782125498684" lon="11.918804916219004"><ele>325.0</ele><time>2026-04-25T08:51:25.996Z</time></trkpt><trkpt lat="42.53776355455374" lon="11.918859982688037"><ele>324.0</ele><time>2026-04-25T08:51:26.996Z</time></trkpt><trkpt lat="42.53769894075842" lon="11.918899852831034"><ele>323.0</ele><time>2026-04-25T08:51:27.996Z</time></trkpt><trkpt lat="42.53763737227011" lon="11.918941975123472"><ele>322.0</ele><time>2026-04-25T08:51:28.996Z</time></trkpt><trkpt lat="42.53757434585271" lon="11.918999894310069"><ele>322.0</ele><time>2026-04-25T08:51:29.996Z</time></trkpt><trkpt lat="42.537507964473434" lon="11.91906134971793"><ele>322.0</ele><time>2026-04-25T08:51:30.996Z</time></trkpt><trkpt lat="42.537446796789474" lon="11.919114437682333"><ele>322.0</ele><time>2026-04-25T08:51:31.996Z</time></trkpt><trkpt lat="42.5373890695401" lon="11.919164553755648"><ele>322.0</ele><time>2026-04-25T08:51:32.996Z</time></trkpt><trkpt lat="42.53732598870563" lon="11.919217446527758"><ele>322.0</ele><time>2026-04-25T08:51:33.996Z</time></trkpt><trkpt lat="42.53726704108822" lon="11.919265329779316"><ele>322.0</ele><time>2026-04-25T08:51:34.996Z</time></trkpt><trkpt lat="42.53719962824171" lon="11.919313138729589"><ele>322.0</ele><time>2026-04-25T08:51:35.996Z</time></trkpt><trkpt lat="42.53713919077789" lon="11.91936883243698"><ele>321.57142857142856</ele><time>2026-04-25T08:51:36.996Z</time></trkpt><trkpt lat="42.537076401719425" lon="11.919418765604512"><ele>321.1428571428571</ele><time>2026-04-25T08:51:37.996Z</time></trkpt><trkpt lat="42.537015633659784" lon="11.919472322280413"><ele>320.7142857142857</ele><time>2026-04-25T08:51:38.996Z</time></trkpt><trkpt lat="42.53695298059861" lon="11.91952989625997"><ele>320.2857142857143</ele><time>2026-04-25T08:51:39.996Z</time></trkpt><trkpt lat="42.53689048884366" lon="11.919577479210071"><ele>319.85714285714283</ele><time>2026-04-25T08:51:40.996Z</time></trkpt><trkpt lat="42.53682238446908" lon="11.91962173263484"><ele>319.42857142857144</ele><time>2026-04-25T08:51:41.996Z</time></trkpt><trkpt lat="42.536762666043195" lon="11.9196837953467"><ele>319.0</ele><time>2026-04-25T08:51:42.996Z</time></trkpt><trkpt lat="42.53670194114334" lon="11.91973235553784"><ele>319.0</ele><time>2026-04-25T08:51:43.996Z</time></trkpt><trkpt lat="42.53664890572235" lon="11.919781351548222"><ele>319.0</ele><time>2026-04-25T08:51:44.996Z</time></trkpt><trkpt lat="42.536587366183696" lon="11.919838217334298"><ele>319.0</ele><time>2026-04-25T08:51:45.996Z</time></trkpt><trkpt lat="42.53651990427268" lon="11.919889745170515"><ele>319.0</ele><time>2026-04-25T08:51:46.996Z</time></trkpt><trkpt lat="42.536456885429665" lon="11.919948201425097"><ele>319.0</ele><time>2026-04-25T08:51:47.996Z</time></trkpt><trkpt lat="42.53639654864796" lon="11.920000404766679"><ele>319.0</ele><time>2026-04-25T08:51:48.995Z</time></trkpt><trkpt lat="42.53633565517738" lon="11.920058846791179"><ele>319.0</ele><time>2026-04-25T08:51:49.995Z</time></trkpt><trkpt lat="42.536277222727385" lon="11.920109839739743"><ele>318.66666666666663</ele><time>2026-04-25T08:51:50.995Z</time></trkpt><trkpt lat="42.53621753157221" lon="11.92017121687129"><ele>318.3333333333333</ele><time>2026-04-25T08:51:51.995Z</time></trkpt><trkpt lat="42.53615700504867" lon="11.92022887806421"><ele>318.0</ele><time>2026-04-25T08:51:52.995Z</time></trkpt><trkpt lat="42.536092581392396" lon="11.92027980840458"><ele>317.6666666666667</ele><time>2026-04-25T08:51:53.995Z</time></trkpt><trkpt lat="42.53603383959899" lon="11.920338245024443"><ele>317.33333333333337</ele><time>2026-04-25T08:51:54.995Z</time></trkpt><trkpt lat="42.53593967730935" lon="11.92046059006386"><ele>317.0</ele><time>2026-04-25T08:51:56.995Z</time></trkpt><trkpt lat="42.535888068569676" lon="11.920526186401263"><ele>317.0</ele><time>2026-04-25T08:51:57.995Z</time></trkpt><trkpt lat="42.5358095797174" lon="11.920646944309823"><ele>317.0</ele><time>2026-04-25T08:51:59.995Z</time></trkpt><trkpt lat="42.535727946341986" lon="11.920777262094873"><ele>317.0</ele><time>2026-04-25T08:52:01.995Z</time></trkpt><trkpt lat="42.535665557617406" lon="11.920901990565298"><ele>317.0</ele><time>2026-04-25T08:52:03.995Z</time></trkpt><trkpt lat="42.53560854609208" lon="11.921041573971868"><ele>316.5</ele><time>2026-04-25T08:52:05.995Z</time></trkpt><trkpt lat="42.53555246419161" lon="11.92117926477271"><ele>316.0</ele><time>2026-04-25T08:52:07.995Z</time></trkpt><trkpt lat="42.535483240061204" lon="11.921313751571734"><ele>315.5</ele><time>2026-04-25T08:52:09.995Z</time></trkpt><trkpt lat="42.535434683406066" lon="11.921457918232791"><ele>315.0</ele><time>2026-04-25T08:52:11.995Z</time></trkpt><trkpt lat="42.535377596649624" lon="11.921576077563047"><ele>316.0</ele><time>2026-04-25T08:52:13.995Z</time></trkpt><trkpt lat="42.53532107684724" lon="11.921695068872934"><ele>317.0</ele><time>2026-04-25T08:52:15.995Z</time></trkpt><trkpt lat="42.53527102434124" lon="11.921827121191155"><ele>318.0</ele><time>2026-04-25T08:52:17.995Z</time></trkpt><trkpt lat="42.53522117686305" lon="11.921957813203244"><ele>319.0</ele><time>2026-04-25T08:52:19.995Z</time></trkpt><trkpt lat="42.535199835399055" lon="11.922099336254497"><ele>320.0</ele><time>2026-04-25T08:52:21.995Z</time></trkpt><trkpt lat="42.535184195917736" lon="11.922232626237573"><ele>320.0</ele><time>2026-04-25T08:52:23.995Z</time></trkpt><trkpt lat="42.53517126621287" lon="11.9223566291776"><ele>320.0</ele><time>2026-04-25T08:52:25.995Z</time></trkpt><trkpt lat="42.535176813602156" lon="11.922482718695512"><ele>320.0</ele><time>2026-04-25T08:52:27.995Z</time></trkpt><trkpt lat="42.53518969669179" lon="11.922591374755251"><ele>320.0</ele><time>2026-04-25T08:52:29.995Z</time></trkpt><trkpt lat="42.535201051209214" lon="11.922695454302126"><ele>320.0</ele><time>2026-04-25T08:52:31.995Z</time></trkpt><trkpt lat="42.53520549019643" lon="11.922797614153184"><ele>320.0</ele><time>2026-04-25T08:52:33.995Z</time></trkpt><trkpt lat="42.53521120761529" lon="11.922899319878761"><ele>320.33333333333337</ele><time>2026-04-25T08:52:35.995Z</time></trkpt><trkpt lat="42.53520754027879" lon="11.922996070746816"><ele>320.6666666666667</ele><time>2026-04-25T08:52:37.994Z</time></trkpt><trkpt lat="42.53521294221243" lon="11.923091594972336"><ele>321.0</ele><time>2026-04-25T08:52:39.994Z</time></trkpt><trkpt lat="42.535213494550504" lon="11.923193763662569"><ele>321.3333333333333</ele><time>2026-04-25T08:52:41.994Z</time></trkpt><trkpt lat="42.53522242553319" lon="11.923297018731292"><ele>321.66666666666663</ele><time>2026-04-25T08:52:43.994Z</time></trkpt><trkpt lat="42.535216073291636" lon="11.923401660952122"><ele>322.0</ele><time>2026-04-25T08:52:45.994Z</time></trkpt><trkpt lat="42.53518661640841" lon="11.923513692214895"><ele>322.0</ele><time>2026-04-25T08:52:47.994Z</time></trkpt><trkpt lat="42.53515920015654" lon="11.92359436809531"><ele>322.0</ele><time>2026-04-25T08:52:49.994Z</time></trkpt><trkpt lat="42.53513860228937" lon="11.923677244852003"><ele>322.0</ele><time>2026-04-25T08:52:52.994Z</time></trkpt><trkpt lat="42.535091422521184" lon="11.923753877587584"><ele>322.0</ele><time>2026-04-25T08:52:54.994Z</time></trkpt><trkpt lat="42.53502802422623" lon="11.923829395463471"><ele>322.0</ele><time>2026-04-25T08:52:56.994Z</time></trkpt><trkpt lat="42.53496082492008" lon="11.923901400124025"><ele>322.0</ele><time>2026-04-25T08:52:58.994Z</time></trkpt><trkpt lat="42.534882055331096" lon="11.92397097838863"><ele>322.0</ele><time>2026-04-25T08:53:00.994Z</time></trkpt><trkpt lat="42.534795931115575" lon="11.924056088245777"><ele>322.0</ele><time>2026-04-25T08:53:02.994Z</time></trkpt><trkpt lat="42.534688501011615" lon="11.924143851903285"><ele>322.0</ele><time>2026-04-25T08:53:04.994Z</time></trkpt><trkpt lat="42.53462793745902" lon="11.924179968588724"><ele>322.0</ele><time>2026-04-25T08:53:05.994Z</time></trkpt><trkpt lat="42.53456697534905" lon="11.924233741604125"><ele>322.0</ele><time>2026-04-25T08:53:06.994Z</time></trkpt><trkpt lat="42.53450813645406" lon="11.924294720764728"><ele>322.0</ele><time>2026-04-25T08:53:07.994Z</time></trkpt><trkpt lat="42.53443795165864" lon="11.924343345683475"><ele>321.5</ele><time>2026-04-25T08:53:08.994Z</time></trkpt><trkpt lat="42.534369286616666" lon="11.924395588283222"><ele>321.0</ele><time>2026-04-25T08:53:09.994Z</time></trkpt><trkpt lat="42.53430370344797" lon="11.924449163355758"><ele>320.5</ele><time>2026-04-25T08:53:10.994Z</time></trkpt><trkpt lat="42.53422967615614" lon="11.924511646660362"><ele>320.0</ele><time>2026-04-25T08:53:11.994Z</time></trkpt><trkpt lat="42.53415691133827" lon="11.92457635140079"><ele>319.5</ele><time>2026-04-25T08:53:12.994Z</time></trkpt><trkpt lat="42.5340966464839" lon="11.92462969934606"><ele>319.0</ele><time>2026-04-25T08:53:13.994Z</time></trkpt><trkpt lat="42.53404264670814" lon="11.924687253795602"><ele>319.0</ele><time>2026-04-25T08:53:14.994Z</time></trkpt><trkpt lat="42.53396386322053" lon="11.92478824226448"><ele>319.0</ele><time>2026-04-25T08:53:16.994Z</time></trkpt><trkpt lat="42.53391414202788" lon="11.9248755720944"><ele>319.0</ele><time>2026-04-25T08:53:18.994Z</time></trkpt><trkpt lat="42.53392081369092" lon="11.924993233610708"><ele>319.0</ele><time>2026-04-25T08:53:21.994Z</time></trkpt><trkpt lat="42.53397140105729" lon="11.925050358707738"><ele>319.0</ele><time>2026-04-25T08:53:23.994Z</time></trkpt><trkpt lat="42.534045755464646" lon="11.925076709843044"><ele>319.0</ele><time>2026-04-25T08:53:25.994Z</time></trkpt><trkpt lat="42.534137802499295" lon="11.925103370050506"><ele>318.4</ele><time>2026-04-25T08:53:27.993Z</time></trkpt><trkpt lat="42.53422304843933" lon="11.925141660488624"><ele>317.79999999999995</ele><time>2026-04-25T08:53:29.993Z</time></trkpt><trkpt lat="42.53433182853122" lon="11.925163472321424"><ele>317.20000000000005</ele><time>2026-04-25T08:53:31.993Z</time></trkpt><trkpt lat="42.53444169899123" lon="11.925199587873365"><ele>316.6</ele><time>2026-04-25T08:53:33.993Z</time></trkpt><trkpt lat="42.534554829240975" lon="11.925236069575732"><ele>316.0</ele><time>2026-04-25T08:53:35.993Z</time></trkpt><trkpt lat="42.53466688380428" lon="11.925266392467602"><ele>315.2</ele><time>2026-04-25T08:53:37.993Z</time></trkpt><trkpt lat="42.5347666565966" lon="11.925298329006683"><ele>314.40000000000003</ele><time>2026-04-25T08:53:39.993Z</time></trkpt><trkpt lat="42.53487034869785" lon="11.925334225515853"><ele>313.6</ele><time>2026-04-25T08:53:41.993Z</time></trkpt><trkpt lat="42.53497015307277" lon="11.925362296231285"><ele>312.8</ele><time>2026-04-25T08:53:43.993Z</time></trkpt><trkpt lat="42.53506911600349" lon="11.925373621749472"><ele>312.0</ele><time>2026-04-25T08:53:45.993Z</time></trkpt><trkpt lat="42.53514793005241" lon="11.925427992364092"><ele>312.0</ele><time>2026-04-25T08:53:47.993Z</time></trkpt><trkpt lat="42.53519264068213" lon="11.925547687498653"><ele>312.0</ele><time>2026-04-25T08:53:49.993Z</time></trkpt><trkpt lat="42.535140554295396" lon="11.925656920687416"><ele>312.0</ele><time>2026-04-25T08:53:51.993Z</time></trkpt><trkpt lat="42.53509704582574" lon="11.925747975345846"><ele>312.0</ele><time>2026-04-25T08:53:53.993Z</time></trkpt><trkpt lat="42.53505639865024" lon="11.925832838857248"><ele>312.0</ele><time>2026-04-25T08:53:55.993Z</time></trkpt><trkpt lat="42.53500485982037" lon="11.925917449576845"><ele>312.0</ele><time>2026-04-25T08:53:57.993Z</time></trkpt><trkpt lat="42.534963078754835" lon="11.925998913279912"><ele>311.5</ele><time>2026-04-25T08:53:59.993Z</time></trkpt><trkpt lat="42.53492756144999" lon="11.92608726011388"><ele>311.0</ele><time>2026-04-25T08:54:01.993Z</time></trkpt><trkpt lat="42.53489134046471" lon="11.926179099686006"><ele>310.5</ele><time>2026-04-25T08:54:03.993Z</time></trkpt><trkpt lat="42.534848807209386" lon="11.926269290059954"><ele>310.0</ele><time>2026-04-25T08:54:05.993Z</time></trkpt><trkpt lat="42.53481533805937" lon="11.926358103613397"><ele>309.5</ele><time>2026-04-25T08:54:07.993Z</time></trkpt><trkpt lat="42.53478292219311" lon="11.926440606959929"><ele>309.0</ele><time>2026-04-25T08:54:09.993Z</time></trkpt><trkpt lat="42.53475017767016" lon="11.926544094665276"><ele>309.0</ele><time>2026-04-25T08:54:11.993Z</time></trkpt><trkpt lat="42.53469600724653" lon="11.926634289814496"><ele>309.0</ele><time>2026-04-25T08:54:13.993Z</time></trkpt><trkpt lat="42.53468493485639" lon="11.926728136443625"><ele>309.0</ele><time>2026-04-25T08:54:15.993Z</time></trkpt><trkpt lat="42.53474013107064" lon="11.926814750259819"><ele>309.0</ele><time>2026-04-25T08:54:17.992Z</time></trkpt><trkpt lat="42.534823706013675" lon="11.926896542915827"><ele>309.0</ele><time>2026-04-25T08:54:19.992Z</time></trkpt><trkpt lat="42.53482493449104" lon="11.926982966602466"><ele>309.0</ele><time>2026-04-25T08:54:20.992Z</time></trkpt><trkpt lat="42.53477026119423" lon="11.927104198613025"><ele>308.6666666666667</ele><time>2026-04-25T08:54:22.992Z</time></trkpt><trkpt lat="42.5347290967209" lon="11.927202207654721"><ele>308.3333333333333</ele><time>2026-04-25T08:54:24.992Z</time></trkpt><trkpt lat="42.534719322230956" lon="11.92730641435898"><ele>308.0</ele><time>2026-04-25T08:54:26.992Z</time></trkpt><trkpt lat="42.53470433005665" lon="11.927412147650212"><ele>307.66666666666663</ele><time>2026-04-25T08:54:28.992Z</time></trkpt><trkpt lat="42.534700648547556" lon="11.92751410352966"><ele>307.3333333333333</ele><time>2026-04-25T08:54:30.992Z</time></trkpt><trkpt lat="42.5346871179754" lon="11.927605204098017"><ele>307.0</ele><time>2026-04-25T08:54:32.992Z</time></trkpt><trkpt lat="42.534656830455184" lon="11.927697871227197"><ele>307.0</ele><time>2026-04-25T08:54:34.992Z</time></trkpt><trkpt lat="42.534607318471544" lon="11.927782747729044"><ele>307.0</ele><time>2026-04-25T08:54:36.992Z</time></trkpt><trkpt lat="42.53459868415175" lon="11.927895660244667"><ele>307.0</ele><time>2026-04-25T08:54:38.992Z</time></trkpt><trkpt lat="42.53457525519409" lon="11.92798102282066"><ele>307.0</ele><time>2026-04-25T08:54:40.992Z</time></trkpt><trkpt lat="42.534559527272535" lon="11.928100024129728"><ele>307.0</ele><time>2026-04-25T08:54:42.992Z</time></trkpt><trkpt lat="42.53454572677362" lon="11.928207716013425"><ele>307.0</ele><time>2026-04-25T08:54:44.992Z</time></trkpt><trkpt lat="42.53451793432745" lon="11.928308582509489"><ele>307.5</ele><time>2026-04-25T08:54:46.992Z</time></trkpt><trkpt lat="42.53450243485308" lon="11.928393742701667"><ele>308.0</ele><time>2026-04-25T08:54:48.992Z</time></trkpt><trkpt lat="42.53448989321841" lon="11.928485897153427"><ele>308.5</ele><time>2026-04-25T08:54:50.992Z</time></trkpt><trkpt lat="42.53447698340431" lon="11.928603391316631"><ele>309.0</ele><time>2026-04-25T08:54:53.992Z</time></trkpt><trkpt lat="42.534466665025526" lon="11.928697903847667"><ele>309.5</ele><time>2026-04-25T08:54:55.992Z</time></trkpt><trkpt lat="42.534453162963786" lon="11.928808578426022"><ele>310.0</ele><time>2026-04-25T08:54:57.992Z</time></trkpt><trkpt lat="42.53443663067615" lon="11.92891131593731"><ele>310.0</ele><time>2026-04-25T08:54:59.992Z</time></trkpt><trkpt lat="42.53441797778947" lon="11.929029357624245"><ele>310.0</ele><time>2026-04-25T08:55:01.992Z</time></trkpt><trkpt lat="42.534413463812484" lon="11.929160683368526"><ele>310.0</ele><time>2026-04-25T08:55:03.992Z</time></trkpt><trkpt lat="42.534376700177006" lon="11.92926189281182"><ele>310.0</ele><time>2026-04-25T08:55:05.991Z</time></trkpt><trkpt lat="42.53436012009587" lon="11.929363410882951"><ele>310.0</ele><time>2026-04-25T08:55:07.991Z</time></trkpt><trkpt lat="42.534358104449495" lon="11.92948114102522"><ele>310.0</ele><time>2026-04-25T08:55:09.991Z</time></trkpt><trkpt lat="42.534345737556286" lon="11.92960282111194"><ele>309.8</ele><time>2026-04-25T08:55:11.991Z</time></trkpt><trkpt lat="42.53432428774238" lon="11.929719787872864"><ele>309.6</ele><time>2026-04-25T08:55:13.991Z</time></trkpt><trkpt lat="42.53429526486727" lon="11.929844790134094"><ele>309.4</ele><time>2026-04-25T08:55:15.991Z</time></trkpt><trkpt lat="42.53429605916769" lon="11.929961559511854"><ele>309.2</ele><time>2026-04-25T08:55:17.991Z</time></trkpt><trkpt lat="42.534273453035944" lon="11.930080072313988"><ele>309.0</ele><time>2026-04-25T08:55:19.991Z</time></trkpt><trkpt lat="42.53425525231476" lon="11.930203187139881"><ele>308.6666666666667</ele><time>2026-04-25T08:55:21.991Z</time></trkpt><trkpt lat="42.53423990348133" lon="11.93031464512472"><ele>308.3333333333333</ele><time>2026-04-25T08:55:23.991Z</time></trkpt><trkpt lat="42.53421651802474" lon="11.930431893114"><ele>308.0</ele><time>2026-04-25T08:55:25.991Z</time></trkpt><trkpt lat="42.53420855309836" lon="11.930539580036646"><ele>307.66666666666663</ele><time>2026-04-25T08:55:27.991Z</time></trkpt><trkpt lat="42.534189009634765" lon="11.930641042437221"><ele>307.3333333333333</ele><time>2026-04-25T08:55:29.991Z</time></trkpt><trkpt lat="42.534144392469045" lon="11.93071357162544"><ele>307.0</ele><time>2026-04-25T08:55:31.991Z</time></trkpt><trkpt lat="42.53409449894284" lon="11.930788045046658"><ele>307.0</ele><time>2026-04-25T08:55:33.991Z</time></trkpt><trkpt lat="42.53405805779528" lon="11.9308824996322"><ele>307.0</ele><time>2026-04-25T08:55:35.991Z</time></trkpt><trkpt lat="42.534018271898915" lon="11.930975667631536"><ele>307.0</ele><time>2026-04-25T08:55:37.991Z</time></trkpt><trkpt lat="42.53396010054808" lon="11.931050737900271"><ele>307.0</ele><time>2026-04-25T08:55:39.991Z</time></trkpt><trkpt lat="42.53389263709439" lon="11.931106247481429"><ele>307.0</ele><time>2026-04-25T08:55:41.991Z</time></trkpt><trkpt lat="42.53380970350357" lon="11.931097128435255"><ele>307.0</ele><time>2026-04-25T08:55:43.991Z</time></trkpt><trkpt lat="42.53373114727152" lon="11.931047474703828"><ele>307.0</ele><time>2026-04-25T08:55:45.991Z</time></trkpt><trkpt lat="42.53365148394329" lon="11.930997318406964"><ele>307.0</ele><time>2026-04-25T08:55:47.991Z</time></trkpt><trkpt lat="42.53358478055558" lon="11.930924429361443"><ele>307.0</ele><time>2026-04-25T08:55:49.991Z</time></trkpt><trkpt lat="42.533515909023976" lon="11.930854511316557"><ele>307.0</ele><time>2026-04-25T08:55:51.991Z</time></trkpt><trkpt lat="42.53344616587303" lon="11.930789978158549"><ele>307.0</ele><time>2026-04-25T08:55:53.991Z</time></trkpt><trkpt lat="42.53337732373918" lon="11.930724830107494"><ele>307.0</ele><time>2026-04-25T08:55:55.99Z</time></trkpt><trkpt lat="42.53330410020138" lon="11.930658907213738"><ele>307.0</ele><time>2026-04-25T08:55:57.99Z</time></trkpt><trkpt lat="42.533240455061325" lon="11.930570068366292"><ele>307.0</ele><time>2026-04-25T08:55:59.99Z</time></trkpt><trkpt lat="42.53317572884044" lon="11.930502443825873"><ele>307.0</ele><time>2026-04-25T08:56:01.99Z</time></trkpt><trkpt lat="42.53311367722595" lon="11.930428613622338"><ele>307.0</ele><time>2026-04-25T08:56:03.99Z</time></trkpt><trkpt lat="42.53305610060741" lon="11.93035644585584"><ele>307.0</ele><time>2026-04-25T08:56:05.99Z</time></trkpt><trkpt lat="42.5329929364198" lon="11.93030138244498"><ele>307.0</ele><time>2026-04-25T08:56:09.99Z</time></trkpt><trkpt lat="42.53291103898495" lon="11.930356318666991"><ele>307.5</ele><time>2026-04-25T08:56:13.99Z</time></trkpt><trkpt lat="42.53286366656202" lon="11.930463258054735"><ele>308.0</ele><time>2026-04-25T08:56:15.99Z</time></trkpt><trkpt lat="42.53281408456534" lon="11.93055453786882"><ele>308.5</ele><time>2026-04-25T08:56:17.99Z</time></trkpt><trkpt lat="42.53276383103006" lon="11.930652693342203"><ele>309.0</ele><time>2026-04-25T08:56:19.99Z</time></trkpt><trkpt lat="42.53271414470058" lon="11.930749274983704"><ele>309.5</ele><time>2026-04-25T08:56:21.99Z</time></trkpt><trkpt lat="42.532666245783844" lon="11.93085452178546"><ele>310.0</ele><time>2026-04-25T08:56:23.99Z</time></trkpt><trkpt lat="42.53261340987894" lon="11.930960949382948"><ele>310.16666666666663</ele><time>2026-04-25T08:56:25.99Z</time></trkpt><trkpt lat="42.53255858719477" lon="11.931061857907633"><ele>310.3333333333333</ele><time>2026-04-25T08:56:27.99Z</time></trkpt><trkpt lat="42.5325109462171" lon="11.931160771279615"><ele>310.5</ele><time>2026-04-25T08:56:29.99Z</time></trkpt><trkpt lat="42.532461595453775" lon="11.931254838784298"><ele>310.6666666666667</ele><time>2026-04-25T08:56:31.99Z</time></trkpt><trkpt lat="42.53241460011234" lon="11.931358969450578"><ele>310.83333333333337</ele><time>2026-04-25T08:56:33.99Z</time></trkpt><trkpt lat="42.5323679629653" lon="11.93146112297428"><ele>311.0</ele><time>2026-04-25T08:56:35.99Z</time></trkpt><trkpt lat="42.53232299545175" lon="11.931551757845932"><ele>311.0</ele><time>2026-04-25T08:56:37.99Z</time></trkpt><trkpt lat="42.53228483238978" lon="11.931630730816158"><ele>311.0</ele><time>2026-04-25T08:56:39.99Z</time></trkpt><trkpt lat="42.532250422517976" lon="11.931730364739927"><ele>311.0</ele><time>2026-04-25T08:56:41.99Z</time></trkpt><trkpt lat="42.53220904915555" lon="11.93182046288351"><ele>311.0</ele><time>2026-04-25T08:56:43.989Z</time></trkpt><trkpt lat="42.53216060361912" lon="11.931905312527478"><ele>311.0</ele><time>2026-04-25T08:56:45.989Z</time></trkpt><trkpt lat="42.53213151457425" lon="11.931995471395748"><ele>311.0</ele><time>2026-04-25T08:56:47.989Z</time></trkpt><trkpt lat="42.53208629619873" lon="11.932084327307003"><ele>311.5</ele><time>2026-04-25T08:56:49.989Z</time></trkpt><trkpt lat="42.532054373153684" lon="11.932182836432586"><ele>312.0</ele><time>2026-04-25T08:56:51.989Z</time></trkpt><trkpt lat="42.53201946205287" lon="11.932282667839976"><ele>312.5</ele><time>2026-04-25T08:56:53.989Z</time></trkpt><trkpt lat="42.531970312629475" lon="11.93236847976359"><ele>313.0</ele><time>2026-04-25T08:56:55.989Z</time></trkpt><trkpt lat="42.53191434665286" lon="11.932446638965393"><ele>313.5</ele><time>2026-04-25T08:56:57.989Z</time></trkpt><trkpt lat="42.531875314698354" lon="11.93254118095986"><ele>314.0</ele><time>2026-04-25T08:56:59.989Z</time></trkpt><trkpt lat="42.53183742116108" lon="11.932639027790538"><ele>314.2857142857143</ele><time>2026-04-25T08:57:01.989Z</time></trkpt><trkpt lat="42.53180286548757" lon="11.932728142252776"><ele>314.57142857142856</ele><time>2026-04-25T08:57:03.989Z</time></trkpt><trkpt lat="42.53175673558081" lon="11.932805252537234"><ele>314.8571428571429</ele><time>2026-04-25T08:57:05.989Z</time></trkpt><trkpt lat="42.53172651376308" lon="11.93288992129732"><ele>315.1428571428571</ele><time>2026-04-25T08:57:07.989Z</time></trkpt><trkpt lat="42.531685699254915" lon="11.932967309508536"><ele>315.42857142857144</ele><time>2026-04-25T08:57:09.989Z</time></trkpt><trkpt lat="42.53164816171484" lon="11.933036162146077"><ele>315.7142857142857</ele><time>2026-04-25T08:57:11.989Z</time></trkpt><trkpt lat="42.53161724900704" lon="11.933113535053236"><ele>316.0</ele><time>2026-04-25T08:57:13.989Z</time></trkpt><trkpt lat="42.531583468423925" lon="11.933193750242385"><ele>316.0</ele><time>2026-04-25T08:57:15.989Z</time></trkpt><trkpt lat="42.53155418376874" lon="11.93326977092782"><ele>316.0</ele><time>2026-04-25T08:57:17.989Z</time></trkpt><trkpt lat="42.531515659676145" lon="11.933338999969626"><ele>316.0</ele><time>2026-04-25T08:57:19.989Z</time></trkpt><trkpt lat="42.531460307698104" lon="11.93344103391065"><ele>316.0</ele><time>2026-04-25T08:57:22.989Z</time></trkpt><trkpt lat="42.53142132768485" lon="11.9335433458618"><ele>316.0</ele><time>2026-04-25T08:57:25.989Z</time></trkpt><trkpt lat="42.531371221286655" lon="11.933637321322113"><ele>316.0</ele><time>2026-04-25T08:57:28.989Z</time></trkpt><trkpt lat="42.53133017205884" lon="11.933731640209308"><ele>316.16666666666663</ele><time>2026-04-25T08:57:31.989Z</time></trkpt><trkpt lat="42.53128787004525" lon="11.933835761617543"><ele>316.3333333333333</ele><time>2026-04-25T08:57:34.988Z</time></trkpt><trkpt lat="42.53123603396313" lon="11.933934544987773"><ele>316.5</ele><time>2026-04-25T08:57:37.988Z</time></trkpt><trkpt lat="42.531197154502784" lon="11.934035683341234"><ele>316.6666666666667</ele><time>2026-04-25T08:57:40.988Z</time></trkpt><trkpt lat="42.53114837175942" lon="11.934143984654552"><ele>316.83333333333337</ele><time>2026-04-25T08:57:43.988Z</time></trkpt><trkpt lat="42.53110318952625" lon="11.934253364227871"><ele>317.0</ele><time>2026-04-25T08:57:46.988Z</time></trkpt><trkpt lat="42.53105764636822" lon="11.934316102230897"><ele>317.6666666666667</ele><time>2026-04-25T08:57:48.988Z</time></trkpt><trkpt lat="42.531003933682676" lon="11.934413994619788"><ele>318.33333333333337</ele><time>2026-04-25T08:57:51.988Z</time></trkpt><trkpt lat="42.53096198558801" lon="11.934479411120394"><ele>319.0</ele><time>2026-04-25T08:57:53.988Z</time></trkpt><trkpt lat="42.530913352115604" lon="11.934581466065373"><ele>319.6666666666667</ele><time>2026-04-25T08:57:56.988Z</time></trkpt><trkpt lat="42.5308685948688" lon="11.934669871057327"><ele>320.3333333333333</ele><time>2026-04-25T08:57:59.988Z</time></trkpt><trkpt lat="42.53082109813618" lon="11.934761305464058"><ele>321.0</ele><time>2026-04-25T08:58:02.988Z</time></trkpt><trkpt lat="42.53077308599548" lon="11.934853197710165"><ele>321.0</ele><time>2026-04-25T08:58:05.988Z</time></trkpt><trkpt lat="42.53072562515008" lon="11.934944460592266"><ele>321.0</ele><time>2026-04-25T08:58:08.988Z</time></trkpt><trkpt lat="42.530679172233974" lon="11.935035725030625"><ele>321.0</ele><time>2026-04-25T08:58:11.988Z</time></trkpt><trkpt lat="42.530644424052134" lon="11.935124854202007"><ele>321.0</ele><time>2026-04-25T08:58:14.988Z</time></trkpt><trkpt lat="42.53059192559935" lon="11.93521303832821"><ele>321.0</ele><time>2026-04-25T08:58:17.988Z</time></trkpt><trkpt lat="42.53054805532743" lon="11.935311430284914"><ele>321.0</ele><time>2026-04-25T08:58:20.988Z</time></trkpt><trkpt lat="42.53050198546819" lon="11.935397255420627"><ele>321.2857142857143</ele><time>2026-04-25T08:58:23.987Z</time></trkpt><trkpt lat="42.53047751933229" lon="11.935477342231147"><ele>321.57142857142856</ele><time>2026-04-25T08:58:25.987Z</time></trkpt><trkpt lat="42.53042276610612" lon="11.93556083567997"><ele>321.8571428571429</ele><time>2026-04-25T08:58:28.987Z</time></trkpt><trkpt lat="42.5303864871056" lon="11.935652385147698"><ele>322.1428571428571</ele><time>2026-04-25T08:58:31.987Z</time></trkpt><trkpt lat="42.5303559361782" lon="11.935738647732174"><ele>322.42857142857144</ele><time>2026-04-25T08:58:34.987Z</time></trkpt><trkpt lat="42.53031706604156" lon="11.93582194424193"><ele>322.7142857142857</ele><time>2026-04-25T08:58:37.987Z</time></trkpt><trkpt lat="42.530287878337724" lon="11.935898000353257"><ele>323.0</ele><time>2026-04-25T08:58:40.987Z</time></trkpt><trkpt lat="42.530250034029315" lon="11.935984529645664"><ele>323.42857142857144</ele><time>2026-04-25T08:58:44.987Z</time></trkpt><trkpt lat="42.530210706859165" lon="11.936072710655205"><ele>323.8571428571429</ele><time>2026-04-25T08:58:48.987Z</time></trkpt><trkpt lat="42.53016380263589" lon="11.936150052228287"><ele>324.28571428571433</ele><time>2026-04-25T08:58:52.987Z</time></trkpt><trkpt lat="42.53012364951509" lon="11.936232546660833"><ele>324.7142857142857</ele><time>2026-04-25T08:58:56.987Z</time></trkpt><trkpt lat="42.53008448524324" lon="11.936321943454733"><ele>325.1428571428571</ele><time>2026-04-25T08:59:00.987Z</time></trkpt><trkpt lat="42.53003702483096" lon="11.936404481724733"><ele>325.5714285714286</ele><time>2026-04-25T08:59:04.987Z</time></trkpt><trkpt lat="42.529997827606906" lon="11.93648523052263"><ele>326.0</ele><time>2026-04-25T08:59:08.987Z</time></trkpt><trkpt lat="42.52995712569005" lon="11.936569926726703"><ele>326.0</ele><time>2026-04-25T08:59:12.986Z</time></trkpt><trkpt lat="42.52991936334115" lon="11.93666113559502"><ele>326.0</ele><time>2026-04-25T08:59:16.986Z</time></trkpt><trkpt lat="42.52987533807518" lon="11.936743189094372"><ele>326.0</ele><time>2026-04-25T08:59:20.986Z</time></trkpt><trkpt lat="42.529832430901365" lon="11.936823436218509"><ele>326.0</ele><time>2026-04-25T08:59:24.986Z</time></trkpt><trkpt lat="42.529792874685924" lon="11.936917178543967"><ele>326.0</ele><time>2026-04-25T08:59:28.986Z</time></trkpt><trkpt lat="42.52975653037927" lon="11.936994585715999"><ele>326.0</ele><time>2026-04-25T08:59:31.986Z</time></trkpt><trkpt lat="42.529704340395575" lon="11.937073850951247"><ele>326.0</ele><time>2026-04-25T08:59:35.986Z</time></trkpt><trkpt lat="42.52966657372762" lon="11.9371651491967"><ele>326.0</ele><time>2026-04-25T08:59:38.986Z</time></trkpt><trkpt lat="42.52962782036241" lon="11.937235266751227"><ele>326.0</ele><time>2026-04-25T08:59:41.986Z</time></trkpt><trkpt lat="42.52958884578277" lon="11.93733224052313"><ele>326.0</ele><time>2026-04-25T08:59:44.986Z</time></trkpt><trkpt lat="42.52955299188543" lon="11.937408770302524"><ele>326.0</ele><time>2026-04-25T08:59:47.986Z</time></trkpt><trkpt lat="42.529512144325324" lon="11.93748569147532"><ele>326.0</ele><time>2026-04-25T08:59:50.986Z</time></trkpt><trkpt lat="42.52947107688004" lon="11.937566277095849"><ele>326.0</ele><time>2026-04-25T08:59:53.986Z</time></trkpt><trkpt lat="42.52942886678588" lon="11.93764434554443"><ele>327.14285714285717</ele><time>2026-04-25T08:59:56.986Z</time></trkpt><trkpt lat="42.52938769584684" lon="11.937710561891782"><ele>328.2857142857143</ele><time>2026-04-25T08:59:59.985Z</time></trkpt><trkpt lat="42.529346514043624" lon="11.937785589345083"><ele>329.42857142857144</ele><time>2026-04-25T09:00:02.985Z</time></trkpt><trkpt lat="42.529307591129324" lon="11.937856982197342"><ele>330.57142857142856</ele><time>2026-04-25T09:00:05.985Z</time></trkpt><trkpt lat="42.52927191525002" lon="11.937930205710336"><ele>331.7142857142857</ele><time>2026-04-25T09:00:08.985Z</time></trkpt><trkpt lat="42.52923181454434" lon="11.938016629507683"><ele>332.85714285714283</ele><time>2026-04-25T09:00:12.985Z</time></trkpt><trkpt lat="42.52918615835499" lon="11.938099297511679"><ele>334.0</ele><time>2026-04-25T09:00:16.985Z</time></trkpt><trkpt lat="42.52914531167677" lon="11.938194335021583"><ele>334.0</ele><time>2026-04-25T09:00:20.985Z</time></trkpt><trkpt lat="42.52911051506031" lon="11.93828581517453"><ele>334.0</ele><time>2026-04-25T09:00:24.985Z</time></trkpt><trkpt lat="42.52907367396523" lon="11.938381678111341"><ele>334.0</ele><time>2026-04-25T09:00:28.985Z</time></trkpt><trkpt lat="42.52904946484295" lon="11.938473168056936"><ele>334.0</ele><time>2026-04-25T09:00:32.985Z</time></trkpt><trkpt lat="42.52901971790726" lon="11.938554562888706"><ele>334.0</ele><time>2026-04-25T09:00:35.985Z</time></trkpt><trkpt lat="42.52898912001554" lon="11.938658227788888"><ele>334.0</ele><time>2026-04-25T09:00:39.985Z</time></trkpt><trkpt lat="42.528961455419825" lon="11.93873528674312"><ele>334.0</ele><time>2026-04-25T09:00:42.985Z</time></trkpt><trkpt lat="42.52891917507007" lon="11.938837407209682"><ele>334.42857142857144</ele><time>2026-04-25T09:00:46.985Z</time></trkpt><trkpt lat="42.52886792591073" lon="11.938919488468532"><ele>334.8571428571429</ele><time>2026-04-25T09:00:48.985Z</time></trkpt><trkpt lat="42.52881257138876" lon="11.938960301092429"><ele>335.28571428571433</ele><time>2026-04-25T09:00:52.984Z</time></trkpt><trkpt lat="42.5287392574398" lon="11.938981112727278"><ele>335.7142857142857</ele><time>2026-04-25T09:00:56.984Z</time></trkpt><trkpt lat="42.52867600571867" lon="11.939004523932526"><ele>336.14285714285717</ele><time>2026-04-25T09:01:03.984Z</time></trkpt><trkpt lat="42.52860765545204" lon="11.939031829019926"><ele>336.5714285714286</ele><time>2026-04-25T09:01:14.984Z</time></trkpt><trkpt lat="42.52855374060455" lon="11.939077568649855"><ele>337.0</ele><time>2026-04-25T09:01:16.984Z</time></trkpt><trkpt lat="42.528549762560196" lon="11.939187188615506"><ele>337.7142857142857</ele><time>2026-04-25T09:01:18.984Z</time></trkpt><trkpt lat="42.528553402195996" lon="11.93929478997358"><ele>338.42857142857144</ele><time>2026-04-25T09:01:20.984Z</time></trkpt><trkpt lat="42.52854866572469" lon="11.939387388312827"><ele>339.1428571428571</ele><time>2026-04-25T09:01:22.984Z</time></trkpt><trkpt lat="42.52855143960758" lon="11.939482527913402"><ele>339.8571428571429</ele><time>2026-04-25T09:01:24.984Z</time></trkpt><trkpt lat="42.528546484764945" lon="11.939586832394909"><ele>340.57142857142856</ele><time>2026-04-25T09:01:26.984Z</time></trkpt><trkpt lat="42.52854243848454" lon="11.93967915886337"><ele>341.2857142857143</ele><time>2026-04-25T09:01:28.984Z</time></trkpt><trkpt lat="42.5285361505531" lon="11.939783186623124"><ele>342.0</ele><time>2026-04-25T09:01:30.984Z</time></trkpt><trkpt lat="42.52852706734174" lon="11.939879155773758"><ele>342.0</ele><time>2026-04-25T09:01:32.984Z</time></trkpt><trkpt lat="42.528514392336" lon="11.939974414350443"><ele>342.0</ele><time>2026-04-25T09:01:34.984Z</time></trkpt><trkpt lat="42.528508531337195" lon="11.940071458749134"><ele>342.0</ele><time>2026-04-25T09:01:36.984Z</time></trkpt><trkpt lat="42.52849433825765" lon="11.940199667929422"><ele>342.0</ele><time>2026-04-25T09:01:39.983Z</time></trkpt><trkpt lat="42.52847740951261" lon="11.940284589784351"><ele>342.0</ele><time>2026-04-25T09:01:41.983Z</time></trkpt><trkpt lat="42.52845242802955" lon="11.940406904058683"><ele>342.0</ele><time>2026-04-25T09:01:44.983Z</time></trkpt><trkpt lat="42.52842751863189" lon="11.940526132562853"><ele>342.3333333333333</ele><time>2026-04-25T09:01:47.983Z</time></trkpt><trkpt lat="42.52839685616342" lon="11.94063637116856"><ele>342.6666666666667</ele><time>2026-04-25T09:01:50.983Z</time></trkpt><trkpt lat="42.52835868218053" lon="11.940730656915047"><ele>343.0</ele><time>2026-04-25T09:01:53.983Z</time></trkpt><trkpt lat="42.52832420987866" lon="11.940830850146728"><ele>343.33333333333337</ele><time>2026-04-25T09:01:56.983Z</time></trkpt><trkpt lat="42.52829722542691" lon="11.940919144602693"><ele>343.6666666666667</ele><time>2026-04-25T09:01:59.983Z</time></trkpt><trkpt lat="42.52826662531221" lon="11.941010228615063"><ele>344.0</ele><time>2026-04-25T09:02:02.983Z</time></trkpt><trkpt lat="42.528231803084765" lon="11.941102452383744"><ele>344.0</ele><time>2026-04-25T09:02:05.983Z</time></trkpt><trkpt lat="42.52820261072664" lon="11.941192418724956"><ele>344.0</ele><time>2026-04-25T09:02:08.983Z</time></trkpt><trkpt lat="42.52816964560711" lon="11.94130227335227"><ele>344.0</ele><time>2026-04-25T09:02:11.983Z</time></trkpt><trkpt lat="42.52812445634098" lon="11.941396046030903"><ele>344.0</ele><time>2026-04-25T09:02:14.983Z</time></trkpt><trkpt lat="42.528084471369766" lon="11.941495978798166"><ele>344.0</ele><time>2026-04-25T09:02:17.983Z</time></trkpt><trkpt lat="42.52805059224353" lon="11.941602044303712"><ele>344.0</ele><time>2026-04-25T09:02:20.983Z</time></trkpt><trkpt lat="42.528013801005685" lon="11.941672005337644"><ele>344.5</ele><time>2026-04-25T09:02:22.983Z</time></trkpt><trkpt lat="42.52796620981091" lon="11.941770464185264"><ele>345.0</ele><time>2026-04-25T09:02:25.983Z</time></trkpt><trkpt lat="42.52791870481757" lon="11.94187431525082"><ele>345.5</ele><time>2026-04-25T09:02:28.982Z</time></trkpt><trkpt lat="42.52787737397327" lon="11.941974902207765"><ele>346.0</ele><time>2026-04-25T09:02:31.982Z</time></trkpt><trkpt lat="42.527832900932935" lon="11.942075228154998"><ele>346.5</ele><time>2026-04-25T09:02:34.982Z</time></trkpt><trkpt lat="42.52779382682089" lon="11.942170252837435"><ele>347.0</ele><time>2026-04-25T09:02:37.982Z</time></trkpt><trkpt lat="42.52775005258674" lon="11.942272514464488"><ele>347.33333333333337</ele><time>2026-04-25T09:02:40.982Z</time></trkpt><trkpt lat="42.52770667242979" lon="11.942367432889904"><ele>347.6666666666667</ele><time>2026-04-25T09:02:43.982Z</time></trkpt><trkpt lat="42.5276629689865" lon="11.942462038070214"><ele>348.0</ele><time>2026-04-25T09:02:46.982Z</time></trkpt><trkpt lat="42.52762461674778" lon="11.94256136074796"><ele>348.3333333333333</ele><time>2026-04-25T09:02:49.982Z</time></trkpt><trkpt lat="42.52758252595461" lon="11.942645359070282"><ele>348.66666666666663</ele><time>2026-04-25T09:02:52.982Z</time></trkpt><trkpt lat="42.527529773579886" lon="11.942726045358658"><ele>349.0</ele><time>2026-04-25T09:02:55.982Z</time></trkpt><trkpt lat="42.52750181954094" lon="11.942821150740073"><ele>349.16666666666663</ele><time>2026-04-25T09:02:58.982Z</time></trkpt><trkpt lat="42.527453978762985" lon="11.942926049918784"><ele>349.3333333333333</ele><time>2026-04-25T09:03:01.982Z</time></trkpt><trkpt lat="42.52741225241456" lon="11.943027691890688"><ele>349.5</ele><time>2026-04-25T09:03:04.982Z</time></trkpt><trkpt lat="42.52737118356569" lon="11.943131946838973"><ele>349.6666666666667</ele><time>2026-04-25T09:03:07.982Z</time></trkpt><trkpt lat="42.52732307245755" lon="11.943237750259321"><ele>349.83333333333337</ele><time>2026-04-25T09:03:10.982Z</time></trkpt><trkpt lat="42.52727675274138" lon="11.943341330205703"><ele>350.0</ele><time>2026-04-25T09:03:13.982Z</time></trkpt><trkpt lat="42.527249219704395" lon="11.943423464584471"><ele>350.33333333333337</ele><time>2026-04-25T09:03:15.982Z</time></trkpt><trkpt lat="42.527201194464425" lon="11.943506630720613"><ele>350.6666666666667</ele><time>2026-04-25T09:03:18.981Z</time></trkpt><trkpt lat="42.52715485628494" lon="11.943601097130186"><ele>351.0</ele><time>2026-04-25T09:03:21.981Z</time></trkpt><trkpt lat="42.52710905198897" lon="11.943709496531014"><ele>351.3333333333333</ele><time>2026-04-25T09:03:24.981Z</time></trkpt><trkpt lat="42.52707017440569" lon="11.943794310129876"><ele>351.66666666666663</ele><time>2026-04-25T09:03:27.981Z</time></trkpt><trkpt lat="42.52703069366349" lon="11.943896132029293"><ele>352.0</ele><time>2026-04-25T09:03:30.981Z</time></trkpt><trkpt lat="42.526982849465824" lon="11.943999518208997"><ele>352.3333333333333</ele><time>2026-04-25T09:03:33.981Z</time></trkpt><trkpt lat="42.52693377279782" lon="11.944105465122473"><ele>352.66666666666663</ele><time>2026-04-25T09:03:36.981Z</time></trkpt><trkpt lat="42.52688634477782" lon="11.944202897634868"><ele>353.0</ele><time>2026-04-25T09:03:39.981Z</time></trkpt><trkpt lat="42.526831677939576" lon="11.94429498570196"><ele>353.3333333333333</ele><time>2026-04-25T09:03:42.981Z</time></trkpt><trkpt lat="42.52677846885756" lon="11.944393215462101"><ele>353.6666666666667</ele><time>2026-04-25T09:03:45.981Z</time></trkpt><trkpt lat="42.52672609323576" lon="11.94448595504918"><ele>354.0</ele><time>2026-04-25T09:03:48.981Z</time></trkpt><trkpt lat="42.526678655792225" lon="11.944584722049363"><ele>354.1666666666667</ele><time>2026-04-25T09:03:51.981Z</time></trkpt><trkpt lat="42.5266437375186" lon="11.94465885109334"><ele>354.3333333333333</ele><time>2026-04-25T09:03:53.981Z</time></trkpt><trkpt lat="42.52659115593024" lon="11.94476774181161"><ele>354.5</ele><time>2026-04-25T09:03:56.981Z</time></trkpt><trkpt lat="42.52653315979518" lon="11.944867649317333"><ele>354.66666666666663</ele><time>2026-04-25T09:03:59.981Z</time></trkpt><trkpt lat="42.52648923376861" lon="11.944969639171317"><ele>354.8333333333333</ele><time>2026-04-25T09:04:02.981Z</time></trkpt><trkpt lat="42.52643447212391" lon="11.945067998182994"><ele>355.0</ele><time>2026-04-25T09:04:05.98Z</time></trkpt><trkpt lat="42.52639843570294" lon="11.9451426028567"><ele>355.0</ele><time>2026-04-25T09:04:07.98Z</time></trkpt><trkpt lat="42.52636449374324" lon="11.94521691119177"><ele>355.0</ele><time>2026-04-25T09:04:09.98Z</time></trkpt><trkpt lat="42.52632484639125" lon="11.945294197173107"><ele>355.0</ele><time>2026-04-25T09:04:11.98Z</time></trkpt><trkpt lat="42.52628354659236" lon="11.945365945009017"><ele>355.0</ele><time>2026-04-25T09:04:13.98Z</time></trkpt><trkpt lat="42.52624348493314" lon="11.94544161703073"><ele>355.0</ele><time>2026-04-25T09:04:15.98Z</time></trkpt><trkpt lat="42.52620481276194" lon="11.945517978899208"><ele>355.0</ele><time>2026-04-25T09:04:17.98Z</time></trkpt><trkpt lat="42.52616657742215" lon="11.94560074538597"><ele>355.0</ele><time>2026-04-25T09:04:19.98Z</time></trkpt><trkpt lat="42.526107626020554" lon="11.94570863067231"><ele>355.0</ele><time>2026-04-25T09:04:22.98Z</time></trkpt><trkpt lat="42.52607034246674" lon="11.945782498704279"><ele>355.0</ele><time>2026-04-25T09:04:24.98Z</time></trkpt><trkpt lat="42.52603342902731" lon="11.945861857914549"><ele>355.0</ele><time>2026-04-25T09:04:26.98Z</time></trkpt><trkpt lat="42.52597620732085" lon="11.945971036034651"><ele>355.0</ele><time>2026-04-25T09:04:29.98Z</time></trkpt><trkpt lat="42.52594286624033" lon="11.94606366742742"><ele>355.0</ele><time>2026-04-25T09:04:31.98Z</time></trkpt><trkpt lat="42.52590600033054" lon="11.946158811795556"><ele>355.0</ele><time>2026-04-25T09:04:33.98Z</time></trkpt><trkpt lat="42.525860075377366" lon="11.946229969082589"><ele>355.1428571428571</ele><time>2026-04-25T09:04:35.98Z</time></trkpt><trkpt lat="42.52580681121427" lon="11.946336326492094"><ele>355.2857142857143</ele><time>2026-04-25T09:04:38.98Z</time></trkpt><trkpt lat="42.52576252390484" lon="11.946436163434411"><ele>355.42857142857144</ele><time>2026-04-25T09:04:41.98Z</time></trkpt><trkpt lat="42.52572678222355" lon="11.946514281005355"><ele>355.57142857142856</ele><time>2026-04-25T09:04:43.98Z</time></trkpt><trkpt lat="42.525691257499105" lon="11.946587617458045"><ele>355.7142857142857</ele><time>2026-04-25T09:04:45.98Z</time></trkpt><trkpt lat="42.52566159975086" lon="11.946664792395497"><ele>355.85714285714283</ele><time>2026-04-25T09:04:47.98Z</time></trkpt><trkpt lat="42.525626375222636" lon="11.946738930993316"><ele>356.0</ele><time>2026-04-25T09:04:49.98Z</time></trkpt><trkpt lat="42.525586797050515" lon="11.94681797187396"><ele>356.1666666666667</ele><time>2026-04-25T09:04:51.98Z</time></trkpt><trkpt lat="42.52555432710171" lon="11.946897778491294"><ele>356.33333333333337</ele><time>2026-04-25T09:04:53.98Z</time></trkpt><trkpt lat="42.52551541639785" lon="11.946971891587262"><ele>356.5</ele><time>2026-04-25T09:04:55.979Z</time></trkpt><trkpt lat="42.52548189803325" lon="11.947050842234615"><ele>356.6666666666667</ele><time>2026-04-25T09:04:57.979Z</time></trkpt><trkpt lat="42.52543950946454" lon="11.947162686883837"><ele>356.8333333333333</ele><time>2026-04-25T09:05:00.979Z</time></trkpt><trkpt lat="42.52540719383243" lon="11.947240066236741"><ele>357.0</ele><time>2026-04-25T09:05:02.979Z</time></trkpt><trkpt lat="42.525362519590054" lon="11.947347810583812"><ele>357.0</ele><time>2026-04-25T09:05:05.979Z</time></trkpt><trkpt lat="42.52533230210166" lon="11.947424168394544"><ele>357.0</ele><time>2026-04-25T09:05:07.979Z</time></trkpt><trkpt lat="42.52529064774544" lon="11.947538172591603"><ele>357.0</ele><time>2026-04-25T09:05:10.979Z</time></trkpt><trkpt lat="42.52524769307763" lon="11.947652582432502"><ele>357.0</ele><time>2026-04-25T09:05:13.979Z</time></trkpt><trkpt lat="42.52520306511939" lon="11.947771221000293"><ele>357.0</ele><time>2026-04-25T09:05:16.979Z</time></trkpt><trkpt lat="42.52517534786228" lon="11.947854060621715"><ele>357.0</ele><time>2026-04-25T09:05:18.979Z</time></trkpt><trkpt lat="42.52514227854366" lon="11.947929800008184"><ele>357.57142857142856</ele><time>2026-04-25T09:05:20.979Z</time></trkpt><trkpt lat="42.52511218669682" lon="11.948017230628082"><ele>358.1428571428571</ele><time>2026-04-25T09:05:22.979Z</time></trkpt><trkpt lat="42.525080616930744" lon="11.948100368349795"><ele>358.7142857142857</ele><time>2026-04-25T09:05:24.979Z</time></trkpt><trkpt lat="42.525050230203625" lon="11.948185430653504"><ele>359.2857142857143</ele><time>2026-04-25T09:05:26.979Z</time></trkpt><trkpt lat="42.52502261241746" lon="11.94826947428593"><ele>359.85714285714283</ele><time>2026-04-25T09:05:28.979Z</time></trkpt><trkpt lat="42.524996021655724" lon="11.948360563443902"><ele>360.42857142857144</ele><time>2026-04-25T09:05:30.979Z</time></trkpt><trkpt lat="42.524968232816434" lon="11.948446794486143"><ele>361.0</ele><time>2026-04-25T09:05:32.979Z</time></trkpt><trkpt lat="42.524939780797226" lon="11.948527193143065"><ele>361.0</ele><time>2026-04-25T09:05:34.979Z</time></trkpt><trkpt lat="42.5249095355482" lon="11.948611935048323"><ele>361.0</ele><time>2026-04-25T09:05:36.979Z</time></trkpt><trkpt lat="42.5248843826114" lon="11.948701013560777"><ele>361.0</ele><time>2026-04-25T09:05:38.979Z</time></trkpt><trkpt lat="42.52484260067408" lon="11.948818599422797"><ele>361.0</ele><time>2026-04-25T09:05:41.979Z</time></trkpt><trkpt lat="42.52482022305504" lon="11.948900174055378"><ele>361.0</ele><time>2026-04-25T09:05:43.978Z</time></trkpt><trkpt lat="42.52478357697547" lon="11.949016323301333"><ele>361.0</ele><time>2026-04-25T09:05:46.978Z</time></trkpt><trkpt lat="42.52475292275772" lon="11.949125513833659"><ele>361.3333333333333</ele><time>2026-04-25T09:05:49.978Z</time></trkpt><trkpt lat="42.524719442808205" lon="11.94922493727668"><ele>361.66666666666663</ele><time>2026-04-25T09:05:52.978Z</time></trkpt><trkpt lat="42.52467515830503" lon="11.949319155738097"><ele>362.0</ele><time>2026-04-25T09:05:55.978Z</time></trkpt><trkpt lat="42.52464923947696" lon="11.949403581319247"><ele>362.3333333333333</ele><time>2026-04-25T09:05:58.978Z</time></trkpt><trkpt lat="42.52462129947892" lon="11.94949448166616"><ele>362.6666666666667</ele><time>2026-04-25T09:06:01.978Z</time></trkpt><trkpt lat="42.524598193983934" lon="11.94957656881803"><ele>363.0</ele><time>2026-04-25T09:06:04.978Z</time></trkpt><trkpt lat="42.52455807522906" lon="11.949674276212473"><ele>363.57142857142856</ele><time>2026-04-25T09:06:07.978Z</time></trkpt><trkpt lat="42.52452983903853" lon="11.949771581591655"><ele>364.1428571428571</ele><time>2026-04-25T09:06:10.978Z</time></trkpt><trkpt lat="42.52450547916462" lon="11.949857471810239"><ele>364.71428571428567</ele><time>2026-04-25T09:06:13.978Z</time></trkpt><trkpt lat="42.52447807132458" lon="11.949942016703012"><ele>365.2857142857143</ele><time>2026-04-25T09:06:16.978Z</time></trkpt><trkpt lat="42.52444631664568" lon="11.950030662017914"><ele>365.8571428571429</ele><time>2026-04-25T09:06:19.978Z</time></trkpt><trkpt lat="42.52442541421543" lon="11.950120316345986"><ele>366.4285714285714</ele><time>2026-04-25T09:06:22.978Z</time></trkpt><trkpt lat="42.52440137534328" lon="11.950215188486412"><ele>367.0</ele><time>2026-04-25T09:06:25.978Z</time></trkpt><trkpt lat="42.52437356352849" lon="11.950304350600785"><ele>367.0</ele><time>2026-04-25T09:06:28.978Z</time></trkpt><trkpt lat="42.524353707281975" lon="11.95039840141289"><ele>367.0</ele><time>2026-04-25T09:06:31.978Z</time></trkpt><trkpt lat="42.524338471983455" lon="11.950507603448283"><ele>367.0</ele><time>2026-04-25T09:06:34.977Z</time></trkpt><trkpt lat="42.52431168301292" lon="11.950599443824087"><ele>367.0</ele><time>2026-04-25T09:06:37.977Z</time></trkpt><trkpt lat="42.52429054640571" lon="11.950689269153965"><ele>367.0</ele><time>2026-04-25T09:06:40.977Z</time></trkpt><trkpt lat="42.52427786984066" lon="11.950806443891649"><ele>367.0</ele><time>2026-04-25T09:06:43.977Z</time></trkpt><trkpt lat="42.524232721381026" lon="11.950897505237663"><ele>367.0</ele><time>2026-04-25T09:06:46.977Z</time></trkpt><trkpt lat="42.52422609750187" lon="11.951010021623535"><ele>367.0</ele><time>2026-04-25T09:06:49.977Z</time></trkpt><trkpt lat="42.5242187231004" lon="11.95114006203838"><ele>367.0</ele><time>2026-04-25T09:06:52.977Z</time></trkpt><trkpt lat="42.524196597116465" lon="11.951240003601148"><ele>367.0</ele><time>2026-04-25T09:06:55.977Z</time></trkpt><trkpt lat="42.52417663682022" lon="11.951340855710201"><ele>367.0</ele><time>2026-04-25T09:06:58.977Z</time></trkpt><trkpt lat="42.5241567908415" lon="11.951449975963271"><ele>367.0</ele><time>2026-04-25T09:07:01.977Z</time></trkpt><trkpt lat="42.52413412709624" lon="11.951557584246396"><ele>367.0</ele><time>2026-04-25T09:07:04.977Z</time></trkpt><trkpt lat="42.52411689964648" lon="11.951673060612634"><ele>367.0</ele><time>2026-04-25T09:07:07.977Z</time></trkpt><trkpt lat="42.524100736657076" lon="11.951784589366426"><ele>367.0</ele><time>2026-04-25T09:07:10.977Z</time></trkpt><trkpt lat="42.524083779135104" lon="11.951903804847564"><ele>367.0</ele><time>2026-04-25T09:07:13.977Z</time></trkpt><trkpt lat="42.52407200790295" lon="11.952026026682134"><ele>367.0</ele><time>2026-04-25T09:07:16.977Z</time></trkpt><trkpt lat="42.52406039622468" lon="11.952149084555804"><ele>367.0</ele><time>2026-04-25T09:07:19.977Z</time></trkpt><trkpt lat="42.52404761422278" lon="11.952272107098265"><ele>367.2857142857143</ele><time>2026-04-25T09:07:22.976Z</time></trkpt><trkpt lat="42.52404048952496" lon="11.952357451468302"><ele>367.5714285714286</ele><time>2026-04-25T09:07:24.976Z</time></trkpt><trkpt lat="42.5240329993706" lon="11.952479068690351"><ele>367.8571428571429</ele><time>2026-04-25T09:07:27.976Z</time></trkpt><trkpt lat="42.5240293657" lon="11.952569635574468"><ele>368.1428571428571</ele><time>2026-04-25T09:07:29.976Z</time></trkpt><trkpt lat="42.52402704624917" lon="11.952684338519365"><ele>368.42857142857144</ele><time>2026-04-25T09:07:32.976Z</time></trkpt><trkpt lat="42.52402024540313" lon="11.952776550731365"><ele>368.7142857142857</ele><time>2026-04-25T09:07:34.976Z</time></trkpt><trkpt lat="42.52402526420408" lon="11.952863051653381"><ele>369.0</ele><time>2026-04-25T09:07:36.976Z</time></trkpt><trkpt lat="42.524032422308025" lon="11.952951294949592"><ele>369.1666666666667</ele><time>2026-04-25T09:07:38.976Z</time></trkpt><trkpt lat="42.52404188814045" lon="11.953076647709228"><ele>369.3333333333333</ele><time>2026-04-25T09:07:41.976Z</time></trkpt><trkpt lat="42.52404899724145" lon="11.95319864660564"><ele>369.5</ele><time>2026-04-25T09:07:44.976Z</time></trkpt><trkpt lat="42.52405804586147" lon="11.95331740046198"><ele>369.66666666666663</ele><time>2026-04-25T09:07:47.976Z</time></trkpt><trkpt lat="42.52406790424101" lon="11.953426356999605"><ele>369.8333333333333</ele><time>2026-04-25T09:07:50.976Z</time></trkpt><trkpt lat="42.524077932087415" lon="11.953527289565965"><ele>370.0</ele><time>2026-04-25T09:07:53.976Z</time></trkpt><trkpt lat="42.524088944248234" lon="11.953635003672332"><ele>370.5</ele><time>2026-04-25T09:07:56.976Z</time></trkpt><trkpt lat="42.524103590026385" lon="11.953746870926805"><ele>371.0</ele><time>2026-04-25T09:07:59.996Z</time></trkpt><trkpt lat="42.52411701530255" lon="11.953848336564404"><ele>371.5</ele><time>2026-04-25T09:08:02.995Z</time></trkpt><trkpt lat="42.52412837902064" lon="11.953953033987014"><ele>372.0</ele><time>2026-04-25T09:08:05.995Z</time></trkpt><trkpt lat="42.524139112831485" lon="11.954055728852763"><ele>372.5</ele><time>2026-04-25T09:08:08.995Z</time></trkpt><trkpt lat="42.524148756263635" lon="11.954150414053059"><ele>373.0</ele><time>2026-04-25T09:08:11.995Z</time></trkpt><trkpt lat="42.52415839415789" lon="11.954240715793992"><ele>373.7142857142857</ele><time>2026-04-25T09:08:14.995Z</time></trkpt><trkpt lat="42.52415087388135" lon="11.954346898269366"><ele>374.42857142857144</ele><time>2026-04-25T09:08:17.995Z</time></trkpt><trkpt lat="42.524168039520845" lon="11.954453320595045"><ele>375.1428571428571</ele><time>2026-04-25T09:08:21.995Z</time></trkpt><trkpt lat="42.52417286050642" lon="11.954539625741218"><ele>375.8571428571429</ele><time>2026-04-25T09:08:24.995Z</time></trkpt><trkpt lat="42.52417792840948" lon="11.954658587361106"><ele>376.57142857142856</ele><time>2026-04-25T09:08:28.995Z</time></trkpt><trkpt lat="42.52417412402322" lon="11.954746901604498"><ele>377.2857142857143</ele><time>2026-04-25T09:08:31.995Z</time></trkpt><trkpt lat="42.52417825469286" lon="11.954843147375716"><ele>378.0</ele><time>2026-04-25T09:08:34.995Z</time></trkpt><trkpt lat="42.52417268410929" lon="11.954931038656522"><ele>378.42857142857144</ele><time>2026-04-25T09:08:37.995Z</time></trkpt><trkpt lat="42.52417281269508" lon="11.95504384173233"><ele>378.8571428571429</ele><time>2026-04-25T09:08:41.995Z</time></trkpt><trkpt lat="42.52415965005638" lon="11.955129759103482"><ele>379.2857142857143</ele><time>2026-04-25T09:08:44.996Z</time></trkpt><trkpt lat="42.52415057440014" lon="11.955241571795435"><ele>379.7142857142857</ele><time>2026-04-25T09:08:48.996Z</time></trkpt><trkpt lat="42.52413265526722" lon="11.955329613842478"><ele>380.14285714285717</ele><time>2026-04-25T09:08:51.995Z</time></trkpt><trkpt lat="42.524118914579674" lon="11.955416813421063"><ele>380.57142857142856</ele><time>2026-04-25T09:08:54.996Z</time></trkpt><trkpt lat="42.524100329548766" lon="11.955507974612631"><ele>381.0</ele><time>2026-04-25T09:08:57.996Z</time></trkpt><trkpt lat="42.52407919036591" lon="11.955599847926766"><ele>381.0</ele><time>2026-04-25T09:09:00.996Z</time></trkpt><trkpt lat="42.524064351034696" lon="11.955698754017874"><ele>381.0</ele><time>2026-04-25T09:09:03.995Z</time></trkpt><trkpt lat="42.524044904903576" lon="11.955799851957568"><ele>381.0</ele><time>2026-04-25T09:09:06.995Z</time></trkpt><trkpt lat="42.52402790430433" lon="11.95589552956838"><ele>381.0</ele><time>2026-04-25T09:09:09.995Z</time></trkpt><trkpt lat="42.52400538707496" lon="11.955997825973444"><ele>381.0</ele><time>2026-04-25T09:09:12.995Z</time></trkpt><trkpt lat="42.52398954461066" lon="11.956095304431129"><ele>381.0</ele><time>2026-04-25T09:09:15.995Z</time></trkpt><trkpt lat="42.523966232561214" lon="11.95620665548779"><ele>381.1666666666667</ele><time>2026-04-25T09:09:18.995Z</time></trkpt><trkpt lat="42.52395070566991" lon="11.956323266477414"><ele>381.3333333333333</ele><time>2026-04-25T09:09:21.995Z</time></trkpt><trkpt lat="42.5239515856204" lon="11.956430553676734"><ele>381.5</ele><time>2026-04-25T09:09:24.995Z</time></trkpt><trkpt lat="42.52392202978118" lon="11.956516058859547"><ele>381.66666666666663</ele><time>2026-04-25T09:09:26.995Z</time></trkpt><trkpt lat="42.523907061082454" lon="11.956606742348015"><ele>381.8333333333333</ele><time>2026-04-25T09:09:28.995Z</time></trkpt><trkpt lat="42.52389438196908" lon="11.956707354790707"><ele>382.0</ele><time>2026-04-25T09:09:30.995Z</time></trkpt><trkpt lat="42.52387249750251" lon="11.956813698934894"><ele>381.66666666666663</ele><time>2026-04-25T09:09:32.995Z</time></trkpt><trkpt lat="42.52386100650181" lon="11.956928923514097"><ele>381.3333333333333</ele><time>2026-04-25T09:09:34.995Z</time></trkpt><trkpt lat="42.52384928625512" lon="11.957042558240847"><ele>381.0</ele><time>2026-04-25T09:09:36.995Z</time></trkpt><trkpt lat="42.52383739872672" lon="11.957150047469561"><ele>380.6666666666667</ele><time>2026-04-25T09:09:38.995Z</time></trkpt><trkpt lat="42.52383066924737" lon="11.957264708907589"><ele>380.33333333333337</ele><time>2026-04-25T09:09:40.995Z</time></trkpt><trkpt lat="42.52382930151913" lon="11.95737977895053"><ele>380.0</ele><time>2026-04-25T09:09:42.995Z</time></trkpt><trkpt lat="42.52383238868211" lon="11.957498525956824"><ele>379.6666666666667</ele><time>2026-04-25T09:09:44.995Z</time></trkpt><trkpt lat="42.523836098014506" lon="11.957612295735505"><ele>379.33333333333337</ele><time>2026-04-25T09:09:46.995Z</time></trkpt><trkpt lat="42.52384033480747" lon="11.9577239040467"><ele>379.0</ele><time>2026-04-25T09:09:48.995Z</time></trkpt><trkpt lat="42.52384490709461" lon="11.957836818491256"><ele>378.6666666666667</ele><time>2026-04-25T09:09:50.994Z</time></trkpt><trkpt lat="42.52386052163477" lon="11.957944310332849"><ele>378.3333333333333</ele><time>2026-04-25T09:09:52.994Z</time></trkpt><trkpt lat="42.5238740186909" lon="11.95806278557013"><ele>378.0</ele><time>2026-04-25T09:09:54.994Z</time></trkpt><trkpt lat="42.52387361179453" lon="11.958183273515303"><ele>378.0</ele><time>2026-04-25T09:09:56.994Z</time></trkpt><trkpt lat="42.523883912228676" lon="11.958300398227658"><ele>378.0</ele><time>2026-04-25T09:09:58.994Z</time></trkpt><trkpt lat="42.523887152294435" lon="11.958417629174281"><ele>378.0</ele><time>2026-04-25T09:10:00.994Z</time></trkpt><trkpt lat="42.52389433446137" lon="11.958517896593136"><ele>378.0</ele><time>2026-04-25T09:10:02.994Z</time></trkpt><trkpt lat="42.523907433846695" lon="11.958617527961021"><ele>378.0</ele><time>2026-04-25T09:10:04.994Z</time></trkpt><trkpt lat="42.52391289456254" lon="11.958709017436444"><ele>378.0</ele><time>2026-04-25T09:10:06.994Z</time></trkpt><trkpt lat="42.523920165784745" lon="11.958796477207477"><ele>377.6666666666667</ele><time>2026-04-25T09:10:08.994Z</time></trkpt><trkpt lat="42.52393437079162" lon="11.958893947955158"><ele>377.3333333333333</ele><time>2026-04-25T09:10:10.994Z</time></trkpt><trkpt lat="42.52394014998308" lon="11.958993386351585"><ele>377.0</ele><time>2026-04-25T09:10:12.994Z</time></trkpt><trkpt lat="42.52395111082286" lon="11.959100715649067"><ele>376.66666666666663</ele><time>2026-04-25T09:10:14.994Z</time></trkpt><trkpt lat="42.52396455341239" lon="11.959211535840348"><ele>376.3333333333333</ele><time>2026-04-25T09:10:16.994Z</time></trkpt><trkpt lat="42.523977394038624" lon="11.959317719015587"><ele>376.0</ele><time>2026-04-25T09:10:18.994Z</time></trkpt><trkpt lat="42.52399360609109" lon="11.959423558490782"><ele>376.0</ele><time>2026-04-25T09:10:20.994Z</time></trkpt><trkpt lat="42.52399911097298" lon="11.959527632248408"><ele>376.0</ele><time>2026-04-25T09:10:22.994Z</time></trkpt><trkpt lat="42.52400549533409" lon="11.959630734033423"><ele>376.0</ele><time>2026-04-25T09:10:24.994Z</time></trkpt><trkpt lat="42.524014003397944" lon="11.959745781038183"><ele>376.0</ele><time>2026-04-25T09:10:26.994Z</time></trkpt><trkpt lat="42.52402557412685" lon="11.95983790889538"><ele>376.0</ele><time>2026-04-25T09:10:28.994Z</time></trkpt><trkpt lat="42.52403405276218" lon="11.959950925303914"><ele>376.0</ele><time>2026-04-25T09:10:30.994Z</time></trkpt><trkpt lat="42.52403111604093" lon="11.960071912361165"><ele>376.3333333333333</ele><time>2026-04-25T09:10:32.994Z</time></trkpt><trkpt lat="42.52404794314663" lon="11.960173385473091"><ele>376.66666666666663</ele><time>2026-04-25T09:10:34.994Z</time></trkpt><trkpt lat="42.52405128343028" lon="11.960267952336123"><ele>377.0</ele><time>2026-04-25T09:10:36.994Z</time></trkpt><trkpt lat="42.52406427182517" lon="11.96036397801798"><ele>377.3333333333333</ele><time>2026-04-25T09:10:38.993Z</time></trkpt><trkpt lat="42.52406864822542" lon="11.960453747316405"><ele>377.6666666666667</ele><time>2026-04-25T09:10:40.993Z</time></trkpt><trkpt lat="42.52408766948991" lon="11.960570890757769"><ele>378.0</ele><time>2026-04-25T09:10:42.993Z</time></trkpt><trkpt lat="42.52410497834249" lon="11.96069796466938"><ele>378.0</ele><time>2026-04-25T09:10:44.993Z</time></trkpt><trkpt lat="42.52412373232944" lon="11.96083719960469"><ele>378.0</ele><time>2026-04-25T09:10:46.993Z</time></trkpt><trkpt lat="42.52413843167534" lon="11.96098161828857"><ele>378.0</ele><time>2026-04-25T09:10:48.993Z</time></trkpt><trkpt lat="42.52416213846408" lon="11.961115264252475"><ele>378.0</ele><time>2026-04-25T09:10:50.995Z</time></trkpt><trkpt lat="42.52417530299336" lon="11.961256507133927"><ele>378.0</ele><time>2026-04-25T09:10:52.995Z</time></trkpt><trkpt lat="42.52420382764592" lon="11.961381934059414"><ele>377.79999999999995</ele><time>2026-04-25T09:10:54.995Z</time></trkpt><trkpt lat="42.52423426617491" lon="11.961527109740885"><ele>377.6</ele><time>2026-04-25T09:10:56.995Z</time></trkpt><trkpt lat="42.524247112742" lon="11.961666095394024"><ele>377.4</ele><time>2026-04-25T09:10:58.995Z</time></trkpt><trkpt lat="42.52427367878596" lon="11.961800617735243"><ele>377.20000000000005</ele><time>2026-04-25T09:11:00.995Z</time></trkpt><trkpt lat="42.52428870250709" lon="11.961949540282278"><ele>377.0</ele><time>2026-04-25T09:11:02.995Z</time></trkpt><trkpt lat="42.52431461851527" lon="11.962093270665788"><ele>376.40000000000003</ele><time>2026-04-25T09:11:04.995Z</time></trkpt><trkpt lat="42.52433508313756" lon="11.962240366934703"><ele>375.8</ele><time>2026-04-25T09:11:06.995Z</time></trkpt><trkpt lat="42.524360182450685" lon="11.962380237093392"><ele>375.2</ele><time>2026-04-25T09:11:08.995Z</time></trkpt><trkpt lat="42.52438042464408" lon="11.962522610775567"><ele>374.6</ele><time>2026-04-25T09:11:10.995Z</time></trkpt><trkpt lat="42.524404098324794" lon="11.96265466876637"><ele>374.0</ele><time>2026-04-25T09:11:12.995Z</time></trkpt><trkpt lat="42.52442134803713" lon="11.962788659454734"><ele>373.79999999999995</ele><time>2026-04-25T09:11:14.995Z</time></trkpt><trkpt lat="42.524435968082535" lon="11.962918585436826"><ele>373.59999999999997</ele><time>2026-04-25T09:11:16.995Z</time></trkpt><trkpt lat="42.52445659598721" lon="11.963045141564697"><ele>373.4</ele><time>2026-04-25T09:11:18.995Z</time></trkpt><trkpt lat="42.524476658039156" lon="11.963168297404712"><ele>373.2</ele><time>2026-04-25T09:11:20.995Z</time></trkpt><trkpt lat="42.524490262684694" lon="11.963297562913292"><ele>373.0</ele><time>2026-04-25T09:11:22.995Z</time></trkpt><trkpt lat="42.5245080848594" lon="11.963434867536344"><ele>372.59999999999997</ele><time>2026-04-25T09:11:24.995Z</time></trkpt><trkpt lat="42.5245253166362" lon="11.9635758750171"><ele>372.2</ele><time>2026-04-25T09:11:26.995Z</time></trkpt><trkpt lat="42.524538941795925" lon="11.963726880101774"><ele>371.8</ele><time>2026-04-25T09:11:28.995Z</time></trkpt><trkpt lat="42.52454614521598" lon="11.963869933525666"><ele>371.4</ele><time>2026-04-25T09:11:30.995Z</time></trkpt><trkpt lat="42.52454339263994" lon="11.964019435892219"><ele>371.0</ele><time>2026-04-25T09:11:32.994Z</time></trkpt><trkpt lat="42.524533573044245" lon="11.96416054729577"><ele>371.20000000000005</ele><time>2026-04-25T09:11:34.994Z</time></trkpt><trkpt lat="42.52451952253792" lon="11.964302259233037"><ele>371.40000000000003</ele><time>2026-04-25T09:11:36.994Z</time></trkpt><trkpt lat="42.52450111837099" lon="11.96442965920524"><ele>371.6</ele><time>2026-04-25T09:11:38.994Z</time></trkpt><trkpt lat="42.52448232716479" lon="11.964559450625211"><ele>371.8</ele><time>2026-04-25T09:11:40.994Z</time></trkpt><trkpt lat="42.5244590888065" lon="11.964673609650703"><ele>372.0</ele><time>2026-04-25T09:11:42.994Z</time></trkpt><trkpt lat="42.52443202378514" lon="11.964792213276157"><ele>372.0</ele><time>2026-04-25T09:11:44.994Z</time></trkpt><trkpt lat="42.52441220671641" lon="11.964908773496044"><ele>372.0</ele><time>2026-04-25T09:11:46.994Z</time></trkpt><trkpt lat="42.52438195977877" lon="11.965028529990656"><ele>372.0</ele><time>2026-04-25T09:11:48.994Z</time></trkpt><trkpt lat="42.52435661406337" lon="11.965139032232605"><ele>372.0</ele><time>2026-04-25T09:11:50.994Z</time></trkpt><trkpt lat="42.52433576036107" lon="11.965247647040355"><ele>372.0</ele><time>2026-04-25T09:11:52.994Z</time></trkpt><trkpt lat="42.524310269742394" lon="11.965356831816202"><ele>372.0</ele><time>2026-04-25T09:11:54.994Z</time></trkpt><trkpt lat="42.524279442132254" lon="11.965459036967248"><ele>372.7142857142857</ele><time>2026-04-25T09:11:56.994Z</time></trkpt><trkpt lat="42.52425373100787" lon="11.965555380377625"><ele>373.42857142857144</ele><time>2026-04-25T09:11:58.994Z</time></trkpt><trkpt lat="42.52422630743762" lon="11.965653299479271"><ele>374.1428571428571</ele><time>2026-04-25T09:12:00.994Z</time></trkpt><trkpt lat="42.52420632108343" lon="11.965751321891869"><ele>374.8571428571429</ele><time>2026-04-25T09:12:02.994Z</time></trkpt><trkpt lat="42.52418475611601" lon="11.965845060158115"><ele>375.57142857142856</ele><time>2026-04-25T09:12:04.994Z</time></trkpt><trkpt lat="42.52416391230725" lon="11.965938042500815"><ele>376.2857142857143</ele><time>2026-04-25T09:12:06.994Z</time></trkpt><trkpt lat="42.524136160467215" lon="11.966028965669201"><ele>377.0</ele><time>2026-04-25T09:12:08.994Z</time></trkpt><trkpt lat="42.52411308491321" lon="11.966112387611151"><ele>377.5</ele><time>2026-04-25T09:12:10.994Z</time></trkpt><trkpt lat="42.5240884904237" lon="11.966245392120248"><ele>378.0</ele><time>2026-04-25T09:12:13.994Z</time></trkpt><trkpt lat="42.524063866987596" lon="11.966346260288677"><ele>378.5</ele><time>2026-04-25T09:12:15.994Z</time></trkpt><trkpt lat="42.52403631062546" lon="11.966458610092934"><ele>379.0</ele><time>2026-04-25T09:12:17.994Z</time></trkpt><trkpt lat="42.524008252862764" lon="11.966567458468761"><ele>379.5</ele><time>2026-04-25T09:12:19.994Z</time></trkpt><trkpt lat="42.523969427551904" lon="11.966676886959286"><ele>380.0</ele><time>2026-04-25T09:12:21.993Z</time></trkpt><trkpt lat="42.52393323307188" lon="11.96679548017748"><ele>380.6666666666667</ele><time>2026-04-25T09:12:23.993Z</time></trkpt><trkpt lat="42.52389946161871" lon="11.96690480952717"><ele>381.33333333333337</ele><time>2026-04-25T09:12:25.993Z</time></trkpt><trkpt lat="42.523895207037405" lon="11.967032903718998"><ele>382.0</ele><time>2026-04-25T09:12:27.993Z</time></trkpt><trkpt lat="42.5239125655979" lon="11.967142464754518"><ele>382.6666666666667</ele><time>2026-04-25T09:12:29.993Z</time></trkpt><trkpt lat="42.523920862080665" lon="11.967239256269886"><ele>383.3333333333333</ele><time>2026-04-25T09:12:31.993Z</time></trkpt><trkpt lat="42.52391434477624" lon="11.96736991016077"><ele>384.0</ele><time>2026-04-25T09:12:34.993Z</time></trkpt><trkpt lat="42.52391852601049" lon="11.967479407433698"><ele>385.1428571428571</ele><time>2026-04-25T09:12:37.993Z</time></trkpt><trkpt lat="42.52390458751491" lon="11.967580281908011"><ele>386.2857142857143</ele><time>2026-04-25T09:12:40.993Z</time></trkpt><trkpt lat="42.52388051365222" lon="11.967682953837715"><ele>387.42857142857144</ele><time>2026-04-25T09:12:43.993Z</time></trkpt><trkpt lat="42.52386045415295" lon="11.96777437909197"><ele>388.57142857142856</ele><time>2026-04-25T09:12:46.993Z</time></trkpt><trkpt lat="42.52383641972139" lon="11.967872675291344"><ele>389.7142857142857</ele><time>2026-04-25T09:12:50.993Z</time></trkpt><trkpt lat="42.52380759654386" lon="11.967952752043677"><ele>390.85714285714283</ele><time>2026-04-25T09:12:53.993Z</time></trkpt><trkpt lat="42.523780976985805" lon="11.96803108839184"><ele>392.0</ele><time>2026-04-25T09:12:56.994Z</time></trkpt><trkpt lat="42.523750653080306" lon="11.968108273048248"><ele>392.2857142857143</ele><time>2026-04-25T09:12:59.995Z</time></trkpt><trkpt lat="42.52371217801217" lon="11.968184580338546"><ele>392.57142857142856</ele><time>2026-04-25T09:13:02.995Z</time></trkpt><trkpt lat="42.52367777832993" lon="11.968266872027904"><ele>392.8571428571429</ele><time>2026-04-25T09:13:05.994Z</time></trkpt><trkpt lat="42.52363635311032" lon="11.968332618455548"><ele>393.1428571428571</ele><time>2026-04-25T09:13:08.994Z</time></trkpt><trkpt lat="42.52360172866019" lon="11.968405416332331"><ele>393.42857142857144</ele><time>2026-04-25T09:13:11.994Z</time></trkpt><trkpt lat="42.52356972317083" lon="11.968483081531014"><ele>393.7142857142857</ele><time>2026-04-25T09:13:14.994Z</time></trkpt><trkpt lat="42.52351475437552" lon="11.968568415127951"><ele>394.0</ele><time>2026-04-25T09:13:18.994Z</time></trkpt><trkpt lat="42.52348192665852" lon="11.96864234637267"><ele>394.0</ele><time>2026-04-25T09:13:21.994Z</time></trkpt><trkpt lat="42.52343568347022" lon="11.968707114119377"><ele>394.0</ele><time>2026-04-25T09:13:24.994Z</time></trkpt><trkpt lat="42.52339375182188" lon="11.968774706948878"><ele>394.0</ele><time>2026-04-25T09:13:27.994Z</time></trkpt><trkpt lat="42.523346504426875" lon="11.968831455184812"><ele>394.0</ele><time>2026-04-25T09:13:30.993Z</time></trkpt><trkpt lat="42.52329726818896" lon="11.968904582832167"><ele>394.0</ele><time>2026-04-25T09:13:34.993Z</time></trkpt><trkpt lat="42.52325125916602" lon="11.968995569637794"><ele>394.0</ele><time>2026-04-25T09:13:38.993Z</time></trkpt><trkpt lat="42.52319881396056" lon="11.969077725845493"><ele>394.0</ele><time>2026-04-25T09:13:42.993Z</time></trkpt><trkpt lat="42.52315280862915" lon="11.969158448396133"><ele>393.83333333333337</ele><time>2026-04-25T09:13:46.993Z</time></trkpt><trkpt lat="42.52308895809657" lon="11.96923492874268"><ele>393.6666666666667</ele><time>2026-04-25T09:13:52.993Z</time></trkpt><trkpt lat="42.523048951648235" lon="11.969325173469416"><ele>393.5</ele><time>2026-04-25T09:13:55.993Z</time></trkpt><trkpt lat="42.52300486791682" lon="11.969389436385587"><ele>393.33333333333337</ele><time>2026-04-25T09:13:58.993Z</time></trkpt><trkpt lat="42.52295774470213" lon="11.969478489021963"><ele>393.1666666666667</ele><time>2026-04-25T09:14:02.993Z</time></trkpt><trkpt lat="42.522909304938516" lon="11.969561968615091"><ele>393.0</ele><time>2026-04-25T09:14:06.993Z</time></trkpt><trkpt lat="42.52287762372966" lon="11.969654297723967"><ele>393.0</ele><time>2026-04-25T09:14:10.993Z</time></trkpt><trkpt lat="42.522834244047054" lon="11.969747090396757"><ele>393.0</ele><time>2026-04-25T09:14:14.993Z</time></trkpt><trkpt lat="42.52280309717895" lon="11.969841848833807"><ele>393.0</ele><time>2026-04-25T09:14:18.992Z</time></trkpt><trkpt lat="42.52279228532137" lon="11.969935077801047"><ele>393.0</ele><time>2026-04-25T09:14:22.992Z</time></trkpt><trkpt lat="42.52276599811108" lon="11.970039119002399"><ele>393.0</ele><time>2026-04-25T09:14:26.992Z</time></trkpt><trkpt lat="42.52274405655074" lon="11.970166879089726"><ele>393.0</ele><time>2026-04-25T09:14:32.992Z</time></trkpt><trkpt lat="42.52271307079243" lon="11.970269601154401"><ele>393.42857142857144</ele><time>2026-04-25T09:14:36.992Z</time></trkpt><trkpt lat="42.522692732066346" lon="11.970366666959851"><ele>393.8571428571429</ele><time>2026-04-25T09:14:40.992Z</time></trkpt><trkpt lat="42.522675555159964" lon="11.970466962320426"><ele>394.28571428571433</ele><time>2026-04-25T09:14:44.992Z</time></trkpt><trkpt lat="42.5226604395165" lon="11.970567332982904"><ele>394.7142857142857</ele><time>2026-04-25T09:14:48.992Z</time></trkpt><trkpt lat="42.52266106560555" lon="11.970673443134734"><ele>395.1428571428571</ele><time>2026-04-25T09:14:52.992Z</time></trkpt><trkpt lat="42.52265240424727" lon="11.97076685093155"><ele>395.5714285714286</ele><time>2026-04-25T09:14:56.992Z</time></trkpt><trkpt lat="42.52264531875498" lon="11.970853729378065"><ele>396.0</ele><time>2026-04-25T09:14:59.992Z</time></trkpt><trkpt lat="42.52265685712582" lon="11.970940465562975"><ele>396.2857142857143</ele><time>2026-04-25T09:15:02.993Z</time></trkpt><trkpt lat="42.52266027410198" lon="11.971030605144783"><ele>396.57142857142856</ele><time>2026-04-25T09:15:05.993Z</time></trkpt><trkpt lat="42.52264660837065" lon="11.971117745309705"><ele>396.85714285714283</ele><time>2026-04-25T09:15:08.994Z</time></trkpt><trkpt lat="42.52264777260107" lon="11.971211985697952"><ele>397.1428571428571</ele><time>2026-04-25T09:15:11.993Z</time></trkpt><trkpt lat="42.522642744498" lon="11.971299185288752"><ele>397.42857142857144</ele><time>2026-04-25T09:15:14.994Z</time></trkpt><trkpt lat="42.52263690603152" lon="11.971388434223304"><ele>397.71428571428567</ele><time>2026-04-25T09:15:17.994Z</time></trkpt><trkpt lat="42.52263211641497" lon="11.97148097224694"><ele>398.0</ele><time>2026-04-25T09:15:20.993Z</time></trkpt><trkpt lat="42.52262848059005" lon="11.971581212819645"><ele>397.99999999999994</ele><time>2026-04-25T09:15:23.993Z</time></trkpt><trkpt lat="42.5226170683501" lon="11.971670660668014"><ele>398.0</ele><time>2026-04-25T09:15:26.993Z</time></trkpt><trkpt lat="42.52261472486592" lon="11.971764844741697"><ele>398.0</ele><time>2026-04-25T09:15:29.993Z</time></trkpt><trkpt lat="42.52260283708674" lon="11.971857426269043"><ele>398.0</ele><time>2026-04-25T09:15:32.993Z</time></trkpt><trkpt lat="42.522603031164365" lon="11.97197280661027"><ele>398.0</ele><time>2026-04-25T09:15:36.993Z</time></trkpt><trkpt lat="42.522596137985715" lon="11.972066472628946"><ele>397.99999999999994</ele><time>2026-04-25T09:15:39.993Z</time></trkpt><trkpt lat="42.52257372429951" lon="11.972169387202426"><ele>398.0</ele><time>2026-04-25T09:15:42.992Z</time></trkpt><trkpt lat="42.522564421914936" lon="11.972269550251061"><ele>398.99999999999994</ele><time>2026-04-25T09:15:46.992Z</time></trkpt><trkpt lat="42.52255837465922" lon="11.972366098196336"><ele>400.0</ele><time>2026-04-25T09:15:50.992Z</time></trkpt><trkpt lat="42.52254627216192" lon="11.972467596505538"><ele>401.0</ele><time>2026-04-25T09:15:54.992Z</time></trkpt><trkpt lat="42.52254799270737" lon="11.972563953618785"><ele>402.0</ele><time>2026-04-25T09:15:57.992Z</time></trkpt><trkpt lat="42.52252511749469" lon="11.972673680019916"><ele>402.99999999999994</ele><time>2026-04-25T09:16:01.992Z</time></trkpt><trkpt lat="42.52250358633373" lon="11.972776469500726"><ele>404.0</ele><time>2026-04-25T09:16:05.992Z</time></trkpt><trkpt lat="42.52248581879273" lon="11.972871339852121"><ele>404.42857142857144</ele><time>2026-04-25T09:16:09.991Z</time></trkpt><trkpt lat="42.52247644372023" lon="11.972959372814042"><ele>404.85714285714283</ele><time>2026-04-25T09:16:12.991Z</time></trkpt><trkpt lat="42.522454661498976" lon="11.973060055452272"><ele>405.28571428571433</ele><time>2026-04-25T09:16:16.991Z</time></trkpt><trkpt lat="42.522439784739085" lon="11.973155818581494"><ele>405.7142857142857</ele><time>2026-04-25T09:16:20.991Z</time></trkpt><trkpt lat="42.522418510961536" lon="11.973238117438422"><ele>406.14285714285717</ele><time>2026-04-25T09:16:23.991Z</time></trkpt><trkpt lat="42.52239898771078" lon="11.973327510107298"><ele>406.5714285714286</ele><time>2026-04-25T09:16:26.991Z</time></trkpt><trkpt lat="42.52237680766156" lon="11.973413627376111"><ele>407.0</ele><time>2026-04-25T09:16:29.991Z</time></trkpt><trkpt lat="42.52234498457885" lon="11.97349728778483"><ele>407.66666666666663</ele><time>2026-04-25T09:16:32.991Z</time></trkpt><trkpt lat="42.52231976811623" lon="11.973584191419974"><ele>408.3333333333333</ele><time>2026-04-25T09:16:35.991Z</time></trkpt><trkpt lat="42.52228291646795" lon="11.97366605266501"><ele>409.0</ele><time>2026-04-25T09:16:38.991Z</time></trkpt><trkpt lat="42.5222401087353" lon="11.973767894327617"><ele>409.66666666666663</ele><time>2026-04-25T09:16:42.991Z</time></trkpt><trkpt lat="42.522204014985675" lon="11.97387885631931"><ele>410.3333333333333</ele><time>2026-04-25T09:16:46.991Z</time></trkpt><trkpt lat="42.52215888407652" lon="11.973967879853841"><ele>411.0</ele><time>2026-04-25T09:16:50.991Z</time></trkpt><trkpt lat="42.52212036966047" lon="11.97406988164457"><ele>411.0</ele><time>2026-04-25T09:16:54.991Z</time></trkpt><trkpt lat="42.522072168186924" lon="11.974165217423797"><ele>411.0</ele><time>2026-04-25T09:16:58.99Z</time></trkpt><trkpt lat="42.522033263182536" lon="11.974259931660585"><ele>411.0</ele><time>2026-04-25T09:17:02.99Z</time></trkpt><trkpt lat="42.52199158833055" lon="11.97434430712582"><ele>411.0</ele><time>2026-04-25T09:17:06.99Z</time></trkpt><trkpt lat="42.521956427562976" lon="11.974444581853067"><ele>411.0</ele><time>2026-04-25T09:17:10.992Z</time></trkpt><trkpt lat="42.52191509653033" lon="11.974540100802553"><ele>411.0</ele><time>2026-04-25T09:17:14.991Z</time></trkpt><trkpt lat="42.52188656361634" lon="11.974623544636199"><ele>411.0</ele><time>2026-04-25T09:17:17.991Z</time></trkpt><trkpt lat="42.521860511501174" lon="11.974705122615555"><ele>411.0</ele><time>2026-04-25T09:17:20.992Z</time></trkpt><trkpt lat="42.52183169847056" lon="11.974806649800216"><ele>411.0</ele><time>2026-04-25T09:17:24.991Z</time></trkpt><trkpt lat="42.52181232482252" lon="11.974910638747458"><ele>411.0</ele><time>2026-04-25T09:17:28.991Z</time></trkpt><trkpt lat="42.5218088171931" lon="11.975010212566362"><ele>411.0</ele><time>2026-04-25T09:17:32.991Z</time></trkpt><trkpt lat="42.521811864052225" lon="11.975119466202273"><ele>411.0</ele><time>2026-04-25T09:17:36.991Z</time></trkpt><trkpt lat="42.521821662101985" lon="11.975231827251065"><ele>411.0</ele><time>2026-04-25T09:17:40.991Z</time></trkpt><trkpt lat="42.52184065386314" lon="11.975317067820606"><ele>411.0</ele><time>2026-04-25T09:17:43.991Z</time></trkpt><trkpt lat="42.521860286635544" lon="11.975422042050326"><ele>411.0</ele><time>2026-04-25T09:17:47.991Z</time></trkpt><trkpt lat="42.52189750399289" lon="11.975517627483837"><ele>411.0</ele><time>2026-04-25T09:17:51.991Z</time></trkpt><trkpt lat="42.521932435701736" lon="11.975593778312197"><ele>411.0</ele><time>2026-04-25T09:17:54.991Z</time></trkpt><trkpt lat="42.52197866227868" lon="11.975685479492064"><ele>411.0</ele><time>2026-04-25T09:17:58.991Z</time></trkpt><trkpt lat="42.522036259466226" lon="11.975756764197719"><ele>410.85714285714283</ele><time>2026-04-25T09:18:02.991Z</time></trkpt><trkpt lat="42.52208876974072" lon="11.97580735700936"><ele>410.71428571428567</ele><time>2026-04-25T09:18:05.99Z</time></trkpt><trkpt lat="42.52215467479094" lon="11.975868176707323"><ele>410.57142857142856</ele><time>2026-04-25T09:18:09.99Z</time></trkpt><trkpt lat="42.52221460644132" lon="11.975906202885305"><ele>410.42857142857144</ele><time>2026-04-25T09:18:12.99Z</time></trkpt><trkpt lat="42.52228641542971" lon="11.97595810005756"><ele>410.2857142857143</ele><time>2026-04-25T09:18:16.99Z</time></trkpt><trkpt lat="42.522343494171025" lon="11.97599964171059"><ele>410.14285714285717</ele><time>2026-04-25T09:18:19.99Z</time></trkpt><trkpt lat="42.52241158521326" lon="11.976055143334996"><ele>410.0</ele><time>2026-04-25T09:18:23.99Z</time></trkpt><trkpt lat="42.52246652082622" lon="11.976105561929504"><ele>410.0</ele><time>2026-04-25T09:18:26.99Z</time></trkpt><trkpt lat="42.52252872546788" lon="11.976153413963356"><ele>410.0</ele><time>2026-04-25T09:18:29.99Z</time></trkpt><trkpt lat="42.52258972747677" lon="11.976197234486095"><ele>410.0</ele><time>2026-04-25T09:18:32.99Z</time></trkpt><trkpt lat="42.522648901169816" lon="11.97623868966694"><ele>410.0</ele><time>2026-04-25T09:18:35.99Z</time></trkpt><trkpt lat="42.52270737763338" lon="11.976277683558626"><ele>410.0</ele><time>2026-04-25T09:18:38.99Z</time></trkpt><trkpt lat="42.52277105424033" lon="11.976316112326238"><ele>410.0</ele><time>2026-04-25T09:18:41.99Z</time></trkpt><trkpt lat="42.522827991813855" lon="11.976358011131687"><ele>410.0</ele><time>2026-04-25T09:18:44.99Z</time></trkpt><trkpt lat="42.52290096086655" lon="11.976414689872337"><ele>411.2857142857143</ele><time>2026-04-25T09:18:48.99Z</time></trkpt><trkpt lat="42.52296039107975" lon="11.976455738779944"><ele>412.57142857142856</ele><time>2026-04-25T09:18:51.99Z</time></trkpt><trkpt lat="42.52301890671497" lon="11.976511793295206"><ele>413.85714285714283</ele><time>2026-04-25T09:18:54.989Z</time></trkpt><trkpt lat="42.52307902409369" lon="11.976546623901012"><ele>415.1428571428571</ele><time>2026-04-25T09:18:57.989Z</time></trkpt><trkpt lat="42.52313789780211" lon="11.976587555607974"><ele>416.42857142857144</ele><time>2026-04-25T09:19:00.989Z</time></trkpt><trkpt lat="42.52321576205093" lon="11.97663348505069"><ele>417.71428571428567</ele><time>2026-04-25T09:19:04.989Z</time></trkpt><trkpt lat="42.52327498507568" lon="11.976668613097578"><ele>419.0</ele><time>2026-04-25T09:19:07.989Z</time></trkpt><trkpt lat="42.52333292917911" lon="11.97671350311468"><ele>418.99999999999994</ele><time>2026-04-25T09:19:10.989Z</time></trkpt><trkpt lat="42.52340100791064" lon="11.97675554082894"><ele>419.0</ele><time>2026-04-25T09:19:13.989Z</time></trkpt><trkpt lat="42.52345589315784" lon="11.97681240472415"><ele>419.0</ele><time>2026-04-25T09:19:16.991Z</time></trkpt><trkpt lat="42.523516722226205" lon="11.976864820843435"><ele>419.0</ele><time>2026-04-25T09:19:19.991Z</time></trkpt><trkpt lat="42.523578832586345" lon="11.976917257591232"><ele>419.0</ele><time>2026-04-25T09:19:22.991Z</time></trkpt><trkpt lat="42.523641116461825" lon="11.9769734472139"><ele>418.99999999999994</ele><time>2026-04-25T09:19:25.991Z</time></trkpt><trkpt lat="42.523690389086035" lon="11.977037717102206"><ele>419.0</ele><time>2026-04-25T09:19:28.991Z</time></trkpt><trkpt lat="42.52373493469037" lon="11.977108858300666"><ele>420.2857142857143</ele><time>2026-04-25T09:19:31.99Z</time></trkpt><trkpt lat="42.52377371633255" lon="11.977187592952541"><ele>421.57142857142856</ele><time>2026-04-25T09:19:34.99Z</time></trkpt><trkpt lat="42.523812089745256" lon="11.97726016671556"><ele>422.8571428571429</ele><time>2026-04-25T09:19:37.99Z</time></trkpt><trkpt lat="42.523858271726944" lon="11.977341187706978"><ele>424.1428571428571</ele><time>2026-04-25T09:19:40.99Z</time></trkpt><trkpt lat="42.523892177168435" lon="11.977413981252539"><ele>425.42857142857144</ele><time>2026-04-25T09:19:43.99Z</time></trkpt><trkpt lat="42.52393232981299" lon="11.977496342833946"><ele>426.7142857142857</ele><time>2026-04-25T09:19:46.99Z</time></trkpt><trkpt lat="42.52396571071991" lon="11.977571911843379"><ele>428.0</ele><time>2026-04-25T09:19:49.99Z</time></trkpt><trkpt lat="42.52399402503944" lon="11.97765401089023"><ele>427.99999999999994</ele><time>2026-04-25T09:19:52.99Z</time></trkpt><trkpt lat="42.524029440216594" lon="11.977731323974314"><ele>428.0</ele><time>2026-04-25T09:19:55.99Z</time></trkpt><trkpt lat="42.52407545440648" lon="11.97782652922461"><ele>428.0</ele><time>2026-04-25T09:19:59.99Z</time></trkpt><trkpt lat="42.52412550288604" lon="11.977929016258186"><ele>428.0</ele><time>2026-04-25T09:20:03.99Z</time></trkpt><trkpt lat="42.52417157694187" lon="11.97800096943093"><ele>427.99999999999994</ele><time>2026-04-25T09:20:06.99Z</time></trkpt><trkpt lat="42.52422268638017" lon="11.978100924715626"><ele>428.0</ele><time>2026-04-25T09:20:10.99Z</time></trkpt><trkpt lat="42.52426058924966" lon="11.978181237923422"><ele>427.99999999999994</ele><time>2026-04-25T09:20:12.99Z</time></trkpt><trkpt lat="42.52431046021345" lon="11.978283003903421"><ele>428.0</ele><time>2026-04-25T09:20:15.99Z</time></trkpt><trkpt lat="42.524366303976386" lon="11.978385717423345"><ele>428.0</ele><time>2026-04-25T09:20:18.99Z</time></trkpt><trkpt lat="42.524415881193505" lon="11.978473050267388"><ele>428.0</ele><time>2026-04-25T09:20:21.989Z</time></trkpt><trkpt lat="42.52446603307329" lon="11.97858502523469"><ele>427.99999999999994</ele><time>2026-04-25T09:20:25.989Z</time></trkpt><trkpt lat="42.52450675905392" lon="11.978680245255918"><ele>428.0</ele><time>2026-04-25T09:20:28.989Z</time></trkpt><trkpt lat="42.52454460700004" lon="11.978785430917464"><ele>428.66666666666663</ele><time>2026-04-25T09:20:31.989Z</time></trkpt><trkpt lat="42.524573209103984" lon="11.978863220174029"><ele>429.3333333333333</ele><time>2026-04-25T09:20:33.989Z</time></trkpt><trkpt lat="42.52460124004095" lon="11.978947095171867"><ele>430.0</ele><time>2026-04-25T09:20:35.989Z</time></trkpt><trkpt lat="42.52465847530753" lon="11.979051637527128"><ele>430.66666666666663</ele><time>2026-04-25T09:20:38.989Z</time></trkpt><trkpt lat="42.5246900997125" lon="11.979132778952613"><ele>431.3333333333333</ele><time>2026-04-25T09:20:40.989Z</time></trkpt><trkpt lat="42.52472281677772" lon="11.979213508903971"><ele>432.0</ele><time>2026-04-25T09:20:42.989Z</time></trkpt><trkpt lat="42.52478091782279" lon="11.979318274168424"><ele>432.7142857142857</ele><time>2026-04-25T09:20:45.989Z</time></trkpt><trkpt lat="42.52481417099106" lon="11.979396942585975"><ele>433.42857142857144</ele><time>2026-04-25T09:20:47.989Z</time></trkpt><trkpt lat="42.52485045852176" lon="11.979474718313469"><ele>434.1428571428571</ele><time>2026-04-25T09:20:49.989Z</time></trkpt><trkpt lat="42.52488037144932" lon="11.979581294608874"><ele>434.8571428571429</ele><time>2026-04-25T09:20:52.989Z</time></trkpt><trkpt lat="42.524931862134366" lon="11.979660955479087"><ele>435.5714285714286</ele><time>2026-04-25T09:20:54.989Z</time></trkpt><trkpt lat="42.52498123829368" lon="11.979728497449438"><ele>436.2857142857143</ele><time>2026-04-25T09:20:56.989Z</time></trkpt><trkpt lat="42.525021794349485" lon="11.979806659502906"><ele>437.0</ele><time>2026-04-25T09:20:58.989Z</time></trkpt><trkpt lat="42.52508173445499" lon="11.979865679769956"><ele>436.99999999999994</ele><time>2026-04-25T09:21:00.989Z</time></trkpt><trkpt lat="42.52513527799276" lon="11.979930669701213"><ele>437.0</ele><time>2026-04-25T09:21:02.989Z</time></trkpt><trkpt lat="42.525191029181954" lon="11.98001222828452"><ele>437.0</ele><time>2026-04-25T09:21:04.989Z</time></trkpt><trkpt lat="42.52525142835582" lon="11.98009588884842"><ele>437.0</ele><time>2026-04-25T09:21:06.989Z</time></trkpt><trkpt lat="42.52531893562183" lon="11.980169252313829"><ele>436.99999999999994</ele><time>2026-04-25T09:21:08.989Z</time></trkpt><trkpt lat="42.52537435151531" lon="11.980257871193102"><ele>437.0</ele><time>2026-04-25T09:21:10.988Z</time></trkpt><trkpt lat="42.52543252177467" lon="11.980343232446248"><ele>438.49999999999994</ele><time>2026-04-25T09:21:12.988Z</time></trkpt><trkpt lat="42.52548511260214" lon="11.980415066867547"><ele>440.0</ele><time>2026-04-25T09:21:14.988Z</time></trkpt><trkpt lat="42.52554898362509" lon="11.980488041293189"><ele>441.5</ele><time>2026-04-25T09:21:16.988Z</time></trkpt><trkpt lat="42.52559294655998" lon="11.980560666440413"><ele>443.0</ele><time>2026-04-25T09:21:18.988Z</time></trkpt><trkpt lat="42.525647483848005" lon="11.980629657240343"><ele>444.49999999999994</ele><time>2026-04-25T09:21:20.99Z</time></trkpt><trkpt lat="42.52570810568593" lon="11.980709550846957"><ele>446.0</ele><time>2026-04-25T09:21:23.99Z</time></trkpt><trkpt lat="42.52574965188933" lon="11.980774969483663"><ele>445.99999999999994</ele><time>2026-04-25T09:21:25.991Z</time></trkpt><trkpt lat="42.52580393682487" lon="11.980835888167352"><ele>446.0</ele><time>2026-04-25T09:21:28.991Z</time></trkpt><trkpt lat="42.5258615209996" lon="11.980917613194546"><ele>446.0</ele><time>2026-04-25T09:21:31.99Z</time></trkpt><trkpt lat="42.52591360672681" lon="11.980997241232833"><ele>446.0</ele><time>2026-04-25T09:21:34.991Z</time></trkpt><trkpt lat="42.52596925270949" lon="11.98108451372848"><ele>445.99999999999994</ele><time>2026-04-25T09:21:38.991Z</time></trkpt><trkpt lat="42.52603070354138" lon="11.981156794354199"><ele>446.0</ele><time>2026-04-25T09:21:41.991Z</time></trkpt><trkpt lat="42.52607427673515" lon="11.98123722257747"><ele>445.85714285714283</ele><time>2026-04-25T09:21:44.99Z</time></trkpt><trkpt lat="42.52612419847588" lon="11.981312456084593"><ele>445.71428571428567</ele><time>2026-04-25T09:21:47.99Z</time></trkpt><trkpt lat="42.52617036274502" lon="11.981399636018892"><ele>445.57142857142856</ele><time>2026-04-25T09:21:50.99Z</time></trkpt><trkpt lat="42.52621163599203" lon="11.981483346353349"><ele>445.42857142857144</ele><time>2026-04-25T09:21:53.99Z</time></trkpt><trkpt lat="42.52625507193864" lon="11.98155786304477"><ele>445.2857142857143</ele><time>2026-04-25T09:21:56.99Z</time></trkpt><trkpt lat="42.52628730182525" lon="11.981648063980938"><ele>445.14285714285717</ele><time>2026-04-25T09:21:59.99Z</time></trkpt><trkpt lat="42.52631393646583" lon="11.981730149499343"><ele>445.0</ele><time>2026-04-25T09:22:02.99Z</time></trkpt><trkpt lat="42.52633873376315" lon="11.981826778669884"><ele>445.57142857142856</ele><time>2026-04-25T09:22:05.99Z</time></trkpt><trkpt lat="42.526368229025366" lon="11.981909765108522"><ele>446.1428571428571</ele><time>2026-04-25T09:22:08.99Z</time></trkpt><trkpt lat="42.52638960806019" lon="11.982000829258308"><ele>446.71428571428567</ele><time>2026-04-25T09:22:11.99Z</time></trkpt><trkpt lat="42.52640270151666" lon="11.982084471123656"><ele>447.2857142857143</ele><time>2026-04-25T09:22:14.99Z</time></trkpt><trkpt lat="42.52641823831094" lon="11.982167450310536"><ele>447.8571428571428</ele><time>2026-04-25T09:22:17.99Z</time></trkpt><trkpt lat="42.52644577654752" lon="11.982244411842824"><ele>448.4285714285714</ele><time>2026-04-25T09:22:20.99Z</time></trkpt><trkpt lat="42.52646348368498" lon="11.982335049548933"><ele>449.0</ele><time>2026-04-25T09:22:23.99Z</time></trkpt><trkpt lat="42.526490765115184" lon="11.982418339183491"><ele>449.0</ele><time>2026-04-25T09:22:26.99Z</time></trkpt><trkpt lat="42.52652310523022" lon="11.982515713419472"><ele>448.99999999999994</ele><time>2026-04-25T09:22:29.99Z</time></trkpt><trkpt lat="42.52653623443784" lon="11.982601896648122"><ele>449.0</ele><time>2026-04-25T09:22:32.989Z</time></trkpt><trkpt lat="42.526546036573116" lon="11.982690117757445"><ele>449.0</ele><time>2026-04-25T09:22:35.989Z</time></trkpt><trkpt lat="42.52656774039619" lon="11.982785143615692"><ele>448.99999999999994</ele><time>2026-04-25T09:22:38.989Z</time></trkpt><trkpt lat="42.526597403791" lon="11.982877742493251"><ele>449.0</ele><time>2026-04-25T09:22:41.989Z</time></trkpt><trkpt lat="42.52662110815196" lon="11.982976128065657"><ele>449.0</ele><time>2026-04-25T09:22:45.989Z</time></trkpt><trkpt lat="42.52665467992823" lon="11.983076357323396"><ele>449.0</ele><time>2026-04-25T09:22:48.989Z</time></trkpt><trkpt lat="42.52669432301065" lon="11.983181482237693"><ele>448.99999999999994</ele><time>2026-04-25T09:22:52.989Z</time></trkpt><trkpt lat="42.526708134754124" lon="11.983264918216339"><ele>449.0</ele><time>2026-04-25T09:22:55.989Z</time></trkpt><trkpt lat="42.52673257753297" lon="11.983358873492413"><ele>449.0</ele><time>2026-04-25T09:22:58.989Z</time></trkpt><trkpt lat="42.52675642493944" lon="11.983441563999557"><ele>448.99999999999994</ele><time>2026-04-25T09:23:01.989Z</time></trkpt><trkpt lat="42.52679123744896" lon="11.983519571485271"><ele>449.0</ele><time>2026-04-25T09:23:04.989Z</time></trkpt><trkpt lat="42.52683225152252" lon="11.983609735397652"><ele>449.0</ele><time>2026-04-25T09:23:08.989Z</time></trkpt><trkpt lat="42.5268812977468" lon="11.983702938480674"><ele>448.66666666666663</ele><time>2026-04-25T09:23:12.989Z</time></trkpt><trkpt lat="42.526925549773665" lon="11.98376781287407"><ele>448.3333333333333</ele><time>2026-04-25T09:23:15.989Z</time></trkpt><trkpt lat="42.526977191815746" lon="11.983854890535492"><ele>448.0</ele><time>2026-04-25T09:23:18.989Z</time></trkpt><trkpt lat="42.5270387411153" lon="11.983943779978336"><ele>447.66666666666663</ele><time>2026-04-25T09:23:21.988Z</time></trkpt><trkpt lat="42.527108014625554" lon="11.984044572704663"><ele>447.3333333333333</ele><time>2026-04-25T09:23:24.988Z</time></trkpt><trkpt lat="42.527157771159644" lon="11.984100240107646"><ele>447.0</ele><time>2026-04-25T09:23:26.991Z</time></trkpt><trkpt lat="42.52721277128077" lon="11.984205523832264"><ele>446.8333333333333</ele><time>2026-04-25T09:23:29.991Z</time></trkpt><trkpt lat="42.52725931180288" lon="11.98426525298855"><ele>446.66666666666663</ele><time>2026-04-25T09:23:31.991Z</time></trkpt><trkpt lat="42.52732229858383" lon="11.98435406981333"><ele>446.5</ele><time>2026-04-25T09:23:34.99Z</time></trkpt><trkpt lat="42.52736126002526" lon="11.984435241448947"><ele>446.3333333333333</ele><time>2026-04-25T09:23:36.99Z</time></trkpt><trkpt lat="42.527404413417386" lon="11.9845194302801"><ele>446.16666666666663</ele><time>2026-04-25T09:23:38.99Z</time></trkpt><trkpt lat="42.52745240725462" lon="11.984605735257784"><ele>446.0</ele><time>2026-04-25T09:23:40.99Z</time></trkpt><trkpt lat="42.52747404646371" lon="11.984718288951951"><ele>445.99999999999994</ele><time>2026-04-25T09:23:42.99Z</time></trkpt><trkpt lat="42.52750565295982" lon="11.984825004282634"><ele>446.0</ele><time>2026-04-25T09:23:44.99Z</time></trkpt><trkpt lat="42.52752723194663" lon="11.98492414345445"><ele>446.0</ele><time>2026-04-25T09:23:46.99Z</time></trkpt><trkpt lat="42.52754923970794" lon="11.98502826075583"><ele>446.0</ele><time>2026-04-25T09:23:48.99Z</time></trkpt><trkpt lat="42.52756152948772" lon="11.985142979522598"><ele>445.99999999999994</ele><time>2026-04-25T09:23:50.99Z</time></trkpt><trkpt lat="42.52757551783794" lon="11.985264403757881"><ele>446.0</ele><time>2026-04-25T09:23:52.99Z</time></trkpt><trkpt lat="42.5275837027418" lon="11.985385036812824"><ele>445.99999999999994</ele><time>2026-04-25T09:23:54.99Z</time></trkpt><trkpt lat="42.5275890887847" lon="11.985495769280279"><ele>446.0</ele><time>2026-04-25T09:23:56.99Z</time></trkpt><trkpt lat="42.52758702185861" lon="11.98560262926546"><ele>446.0</ele><time>2026-04-25T09:23:58.99Z</time></trkpt><trkpt lat="42.52759103288704" lon="11.985708540252405"><ele>446.0</ele><time>2026-04-25T09:24:00.99Z</time></trkpt><trkpt lat="42.5275948644637" lon="11.985815196758345"><ele>445.99999999999994</ele><time>2026-04-25T09:24:02.99Z</time></trkpt><trkpt lat="42.52759255977622" lon="11.985910437245753"><ele>446.0</ele><time>2026-04-25T09:24:04.99Z</time></trkpt><trkpt lat="42.527591481569175" lon="11.9860425586615"><ele>446.49999999999994</ele><time>2026-04-25T09:24:07.99Z</time></trkpt><trkpt lat="42.52760440251615" lon="11.986126990061221"><ele>447.0</ele><time>2026-04-25T09:24:09.99Z</time></trkpt><trkpt lat="42.52761057261958" lon="11.986240415943865"><ele>447.5</ele><time>2026-04-25T09:24:12.99Z</time></trkpt><trkpt lat="42.52761453807596" lon="11.98635895392308"><ele>448.0</ele><time>2026-04-25T09:24:15.989Z</time></trkpt><trkpt lat="42.527621461627554" lon="11.986467920644671"><ele>448.49999999999994</ele><time>2026-04-25T09:24:18.989Z</time></trkpt><trkpt lat="42.527628641467764" lon="11.98656652286918"><ele>449.0</ele><time>2026-04-25T09:24:21.989Z</time></trkpt><trkpt lat="42.52763026740232" lon="11.986678683604426"><ele>449.16666666666663</ele><time>2026-04-25T09:24:24.989Z</time></trkpt><trkpt lat="42.52763254769423" lon="11.986785850229863"><ele>449.3333333333333</ele><time>2026-04-25T09:24:27.989Z</time></trkpt><trkpt lat="42.527642507044895" lon="11.986894053254233"><ele>449.5</ele><time>2026-04-25T09:24:30.989Z</time></trkpt><trkpt lat="42.52764398406307" lon="11.98699832481158"><ele>449.66666666666663</ele><time>2026-04-25T09:24:33.989Z</time></trkpt><trkpt lat="42.52764360095373" lon="11.987110121503433"><ele>449.8333333333333</ele><time>2026-04-25T09:24:36.989Z</time></trkpt><trkpt lat="42.52764506791187" lon="11.98721582511369"><ele>450.0</ele><time>2026-04-25T09:24:39.989Z</time></trkpt><trkpt lat="42.52765480284588" lon="11.987319743546195"><ele>450.0</ele><time>2026-04-25T09:24:42.989Z</time></trkpt><trkpt lat="42.527661224594716" lon="11.987419268897074"><ele>450.0</ele><time>2026-04-25T09:24:45.989Z</time></trkpt><trkpt lat="42.52766514257541" lon="11.987525445489588"><ele>450.0</ele><time>2026-04-25T09:24:48.989Z</time></trkpt><trkpt lat="42.527665928281564" lon="11.987633323318455"><ele>450.0</ele><time>2026-04-25T09:24:51.989Z</time></trkpt><trkpt lat="42.527669802491694" lon="11.987743617804137"><ele>450.0</ele><time>2026-04-25T09:24:54.989Z</time></trkpt><trkpt lat="42.527666534069034" lon="11.987845369812364"><ele>450.0</ele><time>2026-04-25T09:24:57.989Z</time></trkpt><trkpt lat="42.52766677758147" lon="11.987957326326013"><ele>450.28571428571433</ele><time>2026-04-25T09:25:00.989Z</time></trkpt><trkpt lat="42.52766983769808" lon="11.988058626221108"><ele>450.57142857142856</ele><time>2026-04-25T09:25:03.988Z</time></trkpt><trkpt lat="42.527675353244426" lon="11.9881469876755"><ele>450.8571428571429</ele><time>2026-04-25T09:25:06.988Z</time></trkpt><trkpt lat="42.52768405569791" lon="11.98823168059067"><ele>451.14285714285717</ele><time>2026-04-25T09:25:09.988Z</time></trkpt><trkpt lat="42.5276847745427" lon="11.988323474282002"><ele>451.42857142857144</ele><time>2026-04-25T09:27:22.988Z</time></trkpt><trkpt lat="42.52770837108468" lon="11.988419483351587"><ele>451.7142857142857</ele><time>2026-04-25T09:27:28.988Z</time></trkpt><trkpt lat="42.52771099116682" lon="11.988539801159364"><ele>452.0</ele><time>2026-04-25T09:27:32.988Z</time></trkpt><trkpt lat="42.52771365865963" lon="11.988663236543225"><ele>452.49999999999994</ele><time>2026-04-25T09:27:35.988Z</time></trkpt><trkpt lat="42.52771617340161" lon="11.988774291235359"><ele>453.0</ele><time>2026-04-25T09:27:38.99Z</time></trkpt><trkpt lat="42.527718852741124" lon="11.98888277199962"><ele>453.5</ele><time>2026-04-25T09:27:41.99Z</time></trkpt><trkpt lat="42.527727342002365" lon="11.988991330230755"><ele>454.0</ele><time>2026-04-25T09:27:44.99Z</time></trkpt><trkpt lat="42.527742983214885" lon="11.989090122403027"><ele>454.49999999999994</ele><time>2026-04-25T09:27:48.99Z</time></trkpt><trkpt lat="42.527767010924045" lon="11.989194259381115"><ele>455.0</ele><time>2026-04-25T09:27:52.99Z</time></trkpt><trkpt lat="42.52776357894206" lon="11.98931674465925"><ele>455.3333333333333</ele><time>2026-04-25T09:27:56.99Z</time></trkpt><trkpt lat="42.5277864643521" lon="11.989432063117585"><ele>455.66666666666663</ele><time>2026-04-25T09:28:00.99Z</time></trkpt><trkpt lat="42.52778266840707" lon="11.98956746683752"><ele>456.0</ele><time>2026-04-25T09:28:04.99Z</time></trkpt><trkpt lat="42.52780125281101" lon="11.989686702598549"><ele>456.33333333333337</ele><time>2026-04-25T09:28:08.99Z</time></trkpt><trkpt lat="42.527801980363314" lon="11.989778985001262"><ele>456.6666666666667</ele><time>2026-04-25T09:28:11.99Z</time></trkpt><trkpt lat="42.52780211781405" lon="11.989899705283175"><ele>457.0</ele><time>2026-04-25T09:28:14.99Z</time></trkpt><trkpt lat="42.527797802721444" lon="11.989996222444733"><ele>457.00000000000006</ele><time>2026-04-25T09:28:17.99Z</time></trkpt><trkpt lat="42.52779055091486" lon="11.990125248442686"><ele>457.0</ele><time>2026-04-25T09:28:20.99Z</time></trkpt><trkpt lat="42.527798036649884" lon="11.990223180114924"><ele>457.0</ele><time>2026-04-25T09:28:23.99Z</time></trkpt><trkpt lat="42.52778747058422" lon="11.990352998327658"><ele>457.0</ele><time>2026-04-25T09:28:26.99Z</time></trkpt><trkpt lat="42.52778930140491" lon="11.99047018685146"><ele>457.00000000000006</ele><time>2026-04-25T09:28:29.99Z</time></trkpt><trkpt lat="42.527801043721155" lon="11.99056215594704"><ele>457.0</ele><time>2026-04-25T09:28:31.99Z</time></trkpt><trkpt lat="42.52780978368532" lon="11.990651747465082"><ele>457.00000000000006</ele><time>2026-04-25T09:28:33.989Z</time></trkpt><trkpt lat="42.52782868062693" lon="11.990762411051886"><ele>457.0</ele><time>2026-04-25T09:28:36.989Z</time></trkpt><trkpt lat="42.52783923127507" lon="11.99086142688154"><ele>457.0</ele><time>2026-04-25T09:28:38.989Z</time></trkpt><trkpt lat="42.527846982886366" lon="11.990947092554018"><ele>457.0</ele><time>2026-04-25T09:28:40.989Z</time></trkpt><trkpt lat="42.52783942270199" lon="11.991036365016498"><ele>457.00000000000006</ele><time>2026-04-25T09:28:42.989Z</time></trkpt><trkpt lat="42.52782239108611" lon="11.991123751940224"><ele>457.0</ele><time>2026-04-25T09:28:44.989Z</time></trkpt><trkpt lat="42.52779929467991" lon="11.991265343458034"><ele>457.4285714285715</ele><time>2026-04-25T09:28:47.989Z</time></trkpt><trkpt lat="42.527779209968976" lon="11.99134776971858"><ele>457.8571428571429</ele><time>2026-04-25T09:28:50.989Z</time></trkpt><trkpt lat="42.52773678646842" lon="11.99141853896509"><ele>458.2857142857143</ele><time>2026-04-25T09:28:52.989Z</time></trkpt><trkpt lat="42.527690719733215" lon="11.991497019406738"><ele>458.7142857142857</ele><time>2026-04-25T09:28:54.989Z</time></trkpt><trkpt lat="42.52764443099766" lon="11.991603806705559"><ele>459.1428571428571</ele><time>2026-04-25T09:28:57.989Z</time></trkpt><trkpt lat="42.52760704239841" lon="11.991678110694352"><ele>459.5714285714285</ele><time>2026-04-25T09:28:59.989Z</time></trkpt><trkpt lat="42.52757018022621" lon="11.991747495697261"><ele>459.99999999999994</ele><time>2026-04-25T09:29:01.989Z</time></trkpt><trkpt lat="42.527531223656304" lon="11.991852524046218"><ele>460.6666666666667</ele><time>2026-04-25T09:29:04.989Z</time></trkpt><trkpt lat="42.52749868662549" lon="11.991946471310817"><ele>461.33333333333337</ele><time>2026-04-25T09:29:07.989Z</time></trkpt><trkpt lat="42.52745494729715" lon="11.992030853736624"><ele>462.0</ele><time>2026-04-25T09:29:10.989Z</time></trkpt><trkpt lat="42.527404160749356" lon="11.992137101884397"><ele>462.66666666666663</ele><time>2026-04-25T09:29:13.989Z</time></trkpt><trkpt lat="42.52736395570709" lon="11.992212052740898"><ele>463.3333333333333</ele><time>2026-04-25T09:29:16.989Z</time></trkpt><trkpt lat="42.52731187039396" lon="11.992305127207192"><ele>464.0</ele><time>2026-04-25T09:29:19.989Z</time></trkpt><trkpt lat="42.52725813222968" lon="11.992418017262967"><ele>465.3333333333333</ele><time>2026-04-25T09:29:23.988Z</time></trkpt><trkpt lat="42.5271958411631" lon="11.992515925265494"><ele>466.66666666666663</ele><time>2026-04-25T09:29:27.988Z</time></trkpt><trkpt lat="42.52714173730783" lon="11.992592197947685"><ele>468.0</ele><time>2026-04-25T09:29:31.988Z</time></trkpt><trkpt lat="42.52709558226901" lon="11.992685649407644"><ele>469.33333333333337</ele><time>2026-04-25T09:29:35.988Z</time></trkpt><trkpt lat="42.52704093987357" lon="11.992777701821048"><ele>470.6666666666667</ele><time>2026-04-25T09:29:39.988Z</time></trkpt><trkpt lat="42.52699350415911" lon="11.992869937992939"><ele>472.0</ele><time>2026-04-25T09:29:43.988Z</time></trkpt><trkpt lat="42.52694056293389" lon="11.99296533937814"><ele>472.0</ele><time>2026-04-25T09:29:47.99Z</time></trkpt><trkpt lat="42.52687056026814" lon="11.993043614353303"><ele>472.00000000000006</ele><time>2026-04-25T09:29:51.99Z</time></trkpt><trkpt lat="42.5268133380863" lon="11.993139162233815"><ele>472.00000000000006</ele><time>2026-04-25T09:29:55.99Z</time></trkpt><trkpt lat="42.52675178110623" lon="11.993233532150361"><ele>472.0</ele><time>2026-04-25T09:29:59.99Z</time></trkpt><trkpt lat="42.526695608712224" lon="11.993330110594083"><ele>472.0</ele><time>2026-04-25T09:30:03.99Z</time></trkpt><trkpt lat="42.52664262539505" lon="11.993426769067613"><ele>472.83333333333337</ele><time>2026-04-25T09:30:07.99Z</time></trkpt><trkpt lat="42.526588557919986" lon="11.993514369313607"><ele>473.6666666666667</ele><time>2026-04-25T09:30:11.99Z</time></trkpt><trkpt lat="42.52654332137803" lon="11.993595544830617"><ele>474.5</ele><time>2026-04-25T09:30:15.99Z</time></trkpt><trkpt lat="42.5265154322982" lon="11.993688416161843"><ele>475.33333333333337</ele><time>2026-04-25T09:30:19.99Z</time></trkpt><trkpt lat="42.52648564717958" lon="11.99379185175174"><ele>476.1666666666667</ele><time>2026-04-25T09:30:23.99Z</time></trkpt><trkpt lat="42.52646399077306" lon="11.993891563879846"><ele>477.0</ele><time>2026-04-25T09:30:27.99Z</time></trkpt><trkpt lat="42.52643566109888" lon="11.993992141342828"><ele>477.0</ele><time>2026-04-25T09:30:31.99Z</time></trkpt><trkpt lat="42.526416577435334" lon="11.99410865522602"><ele>477.0</ele><time>2026-04-25T09:30:35.99Z</time></trkpt><trkpt lat="42.5263925445476" lon="11.994212691712038"><ele>477.0</ele><time>2026-04-25T09:30:39.989Z</time></trkpt><trkpt lat="42.526384879865034" lon="11.99430086091288"><ele>477.0</ele><time>2026-04-25T09:30:42.989Z</time></trkpt><trkpt lat="42.52637363316722" lon="11.994409855552437"><ele>477.0</ele><time>2026-04-25T09:30:45.989Z</time></trkpt><trkpt lat="42.52636320512949" lon="11.994517902257185"><ele>477.0</ele><time>2026-04-25T09:30:48.989Z</time></trkpt><trkpt lat="42.52635167760926" lon="11.994622773641154"><ele>477.1666666666667</ele><time>2026-04-25T09:30:51.989Z</time></trkpt><trkpt lat="42.526343251221036" lon="11.994735452565525"><ele>477.33333333333337</ele><time>2026-04-25T09:30:54.989Z</time></trkpt><trkpt lat="42.52633725818529" lon="11.9948641445329"><ele>477.5</ele><time>2026-04-25T09:30:58.989Z</time></trkpt><trkpt lat="42.52633053781535" lon="11.994963180201818"><ele>477.6666666666667</ele><time>2026-04-25T09:31:01.989Z</time></trkpt><trkpt lat="42.52631948256446" lon="11.995047505229506"><ele>477.83333333333337</ele><time>2026-04-25T09:31:03.989Z</time></trkpt><trkpt lat="42.52633161181234" lon="11.99517671074418"><ele>478.0</ele><time>2026-04-25T09:31:06.989Z</time></trkpt><trkpt lat="42.526340798480554" lon="11.995287289096975"><ele>478.00000000000006</ele><time>2026-04-25T09:31:08.989Z</time></trkpt><trkpt lat="42.52633903616426" lon="11.995444061506744"><ele>478.0</ele><time>2026-04-25T09:31:12.989Z</time></trkpt><trkpt lat="42.52632528215048" lon="11.995539379137838"><ele>478.0</ele><time>2026-04-25T09:31:14.989Z</time></trkpt><trkpt lat="42.526319839976786" lon="11.99565178920281"><ele>478.0</ele><time>2026-04-25T09:31:17.989Z</time></trkpt><trkpt lat="42.526318491990345" lon="11.995761772126105"><ele>478.00000000000006</ele><time>2026-04-25T09:31:19.989Z</time></trkpt><trkpt lat="42.52631722976441" lon="11.99585526621318"><ele>478.0</ele><time>2026-04-25T09:31:21.989Z</time></trkpt><trkpt lat="42.52630985953758" lon="11.995945525060273"><ele>478.00000000000006</ele><time>2026-04-25T09:31:23.989Z</time></trkpt><trkpt lat="42.52629440659141" lon="11.996037030679298"><ele>478.0</ele><time>2026-04-25T09:31:25.988Z</time></trkpt><trkpt lat="42.526288885980954" lon="11.996129948013232"><ele>478.0</ele><time>2026-04-25T09:31:27.988Z</time></trkpt><trkpt lat="42.526285708988844" lon="11.996227752585401"><ele>478.0</ele><time>2026-04-25T09:31:29.988Z</time></trkpt><trkpt lat="42.52629304115594" lon="11.99634055321955"><ele>478.00000000000006</ele><time>2026-04-25T09:31:31.988Z</time></trkpt><trkpt lat="42.526305768413266" lon="11.99645690062569"><ele>478.0</ele><time>2026-04-25T09:31:34.988Z</time></trkpt><trkpt lat="42.52631477929332" lon="11.996565881580775"><ele>478.50000000000006</ele><time>2026-04-25T09:31:36.988Z</time></trkpt><trkpt lat="42.52632353384473" lon="11.996688823738973"><ele>479.0</ele><time>2026-04-25T09:31:39.988Z</time></trkpt><trkpt lat="42.526338189064724" lon="11.996789635133739"><ele>479.5</ele><time>2026-04-25T09:31:41.988Z</time></trkpt><trkpt lat="42.52634593301636" lon="11.996896622425348"><ele>480.0</ele><time>2026-04-25T09:31:43.988Z</time></trkpt><trkpt lat="42.52635607147341" lon="11.996986015685021"><ele>480.50000000000006</ele><time>2026-04-25T09:31:45.988Z</time></trkpt><trkpt lat="42.52638056236898" lon="11.997072671280309"><ele>481.0</ele><time>2026-04-25T09:31:48.988Z</time></trkpt><trkpt lat="42.526400684919736" lon="11.997179231175032"><ele>481.00000000000006</ele><time>2026-04-25T09:31:50.99Z</time></trkpt><trkpt lat="42.52642552017168" lon="11.997277702226326"><ele>481.0</ele><time>2026-04-25T09:31:52.99Z</time></trkpt><trkpt lat="42.52645020257882" lon="11.997385711454623"><ele>481.0</ele><time>2026-04-25T09:31:55.99Z</time></trkpt><trkpt lat="42.52645751043538" lon="11.997478482021988"><ele>481.0</ele><time>2026-04-25T09:31:57.989Z</time></trkpt><trkpt lat="42.526469303054036" lon="11.997578012233214"><ele>481.00000000000006</ele><time>2026-04-25T09:32:00.989Z</time></trkpt><trkpt lat="42.526465840320796" lon="11.99766878192924"><ele>481.0</ele><time>2026-04-25T09:32:02.989Z</time></trkpt><trkpt lat="42.52646762015907" lon="11.997815468084935"><ele>481.2857142857142</ele><time>2026-04-25T09:32:05.99Z</time></trkpt><trkpt lat="42.5264803598531" lon="11.99790728850188"><ele>481.57142857142856</ele><time>2026-04-25T09:32:08.99Z</time></trkpt><trkpt lat="42.52648035584799" lon="11.9980254578755"><ele>481.85714285714283</ele><time>2026-04-25T09:32:11.989Z</time></trkpt><trkpt lat="42.52647535758899" lon="11.998130043990408"><ele>482.1428571428571</ele><time>2026-04-25T09:32:13.989Z</time></trkpt><trkpt lat="42.52646134333916" lon="11.998216348728564"><ele>482.42857142857144</ele><time>2026-04-25T09:32:15.989Z</time></trkpt><trkpt lat="42.526464737590544" lon="11.998308011339164"><ele>482.7142857142857</ele><time>2026-04-25T09:32:17.989Z</time></trkpt><trkpt lat="42.526456213390226" lon="11.998406620384346"><ele>483.0</ele><time>2026-04-25T09:32:20.989Z</time></trkpt><trkpt lat="42.526469254676485" lon="11.99854270627848"><ele>483.42857142857144</ele><time>2026-04-25T09:32:23.989Z</time></trkpt><trkpt lat="42.5264784879419" lon="11.998627598381498"><ele>483.8571428571429</ele><time>2026-04-25T09:32:25.989Z</time></trkpt><trkpt lat="42.52647988518637" lon="11.99874173078313"><ele>484.2857142857143</ele><time>2026-04-25T09:32:29.989Z</time></trkpt><trkpt lat="42.52647717451011" lon="11.998828776535351"><ele>484.7142857142857</ele><time>2026-04-25T09:32:32.989Z</time></trkpt><trkpt lat="42.526478936848164" lon="11.998944330052295"><ele>485.14285714285717</ele><time>2026-04-25T09:32:35.989Z</time></trkpt><trkpt lat="42.52649459454336" lon="11.99904281249343"><ele>485.57142857142856</ele><time>2026-04-25T09:32:39.989Z</time></trkpt><trkpt lat="42.52649002169636" lon="11.999130536503577"><ele>486.0</ele><time>2026-04-25T09:32:42.989Z</time></trkpt><trkpt lat="42.526500792080554" lon="11.9992147890782"><ele>486.6666666666667</ele><time>2026-04-25T09:32:45.989Z</time></trkpt><trkpt lat="42.52650870069361" lon="11.999327510283054"><ele>487.33333333333337</ele><time>2026-04-25T09:32:49.989Z</time></trkpt><trkpt lat="42.52651010701695" lon="11.999429781223812"><ele>488.0</ele><time>2026-04-25T09:32:52.989Z</time></trkpt><trkpt lat="42.526510886846566" lon="11.99954660472527"><ele>488.6666666666667</ele><time>2026-04-25T09:32:56.989Z</time></trkpt><trkpt lat="42.526503330667765" lon="11.999662972808846"><ele>489.33333333333337</ele><time>2026-04-25T09:33:00.988Z</time></trkpt><trkpt lat="42.526500827582176" lon="11.999759514423593"><ele>490.0</ele><time>2026-04-25T09:33:03.988Z</time></trkpt><trkpt lat="42.52649291427464" lon="11.999869957835797"><ele>490.00000000000006</ele><time>2026-04-25T09:33:07.988Z</time></trkpt><trkpt lat="42.52648493703881" lon="11.999960104453361"><ele>490.0</ele><time>2026-04-25T09:33:10.988Z</time></trkpt><trkpt lat="42.52646087491285" lon="12.000064962368212"><ele>490.0</ele><time>2026-04-25T09:33:13.988Z</time></trkpt><trkpt lat="42.526438764391386" lon="12.000164624585802"><ele>490.0</ele><time>2026-04-25T09:33:17.988Z</time></trkpt><trkpt lat="42.526435495256024" lon="12.000285699293022"><ele>490.00000000000006</ele><time>2026-04-25T09:33:21.988Z</time></trkpt><trkpt lat="42.52643681950617" lon="12.000380723651968"><ele>490.0</ele><time>2026-04-25T09:33:24.988Z</time></trkpt><trkpt lat="42.526440739412955" lon="12.000497456305489"><ele>490.00000000000006</ele><time>2026-04-25T09:33:27.988Z</time></trkpt><trkpt lat="42.526434006125235" lon="12.00058306459648"><ele>490.0</ele><time>2026-04-25T09:33:29.988Z</time></trkpt><trkpt lat="42.52643073163334" lon="12.000691748780492"><ele>490.0</ele><time>2026-04-25T09:33:32.988Z</time></trkpt><trkpt lat="42.52642651039698" lon="12.000817817898405"><ele>490.0</ele><time>2026-04-25T09:33:35.988Z</time></trkpt><trkpt lat="42.526420674298656" lon="12.0009090153731"><ele>490.00000000000006</ele><time>2026-04-25T09:33:38.988Z</time></trkpt><trkpt lat="42.52642266887632" lon="12.001043549967703"><ele>490.0</ele><time>2026-04-25T09:33:41.988Z</time></trkpt><trkpt lat="42.526415234929075" lon="12.001134299022514"><ele>490.83333333333337</ele><time>2026-04-25T09:33:44.988Z</time></trkpt><trkpt lat="42.52642378748297" lon="12.001243386520974"><ele>491.6666666666667</ele><time>2026-04-25T09:33:47.987Z</time></trkpt><trkpt lat="42.526461836325495" lon="12.001356591175599"><ele>492.5</ele><time>2026-04-25T09:33:51.987Z</time></trkpt><trkpt lat="42.52649132589951" lon="12.001475004727503"><ele>493.33333333333337</ele><time>2026-04-25T09:33:55.987Z</time></trkpt><trkpt lat="42.52650330784054" lon="12.001577873016487"><ele>494.1666666666667</ele><time>2026-04-25T09:33:59.989Z</time></trkpt><trkpt lat="42.5265067764654" lon="12.001685941508935"><ele>495.0</ele><time>2026-04-25T09:34:03.989Z</time></trkpt><trkpt lat="42.526514615940606" lon="12.001793680914695"><ele>495.8571428571428</ele><time>2026-04-25T09:34:07.989Z</time></trkpt><trkpt lat="42.526526136327114" lon="12.001879079772351"><ele>496.71428571428567</ele><time>2026-04-25T09:34:10.99Z</time></trkpt><trkpt lat="42.52653388963417" lon="12.00197711671845"><ele>497.57142857142856</ele><time>2026-04-25T09:34:14.99Z</time></trkpt><trkpt lat="42.52655552738219" lon="12.002069143344556"><ele>498.4285714285714</ele><time>2026-04-25T09:34:17.989Z</time></trkpt><trkpt lat="42.526559138730335" lon="12.002160529415693"><ele>499.2857142857142</ele><time>2026-04-25T09:34:21.989Z</time></trkpt><trkpt lat="42.52655570574895" lon="12.002248085119765"><ele>500.14285714285717</ele><time>2026-04-25T09:34:24.989Z</time></trkpt><trkpt lat="42.52655875779941" lon="12.002333782173753"><ele>501.0</ele><time>2026-04-25T09:34:26.989Z</time></trkpt><trkpt lat="42.526569473940334" lon="12.002455881841984"><ele>501.42857142857144</ele><time>2026-04-25T09:34:30.989Z</time></trkpt><trkpt lat="42.526579750449045" lon="12.002550003831765"><ele>501.85714285714283</ele><time>2026-04-25T09:34:34.989Z</time></trkpt><trkpt lat="42.52659919600171" lon="12.00265924261215"><ele>502.2857142857143</ele><time>2026-04-25T09:34:38.989Z</time></trkpt><trkpt lat="42.526611995963925" lon="12.002762356391235"><ele>502.7142857142857</ele><time>2026-04-25T09:34:41.989Z</time></trkpt><trkpt lat="42.52662982821544" lon="12.00284634095787"><ele>503.1428571428571</ele><time>2026-04-25T09:34:45.989Z</time></trkpt><trkpt lat="42.52664276539653" lon="12.002931791582759"><ele>503.57142857142856</ele><time>2026-04-25T09:34:48.989Z</time></trkpt><trkpt lat="42.52665296138142" lon="12.003028249623666"><ele>504.0</ele><time>2026-04-25T09:34:51.989Z</time></trkpt><trkpt lat="42.52665834924239" lon="12.00314681741822"><ele>504.0</ele><time>2026-04-25T09:34:54.989Z</time></trkpt><trkpt lat="42.52667445821045" lon="12.003267444167081"><ele>504.0</ele><time>2026-04-25T09:34:58.989Z</time></trkpt><trkpt lat="42.52667555821128" lon="12.003367836758063"><ele>504.0</ele><time>2026-04-25T09:35:02.989Z</time></trkpt><trkpt lat="42.526675507927386" lon="12.003454485239754"><ele>504.0</ele><time>2026-04-25T09:35:05.988Z</time></trkpt><trkpt lat="42.5266916099928" lon="12.003553782175084"><ele>504.0</ele><time>2026-04-25T09:35:08.988Z</time></trkpt><trkpt lat="42.52670808922748" lon="12.00366491826408"><ele>504.0</ele><time>2026-04-25T09:35:12.988Z</time></trkpt><trkpt lat="42.526710964866815" lon="12.003764058121586"><ele>504.1428571428571</ele><time>2026-04-25T09:35:15.988Z</time></trkpt><trkpt lat="42.526726011789606" lon="12.003851678194598"><ele>504.2857142857143</ele><time>2026-04-25T09:35:18.988Z</time></trkpt><trkpt lat="42.5267384371941" lon="12.003969106541621"><ele>504.42857142857144</ele><time>2026-04-25T09:35:22.988Z</time></trkpt><trkpt lat="42.52674875475189" lon="12.004076181575435"><ele>504.57142857142856</ele><time>2026-04-25T09:35:25.988Z</time></trkpt><trkpt lat="42.52676743013742" lon="12.004159319012661"><ele>504.71428571428567</ele><time>2026-04-25T09:35:27.988Z</time></trkpt><trkpt lat="42.526776030578915" lon="12.004244679036812"><ele>504.85714285714283</ele><time>2026-04-25T09:35:29.988Z</time></trkpt><trkpt lat="42.52677883554956" lon="12.004338862927861"><ele>505.0</ele><time>2026-04-25T09:35:31.988Z</time></trkpt><trkpt lat="42.52678544822077" lon="12.004424112498858"><ele>505.33333333333337</ele><time>2026-04-25T09:35:33.988Z</time></trkpt><trkpt lat="42.526805858357555" lon="12.004544710991167"><ele>505.6666666666667</ele><time>2026-04-25T09:35:36.988Z</time></trkpt><trkpt lat="42.52684658895168" lon="12.004650158524571"><ele>506.0</ele><time>2026-04-25T09:35:40.988Z</time></trkpt><trkpt lat="42.5268670845258" lon="12.004762175272687"><ele>506.33333333333337</ele><time>2026-04-25T09:35:44.988Z</time></trkpt><trkpt lat="42.52688463101314" lon="12.004854311444197"><ele>506.6666666666667</ele><time>2026-04-25T09:35:47.988Z</time></trkpt><trkpt lat="42.5269133277656" lon="12.004975017532157"><ele>507.0</ele><time>2026-04-25T09:35:50.988Z</time></trkpt><trkpt lat="42.52692324692506" lon="12.005066366315356"><ele>508.0</ele><time>2026-04-25T09:35:53.987Z</time></trkpt><trkpt lat="42.52693892454857" lon="12.005187124123905"><ele>509.0</ele><time>2026-04-25T09:35:56.987Z</time></trkpt><trkpt lat="42.52695752987598" lon="12.005296754794616"><ele>510.0</ele><time>2026-04-25T09:36:00.987Z</time></trkpt><trkpt lat="42.5269994533074" lon="12.005376672997356"><ele>511.0</ele><time>2026-04-25T09:36:04.989Z</time></trkpt><trkpt lat="42.527037246363406" lon="12.00544980584311"><ele>512.0</ele><time>2026-04-25T09:36:07.989Z</time></trkpt><trkpt lat="42.52707515845438" lon="12.005535841410543"><ele>513.0</ele><time>2026-04-25T09:36:10.989Z</time></trkpt><trkpt lat="42.52710446530331" lon="12.005612099404727"><ele>514.0</ele><time>2026-04-25T09:36:13.989Z</time></trkpt><trkpt lat="42.52715058288567" lon="12.005715425330893"><ele>515.0</ele><time>2026-04-25T09:36:16.989Z</time></trkpt><trkpt lat="42.527184481815205" lon="12.005809523713483"><ele>516.0</ele><time>2026-04-25T09:36:19.989Z</time></trkpt><trkpt lat="42.527220656312814" lon="12.005906847428735"><ele>517.0</ele><time>2026-04-25T09:36:22.989Z</time></trkpt><trkpt lat="42.52725587924433" lon="12.005982401879832"><ele>518.0</ele><time>2026-04-25T09:36:25.988Z</time></trkpt><trkpt lat="42.527301655202095" lon="12.006061657101007"><ele>519.0</ele><time>2026-04-25T09:36:27.988Z</time></trkpt><trkpt lat="42.52733280574203" lon="12.006197886623053"><ele>520.0</ele><time>2026-04-25T09:36:30.988Z</time></trkpt><trkpt lat="42.52735404671545" lon="12.00632743632253"><ele>520.0</ele><time>2026-04-25T09:36:32.988Z</time></trkpt><trkpt lat="42.527334657930346" lon="12.006470821493428"><ele>520.0</ele><time>2026-04-25T09:36:34.988Z</time></trkpt><trkpt lat="42.52734564468218" lon="12.006601899404025"><ele>520.0</ele><time>2026-04-25T09:36:36.988Z</time></trkpt><trkpt lat="42.52736871668085" lon="12.006685824049953"><ele>520.0</ele><time>2026-04-25T09:36:37.988Z</time></trkpt><trkpt lat="42.52737863487617" lon="12.006843199300217"><ele>520.0</ele><time>2026-04-25T09:36:39.988Z</time></trkpt><trkpt lat="42.52735818829461" lon="12.006994050246753"><ele>519.6</ele><time>2026-04-25T09:36:41.988Z</time></trkpt><trkpt lat="42.527333580548486" lon="12.007148413482044"><ele>519.2</ele><time>2026-04-25T09:36:43.988Z</time></trkpt><trkpt lat="42.52732314190836" lon="12.00730986979354"><ele>518.8</ele><time>2026-04-25T09:36:45.988Z</time></trkpt><trkpt lat="42.527317530615534" lon="12.00747852229012"><ele>518.4</ele><time>2026-04-25T09:36:47.988Z</time></trkpt><trkpt lat="42.527321292615326" lon="12.007565886297233"><ele>518.0</ele><time>2026-04-25T09:36:48.988Z</time></trkpt><trkpt lat="42.52732076413596" lon="12.00767301926823"><ele>517.4</ele><time>2026-04-25T09:36:49.988Z</time></trkpt><trkpt lat="42.527314645389346" lon="12.007765661176087"><ele>516.8</ele><time>2026-04-25T09:36:50.988Z</time></trkpt><trkpt lat="42.527293407018796" lon="12.007923671262787"><ele>516.2</ele><time>2026-04-25T09:36:52.988Z</time></trkpt><trkpt lat="42.52727184271756" lon="12.008074395843519"><ele>515.6</ele><time>2026-04-25T09:36:54.988Z</time></trkpt><trkpt lat="42.527245411748424" lon="12.008205542635277"><ele>515.0</ele><time>2026-04-25T09:36:56.988Z</time></trkpt><trkpt lat="42.52721289610245" lon="12.00834138201775"><ele>513.1666666666666</ele><time>2026-04-25T09:36:58.988Z</time></trkpt><trkpt lat="42.52718084749944" lon="12.008478448670589"><ele>511.3333333333333</ele><time>2026-04-25T09:37:00.988Z</time></trkpt><trkpt lat="42.527160597407686" lon="12.008598201356582"><ele>509.5</ele><time>2026-04-25T09:37:02.988Z</time></trkpt><trkpt lat="42.52714941544788" lon="12.008716768141793"><ele>507.66666666666663</ele><time>2026-04-25T09:37:04.988Z</time></trkpt><trkpt lat="42.52715130209024" lon="12.008825184831435"><ele>505.8333333333333</ele><time>2026-04-25T09:37:06.988Z</time></trkpt><trkpt lat="42.527161035109536" lon="12.008925742642804"><ele>504.0</ele><time>2026-04-25T09:37:08.988Z</time></trkpt><trkpt lat="42.52717519938412" lon="12.00901324471805"><ele>504.0</ele><time>2026-04-25T09:37:10.988Z</time></trkpt><trkpt lat="42.527184628579235" lon="12.009102399464384"><ele>504.0</ele><time>2026-04-25T09:37:12.988Z</time></trkpt><trkpt lat="42.52720539200467" lon="12.009219073517778"><ele>504.0</ele><time>2026-04-25T09:37:15.987Z</time></trkpt><trkpt lat="42.52723850856576" lon="12.009320207217698"><ele>504.0</ele><time>2026-04-25T09:37:18.987Z</time></trkpt><trkpt lat="42.52725603586264" lon="12.009434989178345"><ele>504.0</ele><time>2026-04-25T09:37:21.987Z</time></trkpt><trkpt lat="42.52727406661578" lon="12.009535868214728"><ele>504.0</ele><time>2026-04-25T09:37:24.987Z</time></trkpt><trkpt lat="42.52729738278892" lon="12.009639512341344"><ele>503.7142857142857</ele><time>2026-04-25T09:37:27.987Z</time></trkpt><trkpt lat="42.527324569041994" lon="12.00972074254593"><ele>503.42857142857144</ele><time>2026-04-25T09:37:30.987Z</time></trkpt><trkpt lat="42.52732973992128" lon="12.009819540315686"><ele>503.1428571428571</ele><time>2026-04-25T09:37:33.987Z</time></trkpt><trkpt lat="42.52735089416309" lon="12.009913737430647"><ele>502.85714285714283</ele><time>2026-04-25T09:37:36.987Z</time></trkpt><trkpt lat="42.52737408586029" lon="12.0100087303469"><ele>502.57142857142856</ele><time>2026-04-25T09:37:39.987Z</time></trkpt><trkpt lat="42.52739450935825" lon="12.010121897863275"><ele>502.2857142857142</ele><time>2026-04-25T09:37:42.987Z</time></trkpt><trkpt lat="42.52741571334912" lon="12.010217662362175"><ele>501.99999999999994</ele><time>2026-04-25T09:37:45.987Z</time></trkpt><trkpt lat="42.527444491687" lon="12.010320710249752"><ele>503.1666666666667</ele><time>2026-04-25T09:37:48.987Z</time></trkpt><trkpt lat="42.52746366219014" lon="12.010428468324578"><ele>504.33333333333337</ele><time>2026-04-25T09:37:51.987Z</time></trkpt><trkpt lat="42.52748240416376" lon="12.010538527325904"><ele>505.5</ele><time>2026-04-25T09:37:54.987Z</time></trkpt><trkpt lat="42.527505627785935" lon="12.010639893925982"><ele>506.66666666666663</ele><time>2026-04-25T09:37:57.987Z</time></trkpt><trkpt lat="42.52752885943076" lon="12.010733512690878"><ele>507.8333333333333</ele><time>2026-04-25T09:38:00.987Z</time></trkpt><trkpt lat="42.527548045285464" lon="12.010837139504156"><ele>509.0</ele><time>2026-04-25T09:38:03.986Z</time></trkpt><trkpt lat="42.52756675517246" lon="12.010942879032035"><ele>510.49999999999994</ele><time>2026-04-25T09:38:06.986Z</time></trkpt><trkpt lat="42.52758814554566" lon="12.011039641600284"><ele>512.0</ele><time>2026-04-25T09:38:09.989Z</time></trkpt><trkpt lat="42.52760673417227" lon="12.011143402223682"><ele>513.5</ele><time>2026-04-25T09:38:12.989Z</time></trkpt><trkpt lat="42.527628134803244" lon="12.011241332301639"><ele>515.0</ele><time>2026-04-25T09:38:15.989Z</time></trkpt><trkpt lat="42.52764990498226" lon="12.011340673135111"><ele>516.5</ele><time>2026-04-25T09:38:18.988Z</time></trkpt><trkpt lat="42.52765794628726" lon="12.011448437376291"><ele>518.0</ele><time>2026-04-25T09:38:21.989Z</time></trkpt><trkpt lat="42.52766734672236" lon="12.011552510911347"><ele>519.1666666666666</ele><time>2026-04-25T09:38:24.989Z</time></trkpt><trkpt lat="42.52769547190017" lon="12.011664298101678"><ele>520.3333333333333</ele><time>2026-04-25T09:38:27.989Z</time></trkpt><trkpt lat="42.52771109165623" lon="12.011762896779265"><ele>521.5</ele><time>2026-04-25T09:38:30.989Z</time></trkpt><trkpt lat="42.52772979680731" lon="12.01185854300447"><ele>522.6666666666666</ele><time>2026-04-25T09:38:33.989Z</time></trkpt><trkpt lat="42.5277553956552" lon="12.011955636750931"><ele>523.8333333333334</ele><time>2026-04-25T09:38:36.989Z</time></trkpt><trkpt lat="42.527778954739404" lon="12.012046106897074"><ele>525.0</ele><time>2026-04-25T09:38:39.989Z</time></trkpt><trkpt lat="42.52780285339089" lon="12.01215269528981"><ele>525.0</ele><time>2026-04-25T09:38:42.989Z</time></trkpt><trkpt lat="42.52783455767032" lon="12.01224893488569"><ele>525.0</ele><time>2026-04-25T09:38:45.989Z</time></trkpt><trkpt lat="42.52785528245908" lon="12.012352292525131"><ele>525.0</ele><time>2026-04-25T09:38:48.988Z</time></trkpt><trkpt lat="42.52787666351798" lon="12.01243816020242"><ele>525.0</ele><time>2026-04-25T09:38:51.988Z</time></trkpt><trkpt lat="42.52789882876048" lon="12.012525038427501"><ele>525.0</ele><time>2026-04-25T09:38:54.988Z</time></trkpt><trkpt lat="42.527921474690544" lon="12.012611755807939"><ele>525.0</ele><time>2026-04-25T09:38:57.988Z</time></trkpt><trkpt lat="42.52792919975044" lon="12.012704750981554"><ele>525.0</ele><time>2026-04-25T09:39:00.988Z</time></trkpt><trkpt lat="42.52794969817394" lon="12.012786027625342"><ele>524.4285714285714</ele><time>2026-04-25T09:39:03.988Z</time></trkpt><trkpt lat="42.527970757001334" lon="12.012874405339968"><ele>523.8571428571429</ele><time>2026-04-25T09:39:06.988Z</time></trkpt><trkpt lat="42.5279964659571" lon="12.012962553996456"><ele>523.2857142857142</ele><time>2026-04-25T09:39:09.988Z</time></trkpt><trkpt lat="42.52801708467986" lon="12.013055198229681"><ele>522.7142857142858</ele><time>2026-04-25T09:39:12.988Z</time></trkpt><trkpt lat="42.52803824122527" lon="12.01314268587598"><ele>522.1428571428571</ele><time>2026-04-25T09:39:15.988Z</time></trkpt><trkpt lat="42.52806525040246" lon="12.01322414687334"><ele>521.5714285714286</ele><time>2026-04-25T09:39:18.988Z</time></trkpt><trkpt lat="42.528085158492125" lon="12.01331486574049"><ele>521.0</ele><time>2026-04-25T09:39:21.988Z</time></trkpt><trkpt lat="42.52809696264223" lon="12.013406327902164"><ele>522.4285714285714</ele><time>2026-04-25T09:39:24.988Z</time></trkpt><trkpt lat="42.5281130721759" lon="12.013495523906961"><ele>523.8571428571429</ele><time>2026-04-25T09:39:27.988Z</time></trkpt><trkpt lat="42.52813544417783" lon="12.013585864340271"><ele>525.2857142857143</ele><time>2026-04-25T09:39:30.988Z</time></trkpt><trkpt lat="42.52815601951291" lon="12.01367623485109"><ele>526.7142857142858</ele><time>2026-04-25T09:39:33.988Z</time></trkpt><trkpt lat="42.528175151745145" lon="12.013760217007642"><ele>528.1428571428572</ele><time>2026-04-25T09:39:36.988Z</time></trkpt><trkpt lat="42.52819242073583" lon="12.013857076836954"><ele>529.5714285714286</ele><time>2026-04-25T09:39:39.987Z</time></trkpt><trkpt lat="42.52821345311398" lon="12.013951235334861"><ele>531.0</ele><time>2026-04-25T09:39:42.987Z</time></trkpt><trkpt lat="42.52823486766873" lon="12.01404536629097"><ele>531.0</ele><time>2026-04-25T09:39:45.987Z</time></trkpt><trkpt lat="42.528258111226286" lon="12.01415894847954"><ele>531.0</ele><time>2026-04-25T09:39:49.987Z</time></trkpt><trkpt lat="42.52829393451775" lon="12.014239098424715"><ele>531.0</ele><time>2026-04-25T09:39:52.987Z</time></trkpt><trkpt lat="42.528320829402766" lon="12.014328150479534"><ele>531.0</ele><time>2026-04-25T09:39:55.987Z</time></trkpt><trkpt lat="42.5283503743256" lon="12.014410595010954"><ele>531.0</ele><time>2026-04-25T09:39:58.987Z</time></trkpt><trkpt lat="42.52836673482885" lon="12.014507677245803"><ele>531.0</ele><time>2026-04-25T09:40:01.987Z</time></trkpt><trkpt lat="42.52837873233077" lon="12.014594181834344"><ele>531.0</ele><time>2026-04-25T09:40:04.987Z</time></trkpt><trkpt lat="42.52839586973545" lon="12.014677020854101"><ele>531.0</ele><time>2026-04-25T09:40:07.987Z</time></trkpt><trkpt lat="42.52840326732616" lon="12.014788289075465"><ele>531.0</ele><time>2026-04-25T09:40:11.987Z</time></trkpt><trkpt lat="42.528429023624994" lon="12.01488424935759"><ele>531.0</ele><time>2026-04-25T09:40:15.989Z</time></trkpt><trkpt lat="42.52845201458002" lon="12.014984276945968"><ele>531.0</ele><time>2026-04-25T09:40:19.988Z</time></trkpt><trkpt lat="42.52847217525975" lon="12.015074936922367"><ele>531.0</ele><time>2026-04-25T09:40:22.989Z</time></trkpt><trkpt lat="42.528497198893746" lon="12.015175711062223"><ele>531.0</ele><time>2026-04-25T09:40:26.988Z</time></trkpt><trkpt lat="42.52851558624492" lon="12.0152590052499"><ele>531.0</ele><time>2026-04-25T09:40:29.989Z</time></trkpt><trkpt lat="42.528527346784465" lon="12.015344397447238"><ele>531.0</ele><time>2026-04-25T09:40:32.989Z</time></trkpt><trkpt lat="42.52854574431805" lon="12.015454410706774"><ele>531.0</ele><time>2026-04-25T09:40:36.988Z</time></trkpt><trkpt lat="42.528562563060575" lon="12.015540134288232"><ele>531.0</ele><time>2026-04-25T09:40:39.988Z</time></trkpt><trkpt lat="42.52858340182937" lon="12.015653086131003"><ele>531.0</ele><time>2026-04-25T09:40:43.988Z</time></trkpt><trkpt lat="42.52860184233765" lon="12.015744678514238"><ele>531.0</ele><time>2026-04-25T09:40:46.988Z</time></trkpt><trkpt lat="42.528620210741984" lon="12.015841072595286"><ele>531.0</ele><time>2026-04-25T09:40:49.988Z</time></trkpt><trkpt lat="42.528627561562146" lon="12.015936965465157"><ele>531.0</ele><time>2026-04-25T09:40:52.988Z</time></trkpt><trkpt lat="42.52864478200821" lon="12.016024634654725"><ele>531.0</ele><time>2026-04-25T09:40:55.988Z</time></trkpt><trkpt lat="42.52867436563394" lon="12.016105753958197"><ele>531.0</ele><time>2026-04-25T09:40:58.988Z</time></trkpt><trkpt lat="42.528696691183484" lon="12.016219657419429"><ele>531.0</ele><time>2026-04-25T09:41:02.988Z</time></trkpt><trkpt lat="42.528713686319215" lon="12.016305660377508"><ele>531.0</ele><time>2026-04-25T09:41:05.988Z</time></trkpt><trkpt lat="42.52872791445373" lon="12.016395372047674"><ele>531.0</ele><time>2026-04-25T09:41:08.988Z</time></trkpt><trkpt lat="42.528748368763594" lon="12.016481238575054"><ele>531.0</ele><time>2026-04-25T09:41:11.988Z</time></trkpt><trkpt lat="42.52876296828259" lon="12.016566103164203"><ele>531.0</ele><time>2026-04-25T09:41:14.988Z</time></trkpt><trkpt lat="42.52878883341073" lon="12.016652808304492"><ele>532.5714285714286</ele><time>2026-04-25T09:41:17.988Z</time></trkpt><trkpt lat="42.52880515301387" lon="12.016749260673324"><ele>534.1428571428572</ele><time>2026-04-25T09:41:20.988Z</time></trkpt><trkpt lat="42.528821530456234" lon="12.016845096110591"><ele>535.7142857142858</ele><time>2026-04-25T09:41:23.987Z</time></trkpt><trkpt lat="42.52883844278863" lon="12.016955193372857"><ele>537.2857142857143</ele><time>2026-04-25T09:41:27.987Z</time></trkpt><trkpt lat="42.528858894605314" lon="12.01705795020457"><ele>538.8571428571429</ele><time>2026-04-25T09:41:31.987Z</time></trkpt><trkpt lat="42.528872793134894" lon="12.01714345286596"><ele>540.4285714285714</ele><time>2026-04-25T09:41:34.987Z</time></trkpt><trkpt lat="42.52888258279478" lon="12.017235911184509"><ele>542.0</ele><time>2026-04-25T09:41:37.987Z</time></trkpt><trkpt lat="42.52890948925896" lon="12.017344313947131"><ele>542.0</ele><time>2026-04-25T09:41:41.987Z</time></trkpt><trkpt lat="42.528930431226954" lon="12.017427879977562"><ele>542.0</ele><time>2026-04-25T09:41:44.987Z</time></trkpt><trkpt lat="42.52895839579375" lon="12.017536179187728"><ele>542.0</ele><time>2026-04-25T09:41:48.987Z</time></trkpt><trkpt lat="42.52898536658437" lon="12.01762078059249"><ele>542.0</ele><time>2026-04-25T09:41:51.987Z</time></trkpt><trkpt lat="42.52902129981967" lon="12.017699409187784"><ele>542.0</ele><time>2026-04-25T09:41:54.987Z</time></trkpt><trkpt lat="42.52906038802394" lon="12.017786096579337"><ele>542.0</ele><time>2026-04-25T09:41:57.987Z</time></trkpt><trkpt lat="42.529095975623136" lon="12.017881949117118"><ele>542.0</ele><time>2026-04-25T09:42:00.987Z</time></trkpt><trkpt lat="42.52913727603939" lon="12.017977031914597"><ele>542.1428571428571</ele><time>2026-04-25T09:42:03.987Z</time></trkpt><trkpt lat="42.529169354284086" lon="12.018051338005675"><ele>542.2857142857143</ele><time>2026-04-25T09:42:05.987Z</time></trkpt><trkpt lat="42.529213593233045" lon="12.018146113143802"><ele>542.4285714285714</ele><time>2026-04-25T09:42:08.987Z</time></trkpt><trkpt lat="42.52925351438084" lon="12.018214783523119"><ele>542.5714285714286</ele><time>2026-04-25T09:42:11.986Z</time></trkpt><trkpt lat="42.52928483514884" lon="12.018303672237877"><ele>542.7142857142857</ele><time>2026-04-25T09:42:14.986Z</time></trkpt><trkpt lat="42.52932746269811" lon="12.018398491203824"><ele>542.8571428571429</ele><time>2026-04-25T09:42:17.986Z</time></trkpt><trkpt lat="42.529369870401176" lon="12.018480849183517"><ele>543.0</ele><time>2026-04-25T09:42:20.988Z</time></trkpt><trkpt lat="42.52940680190519" lon="12.018563289795612"><ele>543.0</ele><time>2026-04-25T09:42:23.989Z</time></trkpt><trkpt lat="42.5294626303241" lon="12.018659009604256"><ele>543.0</ele><time>2026-04-25T09:42:26.989Z</time></trkpt><trkpt lat="42.52951424056404" lon="12.018768188016564"><ele>543.0</ele><time>2026-04-25T09:42:29.988Z</time></trkpt><trkpt lat="42.5295695651947" lon="12.01886899622551"><ele>543.0</ele><time>2026-04-25T09:42:32.989Z</time></trkpt><trkpt lat="42.529609019271255" lon="12.018939252030144"><ele>543.0</ele><time>2026-04-25T09:42:34.989Z</time></trkpt><trkpt lat="42.52965075497872" lon="12.01900569764175"><ele>543.0</ele><time>2026-04-25T09:42:36.989Z</time></trkpt><trkpt lat="42.52970537991323" lon="12.019092216717569"><ele>543.0</ele><time>2026-04-25T09:42:39.989Z</time></trkpt><trkpt lat="42.52975540043563" lon="12.019193272205403"><ele>543.0</ele><time>2026-04-25T09:42:42.988Z</time></trkpt><trkpt lat="42.52979360832406" lon="12.019274521463021"><ele>543.0</ele><time>2026-04-25T09:42:44.988Z</time></trkpt><trkpt lat="42.529844417859024" lon="12.01938966057848"><ele>543.0</ele><time>2026-04-25T09:42:47.988Z</time></trkpt><trkpt lat="42.52988294565617" lon="12.019478185479032"><ele>543.0</ele><time>2026-04-25T09:42:49.988Z</time></trkpt><trkpt lat="42.52991155388627" lon="12.019583076403144"><ele>543.0</ele><time>2026-04-25T09:42:51.988Z</time></trkpt><trkpt lat="42.52992538575886" lon="12.01968152270905"><ele>543.0</ele><time>2026-04-25T09:42:53.988Z</time></trkpt><trkpt lat="42.52993413194768" lon="12.01979933992761"><ele>543.0</ele><time>2026-04-25T09:42:55.988Z</time></trkpt><trkpt lat="42.5299369887733" lon="12.019886340239085"><ele>543.0</ele><time>2026-04-25T09:42:57.988Z</time></trkpt><trkpt lat="42.5299249453021" lon="12.019974499513342"><ele>543.0</ele><time>2026-04-25T09:42:59.988Z</time></trkpt><trkpt lat="42.52990069105507" lon="12.020073874638687"><ele>543.0</ele><time>2026-04-25T09:43:02.988Z</time></trkpt><trkpt lat="42.529876914549625" lon="12.020160304331059"><ele>543.0</ele><time>2026-04-25T09:43:05.988Z</time></trkpt><trkpt lat="42.52984550323908" lon="12.020253174095487"><ele>543.0</ele><time>2026-04-25T09:43:09.988Z</time></trkpt><trkpt lat="42.529830712505465" lon="12.020353274658122"><ele>542.7142857142858</ele><time>2026-04-25T09:43:13.988Z</time></trkpt><trkpt lat="42.52980084974206" lon="12.020458674463278"><ele>542.4285714285714</ele><time>2026-04-25T09:43:17.988Z</time></trkpt><trkpt lat="42.529779490410924" lon="12.02055848083508"><ele>542.1428571428571</ele><time>2026-04-25T09:43:21.988Z</time></trkpt><trkpt lat="42.52974737075484" lon="12.02063554793408"><ele>541.8571428571429</ele><time>2026-04-25T09:43:24.988Z</time></trkpt><trkpt lat="42.52972616261907" lon="12.020719476172067"><ele>541.5714285714286</ele><time>2026-04-25T09:43:27.988Z</time></trkpt><trkpt lat="42.52971984741697" lon="12.020804786183078"><ele>541.2857142857143</ele><time>2026-04-25T09:43:30.987Z</time></trkpt><trkpt lat="42.5297031442951" lon="12.020911087395708"><ele>541.0</ele><time>2026-04-25T09:43:34.987Z</time></trkpt><trkpt lat="42.52969709850721" lon="12.021000701208099"><ele>541.6666666666667</ele><time>2026-04-25T09:43:37.987Z</time></trkpt><trkpt lat="42.52969179988503" lon="12.021101500472874"><ele>542.3333333333334</ele><time>2026-04-25T09:43:41.987Z</time></trkpt><trkpt lat="42.52971446955394" lon="12.02119915641923"><ele>543.0</ele><time>2026-04-25T09:43:45.987Z</time></trkpt><trkpt lat="42.52972524348676" lon="12.021295209253713"><ele>543.6666666666666</ele><time>2026-04-25T09:43:49.987Z</time></trkpt><trkpt lat="42.529760970817094" lon="12.021383382520439"><ele>544.3333333333333</ele><time>2026-04-25T09:43:53.987Z</time></trkpt><trkpt lat="42.52980558611641" lon="12.021470767121155"><ele>545.0</ele><time>2026-04-25T09:43:57.987Z</time></trkpt><trkpt lat="42.52985740806213" lon="12.02156125415553"><ele>545.0</ele><time>2026-04-25T09:44:01.987Z</time></trkpt><trkpt lat="42.52990821179935" lon="12.021643989233779"><ele>545.0</ele><time>2026-04-25T09:44:05.987Z</time></trkpt><trkpt lat="42.52996244630243" lon="12.021723935446964"><ele>545.0</ele><time>2026-04-25T09:44:09.987Z</time></trkpt><trkpt lat="42.53001530065995" lon="12.021804264550022"><ele>545.0</ele><time>2026-04-25T09:44:13.987Z</time></trkpt><trkpt lat="42.53007108193226" lon="12.021873611136805"><ele>545.0</ele><time>2026-04-25T09:44:17.987Z</time></trkpt><trkpt lat="42.53012775930067" lon="12.021944352989093"><ele>545.0</ele><time>2026-04-25T09:44:21.986Z</time></trkpt><trkpt lat="42.53017889381017" lon="12.022019002198807"><ele>544.1666666666666</ele><time>2026-04-25T09:44:25.986Z</time></trkpt><trkpt lat="42.530221822374386" lon="12.022113968119129"><ele>543.3333333333333</ele><time>2026-04-25T09:44:29.988Z</time></trkpt><trkpt lat="42.53027288657675" lon="12.022201324615581"><ele>542.5</ele><time>2026-04-25T09:44:33.989Z</time></trkpt><trkpt lat="42.530323833586394" lon="12.022278129728901"><ele>541.6666666666666</ele><time>2026-04-25T09:44:37.988Z</time></trkpt><trkpt lat="42.530372281119526" lon="12.022355695031456"><ele>540.8333333333334</ele><time>2026-04-25T09:44:41.989Z</time></trkpt><trkpt lat="42.53042601465237" lon="12.022436664284735"><ele>540.0</ele><time>2026-04-25T09:44:45.989Z</time></trkpt><trkpt lat="42.530471233152745" lon="12.022523175900364"><ele>542.4285714285714</ele><time>2026-04-25T09:44:49.989Z</time></trkpt><trkpt lat="42.530515062905735" lon="12.022586709452302"><ele>544.8571428571428</ele><time>2026-04-25T09:44:52.989Z</time></trkpt><trkpt lat="42.530568672369455" lon="12.02266905661459"><ele>547.2857142857142</ele><time>2026-04-25T09:44:56.989Z</time></trkpt><trkpt lat="42.530609216783525" lon="12.022740662106347"><ele>549.7142857142857</ele><time>2026-04-25T09:44:59.988Z</time></trkpt><trkpt lat="42.530667669505604" lon="12.022816646581532"><ele>552.1428571428571</ele><time>2026-04-25T09:45:03.988Z</time></trkpt><trkpt lat="42.53071078024166" lon="12.022885547793736"><ele>554.5714285714286</ele><time>2026-04-25T09:45:06.988Z</time></trkpt><trkpt lat="42.53076330924585" lon="12.022971023205903"><ele>557.0</ele><time>2026-04-25T09:45:10.988Z</time></trkpt><trkpt lat="42.53080803363699" lon="12.02304600191914"><ele>557.0</ele><time>2026-04-25T09:45:13.988Z</time></trkpt><trkpt lat="42.53085392278534" lon="12.023107567339054"><ele>557.0</ele><time>2026-04-25T09:45:16.988Z</time></trkpt><trkpt lat="42.530903632834736" lon="12.023176132420138"><ele>557.0</ele><time>2026-04-25T09:45:19.988Z</time></trkpt><trkpt lat="42.530964110209666" lon="12.023253787151738"><ele>557.0</ele><time>2026-04-25T09:45:23.988Z</time></trkpt><trkpt lat="42.53102379217054" lon="12.023330004038378"><ele>557.0</ele><time>2026-04-25T09:45:27.988Z</time></trkpt><trkpt lat="42.5310865644201" lon="12.023404903078996"><ele>557.0</ele><time>2026-04-25T09:45:31.988Z</time></trkpt><trkpt lat="42.531141018205794" lon="12.023486382531981"><ele>556.5714285714286</ele><time>2026-04-25T09:45:35.988Z</time></trkpt><trkpt lat="42.531192571228054" lon="12.023546250636011"><ele>556.1428571428571</ele><time>2026-04-25T09:45:38.988Z</time></trkpt><trkpt lat="42.53123220421435" lon="12.023614538192806"><ele>555.7142857142857</ele><time>2026-04-25T09:45:41.988Z</time></trkpt><trkpt lat="42.53128237627074" lon="12.02367140047536"><ele>555.2857142857142</ele><time>2026-04-25T09:45:44.988Z</time></trkpt><trkpt lat="42.53132127266097" lon="12.023738795690146"><ele>554.8571428571428</ele><time>2026-04-25T09:45:47.988Z</time></trkpt><trkpt lat="42.53137149442382" lon="12.023794376348222"><ele>554.4285714285714</ele><time>2026-04-25T09:45:50.987Z</time></trkpt><trkpt lat="42.53141806119594" lon="12.023857411478183"><ele>554.0</ele><time>2026-04-25T09:45:53.987Z</time></trkpt><trkpt lat="42.53147553974196" lon="12.023935864474975"><ele>554.0</ele><time>2026-04-25T09:45:57.987Z</time></trkpt><trkpt lat="42.53153289916928" lon="12.023992453241918"><ele>554.0</ele><time>2026-04-25T09:46:00.987Z</time></trkpt><trkpt lat="42.53158481525641" lon="12.024048539125625"><ele>554.0</ele><time>2026-04-25T09:46:03.987Z</time></trkpt><trkpt lat="42.53166428540943" lon="12.024102277073387"><ele>554.0</ele><time>2026-04-25T09:46:07.987Z</time></trkpt><trkpt lat="42.531738033471036" lon="12.024147188294252"><ele>554.0</ele><time>2026-04-25T09:46:11.987Z</time></trkpt><trkpt lat="42.531796103310825" lon="12.024183339414565"><ele>554.0</ele><time>2026-04-25T09:46:14.987Z</time></trkpt><trkpt lat="42.531870376093416" lon="12.024220409983212"><ele>555.1666666666666</ele><time>2026-04-25T09:46:18.987Z</time></trkpt><trkpt lat="42.53194754504762" lon="12.024267209750905"><ele>556.3333333333333</ele><time>2026-04-25T09:46:22.987Z</time></trkpt><trkpt lat="42.532025528325015" lon="12.024308363828075"><ele>557.5</ele><time>2026-04-25T09:46:26.987Z</time></trkpt><trkpt lat="42.53209939173329" lon="12.024346985422218"><ele>558.6666666666666</ele><time>2026-04-25T09:46:30.987Z</time></trkpt><trkpt lat="42.532175635805345" lon="12.024390811964546"><ele>559.8333333333334</ele><time>2026-04-25T09:46:34.988Z</time></trkpt><trkpt lat="42.53224686877059" lon="12.024425009520792"><ele>561.0</ele><time>2026-04-25T09:46:38.989Z</time></trkpt><trkpt lat="42.53230503703011" lon="12.024469463094372"><ele>561.0</ele><time>2026-04-25T09:46:41.989Z</time></trkpt><trkpt lat="42.53237303175839" lon="12.024519117771126"><ele>561.0</ele><time>2026-04-25T09:46:45.988Z</time></trkpt><trkpt lat="42.532445219569055" lon="12.024562310800478"><ele>561.0</ele><time>2026-04-25T09:46:49.988Z</time></trkpt><trkpt lat="42.532515551545146" lon="12.024610795040827"><ele>561.0</ele><time>2026-04-25T09:46:53.988Z</time></trkpt><trkpt lat="42.53258778102386" lon="12.024666865846768"><ele>561.0</ele><time>2026-04-25T09:46:57.988Z</time></trkpt><trkpt lat="42.53265860486904" lon="12.024730814893523"><ele>561.0</ele><time>2026-04-25T09:47:01.988Z</time></trkpt><trkpt lat="42.53270497285928" lon="12.024795428186861"><ele>561.0</ele><time>2026-04-25T09:47:05.988Z</time></trkpt><trkpt lat="42.532760305591395" lon="12.024853072782754"><ele>561.0</ele><time>2026-04-25T09:47:08.987Z</time></trkpt><trkpt lat="42.53281602498708" lon="12.024913798530907"><ele>561.0</ele><time>2026-04-25T09:47:12.987Z</time></trkpt><trkpt lat="42.53287459211423" lon="12.024976730875014"><ele>561.0</ele><time>2026-04-25T09:47:15.987Z</time></trkpt><trkpt lat="42.53293602651404" lon="12.025023827816943"><ele>561.0</ele><time>2026-04-25T09:47:18.987Z</time></trkpt><trkpt lat="42.53300113643218" lon="12.025081802892634"><ele>561.0</ele><time>2026-04-25T09:47:22.987Z</time></trkpt><trkpt lat="42.53307222042738" lon="12.025143999794825"><ele>561.0</ele><time>2026-04-25T09:47:26.987Z</time></trkpt><trkpt lat="42.533143721857584" lon="12.025197274923462"><ele>562.0</ele><time>2026-04-25T09:47:30.987Z</time></trkpt><trkpt lat="42.533193180674445" lon="12.025251455341083"><ele>563.0</ele><time>2026-04-25T09:47:33.987Z</time></trkpt><trkpt lat="42.533247257047414" lon="12.025301320889294"><ele>564.0</ele><time>2026-04-25T09:47:36.987Z</time></trkpt><trkpt lat="42.53330911242708" lon="12.025340746511194"><ele>565.0</ele><time>2026-04-25T09:47:39.987Z</time></trkpt><trkpt lat="42.5333738199861" lon="12.025387484508023"><ele>566.0</ele><time>2026-04-25T09:47:42.987Z</time></trkpt><trkpt lat="42.53344349346018" lon="12.025415244922762"><ele>567.0</ele><time>2026-04-25T09:47:45.987Z</time></trkpt><trkpt lat="42.53350896665003" lon="12.025449461445472"><ele>568.0</ele><time>2026-04-25T09:47:48.987Z</time></trkpt><trkpt lat="42.53357149601964" lon="12.025480356149663"><ele>568.0</ele><time>2026-04-25T09:47:51.987Z</time></trkpt><trkpt lat="42.5336401914267" lon="12.025504950312662"><ele>568.0</ele><time>2026-04-25T09:47:54.987Z</time></trkpt><trkpt lat="42.53371197861376" lon="12.025554878799152"><ele>568.0</ele><time>2026-04-25T09:47:57.986Z</time></trkpt><trkpt lat="42.53378849474183" lon="12.02560483866385"><ele>568.0</ele><time>2026-04-25T09:48:00.986Z</time></trkpt><trkpt lat="42.533868280333266" lon="12.025671199717358"><ele>568.0</ele><time>2026-04-25T09:48:03.986Z</time></trkpt><trkpt lat="42.5339166145688" lon="12.025728136546386"><ele>568.0</ele><time>2026-04-25T09:48:05.986Z</time></trkpt><trkpt lat="42.53397876276223" lon="12.025824652858347"><ele>570.1428571428571</ele><time>2026-04-25T09:48:08.986Z</time></trkpt><trkpt lat="42.53403262318233" lon="12.025896298509377"><ele>572.2857142857142</ele><time>2026-04-25T09:48:10.986Z</time></trkpt><trkpt lat="42.534073052871406" lon="12.025980424579295"><ele>574.4285714285714</ele><time>2026-04-25T09:48:12.986Z</time></trkpt><trkpt lat="42.53411114095661" lon="12.026052615621474"><ele>576.5714285714286</ele><time>2026-04-25T09:48:14.986Z</time></trkpt><trkpt lat="42.53414501634381" lon="12.026147153018957"><ele>578.7142857142858</ele><time>2026-04-25T09:48:16.986Z</time></trkpt><trkpt lat="42.534184169306116" lon="12.026226226965786"><ele>580.8571428571429</ele><time>2026-04-25T09:48:18.986Z</time></trkpt><trkpt lat="42.53422810783663" lon="12.026298143199167"><ele>583.0</ele><time>2026-04-25T09:48:20.986Z</time></trkpt><trkpt lat="42.534282559120726" lon="12.026400671406492"><ele>583.0000000000001</ele><time>2026-04-25T09:48:23.986Z</time></trkpt><trkpt lat="42.53432211305111" lon="12.026482054947639"><ele>583.0</ele><time>2026-04-25T09:48:25.986Z</time></trkpt><trkpt lat="42.5343546284041" lon="12.026567918725116"><ele>583.0</ele><time>2026-04-25T09:48:27.986Z</time></trkpt><trkpt lat="42.53439005122567" lon="12.02665415269177"><ele>583.0</ele><time>2026-04-25T09:48:29.986Z</time></trkpt><trkpt lat="42.53443018307244" lon="12.026725756667128"><ele>583.0</ele><time>2026-04-25T09:48:31.986Z</time></trkpt><trkpt lat="42.53447231634994" lon="12.026794950606229"><ele>583.0000000000001</ele><time>2026-04-25T09:48:33.986Z</time></trkpt><trkpt lat="42.53451338726556" lon="12.026873048117094"><ele>583.0</ele><time>2026-04-25T09:48:35.985Z</time></trkpt><trkpt lat="42.53453609348354" lon="12.026990004544114"><ele>584.1666666666667</ele><time>2026-04-25T09:48:37.983Z</time></trkpt><trkpt lat="42.534578054370265" lon="12.027086790409607"><ele>585.3333333333334</ele><time>2026-04-25T09:48:39.984Z</time></trkpt><trkpt lat="42.5346077859791" lon="12.0271775787092"><ele>586.5</ele><time>2026-04-25T09:48:41.982Z</time></trkpt><trkpt lat="42.534646453213085" lon="12.027268810160185"><ele>587.6666666666666</ele><time>2026-04-25T09:48:43.981Z</time></trkpt><trkpt lat="42.534680647787255" lon="12.027359115975429"><ele>588.8333333333333</ele><time>2026-04-25T09:48:45.98Z</time></trkpt><trkpt lat="42.534719309211305" lon="12.027455438615588"><ele>590.0</ele><time>2026-04-25T09:48:47.979Z</time></trkpt><trkpt lat="42.5347596779818" lon="12.027539752129305"><ele>590.0000000000001</ele><time>2026-04-25T09:48:49.978Z</time></trkpt><trkpt lat="42.534795687006714" lon="12.027631555429933"><ele>590.0</ele><time>2026-04-25T09:48:51.977Z</time></trkpt><trkpt lat="42.53484286455641" lon="12.027701900619808"><ele>590.0</ele><time>2026-04-25T09:48:53.976Z</time></trkpt><trkpt lat="42.53487491543711" lon="12.02777810549172"><ele>590.0</ele><time>2026-04-25T09:48:55.975Z</time></trkpt><trkpt lat="42.53490195921473" lon="12.027863601836259"><ele>590.0</ele><time>2026-04-25T09:48:57.975Z</time></trkpt><trkpt lat="42.534930226141974" lon="12.027940300231679"><ele>590.0000000000001</ele><time>2026-04-25T09:48:59.974Z</time></trkpt><trkpt lat="42.53496894816418" lon="12.028034104475186"><ele>590.0</ele><time>2026-04-25T09:49:01.974Z</time></trkpt><trkpt lat="42.5349976883089" lon="12.028124527665527"><ele>590.0000000000001</ele><time>2026-04-25T09:49:03.973Z</time></trkpt><trkpt lat="42.53503815499683" lon="12.028201693393353"><ele>590.0</ele><time>2026-04-25T09:49:05.973Z</time></trkpt><trkpt lat="42.535068486636774" lon="12.028280937540634"><ele>590.0</ele><time>2026-04-25T09:49:07.973Z</time></trkpt><trkpt lat="42.535097984897796" lon="12.028378202979761"><ele>590.0</ele><time>2026-04-25T09:49:09.972Z</time></trkpt><trkpt lat="42.53514307342712" lon="12.028449990944553"><ele>590.0</ele><time>2026-04-25T09:49:11.972Z</time></trkpt><trkpt lat="42.53516489066556" lon="12.028541089411355"><ele>590.0000000000001</ele><time>2026-04-25T09:49:13.972Z</time></trkpt><trkpt lat="42.53518813401324" lon="12.028631357145002"><ele>590.0</ele><time>2026-04-25T09:49:15.972Z</time></trkpt><trkpt lat="42.53521765873262" lon="12.028722565853707"><ele>589.5714285714287</ele><time>2026-04-25T09:49:17.971Z</time></trkpt><trkpt lat="42.535238411552946" lon="12.028809448848284"><ele>589.1428571428571</ele><time>2026-04-25T09:49:19.971Z</time></trkpt><trkpt lat="42.535258978574184" lon="12.028893697876896"><ele>588.7142857142858</ele><time>2026-04-25T09:49:21.971Z</time></trkpt><trkpt lat="42.53527123016608" lon="12.028999522296703"><ele>588.2857142857143</ele><time>2026-04-25T09:49:23.971Z</time></trkpt><trkpt lat="42.535289607751935" lon="12.029109820195638"><ele>587.8571428571429</ele><time>2026-04-25T09:49:25.971Z</time></trkpt><trkpt lat="42.53529803704423" lon="12.029215334759163"><ele>587.4285714285714</ele><time>2026-04-25T09:49:27.971Z</time></trkpt><trkpt lat="42.53531774462366" lon="12.029303467932227"><ele>587.0</ele><time>2026-04-25T09:49:29.97Z</time></trkpt><trkpt lat="42.53534619103113" lon="12.02942085713436"><ele>586.6666666666666</ele><time>2026-04-25T09:49:31.97Z</time></trkpt><trkpt lat="42.53537590908373" lon="12.029503726712454"><ele>586.3333333333333</ele><time>2026-04-25T09:49:33.97Z</time></trkpt><trkpt lat="42.53537919414746" lon="12.029635202935495"><ele>586.0</ele><time>2026-04-25T09:49:36.97Z</time></trkpt><trkpt lat="42.53539872380942" lon="12.029751656094339"><ele>585.6666666666666</ele><time>2026-04-25T09:49:38.97Z</time></trkpt><trkpt lat="42.53542965913955" lon="12.029856157990098"><ele>585.3333333333334</ele><time>2026-04-25T09:49:40.97Z</time></trkpt><trkpt lat="42.53544735931625" lon="12.029964652335714"><ele>585.0</ele><time>2026-04-25T09:49:42.97Z</time></trkpt><trkpt lat="42.535458386555824" lon="12.030084821832471"><ele>588.1666666666666</ele><time>2026-04-25T09:49:44.97Z</time></trkpt><trkpt lat="42.535481676685535" lon="12.030188210043857"><ele>591.3333333333334</ele><time>2026-04-25T09:49:46.97Z</time></trkpt><trkpt lat="42.53551454330381" lon="12.030282309990099"><ele>594.5</ele><time>2026-04-25T09:49:48.97Z</time></trkpt><trkpt lat="42.535546214121695" lon="12.030369774206033"><ele>597.6666666666667</ele><time>2026-04-25T09:49:50.97Z</time></trkpt><trkpt lat="42.535602049827304" lon="12.030432364803655"><ele>600.8333333333334</ele><time>2026-04-25T09:49:52.97Z</time></trkpt><trkpt lat="42.53565985020064" lon="12.030512074081836"><ele>604.0</ele><time>2026-04-25T09:49:54.969Z</time></trkpt><trkpt lat="42.53573193489096" lon="12.030530329610373"><ele>604.0</ele><time>2026-04-25T09:49:56.969Z</time></trkpt><trkpt lat="42.53581677487928" lon="12.030582673405807"><ele>604.0</ele><time>2026-04-25T09:49:58.969Z</time></trkpt><trkpt lat="42.53588972664413" lon="12.030642162489666"><ele>604.0</ele><time>2026-04-25T09:50:00.969Z</time></trkpt><trkpt lat="42.53597291565571" lon="12.030703459633543"><ele>604.0</ele><time>2026-04-25T09:50:02.969Z</time></trkpt><trkpt lat="42.53605478240159" lon="12.03076056511078"><ele>604.0</ele><time>2026-04-25T09:50:04.969Z</time></trkpt><trkpt lat="42.53613589683576" lon="12.030832489229459"><ele>604.2</ele><time>2026-04-25T09:50:06.969Z</time></trkpt><trkpt lat="42.536212615671545" lon="12.03091079019993"><ele>604.4</ele><time>2026-04-25T09:50:08.969Z</time></trkpt><trkpt lat="42.53630478029038" lon="12.0309535439254"><ele>604.6</ele><time>2026-04-25T09:50:10.969Z</time></trkpt><trkpt lat="42.53636583320241" lon="12.030983142177796"><ele>604.8</ele><time>2026-04-25T09:50:11.969Z</time></trkpt><trkpt lat="42.5364820815722" lon="12.03102042144269"><ele>605.0</ele><time>2026-04-25T09:50:13.969Z</time></trkpt><trkpt lat="42.536612474623645" lon="12.031059736210105"><ele>605.0</ele><time>2026-04-25T09:50:15.969Z</time></trkpt><trkpt lat="42.53667874681093" lon="12.031051815048365"><ele>605.0</ele><time>2026-04-25T09:50:16.969Z</time></trkpt><trkpt lat="42.53673424968527" lon="12.031004176014282"><ele>605.0</ele><time>2026-04-25T09:50:17.969Z</time></trkpt><trkpt lat="42.53680137443682" lon="12.030999461124912"><ele>605.0</ele><time>2026-04-25T09:50:18.969Z</time></trkpt><trkpt lat="42.53685939266729" lon="12.031034441734226"><ele>605.0</ele><time>2026-04-25T09:50:19.969Z</time></trkpt><trkpt lat="42.53693853770963" lon="12.031036406653723"><ele>605.0</ele><time>2026-04-25T09:50:20.969Z</time></trkpt><trkpt lat="42.53701536830994" lon="12.031065204038121"><ele>605.0</ele><time>2026-04-25T09:50:21.969Z</time></trkpt><trkpt lat="42.53708611889691" lon="12.031094060400724"><ele>604.4</ele><time>2026-04-25T09:50:22.969Z</time></trkpt><trkpt lat="42.53715592301332" lon="12.031124597319973"><ele>603.8</ele><time>2026-04-25T09:50:23.969Z</time></trkpt><trkpt lat="42.53722271624128" lon="12.031214827500264"><ele>603.2</ele><time>2026-04-25T09:50:24.969Z</time></trkpt><trkpt lat="42.53729180943597" lon="12.031331546096451"><ele>602.6</ele><time>2026-04-25T09:50:25.969Z</time></trkpt><trkpt lat="42.53735352635571" lon="12.031442278183198"><ele>602.0</ele><time>2026-04-25T09:50:26.968Z</time></trkpt><trkpt lat="42.5374195851679" lon="12.031542328422963"><ele>602.0</ele><time>2026-04-25T09:50:27.968Z</time></trkpt><trkpt lat="42.53748688783306" lon="12.031638467167003"><ele>602.0</ele><time>2026-04-25T09:50:28.968Z</time></trkpt><trkpt lat="42.537547350463754" lon="12.03176194944402"><ele>602.0</ele><time>2026-04-25T09:50:29.968Z</time></trkpt><trkpt lat="42.53759245231393" lon="12.0318825896843"><ele>602.0</ele><time>2026-04-25T09:50:30.968Z</time></trkpt><trkpt lat="42.53762103879303" lon="12.032018507273511"><ele>602.0</ele><time>2026-04-25T09:50:31.968Z</time></trkpt><trkpt lat="42.53763355242058" lon="12.032158328811411"><ele>599.0</ele><time>2026-04-25T09:50:32.968Z</time></trkpt><trkpt lat="42.537659077316434" lon="12.032295073696954"><ele>596.0</ele><time>2026-04-25T09:50:33.968Z</time></trkpt><trkpt lat="42.53768961300652" lon="12.03242987353206"><ele>593.0</ele><time>2026-04-25T09:50:34.968Z</time></trkpt><trkpt lat="42.53772224113044" lon="12.032550734760246"><ele>590.0</ele><time>2026-04-25T09:50:35.968Z</time></trkpt><trkpt lat="42.537776407161665" lon="12.03267399025617"><ele>587.0</ele><time>2026-04-25T09:50:36.968Z</time></trkpt><trkpt lat="42.53784968097678" lon="12.03277175805754"><ele>587.6</ele><time>2026-04-25T09:50:37.968Z</time></trkpt><trkpt lat="42.537932007617094" lon="12.032857602068576"><ele>588.2</ele><time>2026-04-25T09:50:38.968Z</time></trkpt><trkpt lat="42.53800908425658" lon="12.032939245029098"><ele>588.8</ele><time>2026-04-25T09:50:39.968Z</time></trkpt><trkpt lat="42.53809382208257" lon="12.033039741997095"><ele>589.4</ele><time>2026-04-25T09:50:40.968Z</time></trkpt><trkpt lat="42.538174775314246" lon="12.033114750489428"><ele>590.0</ele><time>2026-04-25T09:50:41.968Z</time></trkpt><trkpt lat="42.53825853747601" lon="12.033175914547977"><ele>590.0</ele><time>2026-04-25T09:50:42.968Z</time></trkpt><trkpt lat="42.53833492939039" lon="12.033242318446966"><ele>590.0</ele><time>2026-04-25T09:50:43.968Z</time></trkpt><trkpt lat="42.53841381288662" lon="12.03329012046778"><ele>590.0</ele><time>2026-04-25T09:50:44.97Z</time></trkpt><trkpt lat="42.538489803165525" lon="12.03334794436632"><ele>590.0</ele><time>2026-04-25T09:50:45.97Z</time></trkpt><trkpt lat="42.538561178661226" lon="12.033403645786208"><ele>590.0</ele><time>2026-04-25T09:50:46.97Z</time></trkpt><trkpt lat="42.5386397320685" lon="12.033455699729306"><ele>590.0</ele><time>2026-04-25T09:50:47.97Z</time></trkpt><trkpt lat="42.53870953685" lon="12.033497136198786"><ele>589.0000000000001</ele><time>2026-04-25T09:50:48.97Z</time></trkpt><trkpt lat="42.538781378050224" lon="12.033533637183385"><ele>588.0</ele><time>2026-04-25T09:50:49.97Z</time></trkpt><trkpt lat="42.53885368259006" lon="12.03356502050413"><ele>587.0</ele><time>2026-04-25T09:50:50.97Z</time></trkpt><trkpt lat="42.53892143581997" lon="12.033586438828404"><ele>586.0</ele><time>2026-04-25T09:50:51.97Z</time></trkpt><trkpt lat="42.53899233998238" lon="12.033604696048137"><ele>585.0</ele><time>2026-04-25T09:50:52.97Z</time></trkpt><trkpt lat="42.53905259522188" lon="12.033632538843941"><ele>584.0000000000001</ele><time>2026-04-25T09:50:53.97Z</time></trkpt><trkpt lat="42.53912967055463" lon="12.033648897827833"><ele>583.0</ele><time>2026-04-25T09:50:54.971Z</time></trkpt><trkpt lat="42.53919938217109" lon="12.033661852289342"><ele>583.0</ele><time>2026-04-25T09:50:55.971Z</time></trkpt><trkpt lat="42.53930738922212" lon="12.03370334288683"><ele>583.0</ele><time>2026-04-25T09:50:57.971Z</time></trkpt><trkpt lat="42.53938831743265" lon="12.033730603698533"><ele>583.0</ele><time>2026-04-25T09:50:59.971Z</time></trkpt><trkpt lat="42.53946986668648" lon="12.033757098971256"><ele>583.0</ele><time>2026-04-25T09:51:02.971Z</time></trkpt><trkpt lat="42.53953866336679" lon="12.033817890154925"><ele>583.0</ele><time>2026-04-25T09:51:06.971Z</time></trkpt><trkpt lat="42.53960858602622" lon="12.033831971001412"><ele>583.0</ele><time>2026-04-25T09:51:08.971Z</time></trkpt><trkpt lat="42.53967870121711" lon="12.03382255992816"><ele>582.2857142857143</ele><time>2026-04-25T09:51:10.971Z</time></trkpt><trkpt lat="42.53974155410197" lon="12.03381769805"><ele>581.5714285714286</ele><time>2026-04-25T09:51:12.971Z</time></trkpt><trkpt lat="42.539824157985066" lon="12.03379397428295"><ele>580.8571428571429</ele><time>2026-04-25T09:51:14.971Z</time></trkpt><trkpt lat="42.53990045587488" lon="12.033769354406925"><ele>580.1428571428571</ele><time>2026-04-25T09:51:16.97Z</time></trkpt><trkpt lat="42.539963863544266" lon="12.03374904036458"><ele>579.4285714285714</ele><time>2026-04-25T09:51:18.97Z</time></trkpt><trkpt lat="42.540032012409476" lon="12.033741009467393"><ele>578.7142857142858</ele><time>2026-04-25T09:51:20.97Z</time></trkpt><trkpt lat="42.54009551503461" lon="12.033663995124682"><ele>578.0</ele><time>2026-04-25T09:51:23.97Z</time></trkpt><trkpt lat="42.54016821099485" lon="12.03360623590986"><ele>578.0</ele><time>2026-04-25T09:51:26.97Z</time></trkpt><trkpt lat="42.54022795118012" lon="12.033549464602922"><ele>578.0</ele><time>2026-04-25T09:51:29.97Z</time></trkpt><trkpt lat="42.540278665630716" lon="12.033470400112169"><ele>578.0</ele><time>2026-04-25T09:51:32.97Z</time></trkpt><trkpt lat="42.5403492570464" lon="12.033412276367114"><ele>578.0</ele><time>2026-04-25T09:51:35.97Z</time></trkpt><trkpt lat="42.54044662725636" lon="12.033423585842089"><ele>578.0</ele><time>2026-04-25T09:51:38.97Z</time></trkpt><trkpt lat="42.54048806189661" lon="12.033532225674222"><ele>578.0</ele><time>2026-04-25T09:51:40.97Z</time></trkpt><trkpt lat="42.54046652604203" lon="12.033613573282162"><ele>578.0</ele><time>2026-04-25T09:51:42.97Z</time></trkpt><trkpt lat="42.54040894605444" lon="12.033669185680825"><ele>578.0</ele><time>2026-04-25T09:51:45.97Z</time></trkpt><trkpt lat="42.54035056553962" lon="12.03370415769814"><ele>578.0</ele><time>2026-04-25T09:51:49.97Z</time></trkpt><trkpt lat="42.540372652206024" lon="12.033788161968687"><ele>578.0</ele><time>2026-04-25T09:51:56.969Z</time></trkpt><trkpt lat="42.5404322492225" lon="12.033742972338414"><ele>578.0</ele><time>2026-04-25T09:52:01.969Z</time></trkpt><trkpt lat="42.54045865258414" lon="12.033663070100406"><ele>578.0</ele><time>2026-04-25T09:52:05.969Z</time></trkpt><trkpt lat="42.540472458291994" lon="12.033570552557366"><ele>578.0</ele><time>2026-04-25T09:52:08.969Z</time></trkpt><trkpt lat="42.54047669208455" lon="12.033479514088508"><ele>578.0</ele><time>2026-04-25T09:52:28.969Z</time></trkpt><trkpt lat="42.54043557813956" lon="12.033395398737724"><ele>578.0</ele><time>2026-04-25T09:52:34.968Z</time></trkpt><trkpt lat="42.54035910678327" lon="12.033457688916808"><ele>578.0</ele><time>2026-04-25T09:52:37.968Z</time></trkpt><trkpt lat="42.54028191894714" lon="12.033524333303836"><ele>578.0</ele><time>2026-04-25T09:52:40.968Z</time></trkpt><trkpt lat="42.5402069443838" lon="12.033534590097354"><ele>578.0</ele><time>2026-04-25T09:52:44.968Z</time></trkpt><trkpt lat="42.5401626168606" lon="12.033473367787845"><ele>578.0</ele><time>2026-04-25T09:52:47.968Z</time></trkpt><trkpt lat="42.54017157070826" lon="12.033383898249323"><ele>577.8333333333333</ele><time>2026-04-25T09:52:49.968Z</time></trkpt><trkpt lat="42.540207918532666" lon="12.033303696375867"><ele>577.6666666666666</ele><time>2026-04-25T09:52:52.97Z</time></trkpt><trkpt lat="42.54026470103915" lon="12.033235339027286"><ele>577.5</ele><time>2026-04-25T09:52:55.97Z</time></trkpt><trkpt lat="42.54033338064707" lon="12.03315495266803"><ele>577.3333333333334</ele><time>2026-04-25T09:52:58.97Z</time></trkpt><trkpt lat="42.540388786247256" lon="12.033084939877455"><ele>577.1666666666667</ele><time>2026-04-25T09:53:01.97Z</time></trkpt><trkpt lat="42.540450746091906" lon="12.0330369010936"><ele>577.0</ele><time>2026-04-25T09:53:05.97Z</time></trkpt><trkpt lat="42.540501717273045" lon="12.032958324226469"><ele>575.3333333333334</ele><time>2026-04-25T09:53:09.97Z</time></trkpt><trkpt lat="42.54056275134286" lon="12.032897028209103"><ele>573.6666666666667</ele><time>2026-04-25T09:53:13.97Z</time></trkpt><trkpt lat="42.54063473961572" lon="12.032849236494151"><ele>572.0</ele><time>2026-04-25T09:53:16.97Z</time></trkpt><trkpt lat="42.54071623097307" lon="12.032792404850065"><ele>570.3333333333334</ele><time>2026-04-25T09:53:19.97Z</time></trkpt><trkpt lat="42.54079403860563" lon="12.03274176758666"><ele>568.6666666666666</ele><time>2026-04-25T09:53:23.97Z</time></trkpt><trkpt lat="42.54086103878922" lon="12.032695442761788"><ele>567.0</ele><time>2026-04-25T09:53:25.97Z</time></trkpt><trkpt lat="42.54093120160129" lon="12.032639519568773"><ele>567.0</ele><time>2026-04-25T09:53:27.969Z</time></trkpt><trkpt lat="42.54100650262997" lon="12.032595236000379"><ele>567.0</ele><time>2026-04-25T09:53:29.969Z</time></trkpt><trkpt lat="42.54107737165321" lon="12.032547909636612"><ele>567.0</ele><time>2026-04-25T09:53:31.969Z</time></trkpt><trkpt lat="42.54115599355343" lon="12.032499745410933"><ele>567.0</ele><time>2026-04-25T09:53:33.969Z</time></trkpt><trkpt lat="42.5412298426832" lon="12.032438631605824"><ele>567.0</ele><time>2026-04-25T09:53:35.969Z</time></trkpt><trkpt lat="42.54128104911911" lon="12.03235628314704"><ele>567.0</ele><time>2026-04-25T09:53:37.969Z</time></trkpt><trkpt lat="42.54136134899069" lon="12.032323254632423"><ele>567.2857142857143</ele><time>2026-04-25T09:53:39.969Z</time></trkpt><trkpt lat="42.541432000206456" lon="12.032288049522991"><ele>567.5714285714286</ele><time>2026-04-25T09:53:41.969Z</time></trkpt><trkpt lat="42.54149890328418" lon="12.032233167478056"><ele>567.8571428571429</ele><time>2026-04-25T09:53:43.969Z</time></trkpt><trkpt lat="42.54156416631996" lon="12.032183006825653"><ele>568.1428571428571</ele><time>2026-04-25T09:53:45.969Z</time></trkpt><trkpt lat="42.54162233698178" lon="12.032120778208457"><ele>568.4285714285714</ele><time>2026-04-25T09:53:47.969Z</time></trkpt><trkpt lat="42.541674047553826" lon="12.03206505087288"><ele>568.7142857142858</ele><time>2026-04-25T09:53:49.969Z</time></trkpt><trkpt lat="42.541738471479796" lon="12.032000410011621"><ele>569.0</ele><time>2026-04-25T09:53:51.969Z</time></trkpt><trkpt lat="42.54178795798343" lon="12.031940081698886"><ele>569.0000000000001</ele><time>2026-04-25T09:53:53.969Z</time></trkpt><trkpt lat="42.54184636274757" lon="12.031891241171948"><ele>569.0</ele><time>2026-04-25T09:53:55.969Z</time></trkpt><trkpt lat="42.54190592162011" lon="12.031843593588244"><ele>569.0</ele><time>2026-04-25T09:53:57.969Z</time></trkpt><trkpt lat="42.54196748738552" lon="12.031792612433051"><ele>569.0</ele><time>2026-04-25T09:53:59.969Z</time></trkpt><trkpt lat="42.54203147511647" lon="12.031761591004635"><ele>569.0</ele><time>2026-04-25T09:54:01.969Z</time></trkpt><trkpt lat="42.542109964724226" lon="12.031746284197052"><ele>569.0000000000001</ele><time>2026-04-25T09:54:03.968Z</time></trkpt><trkpt lat="42.54219859282183" lon="12.031722424716582"><ele>569.0</ele><time>2026-04-25T09:54:05.968Z</time></trkpt><trkpt lat="42.54228208187147" lon="12.031688431906282"><ele>569.2</ele><time>2026-04-25T09:54:07.968Z</time></trkpt><trkpt lat="42.542368412819584" lon="12.03167010948504"><ele>569.4</ele><time>2026-04-25T09:54:09.968Z</time></trkpt><trkpt lat="42.54246285229834" lon="12.031655794496857"><ele>569.6</ele><time>2026-04-25T09:54:11.968Z</time></trkpt><trkpt lat="42.54255435685626" lon="12.031628568883605"><ele>569.8</ele><time>2026-04-25T09:54:13.968Z</time></trkpt><trkpt lat="42.54266922661195" lon="12.031635663541593"><ele>570.0</ele><time>2026-04-25T09:54:15.968Z</time></trkpt><trkpt lat="42.54277603061462" lon="12.031619609666436"><ele>570.0</ele><time>2026-04-25T09:54:17.968Z</time></trkpt><trkpt lat="42.542893774436266" lon="12.031600028297284"><ele>570.0</ele><time>2026-04-25T09:54:19.968Z</time></trkpt><trkpt lat="42.54301900339697" lon="12.031546706103477"><ele>570.0</ele><time>2026-04-25T09:54:21.968Z</time></trkpt><trkpt lat="42.543086348590485" lon="12.031554364802552"><ele>570.0</ele><time>2026-04-25T09:54:22.968Z</time></trkpt><trkpt lat="42.54315046062159" lon="12.03153893672806"><ele>570.0</ele><time>2026-04-25T09:54:23.968Z</time></trkpt><trkpt lat="42.54326962698309" lon="12.031476916161756"><ele>570.0</ele><time>2026-04-25T09:54:25.968Z</time></trkpt><trkpt lat="42.54334008776219" lon="12.03145603245863"><ele>570.0</ele><time>2026-04-25T09:54:26.968Z</time></trkpt><trkpt lat="42.543403427949286" lon="12.031438150758355"><ele>570.0</ele><time>2026-04-25T09:54:27.968Z</time></trkpt><trkpt lat="42.543478919168386" lon="12.03142278879699"><ele>570.0</ele><time>2026-04-25T09:54:28.968Z</time></trkpt><trkpt lat="42.54355566099301" lon="12.031393873243502"><ele>570.0</ele><time>2026-04-25T09:54:29.968Z</time></trkpt><trkpt lat="42.54361539767669" lon="12.031365182603293"><ele>570.0</ele><time>2026-04-25T09:54:30.968Z</time></trkpt><trkpt lat="42.543684603105945" lon="12.03133853680821"><ele>570.0</ele><time>2026-04-25T09:54:31.968Z</time></trkpt><trkpt lat="42.54374961820384" lon="12.031330886126346"><ele>569.3333333333334</ele><time>2026-04-25T09:54:32.968Z</time></trkpt><trkpt lat="42.54382297442573" lon="12.031318829147324"><ele>568.6666666666666</ele><time>2026-04-25T09:54:33.968Z</time></trkpt><trkpt lat="42.54389944983668" lon="12.031309431757812"><ele>568.0</ele><time>2026-04-25T09:54:34.968Z</time></trkpt><trkpt lat="42.54396249361192" lon="12.031288504267295"><ele>567.3333333333333</ele><time>2026-04-25T09:54:35.968Z</time></trkpt><trkpt lat="42.54402515598916" lon="12.031267660934118"><ele>566.6666666666666</ele><time>2026-04-25T09:54:36.968Z</time></trkpt><trkpt lat="42.54408995562782" lon="12.031263966315226"><ele>566.0</ele><time>2026-04-25T09:54:37.968Z</time></trkpt><trkpt lat="42.54421141041463" lon="12.031232799917326"><ele>566.0</ele><time>2026-04-25T09:54:39.968Z</time></trkpt><trkpt lat="42.54427982996658" lon="12.03122056976451"><ele>566.0</ele><time>2026-04-25T09:54:40.968Z</time></trkpt><trkpt lat="42.54434345968816" lon="12.031224693489408"><ele>566.0</ele><time>2026-04-25T09:54:41.967Z</time></trkpt><trkpt lat="42.54446145009545" lon="12.031226805271324"><ele>566.0</ele><time>2026-04-25T09:54:43.967Z</time></trkpt><trkpt lat="42.54458446650368" lon="12.031206440096359"><ele>566.0</ele><time>2026-04-25T09:54:45.967Z</time></trkpt><trkpt lat="42.54468946850642" lon="12.031180862531576"><ele>565.6666666666666</ele><time>2026-04-25T09:54:47.967Z</time></trkpt><trkpt lat="42.54480407869958" lon="12.031136928141862"><ele>565.3333333333333</ele><time>2026-04-25T09:54:49.967Z</time></trkpt><trkpt lat="42.54492268643112" lon="12.031101592997128"><ele>565.0</ele><time>2026-04-25T09:54:51.967Z</time></trkpt><trkpt lat="42.544987492299946" lon="12.031076705819371"><ele>564.6666666666666</ele><time>2026-04-25T09:54:52.967Z</time></trkpt><trkpt lat="42.5450511893622" lon="12.03105858626839"><ele>564.3333333333334</ele><time>2026-04-25T09:54:53.967Z</time></trkpt><trkpt lat="42.54511212949216" lon="12.031025051887688"><ele>564.0</ele><time>2026-04-25T09:54:54.967Z</time></trkpt><trkpt lat="42.54522657223187" lon="12.030958385952127"><ele>564.0</ele><time>2026-04-25T09:54:56.97Z</time></trkpt><trkpt lat="42.54534599908748" lon="12.030973161862072"><ele>564.0</ele><time>2026-04-25T09:54:58.969Z</time></trkpt><trkpt lat="42.54540473391745" lon="12.031041931773046"><ele>564.0</ele><time>2026-04-25T09:54:59.969Z</time></trkpt><trkpt lat="42.54544450268761" lon="12.031127224725957"><ele>564.0</ele><time>2026-04-25T09:55:00.969Z</time></trkpt><trkpt lat="42.54546032046361" lon="12.031213241646974"><ele>564.0</ele><time>2026-04-25T09:55:01.969Z</time></trkpt><trkpt lat="42.545463571120976" lon="12.031306475840063"><ele>564.0</ele><time>2026-04-25T09:55:02.969Z</time></trkpt><trkpt lat="42.54548876199043" lon="12.031454648729484"><ele>563.4</ele><time>2026-04-25T09:55:04.97Z</time></trkpt><trkpt lat="42.54551352134769" lon="12.031535502042006"><ele>562.8</ele><time>2026-04-25T09:55:05.97Z</time></trkpt><trkpt lat="42.54553614632684" lon="12.031711805337595"><ele>562.2</ele><time>2026-04-25T09:55:07.969Z</time></trkpt><trkpt lat="42.54557732296743" lon="12.031876085980683"><ele>561.6</ele><time>2026-04-25T09:55:09.969Z</time></trkpt><trkpt lat="42.545591680879575" lon="12.031960501978533"><ele>561.0</ele><time>2026-04-25T09:55:10.969Z</time></trkpt><trkpt lat="42.54560527399571" lon="12.032047378684656"><ele>560.8333333333334</ele><time>2026-04-25T09:55:11.969Z</time></trkpt><trkpt lat="42.545619904740484" lon="12.03213230739179"><ele>560.6666666666666</ele><time>2026-04-25T09:55:12.969Z</time></trkpt><trkpt lat="42.54564341312271" lon="12.03222166728284"><ele>560.5</ele><time>2026-04-25T09:55:13.969Z</time></trkpt><trkpt lat="42.5456855174304" lon="12.03239436489597"><ele>560.3333333333333</ele><time>2026-04-25T09:55:15.969Z</time></trkpt><trkpt lat="42.545705377623754" lon="12.03248874574387"><ele>560.1666666666666</ele><time>2026-04-25T09:55:16.969Z</time></trkpt><trkpt lat="42.545723881108785" lon="12.032576783405748"><ele>560.0</ele><time>2026-04-25T09:55:17.969Z</time></trkpt><trkpt lat="42.545735853652204" lon="12.032668849501396"><ele>559.8333333333333</ele><time>2026-04-25T09:55:18.969Z</time></trkpt><trkpt lat="42.54575553968232" lon="12.032761296958494"><ele>559.6666666666666</ele><time>2026-04-25T09:55:19.969Z</time></trkpt><trkpt lat="42.54577416961563" lon="12.032858455318289"><ele>559.5</ele><time>2026-04-25T09:55:20.969Z</time></trkpt><trkpt lat="42.54579192918669" lon="12.032962386577049"><ele>559.3333333333334</ele><time>2026-04-25T09:55:21.969Z</time></trkpt><trkpt lat="42.54581148581638" lon="12.033056241201527"><ele>559.1666666666667</ele><time>2026-04-25T09:55:22.969Z</time></trkpt><trkpt lat="42.54583217180899" lon="12.033160748634831"><ele>559.0</ele><time>2026-04-25T09:55:23.969Z</time></trkpt><trkpt lat="42.54585412445531" lon="12.033257804628322"><ele>559.0</ele><time>2026-04-25T09:55:24.969Z</time></trkpt><trkpt lat="42.5458708447899" lon="12.033357980382188"><ele>559.0</ele><time>2026-04-25T09:55:25.969Z</time></trkpt><trkpt lat="42.54589488300461" lon="12.033457589507266"><ele>559.0</ele><time>2026-04-25T09:55:26.969Z</time></trkpt><trkpt lat="42.545921272089615" lon="12.033560293321573"><ele>559.0</ele><time>2026-04-25T09:55:27.969Z</time></trkpt><trkpt lat="42.545941861604895" lon="12.033662216410075"><ele>559.0</ele><time>2026-04-25T09:55:28.969Z</time></trkpt><trkpt lat="42.54597026937799" lon="12.033757017815846"><ele>559.0</ele><time>2026-04-25T09:55:29.969Z</time></trkpt><trkpt lat="42.54599578668651" lon="12.033859463193062"><ele>559.0</ele><time>2026-04-25T09:55:30.969Z</time></trkpt><trkpt lat="42.54602402634953" lon="12.033961171179959"><ele>559.0</ele><time>2026-04-25T09:55:31.969Z</time></trkpt><trkpt lat="42.546046542853915" lon="12.034059323375093"><ele>559.0</ele><time>2026-04-25T09:55:32.969Z</time></trkpt><trkpt lat="42.546070152836755" lon="12.034148247079882"><ele>559.0</ele><time>2026-04-25T09:55:33.969Z</time></trkpt><trkpt lat="42.54611790287863" lon="12.034309360489459"><ele>559.0</ele><time>2026-04-25T09:55:35.968Z</time></trkpt><trkpt lat="42.54614272461036" lon="12.034468211730712"><ele>558.8</ele><time>2026-04-25T09:55:37.968Z</time></trkpt><trkpt lat="42.54607602593835" lon="12.034604948418188"><ele>558.5999999999999</ele><time>2026-04-25T09:55:39.968Z</time></trkpt><trkpt lat="42.54597958963614" lon="12.034687734072692"><ele>558.4</ele><time>2026-04-25T09:55:41.968Z</time></trkpt><trkpt lat="42.54591495139165" lon="12.034699155990621"><ele>558.1999999999999</ele><time>2026-04-25T09:55:42.968Z</time></trkpt><trkpt lat="42.545810987190904" lon="12.034740222474133"><ele>558.0</ele><time>2026-04-25T09:55:44.968Z</time></trkpt><trkpt lat="42.545742124438" lon="12.034757182293621"><ele>558.0</ele><time>2026-04-25T09:55:45.968Z</time></trkpt><trkpt lat="42.54568217139207" lon="12.034791346898961"><ele>558.0</ele><time>2026-04-25T09:55:46.968Z</time></trkpt><trkpt lat="42.5456169172918" lon="12.034804664702605"><ele>558.0</ele><time>2026-04-25T09:55:47.968Z</time></trkpt><trkpt lat="42.54553845144039" lon="12.034830252961665"><ele>558.0</ele><time>2026-04-25T09:55:48.968Z</time></trkpt><trkpt lat="42.54546816557997" lon="12.034867966277082"><ele>558.0</ele><time>2026-04-25T09:55:49.968Z</time></trkpt><trkpt lat="42.54539374989928" lon="12.034892022486565"><ele>558.0</ele><time>2026-04-25T09:55:50.968Z</time></trkpt><trkpt lat="42.5453067505426" lon="12.034915525975151"><ele>557.6</ele><time>2026-04-25T09:55:51.968Z</time></trkpt><trkpt lat="42.5452144558511" lon="12.034952616306347"><ele>557.1999999999999</ele><time>2026-04-25T09:55:52.968Z</time></trkpt><trkpt lat="42.54512042470313" lon="12.034986958506147"><ele>556.8</ele><time>2026-04-25T09:55:53.968Z</time></trkpt><trkpt lat="42.54502157298593" lon="12.035027198530559"><ele>556.4</ele><time>2026-04-25T09:55:54.968Z</time></trkpt><trkpt lat="42.54491861201375" lon="12.03507059771823"><ele>556.0</ele><time>2026-04-25T09:55:55.968Z</time></trkpt><trkpt lat="42.54482264917331" lon="12.035106860674684"><ele>554.2</ele><time>2026-04-25T09:55:56.968Z</time></trkpt><trkpt lat="42.54471462222359" lon="12.035149744511147"><ele>552.4000000000001</ele><time>2026-04-25T09:55:57.968Z</time></trkpt><trkpt lat="42.544613368617725" lon="12.03518847540693"><ele>550.6</ele><time>2026-04-25T09:55:58.968Z</time></trkpt><trkpt lat="42.54451280407479" lon="12.035225609737042"><ele>548.8000000000001</ele><time>2026-04-25T09:55:59.968Z</time></trkpt><trkpt lat="42.54440936060077" lon="12.035265953057118"><ele>547.0</ele><time>2026-04-25T09:56:00.968Z</time></trkpt><trkpt lat="42.54432444637691" lon="12.035288167793087"><ele>546.0</ele><time>2026-04-25T09:56:01.968Z</time></trkpt><trkpt lat="42.54422634742856" lon="12.035312281717903"><ele>545.0</ele><time>2026-04-25T09:56:02.968Z</time></trkpt><trkpt lat="42.54413532476871" lon="12.035331951096499"><ele>544.0</ele><time>2026-04-25T09:56:03.968Z</time></trkpt><trkpt lat="42.54404877505573" lon="12.035357962215258"><ele>543.0</ele><time>2026-04-25T09:56:04.968Z</time></trkpt><trkpt lat="42.54396607437956" lon="12.03538988607997"><ele>542.0</ele><time>2026-04-25T09:56:05.968Z</time></trkpt><trkpt lat="42.54388104670753" lon="12.03540974136753"><ele>542.0</ele><time>2026-04-25T09:56:06.968Z</time></trkpt><trkpt lat="42.543802402929956" lon="12.035427055694749"><ele>542.0</ele><time>2026-04-25T09:56:07.968Z</time></trkpt><trkpt lat="42.543724932574214" lon="12.035458631674658"><ele>542.0</ele><time>2026-04-25T09:56:08.968Z</time></trkpt><trkpt lat="42.54364977446489" lon="12.035480575367576"><ele>542.0</ele><time>2026-04-25T09:56:09.968Z</time></trkpt><trkpt lat="42.543579522965366" lon="12.035497648163744"><ele>542.0</ele><time>2026-04-25T09:56:10.968Z</time></trkpt><trkpt lat="42.543508222304176" lon="12.03551119402022"><ele>542.0</ele><time>2026-04-25T09:56:11.968Z</time></trkpt><trkpt lat="42.54343987410129" lon="12.03552133468723"><ele>542.2857142857142</ele><time>2026-04-25T09:56:12.968Z</time></trkpt><trkpt lat="42.54336407693265" lon="12.035525228791162"><ele>542.5714285714286</ele><time>2026-04-25T09:56:13.967Z</time></trkpt><trkpt lat="42.54329360041219" lon="12.03553514303688"><ele>542.8571428571429</ele><time>2026-04-25T09:56:14.967Z</time></trkpt><trkpt lat="42.543227993014305" lon="12.035552586624698"><ele>543.1428571428571</ele><time>2026-04-25T09:56:15.967Z</time></trkpt><trkpt lat="42.543152285145865" lon="12.035571462053063"><ele>543.4285714285714</ele><time>2026-04-25T09:56:16.967Z</time></trkpt><trkpt lat="42.54307997508287" lon="12.035579124058673"><ele>543.7142857142857</ele><time>2026-04-25T09:56:17.967Z</time></trkpt><trkpt lat="42.54301111883702" lon="12.035586018872399"><ele>544.0</ele><time>2026-04-25T09:56:18.967Z</time></trkpt><trkpt lat="42.542940869320496" lon="12.035592241745373"><ele>544.2857142857142</ele><time>2026-04-25T09:56:19.967Z</time></trkpt><trkpt lat="42.54287186499494" lon="12.035594309204713"><ele>544.5714285714286</ele><time>2026-04-25T09:56:20.967Z</time></trkpt><trkpt lat="42.54280337097436" lon="12.03559818590864"><ele>544.8571428571429</ele><time>2026-04-25T09:56:21.967Z</time></trkpt><trkpt lat="42.542731108986345" lon="12.035597779481735"><ele>545.1428571428571</ele><time>2026-04-25T09:56:22.967Z</time></trkpt><trkpt lat="42.54265854025154" lon="12.035597703179363"><ele>545.4285714285714</ele><time>2026-04-25T09:56:23.967Z</time></trkpt><trkpt lat="42.542583269790725" lon="12.03560384487407"><ele>545.7142857142857</ele><time>2026-04-25T09:56:24.967Z</time></trkpt><trkpt lat="42.542512983913824" lon="12.035603663482691"><ele>546.0</ele><time>2026-04-25T09:56:25.967Z</time></trkpt><trkpt lat="42.54243790772268" lon="12.035604914104512"><ele>546.0</ele><time>2026-04-25T09:56:26.967Z</time></trkpt><trkpt lat="42.54237325956342" lon="12.035611047797145"><ele>546.0</ele><time>2026-04-25T09:56:27.967Z</time></trkpt><trkpt lat="42.54230782846098" lon="12.03562122086791"><ele>546.0</ele><time>2026-04-25T09:56:28.967Z</time></trkpt><trkpt lat="42.542182459589895" lon="12.035626663310568"><ele>546.0</ele><time>2026-04-25T09:56:30.967Z</time></trkpt><trkpt lat="42.54209951756755" lon="12.035652520429611"><ele>546.0</ele><time>2026-04-25T09:56:32.967Z</time></trkpt><trkpt lat="42.54207147944801" lon="12.035746559344423"><ele>546.0</ele><time>2026-04-25T09:56:35.967Z</time></trkpt><trkpt lat="42.5421097664627" lon="12.035856959788566"><ele>544.5</ele><time>2026-04-25T09:56:38.967Z</time></trkpt><trkpt lat="42.542173020907434" lon="12.035948088795212"><ele>543.0</ele><time>2026-04-25T09:56:40.967Z</time></trkpt><trkpt lat="42.54224461927128" lon="12.036063361289845"><ele>541.5</ele><time>2026-04-25T09:56:42.967Z</time></trkpt><trkpt lat="42.542274226724224" lon="12.03614350390082"><ele>540.0</ele><time>2026-04-25T09:56:43.967Z</time></trkpt><trkpt lat="42.54232577658255" lon="12.03620113745904"><ele>538.5</ele><time>2026-04-25T09:56:44.967Z</time></trkpt><trkpt lat="42.542373900159106" lon="12.03625658825227"><ele>537.0</ele><time>2026-04-25T09:56:45.967Z</time></trkpt><trkpt lat="42.54242749078229" lon="12.036311493619"><ele>537.0</ele><time>2026-04-25T09:56:46.967Z</time></trkpt><trkpt lat="42.542480008003245" lon="12.036372815038595"><ele>537.0</ele><time>2026-04-25T09:56:47.967Z</time></trkpt><trkpt lat="42.54253061146009" lon="12.036436584781402"><ele>537.0</ele><time>2026-04-25T09:56:48.967Z</time></trkpt><trkpt lat="42.54255538310451" lon="12.036519178650993"><ele>537.0</ele><time>2026-04-25T09:56:49.967Z</time></trkpt><trkpt lat="42.5426036331206" lon="12.036609694212279"><ele>537.0</ele><time>2026-04-25T09:56:51.966Z</time></trkpt><trkpt lat="42.54267988528785" lon="12.036668720150823"><ele>537.0</ele><time>2026-04-25T09:56:53.966Z</time></trkpt><trkpt lat="42.542741670596364" lon="12.036794248123496"><ele>537.0</ele><time>2026-04-25T09:56:55.966Z</time></trkpt><trkpt lat="42.54279964390231" lon="12.036938090476713"><ele>537.0</ele><time>2026-04-25T09:56:57.966Z</time></trkpt><trkpt lat="42.54286587346008" lon="12.037071636204542"><ele>537.0</ele><time>2026-04-25T09:56:59.966Z</time></trkpt><trkpt lat="42.54291997215215" lon="12.037216610864425"><ele>537.0</ele><time>2026-04-25T09:57:01.966Z</time></trkpt><trkpt lat="42.54293972180754" lon="12.037303848517341"><ele>537.0</ele><time>2026-04-25T09:57:02.969Z</time></trkpt><trkpt lat="42.54298788691115" lon="12.037443255667538"><ele>536.25</ele><time>2026-04-25T09:57:04.969Z</time></trkpt><trkpt lat="42.543042008106035" lon="12.03758884636007"><ele>535.5</ele><time>2026-04-25T09:57:06.969Z</time></trkpt><trkpt lat="42.54311460768818" lon="12.037723987176038"><ele>534.75</ele><time>2026-04-25T09:57:08.969Z</time></trkpt><trkpt lat="42.54319414070611" lon="12.037869663912941"><ele>534.0</ele><time>2026-04-25T09:57:10.968Z</time></trkpt><trkpt lat="42.5432702814894" lon="12.038014850734076"><ele>534.0</ele><time>2026-04-25T09:57:12.969Z</time></trkpt><trkpt lat="42.54334905656378" lon="12.038060512343302"><ele>534.0</ele><time>2026-04-25T09:57:13.969Z</time></trkpt><trkpt lat="42.543416164320334" lon="12.03811758134419"><ele>534.0</ele><time>2026-04-25T09:57:14.968Z</time></trkpt><trkpt lat="42.543492112563094" lon="12.03816185061657"><ele>534.0</ele><time>2026-04-25T09:57:15.968Z</time></trkpt><trkpt lat="42.543565278432986" lon="12.038212996298913"><ele>534.0</ele><time>2026-04-25T09:57:16.968Z</time></trkpt><trkpt lat="42.543643779985615" lon="12.038247369608454"><ele>534.0</ele><time>2026-04-25T09:57:17.968Z</time></trkpt><trkpt lat="42.54370315579718" lon="12.038278650198711"><ele>533.0</ele><time>2026-04-25T09:57:18.968Z</time></trkpt><trkpt lat="42.543794808904174" lon="12.038341909311516"><ele>532.0</ele><time>2026-04-25T09:57:20.968Z</time></trkpt><trkpt lat="42.54373968679741" lon="12.038546822158006"><ele>531.0</ele><time>2026-04-25T09:57:23.968Z</time></trkpt><trkpt lat="42.54371711516152" lon="12.03867430165521"><ele>530.0</ele><time>2026-04-25T09:57:25.968Z</time></trkpt><trkpt lat="42.543693209874235" lon="12.038804300109385"><ele>530.0</ele><time>2026-04-25T09:57:27.968Z</time></trkpt><trkpt lat="42.543677678585055" lon="12.038889860875122"><ele>530.0</ele><time>2026-04-25T09:57:31.968Z</time></trkpt></trkseg></trk></gpx>